<?xml version='1.0' encoding='UTF-8'?><gpx version="1.1" creator="JPX - https://github.com/jenetics/jpx" xmlns="http://www.topografix.com/GPX/1/1"><trk><trkseg><trkpt lat="37.11350804507718" lon="13.982208549626652"><ele>17.0</ele><time>2026-05-03T07:42:16.998Z</time></trkpt><trkpt lat="37.11359406379113" lon="13.982160140562954"><ele>17.0</ele><time>2026-05-03T07:42:18.998Z</time></trkpt><trkpt lat="37.11365153431937" lon="13.982127879395724"><ele>17.0</ele><time>2026-05-03T07:42:19.999Z</time></trkpt><trkpt lat="37.113723717816825" lon="13.982082511912033"><ele>17.0</ele><time>2026-05-03T07:42:20.999Z</time></trkpt><trkpt lat="37.11379926562908" lon="13.982036390450306"><ele>17.0</ele><time>2026-05-03T07:42:21.999Z</time></trkpt><trkpt lat="37.113860131929734" lon="13.981984475415029"><ele>17.0</ele><time>2026-05-03T07:42:22.999Z</time></trkpt><trkpt lat="37.11391736381309" lon="13.981944080967718"><ele>17.0</ele><time>2026-05-03T07:42:23.999Z</time></trkpt><trkpt lat="37.11397377621609" lon="13.98190390745851"><ele>17.0</ele><time>2026-05-03T07:42:24.999Z</time></trkpt><trkpt lat="37.11402939808332" lon="13.981865615420258"><ele>17.0</ele><time>2026-05-03T07:42:25.999Z</time></trkpt><trkpt lat="37.11413276889349" lon="13.98179395970641"><ele>17.0</ele><time>2026-05-03T07:42:27.999Z</time></trkpt><trkpt lat="37.11424224091703" lon="13.981738918356589"><ele>17.0</ele><time>2026-05-03T07:42:29.999Z</time></trkpt><trkpt lat="37.11430546597006" lon="13.981694905927371"><ele>17.0</ele><time>2026-05-03T07:42:31.999Z</time></trkpt><trkpt lat="37.114370571282706" lon="13.981649584610228"><ele>17.833333333333336</ele><time>2026-05-03T07:42:33.999Z</time></trkpt><trkpt lat="37.11442900814058" lon="13.98158732039109"><ele>18.666666666666668</ele><time>2026-05-03T07:42:35.999Z</time></trkpt><trkpt lat="37.11435537062872" lon="13.981612486919483"><ele>19.5</ele><time>2026-05-03T07:42:49.999Z</time></trkpt><trkpt lat="37.11430188188401" lon="13.981655227714528"><ele>20.333333333333332</ele><time>2026-05-03T07:42:51.999Z</time></trkpt><trkpt lat="37.11423658800384" lon="13.981707330750734"><ele>21.166666666666664</ele><time>2026-05-03T07:42:53.999Z</time></trkpt><trkpt lat="37.114166231539144" lon="13.981755993979315"><ele>22.0</ele><time>2026-05-03T07:42:55.999Z</time></trkpt><trkpt lat="37.11409228391866" lon="13.98180857166713"><ele>21.166666666666664</ele><time>2026-05-03T07:42:58.999Z</time></trkpt><trkpt lat="37.114009808430296" lon="13.981854426078844"><ele>20.333333333333332</ele><time>2026-05-03T07:43:02.999Z</time></trkpt><trkpt lat="37.113954288828644" lon="13.981896413751349"><ele>19.5</ele><time>2026-05-03T07:43:04.999Z</time></trkpt><trkpt lat="37.11387125768763" lon="13.981956228287391"><ele>18.666666666666668</ele><time>2026-05-03T07:43:06.999Z</time></trkpt><trkpt lat="37.11378811136186" lon="13.982018624135302"><ele>17.833333333333336</ele><time>2026-05-03T07:43:08.999Z</time></trkpt><trkpt lat="37.113712880791" lon="13.98207459829454"><ele>17.0</ele><time>2026-05-03T07:43:10.999Z</time></trkpt><trkpt lat="37.11362552701682" lon="13.982127331789021"><ele>17.0</ele><time>2026-05-03T07:43:12.999Z</time></trkpt><trkpt lat="37.11354893914679" lon="13.982174084919336"><ele>17.0</ele><time>2026-05-03T07:43:14.999Z</time></trkpt><trkpt lat="37.11348770705665" lon="13.982230715340714"><ele>17.0</ele><time>2026-05-03T07:43:17.999Z</time></trkpt><trkpt lat="37.11355062437632" lon="13.98218196035151"><ele>17.0</ele><time>2026-05-03T07:43:23.999Z</time></trkpt><trkpt lat="37.11339565140574" lon="13.982372575973773"><ele>17.0</ele><time>2026-05-03T07:43:24.999Z</time></trkpt><trkpt lat="37.113702592044824" lon="13.982079065440224"><ele>17.0</ele><time>2026-05-03T07:43:25.999Z</time></trkpt><trkpt lat="37.11378583220189" lon="13.98202422489117"><ele>17.0</ele><time>2026-05-03T07:43:26.999Z</time></trkpt><trkpt lat="37.113878157603914" lon="13.981967440329564"><ele>17.0</ele><time>2026-05-03T07:43:27.999Z</time></trkpt><trkpt lat="37.11398651525079" lon="13.981892510505086"><ele>17.0</ele><time>2026-05-03T07:43:28.999Z</time></trkpt><trkpt lat="37.114105125519295" lon="13.981806216518825"><ele>17.0</ele><time>2026-05-03T07:43:29.999Z</time></trkpt><trkpt lat="37.11420253594894" lon="13.981729515478953"><ele>18.8</ele><time>2026-05-03T07:43:30.999Z</time></trkpt><trkpt lat="37.11431360380413" lon="13.981669204737608"><ele>20.6</ele><time>2026-05-03T07:43:31.999Z</time></trkpt><trkpt lat="37.1144067758089" lon="13.981600967383372"><ele>22.400000000000002</ele><time>2026-05-03T07:43:32.999Z</time></trkpt><trkpt lat="37.114494423590386" lon="13.981539946994532"><ele>24.2</ele><time>2026-05-03T07:43:33.999Z</time></trkpt><trkpt lat="37.114576789694055" lon="13.98146493990858"><ele>26.0</ele><time>2026-05-03T07:43:34.999Z</time></trkpt><trkpt lat="37.11465128021066" lon="13.981367109052625"><ele>26.0</ele><time>2026-05-03T07:43:35.999Z</time></trkpt><trkpt lat="37.114711409998144" lon="13.981216205806502"><ele>26.0</ele><time>2026-05-03T07:43:36.999Z</time></trkpt><trkpt lat="37.1147700220151" lon="13.98106416750492"><ele>26.0</ele><time>2026-05-03T07:43:37.999Z</time></trkpt><trkpt lat="37.11485097796926" lon="13.980932500788821"><ele>26.0</ele><time>2026-05-03T07:43:38.999Z</time></trkpt><trkpt lat="37.11491711839876" lon="13.98079842870468"><ele>30.0</ele><time>2026-05-03T07:43:39.999Z</time></trkpt><trkpt lat="37.11498485344786" lon="13.980657732979038"><ele>34.0</ele><time>2026-05-03T07:43:40.999Z</time></trkpt><trkpt lat="37.115052944521295" lon="13.980521287550685"><ele>38.0</ele><time>2026-05-03T07:43:41.999Z</time></trkpt><trkpt lat="37.115118958062865" lon="13.980393770806034"><ele>42.0</ele><time>2026-05-03T07:43:42.999Z</time></trkpt><trkpt lat="37.115183424838214" lon="13.980271184913235"><ele>42.0</ele><time>2026-05-03T07:43:43.999Z</time></trkpt><trkpt lat="37.11524309968795" lon="13.980142678502913"><ele>42.0</ele><time>2026-05-03T07:43:44.999Z</time></trkpt><trkpt lat="37.115292019128766" lon="13.980027108814035"><ele>42.0</ele><time>2026-05-03T07:43:45.999Z</time></trkpt><trkpt lat="37.1153246547181" lon="13.979918268517864"><ele>42.0</ele><time>2026-05-03T07:43:46.999Z</time></trkpt><trkpt lat="37.11537108353886" lon="13.979833629163084"><ele>42.0</ele><time>2026-05-03T07:43:47.999Z</time></trkpt><trkpt lat="37.11530159455071" lon="13.979726619034038"><ele>44.75</ele><time>2026-05-03T07:43:48.998Z</time></trkpt><trkpt lat="37.11551970910034" lon="13.979788684333577"><ele>47.5</ele><time>2026-05-03T07:43:50Z</time></trkpt><trkpt lat="37.115609833214194" lon="13.979752477556833"><ele>50.25</ele><time>2026-05-03T07:43:51Z</time></trkpt><trkpt lat="37.115703477157375" lon="13.979728069554557"><ele>53.0</ele><time>2026-05-03T07:43:52Z</time></trkpt><trkpt lat="37.115809824559875" lon="13.97972008721645"><ele>55.0</ele><time>2026-05-03T07:43:53Z</time></trkpt><trkpt lat="37.11592616903879" lon="13.979717614581482"><ele>57.0</ele><time>2026-05-03T07:43:53.999Z</time></trkpt><trkpt lat="37.11604023477294" lon="13.979725730388294"><ele>59.0</ele><time>2026-05-03T07:43:54.999Z</time></trkpt><trkpt lat="37.11616758866526" lon="13.979713060478709"><ele>61.0</ele><time>2026-05-03T07:43:56Z</time></trkpt><trkpt lat="37.116289240806914" lon="13.979736505153282"><ele>61.0</ele><time>2026-05-03T07:43:56.999Z</time></trkpt><trkpt lat="37.11640908818705" lon="13.97973955261438"><ele>61.0</ele><time>2026-05-03T07:43:57.999Z</time></trkpt><trkpt lat="37.11653052544788" lon="13.979752170303119"><ele>61.0</ele><time>2026-05-03T07:43:58.999Z</time></trkpt><trkpt lat="37.11665034705709" lon="13.979760636268047"><ele>61.0</ele><time>2026-05-03T07:44:00Z</time></trkpt><trkpt lat="37.116765368700754" lon="13.979796118921751"><ele>63.5</ele><time>2026-05-03T07:44:01Z</time></trkpt><trkpt lat="37.11688600431881" lon="13.979818129452495"><ele>66.0</ele><time>2026-05-03T07:44:02Z</time></trkpt><trkpt lat="37.117003683319865" lon="13.979837048808427"><ele>68.5</ele><time>2026-05-03T07:44:03Z</time></trkpt><trkpt lat="37.1171174279367" lon="13.979839018437474"><ele>71.0</ele><time>2026-05-03T07:44:04Z</time></trkpt><trkpt lat="37.117222436940125" lon="13.97985528136253"><ele>71.0</ele><time>2026-05-03T07:44:04.999Z</time></trkpt><trkpt lat="37.11730048475119" lon="13.979868140941216"><ele>71.0</ele><time>2026-05-03T07:44:05.999Z</time></trkpt><trkpt lat="37.11741713830242" lon="13.97983412891769"><ele>71.0</ele><time>2026-05-03T07:44:07.999Z</time></trkpt><trkpt lat="37.1175008865293" lon="13.979824411165632"><ele>71.0</ele><time>2026-05-03T07:44:08.999Z</time></trkpt><trkpt lat="37.11760071823632" lon="13.97982099638752"><ele>71.0</ele><time>2026-05-03T07:44:09.999Z</time></trkpt><trkpt lat="37.11768226005937" lon="13.979817271899591"><ele>71.33333333333334</ele><time>2026-05-03T07:44:10.999Z</time></trkpt><trkpt lat="37.117744771713646" lon="13.97985414988686"><ele>71.66666666666667</ele><time>2026-05-03T07:44:12.999Z</time></trkpt><trkpt lat="37.117809887912706" lon="13.979884893672612"><ele>72.0</ele><time>2026-05-03T07:44:13.999Z</time></trkpt><trkpt lat="37.11788444256407" lon="13.979915605016624"><ele>72.33333333333333</ele><time>2026-05-03T07:44:14.999Z</time></trkpt><trkpt lat="37.11796946145884" lon="13.979950738980826"><ele>72.66666666666666</ele><time>2026-05-03T07:44:15.999Z</time></trkpt><trkpt lat="37.11805802704044" lon="13.979981218069721"><ele>73.0</ele><time>2026-05-03T07:44:16.999Z</time></trkpt><trkpt lat="37.11812267504523" lon="13.98003987487746"><ele>73.0</ele><time>2026-05-03T07:44:17.999Z</time></trkpt><trkpt lat="37.11817996905238" lon="13.980100922187184"><ele>73.0</ele><time>2026-05-03T07:44:18.999Z</time></trkpt><trkpt lat="37.118239554172376" lon="13.980164405741014"><ele>73.0</ele><time>2026-05-03T07:44:19.999Z</time></trkpt><trkpt lat="37.118320207876984" lon="13.980224360462218"><ele>73.0</ele><time>2026-05-03T07:44:20.999Z</time></trkpt><trkpt lat="37.118386558283866" lon="13.980318889307597"><ele>73.0</ele><time>2026-05-03T07:44:21.999Z</time></trkpt><trkpt lat="37.11847143663428" lon="13.980398163886392"><ele>73.66666666666666</ele><time>2026-05-03T07:44:22.999Z</time></trkpt><trkpt lat="37.11854552802479" lon="13.980473837708768"><ele>74.33333333333333</ele><time>2026-05-03T07:44:23.999Z</time></trkpt><trkpt lat="37.11860386524076" lon="13.980520331117248"><ele>75.0</ele><time>2026-05-03T07:44:24.999Z</time></trkpt><trkpt lat="37.118668080229696" lon="13.98054787594699"><ele>75.66666666666667</ele><time>2026-05-03T07:44:25.999Z</time></trkpt><trkpt lat="37.11873887421729" lon="13.980570383708914"><ele>76.33333333333334</ele><time>2026-05-03T07:44:26.999Z</time></trkpt><trkpt lat="37.118825897526" lon="13.98059539757919"><ele>77.0</ele><time>2026-05-03T07:44:27.999Z</time></trkpt><trkpt lat="37.11890107495518" lon="13.980618317272574"><ele>77.0</ele><time>2026-05-03T07:44:28.999Z</time></trkpt><trkpt lat="37.118972517724565" lon="13.98063769047399"><ele>77.0</ele><time>2026-05-03T07:44:29.999Z</time></trkpt><trkpt lat="37.119063333106034" lon="13.98065713187666"><ele>77.0</ele><time>2026-05-03T07:44:30.999Z</time></trkpt><trkpt lat="37.119152328707784" lon="13.980678064793448"><ele>77.0</ele><time>2026-05-03T07:44:31.999Z</time></trkpt><trkpt lat="37.119233471390174" lon="13.9807024143035"><ele>77.0</ele><time>2026-05-03T07:44:32.999Z</time></trkpt><trkpt lat="37.119309177257364" lon="13.98073200358294"><ele>77.0</ele><time>2026-05-03T07:44:33.999Z</time></trkpt><trkpt lat="37.119375715357" lon="13.980773196177365"><ele>77.6</ele><time>2026-05-03T07:44:34.999Z</time></trkpt><trkpt lat="37.11944051851714" lon="13.980790883857377"><ele>78.2</ele><time>2026-05-03T07:44:35.999Z</time></trkpt><trkpt lat="37.11955451271869" lon="13.98083033607108"><ele>78.8</ele><time>2026-05-03T07:44:37.999Z</time></trkpt><trkpt lat="37.11965662566027" lon="13.980869024194135"><ele>79.4</ele><time>2026-05-03T07:44:39.999Z</time></trkpt><trkpt lat="37.11976541581748" lon="13.980894083059686"><ele>80.0</ele><time>2026-05-03T07:44:41.999Z</time></trkpt><trkpt lat="37.119865680032696" lon="13.980918968829249"><ele>76.2</ele><time>2026-05-03T07:44:43.999Z</time></trkpt><trkpt lat="37.119964095514874" lon="13.980933192854584"><ele>72.4</ele><time>2026-05-03T07:44:45.999Z</time></trkpt><trkpt lat="37.12007127796753" lon="13.980942227572438"><ele>68.6</ele><time>2026-05-03T07:44:47.999Z</time></trkpt><trkpt lat="37.12017151977383" lon="13.980954729152227"><ele>64.8</ele><time>2026-05-03T07:44:49.999Z</time></trkpt><trkpt lat="37.120274192102016" lon="13.98097509358073"><ele>61.0</ele><time>2026-05-03T07:44:51.999Z</time></trkpt><trkpt lat="37.12036999905745" lon="13.98100310693159"><ele>61.0</ele><time>2026-05-03T07:44:53.999Z</time></trkpt><trkpt lat="37.120459948348355" lon="13.981054387640556"><ele>60.99999999999999</ele><time>2026-05-03T07:44:55.999Z</time></trkpt><trkpt lat="37.12055940973976" lon="13.981096948175718"><ele>60.99999999999999</ele><time>2026-05-03T07:44:57.999Z</time></trkpt><trkpt lat="37.120652091780826" lon="13.98113589942877"><ele>61.0</ele><time>2026-05-03T07:44:59.999Z</time></trkpt><trkpt lat="37.120743405479395" lon="13.981169286749992"><ele>61.0</ele><time>2026-05-03T07:45:01.999Z</time></trkpt><trkpt lat="37.1208358836493" lon="13.981172540373413"><ele>59.8</ele><time>2026-05-03T07:45:03.999Z</time></trkpt><trkpt lat="37.12092613537319" lon="13.981171355616974"><ele>58.599999999999994</ele><time>2026-05-03T07:45:05.999Z</time></trkpt><trkpt lat="37.121028266003385" lon="13.98116388050548"><ele>57.4</ele><time>2026-05-03T07:45:07.999Z</time></trkpt><trkpt lat="37.12112344480042" lon="13.981161126549589"><ele>56.2</ele><time>2026-05-03T07:45:09.999Z</time></trkpt><trkpt lat="37.12121191220112" lon="13.981153972048498"><ele>55.0</ele><time>2026-05-03T07:45:11.999Z</time></trkpt><trkpt lat="37.12130668631431" lon="13.981159961085742"><ele>55.0</ele><time>2026-05-03T07:45:13.999Z</time></trkpt><trkpt lat="37.12140023239382" lon="13.981145657330469"><ele>55.0</ele><time>2026-05-03T07:45:15.998Z</time></trkpt><trkpt lat="37.12150975326044" lon="13.981133714073362"><ele>55.0</ele><time>2026-05-03T07:45:17.998Z</time></trkpt><trkpt lat="37.121626376564514" lon="13.981100864013065"><ele>55.0</ele><time>2026-05-03T07:45:19.998Z</time></trkpt><trkpt lat="37.121753146995786" lon="13.981068128617542"><ele>54.166666666666664</ele><time>2026-05-03T07:45:21.998Z</time></trkpt><trkpt lat="37.1218335063568" lon="13.981067380378372"><ele>53.33333333333333</ele><time>2026-05-03T07:45:22.998Z</time></trkpt><trkpt lat="37.121908813438026" lon="13.98107217899027"><ele>52.5</ele><time>2026-05-03T07:45:23.998Z</time></trkpt><trkpt lat="37.12203005092311" lon="13.981098095280814"><ele>51.66666666666667</ele><time>2026-05-03T07:45:25.998Z</time></trkpt><trkpt lat="37.12208205090375" lon="13.981143220079177"><ele>50.833333333333336</ele><time>2026-05-03T07:45:26.998Z</time></trkpt><trkpt lat="37.122150161619366" lon="13.981218520980985"><ele>50.0</ele><time>2026-05-03T07:45:27.998Z</time></trkpt><trkpt lat="37.12220538899813" lon="13.981326753284451"><ele>50.0</ele><time>2026-05-03T07:45:28.998Z</time></trkpt><trkpt lat="37.122258457872356" lon="13.981445144594812"><ele>50.0</ele><time>2026-05-03T07:45:29.998Z</time></trkpt><trkpt lat="37.122325007253984" lon="13.981555381744682"><ele>50.0</ele><time>2026-05-03T07:45:30.998Z</time></trkpt><trkpt lat="37.122390198994005" lon="13.981643004526727"><ele>50.0</ele><time>2026-05-03T07:45:31.998Z</time></trkpt><trkpt lat="37.12244373328811" lon="13.981729291773005"><ele>50.0</ele><time>2026-05-03T07:45:32.998Z</time></trkpt><trkpt lat="37.12251344286323" lon="13.981844011927812"><ele>50.6</ele><time>2026-05-03T07:45:33.998Z</time></trkpt><trkpt lat="37.122584166584396" lon="13.981943297103328"><ele>51.2</ele><time>2026-05-03T07:45:34.998Z</time></trkpt><trkpt lat="37.12265631516426" lon="13.982021456626244"><ele>51.8</ele><time>2026-05-03T07:45:35.998Z</time></trkpt><trkpt lat="37.12272558310059" lon="13.982111597563366"><ele>52.4</ele><time>2026-05-03T07:45:36.998Z</time></trkpt><trkpt lat="37.122787555426974" lon="13.982209951297174"><ele>53.0</ele><time>2026-05-03T07:45:37.998Z</time></trkpt><trkpt lat="37.12283931746604" lon="13.982316230526193"><ele>53.0</ele><time>2026-05-03T07:45:38.998Z</time></trkpt><trkpt lat="37.12289042377498" lon="13.982416890901897"><ele>53.0</ele><time>2026-05-03T07:45:39.998Z</time></trkpt><trkpt lat="37.122942128982835" lon="13.982519492728088"><ele>53.0</ele><time>2026-05-03T07:45:40.998Z</time></trkpt><trkpt lat="37.122990339514836" lon="13.982628590164675"><ele>53.0</ele><time>2026-05-03T07:45:41.998Z</time></trkpt><trkpt lat="37.12303916061752" lon="13.982733060356273"><ele>53.0</ele><time>2026-05-03T07:45:42.998Z</time></trkpt><trkpt lat="37.12307948702779" lon="13.982812250603521"><ele>53.599999999999994</ele><time>2026-05-03T07:45:43.998Z</time></trkpt><trkpt lat="37.12313947617744" lon="13.982877468121586"><ele>54.199999999999996</ele><time>2026-05-03T07:45:44.998Z</time></trkpt><trkpt lat="37.12322871722531" lon="13.982951338152741"><ele>54.8</ele><time>2026-05-03T07:45:45.998Z</time></trkpt><trkpt lat="37.12332393391254" lon="13.983026916847916"><ele>55.4</ele><time>2026-05-03T07:45:46.998Z</time></trkpt><trkpt lat="37.12343288432941" lon="13.983114720106496"><ele>56.0</ele><time>2026-05-03T07:45:47.998Z</time></trkpt><trkpt lat="37.12353885658342" lon="13.983211423694252"><ele>56.4</ele><time>2026-05-03T07:45:48.998Z</time></trkpt><trkpt lat="37.12364106405872" lon="13.983279774543014"><ele>56.8</ele><time>2026-05-03T07:45:49.998Z</time></trkpt><trkpt lat="37.12373742093523" lon="13.983341776601547"><ele>57.199999999999996</ele><time>2026-05-03T07:45:50.998Z</time></trkpt><trkpt lat="37.1238335934065" lon="13.983387617944125"><ele>57.599999999999994</ele><time>2026-05-03T07:45:51.998Z</time></trkpt><trkpt lat="37.1239313200574" lon="13.983471990345434"><ele>58.0</ele><time>2026-05-03T07:45:52.998Z</time></trkpt><trkpt lat="37.12401999709321" lon="13.98353038025597"><ele>58.599999999999994</ele><time>2026-05-03T07:45:53.998Z</time></trkpt><trkpt lat="37.124106026216715" lon="13.983589297079092"><ele>59.199999999999996</ele><time>2026-05-03T07:45:54.998Z</time></trkpt><trkpt lat="37.1241937616983" lon="13.98365978882456"><ele>59.8</ele><time>2026-05-03T07:45:55.999Z</time></trkpt><trkpt lat="37.1242996074805" lon="13.98373755205338"><ele>60.4</ele><time>2026-05-03T07:45:56.998Z</time></trkpt><trkpt lat="37.12439518056398" lon="13.983776250528306"><ele>61.0</ele><time>2026-05-03T07:45:57.998Z</time></trkpt><trkpt lat="37.12447585086253" lon="13.983821127673611"><ele>61.0</ele><time>2026-05-03T07:45:58.999Z</time></trkpt><trkpt lat="37.124569642300514" lon="13.983883743283384"><ele>61.0</ele><time>2026-05-03T07:45:59.999Z</time></trkpt><trkpt lat="37.12466774975416" lon="13.98394745749106"><ele>61.0</ele><time>2026-05-03T07:46:00.999Z</time></trkpt><trkpt lat="37.12476440137265" lon="13.984029213494104"><ele>61.0</ele><time>2026-05-03T07:46:01.999Z</time></trkpt><trkpt lat="37.1248701497617" lon="13.984122599855075"><ele>61.25</ele><time>2026-05-03T07:46:02.999Z</time></trkpt><trkpt lat="37.12496780618415" lon="13.984202687806398"><ele>61.5</ele><time>2026-05-03T07:46:03.999Z</time></trkpt><trkpt lat="37.125073439445046" lon="13.98428281766429"><ele>61.75</ele><time>2026-05-03T07:46:04.999Z</time></trkpt><trkpt lat="37.12517389308494" lon="13.984380538348526"><ele>62.0</ele><time>2026-05-03T07:46:05.999Z</time></trkpt><trkpt lat="37.12527083985526" lon="13.984427163113514"><ele>62.0</ele><time>2026-05-03T07:46:06.999Z</time></trkpt><trkpt lat="37.12534701450867" lon="13.984503118438333"><ele>62.0</ele><time>2026-05-03T07:46:07.999Z</time></trkpt><trkpt lat="37.12544076696929" lon="13.984556298561673"><ele>62.0</ele><time>2026-05-03T07:46:08.999Z</time></trkpt><trkpt lat="37.125543726174016" lon="13.984613739056536"><ele>62.0</ele><time>2026-05-03T07:46:09.999Z</time></trkpt><trkpt lat="37.12563244666199" lon="13.98468469386205"><ele>62.0</ele><time>2026-05-03T07:46:10.999Z</time></trkpt><trkpt lat="37.12572829349115" lon="13.984731058213216"><ele>62.6</ele><time>2026-05-03T07:46:11.999Z</time></trkpt><trkpt lat="37.12580465413532" lon="13.984792969104987"><ele>63.2</ele><time>2026-05-03T07:46:12.999Z</time></trkpt><trkpt lat="37.12587838514515" lon="13.984850182016803"><ele>63.8</ele><time>2026-05-03T07:46:13.999Z</time></trkpt><trkpt lat="37.125958771275286" lon="13.984909214158659"><ele>64.4</ele><time>2026-05-03T07:46:14.999Z</time></trkpt><trkpt lat="37.12603762520117" lon="13.984982933165597"><ele>65.0</ele><time>2026-05-03T07:46:15.999Z</time></trkpt><trkpt lat="37.126118141737486" lon="13.985043964209595"><ele>65.0</ele><time>2026-05-03T07:46:16.999Z</time></trkpt><trkpt lat="37.12619571707882" lon="13.985105139832582"><ele>65.0</ele><time>2026-05-03T07:46:17.999Z</time></trkpt><trkpt lat="37.1262801655814" lon="13.985177245290222"><ele>65.0</ele><time>2026-05-03T07:46:18.999Z</time></trkpt><trkpt lat="37.12635142826563" lon="13.985240478437237"><ele>65.0</ele><time>2026-05-03T07:46:19.999Z</time></trkpt><trkpt lat="37.12640771792756" lon="13.985290457216436"><ele>65.0</ele><time>2026-05-03T07:46:20.999Z</time></trkpt><trkpt lat="37.12646389023689" lon="13.985328807495408"><ele>65.0</ele><time>2026-05-03T07:46:21.999Z</time></trkpt><trkpt lat="37.12652244116501" lon="13.985378930453402"><ele>66.2</ele><time>2026-05-03T07:46:22.999Z</time></trkpt><trkpt lat="37.1265900981151" lon="13.985449106429268"><ele>67.4</ele><time>2026-05-03T07:46:23.999Z</time></trkpt><trkpt lat="37.126666383086324" lon="13.98552733787932"><ele>68.6</ele><time>2026-05-03T07:46:24.999Z</time></trkpt><trkpt lat="37.12675243414477" lon="13.985605937866952"><ele>69.8</ele><time>2026-05-03T07:46:25.999Z</time></trkpt><trkpt lat="37.126835173597144" lon="13.9856862990243"><ele>71.0</ele><time>2026-05-03T07:46:26.999Z</time></trkpt><trkpt lat="37.126909906445825" lon="13.98576292745384"><ele>71.0</ele><time>2026-05-03T07:46:27.999Z</time></trkpt><trkpt lat="37.12698195858041" lon="13.985840808397407"><ele>71.0</ele><time>2026-05-03T07:46:28.999Z</time></trkpt><trkpt lat="37.12705442517153" lon="13.985932894380698"><ele>71.0</ele><time>2026-05-03T07:46:29.999Z</time></trkpt><trkpt lat="37.12711296056659" lon="13.986039079859895"><ele>71.0</ele><time>2026-05-03T07:46:30.999Z</time></trkpt><trkpt lat="37.127172519966855" lon="13.986139509495832"><ele>71.0</ele><time>2026-05-03T07:46:31.999Z</time></trkpt><trkpt lat="37.12723681037248" lon="13.986213678589024"><ele>71.16666666666667</ele><time>2026-05-03T07:46:32.999Z</time></trkpt><trkpt lat="37.12730737771895" lon="13.98628797465842"><ele>71.33333333333334</ele><time>2026-05-03T07:46:33.999Z</time></trkpt><trkpt lat="37.12737988633551" lon="13.986376524045868"><ele>71.5</ele><time>2026-05-03T07:46:34.999Z</time></trkpt><trkpt lat="37.127445185126476" lon="13.986447224471831"><ele>71.66666666666667</ele><time>2026-05-03T07:46:35.999Z</time></trkpt><trkpt lat="37.12750596151466" lon="13.986519226073126"><ele>71.83333333333333</ele><time>2026-05-03T07:46:36.999Z</time></trkpt><trkpt lat="37.12756768243041" lon="13.98659098248033"><ele>72.0</ele><time>2026-05-03T07:46:37.999Z</time></trkpt><trkpt lat="37.12764096368499" lon="13.986676633958146"><ele>71.4</ele><time>2026-05-03T07:46:38.999Z</time></trkpt><trkpt lat="37.1277202700303" lon="13.986757997972388"><ele>70.80000000000001</ele><time>2026-05-03T07:46:39.999Z</time></trkpt><trkpt lat="37.12779220393578" lon="13.986838104132557"><ele>70.2</ele><time>2026-05-03T07:46:40.998Z</time></trkpt><trkpt lat="37.12786708743063" lon="13.98689786011397"><ele>69.60000000000001</ele><time>2026-05-03T07:46:41.998Z</time></trkpt><trkpt lat="37.127938610310586" lon="13.986954982022137"><ele>69.0</ele><time>2026-05-03T07:46:42.998Z</time></trkpt><trkpt lat="37.12801645983015" lon="13.987023035228658"><ele>69.0</ele><time>2026-05-03T07:46:43.998Z</time></trkpt><trkpt lat="37.12810004714372" lon="13.987093518506576"><ele>69.0</ele><time>2026-05-03T07:46:44.998Z</time></trkpt><trkpt lat="37.1281858368948" lon="13.987160976682341"><ele>69.0</ele><time>2026-05-03T07:46:45.998Z</time></trkpt><trkpt lat="37.12827455416903" lon="13.987225273763443"><ele>69.0</ele><time>2026-05-03T07:46:46.998Z</time></trkpt><trkpt lat="37.12836224222719" lon="13.987287517636894"><ele>69.0</ele><time>2026-05-03T07:46:47.998Z</time></trkpt><trkpt lat="37.128451399494665" lon="13.987344176949108"><ele>69.4</ele><time>2026-05-03T07:46:48.998Z</time></trkpt><trkpt lat="37.12853929631479" lon="13.987391599417247"><ele>69.80000000000001</ele><time>2026-05-03T07:46:49.998Z</time></trkpt><trkpt lat="37.12862219595662" lon="13.987453534058778"><ele>70.19999999999999</ele><time>2026-05-03T07:46:50.998Z</time></trkpt><trkpt lat="37.12870946751884" lon="13.987495404864784"><ele>70.6</ele><time>2026-05-03T07:46:51.998Z</time></trkpt><trkpt lat="37.12880601243137" lon="13.987516465611119"><ele>71.0</ele><time>2026-05-03T07:46:52.998Z</time></trkpt><trkpt lat="37.12888995160898" lon="13.987550660761817"><ele>70.5</ele><time>2026-05-03T07:46:53.998Z</time></trkpt><trkpt lat="37.12897576701779" lon="13.987580439775067"><ele>70.0</ele><time>2026-05-03T07:46:54.998Z</time></trkpt><trkpt lat="37.12905996507772" lon="13.987596896054322"><ele>69.5</ele><time>2026-05-03T07:46:55.998Z</time></trkpt><trkpt lat="37.129150301640436" lon="13.987616244296452"><ele>69.0</ele><time>2026-05-03T07:46:56.998Z</time></trkpt><trkpt lat="37.12923264550594" lon="13.987649111936536"><ele>68.5</ele><time>2026-05-03T07:46:57.998Z</time></trkpt><trkpt lat="37.12931487828581" lon="13.987669151014988"><ele>68.0</ele><time>2026-05-03T07:46:58.998Z</time></trkpt><trkpt lat="37.12938932786947" lon="13.987678984881796"><ele>68.0</ele><time>2026-05-03T07:46:59.998Z</time></trkpt><trkpt lat="37.12946445468096" lon="13.98769955433808"><ele>68.0</ele><time>2026-05-03T07:47:00.998Z</time></trkpt><trkpt lat="37.129539938735626" lon="13.987727208309423"><ele>68.0</ele><time>2026-05-03T07:47:01.998Z</time></trkpt><trkpt lat="37.129635746454085" lon="13.987768203585192"><ele>68.0</ele><time>2026-05-03T07:47:03.998Z</time></trkpt><trkpt lat="37.12973749240809" lon="13.987809445746489"><ele>68.0</ele><time>2026-05-03T07:47:05.998Z</time></trkpt><trkpt lat="37.12984513041726" lon="13.987851414039168"><ele>68.4</ele><time>2026-05-03T07:47:07.998Z</time></trkpt><trkpt lat="37.12995736177964" lon="13.987928960818692"><ele>68.8</ele><time>2026-05-03T07:47:09.998Z</time></trkpt><trkpt lat="37.13001092544947" lon="13.987976492352876"><ele>69.2</ele><time>2026-05-03T07:47:10.998Z</time></trkpt><trkpt lat="37.13009984460369" lon="13.98805743304707"><ele>69.6</ele><time>2026-05-03T07:47:12.998Z</time></trkpt><trkpt lat="37.13019297510328" lon="13.988160389143713"><ele>70.0</ele><time>2026-05-03T07:47:14.998Z</time></trkpt><trkpt lat="37.1302709812628" lon="13.988242622759854"><ele>70.0</ele><time>2026-05-03T07:47:16.998Z</time></trkpt><trkpt lat="37.13033723696293" lon="13.988321687211483"><ele>70.0</ele><time>2026-05-03T07:47:18.998Z</time></trkpt><trkpt lat="37.13042372477671" lon="13.988436778163226"><ele>70.0</ele><time>2026-05-03T07:47:20.998Z</time></trkpt><trkpt lat="37.13049355064988" lon="13.988549014696884"><ele>70.0</ele><time>2026-05-03T07:47:22.998Z</time></trkpt><trkpt lat="37.13054987591761" lon="13.988613511568309"><ele>70.0</ele><time>2026-05-03T07:47:23.998Z</time></trkpt><trkpt lat="37.13059981724204" lon="13.988704967802096"><ele>70.6</ele><time>2026-05-03T07:47:24.998Z</time></trkpt><trkpt lat="37.1306481795669" lon="13.988806544545161"><ele>71.2</ele><time>2026-05-03T07:47:25.998Z</time></trkpt><trkpt lat="37.13068463140077" lon="13.988909791864033"><ele>71.8</ele><time>2026-05-03T07:47:26.998Z</time></trkpt><trkpt lat="37.13071404103224" lon="13.989040091267771"><ele>72.4</ele><time>2026-05-03T07:47:27.998Z</time></trkpt><trkpt lat="37.1307177775481" lon="13.989188442502462"><ele>73.0</ele><time>2026-05-03T07:47:28.998Z</time></trkpt><trkpt lat="37.130735142727026" lon="13.989339210600086"><ele>73.0</ele><time>2026-05-03T07:47:29.998Z</time></trkpt><trkpt lat="37.13075455182094" lon="13.989497799214938"><ele>73.0</ele><time>2026-05-03T07:47:30.998Z</time></trkpt><trkpt lat="37.13077532300126" lon="13.98965884963674"><ele>73.0</ele><time>2026-05-03T07:47:31.998Z</time></trkpt><trkpt lat="37.13081430145696" lon="13.989802628799263"><ele>73.0</ele><time>2026-05-03T07:47:32.998Z</time></trkpt><trkpt lat="37.13084042597082" lon="13.989941463184733"><ele>73.2</ele><time>2026-05-03T07:47:33.998Z</time></trkpt><trkpt lat="37.130866477444386" lon="13.99008072541688"><ele>73.4</ele><time>2026-05-03T07:47:34.998Z</time></trkpt><trkpt lat="37.1308927637874" lon="13.990212245406292"><ele>73.60000000000001</ele><time>2026-05-03T07:47:35.998Z</time></trkpt><trkpt lat="37.130905578019956" lon="13.99032440048196"><ele>73.8</ele><time>2026-05-03T07:47:36.998Z</time></trkpt><trkpt lat="37.13091108391151" lon="13.990417272597913"><ele>74.0</ele><time>2026-05-03T07:47:37.998Z</time></trkpt><trkpt lat="37.13091703364439" lon="13.990497111138184"><ele>74.0</ele><time>2026-05-03T07:47:38.998Z</time></trkpt><trkpt lat="37.13092172541603" lon="13.990646721411949"><ele>74.0</ele><time>2026-05-03T07:47:40.998Z</time></trkpt><trkpt lat="37.13092277447065" lon="13.990736016839918"><ele>74.0</ele><time>2026-05-03T07:47:41.998Z</time></trkpt><trkpt lat="37.1309187743112" lon="13.990821940291259"><ele>74.0</ele><time>2026-05-03T07:47:42.998Z</time></trkpt><trkpt lat="37.130912919208235" lon="13.99091278403084"><ele>74.0</ele><time>2026-05-03T07:47:43.998Z</time></trkpt><trkpt lat="37.1309209625707" lon="13.991034855902992"><ele>74.0</ele><time>2026-05-03T07:47:44.998Z</time></trkpt><trkpt lat="37.130894275045165" lon="13.991170416104916"><ele>74.60000000000001</ele><time>2026-05-03T07:47:45.998Z</time></trkpt><trkpt lat="37.13087776618222" lon="13.99130341366528"><ele>75.2</ele><time>2026-05-03T07:47:46.998Z</time></trkpt><trkpt lat="37.13087730271095" lon="13.99144946257524"><ele>75.80000000000001</ele><time>2026-05-03T07:47:47.998Z</time></trkpt><trkpt lat="37.13085763763032" lon="13.991569793687933"><ele>76.4</ele><time>2026-05-03T07:47:48.998Z</time></trkpt><trkpt lat="37.13085178352435" lon="13.991687120858328"><ele>77.0</ele><time>2026-05-03T07:47:49.998Z</time></trkpt><trkpt lat="37.130859038975" lon="13.991804798965584"><ele>78.4</ele><time>2026-05-03T07:47:50.998Z</time></trkpt><trkpt lat="37.13084688588299" lon="13.991908895821288"><ele>79.80000000000001</ele><time>2026-05-03T07:47:51.998Z</time></trkpt><trkpt lat="37.13083520926284" lon="13.992025600235165"><ele>81.2</ele><time>2026-05-03T07:47:52.998Z</time></trkpt><trkpt lat="37.13081687369087" lon="13.992154906454385"><ele>82.60000000000001</ele><time>2026-05-03T07:47:53.997Z</time></trkpt><trkpt lat="37.1308076069508" lon="13.992289629647455"><ele>84.0</ele><time>2026-05-03T07:47:54.997Z</time></trkpt><trkpt lat="37.130803350795205" lon="13.992418107387595"><ele>83.0</ele><time>2026-05-03T07:47:55.997Z</time></trkpt><trkpt lat="37.13079064755973" lon="13.992540806769195"><ele>82.0</ele><time>2026-05-03T07:47:56.997Z</time></trkpt><trkpt lat="37.13077730502791" lon="13.99264221270196"><ele>81.0</ele><time>2026-05-03T07:47:57.997Z</time></trkpt><trkpt lat="37.13076161147412" lon="13.992723577854159"><ele>80.0</ele><time>2026-05-03T07:47:58.997Z</time></trkpt><trkpt lat="37.130729009439094" lon="13.992887480367807"><ele>79.0</ele><time>2026-05-03T07:48:00.997Z</time></trkpt><trkpt lat="37.130704114477304" lon="13.992989226706605"><ele>79.0</ele><time>2026-05-03T07:48:01.998Z</time></trkpt><trkpt lat="37.13069958053928" lon="13.9930845363677"><ele>79.0</ele><time>2026-05-03T07:48:02.998Z</time></trkpt><trkpt lat="37.13067888623679" lon="13.993169265686102"><ele>79.0</ele><time>2026-05-03T07:48:03.998Z</time></trkpt><trkpt lat="37.13065733269076" lon="13.993251526963249"><ele>79.0</ele><time>2026-05-03T07:48:04.998Z</time></trkpt><trkpt lat="37.13062378655608" lon="13.993352479735641"><ele>79.0</ele><time>2026-05-03T07:48:05.998Z</time></trkpt><trkpt lat="37.13058852982219" lon="13.993458677070487"><ele>79.0</ele><time>2026-05-03T07:48:06.998Z</time></trkpt><trkpt lat="37.1305674174973" lon="13.993547082916324"><ele>79.33333333333333</ele><time>2026-05-03T07:48:07.998Z</time></trkpt><trkpt lat="37.13054768741815" lon="13.993636812910045"><ele>79.66666666666666</ele><time>2026-05-03T07:48:08.998Z</time></trkpt><trkpt lat="37.130527157226844" lon="13.993724491365462"><ele>80.0</ele><time>2026-05-03T07:48:09.998Z</time></trkpt><trkpt lat="37.13049180524549" lon="13.993876728480872"><ele>80.33333333333333</ele><time>2026-05-03T07:48:11.998Z</time></trkpt><trkpt lat="37.13048003695779" lon="13.993964464372851"><ele>80.66666666666667</ele><time>2026-05-03T07:48:12.998Z</time></trkpt><trkpt lat="37.13046529852002" lon="13.994055056111081"><ele>81.0</ele><time>2026-05-03T07:48:13.998Z</time></trkpt><trkpt lat="37.130446320565405" lon="13.99414251983969"><ele>81.4</ele><time>2026-05-03T07:48:14.999Z</time></trkpt><trkpt lat="37.130421700417095" lon="13.99421543458899"><ele>81.8</ele><time>2026-05-03T07:48:15.999Z</time></trkpt><trkpt lat="37.13036796571571" lon="13.994342617866279"><ele>82.2</ele><time>2026-05-03T07:48:17.999Z</time></trkpt><trkpt lat="37.13034155550268" lon="13.99449042231108"><ele>82.60000000000001</ele><time>2026-05-03T07:48:19.999Z</time></trkpt><trkpt lat="37.130336205675825" lon="13.994583178980566"><ele>83.0</ele><time>2026-05-03T07:48:20.999Z</time></trkpt><trkpt lat="37.130311088792325" lon="13.994678076709363"><ele>83.0</ele><time>2026-05-03T07:48:21.999Z</time></trkpt><trkpt lat="37.13027385499727" lon="13.994764384600007"><ele>83.0</ele><time>2026-05-03T07:48:22.999Z</time></trkpt><trkpt lat="37.13022178598638" lon="13.994883018403538"><ele>83.0</ele><time>2026-05-03T07:48:24.999Z</time></trkpt><trkpt lat="37.130165228571094" lon="13.994981778176058"><ele>83.0</ele><time>2026-05-03T07:48:26.999Z</time></trkpt><trkpt lat="37.13006274974976" lon="13.99507565260268"><ele>83.0</ele><time>2026-05-03T07:48:28.999Z</time></trkpt><trkpt lat="37.129995133042186" lon="13.995113239900896"><ele>84.0</ele><time>2026-05-03T07:48:29.999Z</time></trkpt><trkpt lat="37.12993288339428" lon="13.995133268791925"><ele>85.0</ele><time>2026-05-03T07:48:30.999Z</time></trkpt><trkpt lat="37.1298555427679" lon="13.995135107916168"><ele>86.0</ele><time>2026-05-03T07:48:31.999Z</time></trkpt><trkpt lat="37.12979169212289" lon="13.995127647774334"><ele>87.0</ele><time>2026-05-03T07:48:32.999Z</time></trkpt><trkpt lat="37.129693188545914" lon="13.99511197357311"><ele>88.0</ele><time>2026-05-03T07:48:34.998Z</time></trkpt><trkpt lat="37.129611846948855" lon="13.995034898540903"><ele>89.0</ele><time>2026-05-03T07:48:36.998Z</time></trkpt><trkpt lat="37.12954233130193" lon="13.99488086858423"><ele>89.0</ele><time>2026-05-03T07:48:38.998Z</time></trkpt><trkpt lat="37.12951196973956" lon="13.994788287436059"><ele>89.0</ele><time>2026-05-03T07:48:39.998Z</time></trkpt><trkpt lat="37.12947927463273" lon="13.994682149869927"><ele>89.0</ele><time>2026-05-03T07:48:40.998Z</time></trkpt><trkpt lat="37.12945432696752" lon="13.994588650443102"><ele>89.0</ele><time>2026-05-03T07:48:41.998Z</time></trkpt><trkpt lat="37.12943227197428" lon="13.99451118370061"><ele>89.0</ele><time>2026-05-03T07:48:42.998Z</time></trkpt><trkpt lat="37.12936792558154" lon="13.994353879600313"><ele>89.0</ele><time>2026-05-03T07:48:44.998Z</time></trkpt><trkpt lat="37.12932254399722" lon="13.994266647772088"><ele>89.0</ele><time>2026-05-03T07:48:45.998Z</time></trkpt><trkpt lat="37.12927039671194" lon="13.994159170286329"><ele>89.0</ele><time>2026-05-03T07:48:46.998Z</time></trkpt><trkpt lat="37.12922339550561" lon="13.99405679384459"><ele>89.0</ele><time>2026-05-03T07:48:47.998Z</time></trkpt><trkpt lat="37.12916594188289" lon="13.993957919004131"><ele>89.0</ele><time>2026-05-03T07:48:48.998Z</time></trkpt><trkpt lat="37.12911320357951" lon="13.993858214952057"><ele>89.6</ele><time>2026-05-03T07:48:49.998Z</time></trkpt><trkpt lat="37.129060447470124" lon="13.993774748739037"><ele>90.2</ele><time>2026-05-03T07:48:50.998Z</time></trkpt><trkpt lat="37.12895509897524" lon="13.993749388965204"><ele>90.8</ele><time>2026-05-03T07:48:52.998Z</time></trkpt><trkpt lat="37.12888439059276" lon="13.99376930038086"><ele>91.39999999999999</ele><time>2026-05-03T07:48:53.998Z</time></trkpt><trkpt lat="37.12881720545828" lon="13.993805369169902"><ele>92.0</ele><time>2026-05-03T07:48:54.998Z</time></trkpt><trkpt lat="37.128721923031854" lon="13.993879694396256"><ele>92.0</ele><time>2026-05-03T07:48:56.998Z</time></trkpt><trkpt lat="37.12863349266488" lon="13.993900445274006"><ele>92.0</ele><time>2026-05-03T07:48:58.998Z</time></trkpt><trkpt lat="37.12850517252904" lon="13.993850300308294"><ele>92.0</ele><time>2026-05-03T07:49:00.998Z</time></trkpt><trkpt lat="37.128421577443824" lon="13.993812858780474"><ele>92.0</ele><time>2026-05-03T07:49:01.998Z</time></trkpt><trkpt lat="37.12833484350308" lon="13.993778064377052"><ele>92.0</ele><time>2026-05-03T07:49:02.998Z</time></trkpt><trkpt lat="37.12827062255408" lon="13.993763644986029"><ele>92.66666666666667</ele><time>2026-05-03T07:49:03.998Z</time></trkpt><trkpt lat="37.12815220702305" lon="13.993752998382954"><ele>93.33333333333334</ele><time>2026-05-03T07:49:05.998Z</time></trkpt><trkpt lat="37.12807334943545" lon="13.993749657554444"><ele>94.0</ele><time>2026-05-03T07:49:07.998Z</time></trkpt><trkpt lat="37.12798687818743" lon="13.993755116995585"><ele>94.66666666666667</ele><time>2026-05-03T07:49:09.998Z</time></trkpt><trkpt lat="37.12790903827181" lon="13.993763348629972"><ele>95.33333333333333</ele><time>2026-05-03T07:49:11.998Z</time></trkpt><trkpt lat="37.12784023682904" lon="13.993747635505326"><ele>96.0</ele><time>2026-05-03T07:49:13.998Z</time></trkpt><trkpt lat="37.12774311927208" lon="13.993678492064756"><ele>96.0</ele><time>2026-05-03T07:49:15.998Z</time></trkpt><trkpt lat="37.12767310583444" lon="13.993606680498944"><ele>96.0</ele><time>2026-05-03T07:49:16.998Z</time></trkpt><trkpt lat="37.12761117867486" lon="13.993539801165271"><ele>96.0</ele><time>2026-05-03T07:49:17.998Z</time></trkpt><trkpt lat="37.127549969721024" lon="13.99349445407814"><ele>96.0</ele><time>2026-05-03T07:49:18.998Z</time></trkpt><trkpt lat="37.12748120398541" lon="13.993443241749107"><ele>96.0</ele><time>2026-05-03T07:49:19.998Z</time></trkpt><trkpt lat="37.12741860665831" lon="13.993388220556932"><ele>96.0</ele><time>2026-05-03T07:49:20.998Z</time></trkpt><trkpt lat="37.127362406722106" lon="13.993348164376284"><ele>94.71428571428571</ele><time>2026-05-03T07:49:21.998Z</time></trkpt><trkpt lat="37.127305556409375" lon="13.993313565586805"><ele>93.42857142857143</ele><time>2026-05-03T07:49:22.998Z</time></trkpt><trkpt lat="37.12723784915105" lon="13.993270334436076"><ele>92.14285714285714</ele><time>2026-05-03T07:49:23.998Z</time></trkpt><trkpt lat="37.1271667343894" lon="13.993226886297968"><ele>90.85714285714286</ele><time>2026-05-03T07:49:24.998Z</time></trkpt><trkpt lat="37.12709315314939" lon="13.993187613217781"><ele>89.57142857142857</ele><time>2026-05-03T07:49:25.998Z</time></trkpt><trkpt lat="37.127024977519106" lon="13.993160294975558"><ele>88.28571428571428</ele><time>2026-05-03T07:49:26.998Z</time></trkpt><trkpt lat="37.12696225860237" lon="13.993147782510844"><ele>87.0</ele><time>2026-05-03T07:49:27.998Z</time></trkpt><trkpt lat="37.126895424645205" lon="13.993138803997619"><ele>87.0</ele><time>2026-05-03T07:49:28.998Z</time></trkpt><trkpt lat="37.126788657486834" lon="13.993131640178136"><ele>87.0</ele><time>2026-05-03T07:49:30.998Z</time></trkpt><trkpt lat="37.12669603325756" lon="13.993117238469956"><ele>87.0</ele><time>2026-05-03T07:49:32.998Z</time></trkpt><trkpt lat="37.12660330420941" lon="13.993087925355457"><ele>87.0</ele><time>2026-05-03T07:49:34.998Z</time></trkpt><trkpt lat="37.12650752971096" lon="13.993061561123827"><ele>87.0</ele><time>2026-05-03T07:49:36.998Z</time></trkpt><trkpt lat="37.12641980713345" lon="13.992995074374047"><ele>86.6</ele><time>2026-05-03T07:49:38.998Z</time></trkpt><trkpt lat="37.12634093378708" lon="13.992906427743003"><ele>86.19999999999999</ele><time>2026-05-03T07:49:40.998Z</time></trkpt><trkpt lat="37.12627279163942" lon="13.992804689092841"><ele>85.8</ele><time>2026-05-03T07:49:42.998Z</time></trkpt><trkpt lat="37.1262087088104" lon="13.992660695447134"><ele>85.4</ele><time>2026-05-03T07:49:44.998Z</time></trkpt><trkpt lat="37.12618035354629" lon="13.992550887444054"><ele>85.0</ele><time>2026-05-03T07:49:45.998Z</time></trkpt><trkpt lat="37.12615876087573" lon="13.992445010829128"><ele>83.4</ele><time>2026-05-03T07:49:46.998Z</time></trkpt><trkpt lat="37.12614052917639" lon="13.992334024579375"><ele>81.8</ele><time>2026-05-03T07:49:47.998Z</time></trkpt><trkpt lat="37.12612292351062" lon="13.99220871605909"><ele>80.2</ele><time>2026-05-03T07:49:48.997Z</time></trkpt><trkpt lat="37.126108720027496" lon="13.99206379061066"><ele>78.6</ele><time>2026-05-03T07:49:49.997Z</time></trkpt><trkpt lat="37.12609521713159" lon="13.991938010217357"><ele>77.0</ele><time>2026-05-03T07:49:50.997Z</time></trkpt><trkpt lat="37.12607997893677" lon="13.991831119172886"><ele>77.0</ele><time>2026-05-03T07:49:51.997Z</time></trkpt><trkpt lat="37.12607095118213" lon="13.991742115297757"><ele>77.0</ele><time>2026-05-03T07:49:52.997Z</time></trkpt><trkpt lat="37.12604590112915" lon="13.991654808882407"><ele>77.0</ele><time>2026-05-03T07:49:53.997Z</time></trkpt><trkpt lat="37.125999627386825" lon="13.991560073180695"><ele>77.0</ele><time>2026-05-03T07:49:54.997Z</time></trkpt><trkpt lat="37.12593581195271" lon="13.991452021902203"><ele>77.0</ele><time>2026-05-03T07:49:55.997Z</time></trkpt><trkpt lat="37.12586728459607" lon="13.991337754953372"><ele>77.33333333333334</ele><time>2026-05-03T07:49:56.997Z</time></trkpt><trkpt lat="37.12580588738456" lon="13.991242761753188"><ele>77.66666666666667</ele><time>2026-05-03T07:49:57.997Z</time></trkpt><trkpt lat="37.12575055083395" lon="13.991160189367937"><ele>78.0</ele><time>2026-05-03T07:49:58.997Z</time></trkpt><trkpt lat="37.125694577283916" lon="13.991089349758337"><ele>78.33333333333333</ele><time>2026-05-03T07:49:59.997Z</time></trkpt><trkpt lat="37.12562934319396" lon="13.99102089599919"><ele>78.66666666666666</ele><time>2026-05-03T07:50:00.997Z</time></trkpt><trkpt lat="37.12555604793798" lon="13.990944942629941"><ele>79.0</ele><time>2026-05-03T07:50:01.997Z</time></trkpt><trkpt lat="37.12548710192342" lon="13.990865198789216"><ele>77.33333333333333</ele><time>2026-05-03T07:50:02.997Z</time></trkpt><trkpt lat="37.12541341584768" lon="13.990804143369367"><ele>75.66666666666666</ele><time>2026-05-03T07:50:03.997Z</time></trkpt><trkpt lat="37.12533816630679" lon="13.990746710464776"><ele>74.0</ele><time>2026-05-03T07:50:04.997Z</time></trkpt><trkpt lat="37.12525696807634" lon="13.990685441046617"><ele>72.33333333333333</ele><time>2026-05-03T07:50:05.997Z</time></trkpt><trkpt lat="37.12520946877506" lon="13.990605114788904"><ele>70.66666666666667</ele><time>2026-05-03T07:50:06.997Z</time></trkpt><trkpt lat="37.1251522454526" lon="13.990557900851126"><ele>69.0</ele><time>2026-05-03T07:50:07.998Z</time></trkpt><trkpt lat="37.12509336140918" lon="13.990513348509538"><ele>69.0</ele><time>2026-05-03T07:50:08.998Z</time></trkpt><trkpt lat="37.12502957167394" lon="13.990470798338428"><ele>69.0</ele><time>2026-05-03T07:50:09.998Z</time></trkpt><trkpt lat="37.1249427485257" lon="13.990439309519047"><ele>69.0</ele><time>2026-05-03T07:50:10.997Z</time></trkpt><trkpt lat="37.12485623910222" lon="13.990420539988104"><ele>69.0</ele><time>2026-05-03T07:50:11.998Z</time></trkpt><trkpt lat="37.1247726641982" lon="13.990424684173806"><ele>69.0</ele><time>2026-05-03T07:50:12.998Z</time></trkpt><trkpt lat="37.124690836908314" lon="13.99041526796255"><ele>69.0</ele><time>2026-05-03T07:50:13.997Z</time></trkpt><trkpt lat="37.12461481373096" lon="13.990408564267188"><ele>69.8</ele><time>2026-05-03T07:50:14.998Z</time></trkpt><trkpt lat="37.12452713267327" lon="13.990398283507531"><ele>70.60000000000001</ele><time>2026-05-03T07:50:15.998Z</time></trkpt><trkpt lat="37.124416885561025" lon="13.99039311331741"><ele>71.4</ele><time>2026-05-03T07:50:16.998Z</time></trkpt><trkpt lat="37.124296088910285" lon="13.99039438108121"><ele>72.2</ele><time>2026-05-03T07:50:17.997Z</time></trkpt><trkpt lat="37.124200629794124" lon="13.990392373616139"><ele>73.0</ele><time>2026-05-03T07:50:18.997Z</time></trkpt><trkpt lat="37.124119823475546" lon="13.990394500611501"><ele>71.8</ele><time>2026-05-03T07:50:19.998Z</time></trkpt><trkpt lat="37.12403823880301" lon="13.990394625827474"><ele>70.6</ele><time>2026-05-03T07:50:20.997Z</time></trkpt><trkpt lat="37.12393922663646" lon="13.990379856778391"><ele>69.4</ele><time>2026-05-03T07:50:21.997Z</time></trkpt><trkpt lat="37.123839344618574" lon="13.990393215776667"><ele>68.2</ele><time>2026-05-03T07:50:22.997Z</time></trkpt><trkpt lat="37.123742811320774" lon="13.99041684970825"><ele>67.0</ele><time>2026-05-03T07:50:23.997Z</time></trkpt><trkpt lat="37.12364454788298" lon="13.990448983814934"><ele>67.0</ele><time>2026-05-03T07:50:24.997Z</time></trkpt><trkpt lat="37.12356029461523" lon="13.990473144546538"><ele>67.0</ele><time>2026-05-03T07:50:25.997Z</time></trkpt><trkpt lat="37.12349115748452" lon="13.99048994884514"><ele>67.0</ele><time>2026-05-03T07:50:26.997Z</time></trkpt><trkpt lat="37.12342352423029" lon="13.990500536084122"><ele>67.0</ele><time>2026-05-03T07:50:27.997Z</time></trkpt><trkpt lat="37.12333417486943" lon="13.990496380008638"><ele>67.0</ele><time>2026-05-03T07:50:28.997Z</time></trkpt><trkpt lat="37.123224095380706" lon="13.990505925133654"><ele>67.0</ele><time>2026-05-03T07:50:29.997Z</time></trkpt><trkpt lat="37.12309427572439" lon="13.990506591180639"><ele>65.0</ele><time>2026-05-03T07:50:30.997Z</time></trkpt><trkpt lat="37.12297780833532" lon="13.990514436501426"><ele>63.0</ele><time>2026-05-03T07:50:31.997Z</time></trkpt><trkpt lat="37.12286645039642" lon="13.990521064577706"><ele>61.0</ele><time>2026-05-03T07:50:32.997Z</time></trkpt><trkpt lat="37.122754264522406" lon="13.990527201246612"><ele>59.0</ele><time>2026-05-03T07:50:33.997Z</time></trkpt><trkpt lat="37.1226451740094" lon="13.990525602474985"><ele>57.0</ele><time>2026-05-03T07:50:34.997Z</time></trkpt><trkpt lat="37.12254278392087" lon="13.990506232982087"><ele>57.0</ele><time>2026-05-03T07:50:35.997Z</time></trkpt><trkpt lat="37.12243499818748" lon="13.99046103893837"><ele>57.0</ele><time>2026-05-03T07:50:36.997Z</time></trkpt><trkpt lat="37.12233087997057" lon="13.990401173868266"><ele>57.0</ele><time>2026-05-03T07:50:37.997Z</time></trkpt><trkpt lat="37.1222386056375" lon="13.990324250710678"><ele>57.0</ele><time>2026-05-03T07:50:38.997Z</time></trkpt><trkpt lat="37.122148211433654" lon="13.990258257123456"><ele>57.0</ele><time>2026-05-03T07:50:39.997Z</time></trkpt><trkpt lat="37.122057050449115" lon="13.990190855857145"><ele>54.25</ele><time>2026-05-03T07:50:40.997Z</time></trkpt><trkpt lat="37.12197370398545" lon="13.9901233960943"><ele>51.5</ele><time>2026-05-03T07:50:41.997Z</time></trkpt><trkpt lat="37.121872207619255" lon="13.990063864489047"><ele>48.75</ele><time>2026-05-03T07:50:42.997Z</time></trkpt><trkpt lat="37.12177824116893" lon="13.989982936619441"><ele>46.0</ele><time>2026-05-03T07:50:43.997Z</time></trkpt><trkpt lat="37.12165096521873" lon="13.989935569980748"><ele>43.75</ele><time>2026-05-03T07:50:44.997Z</time></trkpt><trkpt lat="37.121526191845525" lon="13.989925875835244"><ele>41.5</ele><time>2026-05-03T07:50:45.997Z</time></trkpt><trkpt lat="37.12140002019854" lon="13.989908711248601"><ele>39.25</ele><time>2026-05-03T07:50:46.997Z</time></trkpt><trkpt lat="37.12127389122909" lon="13.989870603302494"><ele>37.0</ele><time>2026-05-03T07:50:47.997Z</time></trkpt><trkpt lat="37.121133296600114" lon="13.989814382948177"><ele>37.0</ele><time>2026-05-03T07:50:48.997Z</time></trkpt><trkpt lat="37.12098083928617" lon="13.989752627574623"><ele>37.0</ele><time>2026-05-03T07:50:49.997Z</time></trkpt><trkpt lat="37.12085098496388" lon="13.989685240018883"><ele>37.0</ele><time>2026-05-03T07:50:50.997Z</time></trkpt><trkpt lat="37.12072824603423" lon="13.98963506869171"><ele>37.0</ele><time>2026-05-03T07:50:51.997Z</time></trkpt><trkpt lat="37.12059956888659" lon="13.989589663830541"><ele>35.75</ele><time>2026-05-03T07:50:52.997Z</time></trkpt><trkpt lat="37.12047140769858" lon="13.989545234034985"><ele>34.5</ele><time>2026-05-03T07:50:53.997Z</time></trkpt><trkpt lat="37.1203431056377" lon="13.989496310358366"><ele>33.25</ele><time>2026-05-03T07:50:54.997Z</time></trkpt><trkpt lat="37.120216542154466" lon="13.989449967590765"><ele>32.0</ele><time>2026-05-03T07:50:55.997Z</time></trkpt><trkpt lat="37.12008953741507" lon="13.989405211860486"><ele>32.0</ele><time>2026-05-03T07:50:56.997Z</time></trkpt><trkpt lat="37.119963568412324" lon="13.989356979445896"><ele>32.0</ele><time>2026-05-03T07:50:57.997Z</time></trkpt><trkpt lat="37.11983742377023" lon="13.989307667860519"><ele>32.0</ele><time>2026-05-03T07:50:58.997Z</time></trkpt><trkpt lat="37.11971173443403" lon="13.989260355703895"><ele>32.0</ele><time>2026-05-03T07:50:59.997Z</time></trkpt><trkpt lat="37.11958580684307" lon="13.989214569169889"><ele>31.0</ele><time>2026-05-03T07:51:00.997Z</time></trkpt><trkpt lat="37.11945891819119" lon="13.989166894675728"><ele>30.0</ele><time>2026-05-03T07:51:01.997Z</time></trkpt><trkpt lat="37.119333350201266" lon="13.9891199752622"><ele>29.0</ele><time>2026-05-03T07:51:02.997Z</time></trkpt><trkpt lat="37.11920827124827" lon="13.989077048686312"><ele>28.0</ele><time>2026-05-03T07:51:03.997Z</time></trkpt><trkpt lat="37.11908149389831" lon="13.989031375526393"><ele>27.5</ele><time>2026-05-03T07:51:04.997Z</time></trkpt><trkpt lat="37.11895999388323" lon="13.988965274050427"><ele>27.0</ele><time>2026-05-03T07:51:05.997Z</time></trkpt><trkpt lat="37.11883180324307" lon="13.988931384122209"><ele>26.5</ele><time>2026-05-03T07:51:06.997Z</time></trkpt><trkpt lat="37.11870486562741" lon="13.988884922768735"><ele>26.0</ele><time>2026-05-03T07:51:07.997Z</time></trkpt><trkpt lat="37.11857908017851" lon="13.988841790791536"><ele>26.0</ele><time>2026-05-03T07:51:08.997Z</time></trkpt><trkpt lat="37.118457253942104" lon="13.988803517578592"><ele>26.0</ele><time>2026-05-03T07:51:09.997Z</time></trkpt><trkpt lat="37.118338189745906" lon="13.988767542401296"><ele>26.0</ele><time>2026-05-03T07:51:10.996Z</time></trkpt><trkpt lat="37.11821416926066" lon="13.988746081037078"><ele>26.0</ele><time>2026-05-03T07:51:11.996Z</time></trkpt><trkpt lat="37.118085885648554" lon="13.98871176793125"><ele>25.75</ele><time>2026-05-03T07:51:12.996Z</time></trkpt><trkpt lat="37.117959916610225" lon="13.988676028170541"><ele>25.5</ele><time>2026-05-03T07:51:13.996Z</time></trkpt><trkpt lat="37.11783668498452" lon="13.988643522732165"><ele>25.25</ele><time>2026-05-03T07:51:14.996Z</time></trkpt><trkpt lat="37.11771290126515" lon="13.988606130615965"><ele>25.0</ele><time>2026-05-03T07:51:15.996Z</time></trkpt><trkpt lat="37.11759375415799" lon="13.988573810594973"><ele>25.0</ele><time>2026-05-03T07:51:16.996Z</time></trkpt><trkpt lat="37.11747521488172" lon="13.98854078630623"><ele>25.0</ele><time>2026-05-03T07:51:17.996Z</time></trkpt><trkpt lat="37.11736407746298" lon="13.988508938044435"><ele>25.0</ele><time>2026-05-03T07:51:18.996Z</time></trkpt><trkpt lat="37.11726080196614" lon="13.988476677468778"><ele>25.0</ele><time>2026-05-03T07:51:19.996Z</time></trkpt><trkpt lat="37.1171676998869" lon="13.988444759035245"><ele>25.0</ele><time>2026-05-03T07:51:20.996Z</time></trkpt><trkpt lat="37.117081102847486" lon="13.988415844566392"><ele>24.500000000000004</ele><time>2026-05-03T07:51:21.996Z</time></trkpt><trkpt lat="37.11700441121645" lon="13.988393605697127"><ele>24.0</ele><time>2026-05-03T07:51:22.996Z</time></trkpt><trkpt lat="37.116928095344896" lon="13.988368040589403"><ele>23.5</ele><time>2026-05-03T07:51:23.996Z</time></trkpt><trkpt lat="37.11683380841813" lon="13.988340147469913"><ele>23.0</ele><time>2026-05-03T07:51:24.996Z</time></trkpt><trkpt lat="37.11673794394086" lon="13.98829705236578"><ele>22.5</ele><time>2026-05-03T07:51:25.996Z</time></trkpt><trkpt lat="37.116660164270776" lon="13.988247446534713"><ele>22.0</ele><time>2026-05-03T07:51:26.996Z</time></trkpt><trkpt lat="37.11659215206219" lon="13.98819244598101"><ele>21.6</ele><time>2026-05-03T07:51:27.996Z</time></trkpt><trkpt lat="37.116483105645436" lon="13.988129894852957"><ele>21.200000000000003</ele><time>2026-05-03T07:51:29.996Z</time></trkpt><trkpt lat="37.11638015216039" lon="13.988088567855435"><ele>20.8</ele><time>2026-05-03T07:51:31.996Z</time></trkpt><trkpt lat="37.116281587827345" lon="13.988057210018376"><ele>20.4</ele><time>2026-05-03T07:51:33.996Z</time></trkpt><trkpt lat="37.116181781874694" lon="13.988068337650182"><ele>20.0</ele><time>2026-05-03T07:51:35.996Z</time></trkpt><trkpt lat="37.11609326693119" lon="13.987997486007108"><ele>20.0</ele><time>2026-05-03T07:51:37.996Z</time></trkpt><trkpt lat="37.11600848025033" lon="13.987954701979675"><ele>20.0</ele><time>2026-05-03T07:51:39.996Z</time></trkpt><trkpt lat="37.115937223556216" lon="13.98789189010221"><ele>20.0</ele><time>2026-05-03T07:52:29.997Z</time></trkpt><trkpt lat="37.115880351970375" lon="13.98785477292519"><ele>20.0</ele><time>2026-05-03T07:52:30.997Z</time></trkpt><trkpt lat="37.11581941968184" lon="13.987780985302221"><ele>20.0</ele><time>2026-05-03T07:52:31.997Z</time></trkpt><trkpt lat="37.1157516628509" lon="13.987729039734209"><ele>20.0</ele><time>2026-05-03T07:52:32.997Z</time></trkpt><trkpt lat="37.11567721264677" lon="13.987689521019565"><ele>20.4</ele><time>2026-05-03T07:52:33.997Z</time></trkpt><trkpt lat="37.115601729325974" lon="13.987641844887724"><ele>20.8</ele><time>2026-05-03T07:52:34.997Z</time></trkpt><trkpt lat="37.115517114167375" lon="13.987589744815502"><ele>21.200000000000003</ele><time>2026-05-03T07:52:35.997Z</time></trkpt><trkpt lat="37.115424889245325" lon="13.98753486399237"><ele>21.6</ele><time>2026-05-03T07:52:36.997Z</time></trkpt><trkpt lat="37.11532850902438" lon="13.987461886294323"><ele>22.0</ele><time>2026-05-03T07:52:37.997Z</time></trkpt><trkpt lat="37.11523459683346" lon="13.987411335845664"><ele>21.200000000000003</ele><time>2026-05-03T07:52:38.997Z</time></trkpt><trkpt lat="37.11513965169903" lon="13.98735664629081"><ele>20.400000000000002</ele><time>2026-05-03T07:52:39.997Z</time></trkpt><trkpt lat="37.11504760013508" lon="13.987308123910795"><ele>19.6</ele><time>2026-05-03T07:52:40.997Z</time></trkpt><trkpt lat="37.11495461855293" lon="13.987263508778192"><ele>18.8</ele><time>2026-05-03T07:52:41.997Z</time></trkpt><trkpt lat="37.11485984463239" lon="13.987210200691768"><ele>18.0</ele><time>2026-05-03T07:52:42.997Z</time></trkpt><trkpt lat="37.11476064160156" lon="13.987163654379158"><ele>18.0</ele><time>2026-05-03T07:52:43.997Z</time></trkpt><trkpt lat="37.1146577373025" lon="13.987118156529514"><ele>18.0</ele><time>2026-05-03T07:52:44.997Z</time></trkpt><trkpt lat="37.11455627044041" lon="13.987065791231265"><ele>18.0</ele><time>2026-05-03T07:52:45.997Z</time></trkpt><trkpt lat="37.114449009471016" lon="13.987021097148274"><ele>18.0</ele><time>2026-05-03T07:52:46.996Z</time></trkpt><trkpt lat="37.114345594163815" lon="13.986980680538215"><ele>18.0</ele><time>2026-05-03T07:52:47.996Z</time></trkpt><trkpt lat="37.11424720823462" lon="13.986938859577632"><ele>18.0</ele><time>2026-05-03T07:52:48.996Z</time></trkpt><trkpt lat="37.11415703610237" lon="13.98689708654924"><ele>18.0</ele><time>2026-05-03T07:52:49.996Z</time></trkpt><trkpt lat="37.11406608822616" lon="13.986856869584104"><ele>18.0</ele><time>2026-05-03T07:52:50.996Z</time></trkpt><trkpt lat="37.113979332909466" lon="13.986813992993328"><ele>18.0</ele><time>2026-05-03T07:52:51.996Z</time></trkpt><trkpt lat="37.113901707080174" lon="13.986791247771714"><ele>18.0</ele><time>2026-05-03T07:52:52.996Z</time></trkpt><trkpt lat="37.11381852703434" lon="13.986761340238859"><ele>17.0</ele><time>2026-05-03T07:52:53.996Z</time></trkpt><trkpt lat="37.11373005199514" lon="13.986721311747194"><ele>16.0</ele><time>2026-05-03T07:52:54.996Z</time></trkpt><trkpt lat="37.113636761417965" lon="13.986686688876826"><ele>15.0</ele><time>2026-05-03T07:52:55.996Z</time></trkpt><trkpt lat="37.11354728180079" lon="13.986661795125906"><ele>14.0</ele><time>2026-05-03T07:52:56.996Z</time></trkpt><trkpt lat="37.11346104312339" lon="13.986634617129086"><ele>13.0</ele><time>2026-05-03T07:52:57.996Z</time></trkpt><trkpt lat="37.11336972380246" lon="13.986598041580592"><ele>13.0</ele><time>2026-05-03T07:52:58.996Z</time></trkpt><trkpt lat="37.11327346711008" lon="13.986570455283895"><ele>13.0</ele><time>2026-05-03T07:52:59.996Z</time></trkpt><trkpt lat="37.113177054925515" lon="13.986546025016327"><ele>13.0</ele><time>2026-05-03T07:53:00.996Z</time></trkpt><trkpt lat="37.1130782737327" lon="13.986512895386884"><ele>13.0</ele><time>2026-05-03T07:53:01.996Z</time></trkpt><trkpt lat="37.112978745711075" lon="13.98647862442813"><ele>13.0</ele><time>2026-05-03T07:53:02.996Z</time></trkpt><trkpt lat="37.112888491535564" lon="13.986452917517695"><ele>12.8</ele><time>2026-05-03T07:53:03.996Z</time></trkpt><trkpt lat="37.11280292927098" lon="13.986435465087329"><ele>12.600000000000001</ele><time>2026-05-03T07:53:04.996Z</time></trkpt><trkpt lat="37.112708515313024" lon="13.986410659381715"><ele>12.399999999999999</ele><time>2026-05-03T07:53:05.996Z</time></trkpt><trkpt lat="37.11261660858271" lon="13.986371615117884"><ele>12.2</ele><time>2026-05-03T07:53:06.996Z</time></trkpt><trkpt lat="37.11252037327574" lon="13.986338143636514"><ele>12.0</ele><time>2026-05-03T07:53:07.996Z</time></trkpt><trkpt lat="37.11242849200078" lon="13.986310280549732"><ele>11.333333333333334</ele><time>2026-05-03T07:53:08.996Z</time></trkpt><trkpt lat="37.11235087011301" lon="13.986285689911735"><ele>10.666666666666666</ele><time>2026-05-03T07:53:09.996Z</time></trkpt><trkpt lat="37.11227975205731" lon="13.986258596438843"><ele>10.0</ele><time>2026-05-03T07:53:10.996Z</time></trkpt><trkpt lat="37.11221655602652" lon="13.986240898086056"><ele>9.333333333333332</ele><time>2026-05-03T07:53:11.996Z</time></trkpt><trkpt lat="37.112106157657934" lon="13.986206714750109"><ele>8.666666666666666</ele><time>2026-05-03T07:53:13.996Z</time></trkpt><trkpt lat="37.11204277083449" lon="13.986181998775146"><ele>8.0</ele><time>2026-05-03T07:53:16.996Z</time></trkpt><trkpt lat="37.111983392775514" lon="13.986152402871248"><ele>8.0</ele><time>2026-05-03T07:53:46.996Z</time></trkpt><trkpt lat="37.11194244336705" lon="13.986333055494867"><ele>8.0</ele><time>2026-05-03T07:53:48.996Z</time></trkpt><trkpt lat="37.11193404428248" lon="13.9864442300775"><ele>8.0</ele><time>2026-05-03T07:53:49.996Z</time></trkpt><trkpt lat="37.11193237053498" lon="13.986558143465615"><ele>8.0</ele><time>2026-05-03T07:53:50.996Z</time></trkpt><trkpt lat="37.1119294351582" lon="13.986688189014815"><ele>8.0</ele><time>2026-05-03T07:53:51.996Z</time></trkpt><trkpt lat="37.111923906459076" lon="13.986843970640528"><ele>8.0</ele><time>2026-05-03T07:53:52.996Z</time></trkpt><trkpt lat="37.11191677188387" lon="13.986988296262222"><ele>8.0</ele><time>2026-05-03T07:53:53.996Z</time></trkpt><trkpt lat="37.11190740608479" lon="13.98713534577557"><ele>8.0</ele><time>2026-05-03T07:53:54.996Z</time></trkpt><trkpt lat="37.11189907884906" lon="13.987291476758118"><ele>8.0</ele><time>2026-05-03T07:53:55.996Z</time></trkpt><trkpt lat="37.111889567861695" lon="13.987461188038958"><ele>7.666666666666666</ele><time>2026-05-03T07:53:56.996Z</time></trkpt><trkpt lat="37.11188065311532" lon="13.987644885190077"><ele>7.333333333333334</ele><time>2026-05-03T07:53:57.996Z</time></trkpt><trkpt lat="37.11187030574714" lon="13.987837669136804"><ele>7.0</ele><time>2026-05-03T07:53:58.996Z</time></trkpt><trkpt lat="37.11186276729447" lon="13.988029983683095"><ele>7.0</ele><time>2026-05-03T07:53:59.995Z</time></trkpt><trkpt lat="37.111853547291545" lon="13.98822433405271"><ele>7.0</ele><time>2026-05-03T07:54:00.995Z</time></trkpt><trkpt lat="37.111842237440854" lon="13.988424163312725"><ele>7.0</ele><time>2026-05-03T07:54:01.995Z</time></trkpt><trkpt lat="37.111830595116984" lon="13.988630878208081"><ele>6.666666666666667</ele><time>2026-05-03T07:54:02.995Z</time></trkpt><trkpt lat="37.11181876200224" lon="13.988843983629401"><ele>6.333333333333334</ele><time>2026-05-03T07:54:03.995Z</time></trkpt><trkpt lat="37.11180761540693" lon="13.989061086099632"><ele>6.0</ele><time>2026-05-03T07:54:04.995Z</time></trkpt><trkpt lat="37.11177716163649" lon="13.989282757998817"><ele>6.666666666666666</ele><time>2026-05-03T07:54:05.995Z</time></trkpt><trkpt lat="37.11176406104952" lon="13.989508816088314"><ele>7.333333333333333</ele><time>2026-05-03T07:54:06.995Z</time></trkpt><trkpt lat="37.11175086339439" lon="13.989736563633073"><ele>8.0</ele><time>2026-05-03T07:54:07.995Z</time></trkpt><trkpt lat="37.11173813269776" lon="13.989953352223743"><ele>7.666666666666666</ele><time>2026-05-03T07:54:08.995Z</time></trkpt><trkpt lat="37.11172649418701" lon="13.990161794549707"><ele>7.333333333333334</ele><time>2026-05-03T07:54:09.995Z</time></trkpt><trkpt lat="37.11171469114634" lon="13.99037081026"><ele>7.0</ele><time>2026-05-03T07:54:10.995Z</time></trkpt><trkpt lat="37.11170194146406" lon="13.990582994034389"><ele>7.0</ele><time>2026-05-03T07:54:11.995Z</time></trkpt><trkpt lat="37.111689589321216" lon="13.99079802974213"><ele>7.0</ele><time>2026-05-03T07:54:12.995Z</time></trkpt><trkpt lat="37.111677137664685" lon="13.99101479785257"><ele>7.0</ele><time>2026-05-03T07:54:13.995Z</time></trkpt><trkpt lat="37.11166451992134" lon="13.991234457332233"><ele>7.333333333333334</ele><time>2026-05-03T07:54:14.995Z</time></trkpt><trkpt lat="37.11165193846318" lon="13.991453485139948"><ele>7.666666666666666</ele><time>2026-05-03T07:54:15.995Z</time></trkpt><trkpt lat="37.111655663956235" lon="13.991679033540258"><ele>8.0</ele><time>2026-05-03T07:54:16.995Z</time></trkpt><trkpt lat="37.11162615296455" lon="13.991902379112314"><ele>8.0</ele><time>2026-05-03T07:54:17.995Z</time></trkpt><trkpt lat="37.111617619602704" lon="13.992131486389747"><ele>8.0</ele><time>2026-05-03T07:54:18.995Z</time></trkpt><trkpt lat="37.11162942364992" lon="13.9923597240572"><ele>8.0</ele><time>2026-05-03T07:54:19.997Z</time></trkpt><trkpt lat="37.11162656025983" lon="13.992587273498739"><ele>8.333333333333332</ele><time>2026-05-03T07:54:20.996Z</time></trkpt><trkpt lat="37.11162758853041" lon="13.992816440864976"><ele>8.666666666666666</ele><time>2026-05-03T07:54:21.996Z</time></trkpt><trkpt lat="37.1116304025628" lon="13.993043733935716"><ele>9.0</ele><time>2026-05-03T07:54:22.996Z</time></trkpt><trkpt lat="37.11163231210797" lon="13.993270361519368"><ele>10.0</ele><time>2026-05-03T07:54:23.996Z</time></trkpt><trkpt lat="37.111633934127134" lon="13.993497877900381"><ele>11.0</ele><time>2026-05-03T07:54:24.996Z</time></trkpt><trkpt lat="37.11163159265829" lon="13.993716247603523"><ele>12.0</ele><time>2026-05-03T07:54:25.997Z</time></trkpt><trkpt lat="37.1116120585014" lon="13.993936258830281"><ele>12.0</ele><time>2026-05-03T07:54:26.996Z</time></trkpt><trkpt lat="37.11159463829686" lon="13.9941526605334"><ele>12.0</ele><time>2026-05-03T07:54:27.996Z</time></trkpt><trkpt lat="37.111574280060275" lon="13.994370356196365"><ele>12.0</ele><time>2026-05-03T07:54:28.996Z</time></trkpt><trkpt lat="37.11155172093946" lon="13.994588192489353"><ele>10.0</ele><time>2026-05-03T07:54:29.996Z</time></trkpt><trkpt lat="37.111533349821826" lon="13.99480159293622"><ele>8.0</ele><time>2026-05-03T07:54:30.996Z</time></trkpt><trkpt lat="37.11150980926212" lon="13.995019828080085"><ele>6.0</ele><time>2026-05-03T07:54:31.997Z</time></trkpt><trkpt lat="37.11148769296991" lon="13.995238056333516"><ele>6.0</ele><time>2026-05-03T07:54:32.996Z</time></trkpt><trkpt lat="37.11146508346229" lon="13.995452642793524"><ele>6.0</ele><time>2026-05-03T07:54:33.996Z</time></trkpt><trkpt lat="37.111443330104834" lon="13.995667361368984"><ele>6.0</ele><time>2026-05-03T07:54:34.996Z</time></trkpt><trkpt lat="37.111421508333436" lon="13.995885829560944"><ele>6.333333333333334</ele><time>2026-05-03T07:54:35.996Z</time></trkpt><trkpt lat="37.11139893826457" lon="13.996104833466696"><ele>6.666666666666667</ele><time>2026-05-03T07:54:36.996Z</time></trkpt><trkpt lat="37.11137682756676" lon="13.99632173544279"><ele>7.0</ele><time>2026-05-03T07:54:37.996Z</time></trkpt><trkpt lat="37.11135581705836" lon="13.996536131630434"><ele>7.666666666666667</ele><time>2026-05-03T07:54:38.996Z</time></trkpt><trkpt lat="37.111333602795625" lon="13.99675195116512"><ele>8.333333333333334</ele><time>2026-05-03T07:54:39.996Z</time></trkpt><trkpt lat="37.11131215880643" lon="13.996967816311585"><ele>9.0</ele><time>2026-05-03T07:54:40.996Z</time></trkpt><trkpt lat="37.11129051880352" lon="13.997183799226255"><ele>9.0</ele><time>2026-05-03T07:54:41.996Z</time></trkpt><trkpt lat="37.111267610516414" lon="13.997400818632846"><ele>9.0</ele><time>2026-05-03T07:54:42.996Z</time></trkpt><trkpt lat="37.11124707526043" lon="13.997617194481592"><ele>9.0</ele><time>2026-05-03T07:54:43.996Z</time></trkpt><trkpt lat="37.111224565979505" lon="13.997833029961456"><ele>9.333333333333334</ele><time>2026-05-03T07:54:44.996Z</time></trkpt><trkpt lat="37.111200846552315" lon="13.998050588592903"><ele>9.666666666666668</ele><time>2026-05-03T07:54:45.996Z</time></trkpt><trkpt lat="37.11117949264522" lon="13.998267873814815"><ele>10.0</ele><time>2026-05-03T07:54:46.996Z</time></trkpt><trkpt lat="37.11116065289824" lon="13.998486997434577"><ele>11.0</ele><time>2026-05-03T07:54:47.996Z</time></trkpt><trkpt lat="37.1111213584478" lon="13.998704750933037"><ele>12.0</ele><time>2026-05-03T07:54:48.996Z</time></trkpt><trkpt lat="37.11111431956913" lon="13.99892705631824"><ele>13.0</ele><time>2026-05-03T07:54:49.996Z</time></trkpt><trkpt lat="37.11108827473282" lon="13.999148401637566"><ele>14.0</ele><time>2026-05-03T07:54:50.996Z</time></trkpt><trkpt lat="37.11106297748214" lon="13.999368787059716"><ele>15.0</ele><time>2026-05-03T07:54:51.996Z</time></trkpt><trkpt lat="37.11103791740945" lon="13.999591522375813"><ele>16.0</ele><time>2026-05-03T07:54:52.996Z</time></trkpt><trkpt lat="37.11101526991176" lon="13.999812905844864"><ele>16.0</ele><time>2026-05-03T07:54:53.996Z</time></trkpt><trkpt lat="37.11099224295961" lon="14.00003313723219"><ele>16.0</ele><time>2026-05-03T07:54:54.996Z</time></trkpt><trkpt lat="37.110969081132545" lon="14.000255183296888"><ele>16.0</ele><time>2026-05-03T07:54:55.996Z</time></trkpt><trkpt lat="37.11094530402742" lon="14.000477129793852"><ele>16.0</ele><time>2026-05-03T07:54:56.996Z</time></trkpt><trkpt lat="37.11092432301105" lon="14.000698489153265"><ele>16.0</ele><time>2026-05-03T07:54:57.996Z</time></trkpt><trkpt lat="37.11090318403227" lon="14.000916409150149"><ele>16.0</ele><time>2026-05-03T07:54:58.996Z</time></trkpt><trkpt lat="37.110882476168236" lon="14.00112848529792"><ele>16.0</ele><time>2026-05-03T07:54:59.996Z</time></trkpt><trkpt lat="37.11085975644089" lon="14.001336751093866"><ele>16.0</ele><time>2026-05-03T07:55:00.996Z</time></trkpt><trkpt lat="37.11083615553628" lon="14.001541930018336"><ele>16.0</ele><time>2026-05-03T07:55:01.996Z</time></trkpt><trkpt lat="37.1108129513966" lon="14.001744313059229"><ele>16.666666666666664</ele><time>2026-05-03T07:55:02.996Z</time></trkpt><trkpt lat="37.110789938316486" lon="14.001945475241207"><ele>17.333333333333332</ele><time>2026-05-03T07:55:03.996Z</time></trkpt><trkpt lat="37.11076590542721" lon="14.002145322985735"><ele>18.0</ele><time>2026-05-03T07:55:04.996Z</time></trkpt><trkpt lat="37.110742563882674" lon="14.002340737445838"><ele>14.666666666666666</ele><time>2026-05-03T07:55:05.996Z</time></trkpt><trkpt lat="37.11072038542356" lon="14.002534233774965"><ele>11.333333333333332</ele><time>2026-05-03T07:55:06.996Z</time></trkpt><trkpt lat="37.11069958383596" lon="14.00272389457296"><ele>8.0</ele><time>2026-05-03T07:55:07.996Z</time></trkpt><trkpt lat="37.110682822135004" lon="14.002908890313781"><ele>8.0</ele><time>2026-05-03T07:55:08.996Z</time></trkpt><trkpt lat="37.110675026409034" lon="14.003092495590005"><ele>8.0</ele><time>2026-05-03T07:55:09.996Z</time></trkpt><trkpt lat="37.11065301176399" lon="14.003273455505916"><ele>8.0</ele><time>2026-05-03T07:55:10.996Z</time></trkpt><trkpt lat="37.11066369948418" lon="14.003448852462204"><ele>8.0</ele><time>2026-05-03T07:55:11.996Z</time></trkpt><trkpt lat="37.11068488064869" lon="14.003612757947451"><ele>7.5</ele><time>2026-05-03T07:55:12.996Z</time></trkpt><trkpt lat="37.11073344317556" lon="14.003765777008597"><ele>7.0</ele><time>2026-05-03T07:55:13.996Z</time></trkpt><trkpt lat="37.110745555163085" lon="14.00392283193302"><ele>6.5</ele><time>2026-05-03T07:55:14.996Z</time></trkpt><trkpt lat="37.11073424386884" lon="14.00407718298467"><ele>6.0</ele><time>2026-05-03T07:55:15.996Z</time></trkpt><trkpt lat="37.11069407230291" lon="14.004222429635965"><ele>6.0</ele><time>2026-05-03T07:55:16.996Z</time></trkpt><trkpt lat="37.11060610253067" lon="14.004337328050212"><ele>6.0</ele><time>2026-05-03T07:55:17.996Z</time></trkpt><trkpt lat="37.11052237144166" lon="14.004462021013838"><ele>6.0</ele><time>2026-05-03T07:55:18.996Z</time></trkpt><trkpt lat="37.11044761393954" lon="14.004600737677702"><ele>6.0</ele><time>2026-05-03T07:55:19.996Z</time></trkpt><trkpt lat="37.11036245812134" lon="14.004728604477958"><ele>6.0</ele><time>2026-05-03T07:55:20.996Z</time></trkpt><trkpt lat="37.11029115923911" lon="14.004862639055922"><ele>6.0</ele><time>2026-05-03T07:55:21.995Z</time></trkpt><trkpt lat="37.110237299896944" lon="14.004997039835098"><ele>6.0</ele><time>2026-05-03T07:55:22.995Z</time></trkpt><trkpt lat="37.11019823045768" lon="14.005134398226714"><ele>6.0</ele><time>2026-05-03T07:55:23.995Z</time></trkpt><trkpt lat="37.11018255475305" lon="14.005280129130346"><ele>7.6</ele><time>2026-05-03T07:55:24.995Z</time></trkpt><trkpt lat="37.11019011510383" lon="14.005426197947076"><ele>9.2</ele><time>2026-05-03T07:55:25.995Z</time></trkpt><trkpt lat="37.11021651588095" lon="14.005567361466849"><ele>10.799999999999999</ele><time>2026-05-03T07:55:26.995Z</time></trkpt><trkpt lat="37.11025832083228" lon="14.005687898924391"><ele>12.399999999999999</ele><time>2026-05-03T07:55:27.995Z</time></trkpt><trkpt lat="37.110318852919015" lon="14.00577927190359"><ele>14.0</ele><time>2026-05-03T07:55:28.995Z</time></trkpt><trkpt lat="37.110398375826" lon="14.005829727777094"><ele>14.0</ele><time>2026-05-03T07:55:29.995Z</time></trkpt><trkpt lat="37.1104815610323" lon="14.005865491036392"><ele>13.999999999999998</ele><time>2026-05-03T07:55:30.995Z</time></trkpt><trkpt lat="37.110574039253564" lon="14.005904049623261"><ele>13.999999999999998</ele><time>2026-05-03T07:55:31.995Z</time></trkpt><trkpt lat="37.11067086120906" lon="14.005948148795893"><ele>14.0</ele><time>2026-05-03T07:55:32.995Z</time></trkpt><trkpt lat="37.11077238891215" lon="14.00599419624448"><ele>14.0</ele><time>2026-05-03T07:55:33.995Z</time></trkpt><trkpt lat="37.11087513664012" lon="14.006038043747079"><ele>16.2</ele><time>2026-05-03T07:55:34.995Z</time></trkpt><trkpt lat="37.11097564388246" lon="14.006081466101797"><ele>18.4</ele><time>2026-05-03T07:55:35.995Z</time></trkpt><trkpt lat="37.11106942814322" lon="14.006129632374924"><ele>20.6</ele><time>2026-05-03T07:55:36.995Z</time></trkpt><trkpt lat="37.111156212645106" lon="14.00618476616363"><ele>22.8</ele><time>2026-05-03T07:55:37.995Z</time></trkpt><trkpt lat="37.111241207561896" lon="14.00623698520491"><ele>25.0</ele><time>2026-05-03T07:55:38.995Z</time></trkpt><trkpt lat="37.11131729625515" lon="14.00630483904453"><ele>25.0</ele><time>2026-05-03T07:55:39.995Z</time></trkpt><trkpt lat="37.11137561137657" lon="14.006400019241015"><ele>25.0</ele><time>2026-05-03T07:55:40.995Z</time></trkpt><trkpt lat="37.11140655462527" lon="14.006524368773015"><ele>25.0</ele><time>2026-05-03T07:55:41.995Z</time></trkpt><trkpt lat="37.111412195847336" lon="14.00666231303913"><ele>25.0</ele><time>2026-05-03T07:55:42.995Z</time></trkpt><trkpt lat="37.11140742827622" lon="14.00680432631571"><ele>25.0</ele><time>2026-05-03T07:55:43.995Z</time></trkpt><trkpt lat="37.11137343290712" lon="14.006945702998273"><ele>23.25</ele><time>2026-05-03T07:55:44.995Z</time></trkpt><trkpt lat="37.111365202466175" lon="14.007098575773833"><ele>21.5</ele><time>2026-05-03T07:55:45.995Z</time></trkpt><trkpt lat="37.11133937325164" lon="14.007255588705327"><ele>19.75</ele><time>2026-05-03T07:55:46.995Z</time></trkpt><trkpt lat="37.11131372148323" lon="14.007412302769117"><ele>18.0</ele><time>2026-05-03T07:55:47.995Z</time></trkpt><trkpt lat="37.111288078213086" lon="14.007574702938996"><ele>17.75</ele><time>2026-05-03T07:55:48.995Z</time></trkpt><trkpt lat="37.111250032241436" lon="14.007738244657878"><ele>17.5</ele><time>2026-05-03T07:55:49.995Z</time></trkpt><trkpt lat="37.11121904211364" lon="14.007906965423992"><ele>17.25</ele><time>2026-05-03T07:55:50.995Z</time></trkpt><trkpt lat="37.111179039485535" lon="14.008073091499325"><ele>17.0</ele><time>2026-05-03T07:55:51.995Z</time></trkpt><trkpt lat="37.111131992964054" lon="14.008238095821234"><ele>17.25</ele><time>2026-05-03T07:55:52.995Z</time></trkpt><trkpt lat="37.11107686448058" lon="14.00839855555067"><ele>17.5</ele><time>2026-05-03T07:55:53.995Z</time></trkpt><trkpt lat="37.11101715844741" lon="14.008551732388698"><ele>17.75</ele><time>2026-05-03T07:55:54.995Z</time></trkpt><trkpt lat="37.11096101976457" lon="14.008706052935315"><ele>18.0</ele><time>2026-05-03T07:55:55.995Z</time></trkpt><trkpt lat="37.110908386952524" lon="14.008860895299405"><ele>18.0</ele><time>2026-05-03T07:55:56.995Z</time></trkpt><trkpt lat="37.11085609911017" lon="14.009013263502542"><ele>18.0</ele><time>2026-05-03T07:55:57.995Z</time></trkpt><trkpt lat="37.110803974746155" lon="14.009163749348383"><ele>18.0</ele><time>2026-05-03T07:55:58.995Z</time></trkpt><trkpt lat="37.11075472805995" lon="14.009313965623043"><ele>18.0</ele><time>2026-05-03T07:55:59.995Z</time></trkpt><trkpt lat="37.110713630744776" lon="14.009467603928933"><ele>16.75</ele><time>2026-05-03T07:56:00.995Z</time></trkpt><trkpt lat="37.1106871376718" lon="14.009627637259586"><ele>15.5</ele><time>2026-05-03T07:56:01.995Z</time></trkpt><trkpt lat="37.11067485610388" lon="14.009796231747774"><ele>14.25</ele><time>2026-05-03T07:56:02.995Z</time></trkpt><trkpt lat="37.11067350999476" lon="14.00995546873649"><ele>13.0</ele><time>2026-05-03T07:56:03.995Z</time></trkpt><trkpt lat="37.11067684535406" lon="14.010098128750563"><ele>13.0</ele><time>2026-05-03T07:56:04.995Z</time></trkpt><trkpt lat="37.110679611976124" lon="14.01023134802113"><ele>13.0</ele><time>2026-05-03T07:56:05.995Z</time></trkpt><trkpt lat="37.11068154572332" lon="14.010353750125732"><ele>13.0</ele><time>2026-05-03T07:56:06.995Z</time></trkpt><trkpt lat="37.110682135479244" lon="14.010466752125076"><ele>13.0</ele><time>2026-05-03T07:56:07.995Z</time></trkpt><trkpt lat="37.11068423625973" lon="14.010582451534862"><ele>13.0</ele><time>2026-05-03T07:56:08.995Z</time></trkpt><trkpt lat="37.11068754681016" lon="14.01070891766533"><ele>13.5</ele><time>2026-05-03T07:56:09.995Z</time></trkpt><trkpt lat="37.110689469161464" lon="14.010842677439733"><ele>14.0</ele><time>2026-05-03T07:56:10.995Z</time></trkpt><trkpt lat="37.11069111660982" lon="14.010982127460197"><ele>14.5</ele><time>2026-05-03T07:56:11.995Z</time></trkpt><trkpt lat="37.11069442184175" lon="14.011132106971942"><ele>15.0</ele><time>2026-05-03T07:56:12.995Z</time></trkpt><trkpt lat="37.110696835588406" lon="14.01128868266959"><ele>15.0</ele><time>2026-05-03T07:56:13.995Z</time></trkpt><trkpt lat="37.11068911633398" lon="14.011449406982685"><ele>15.0</ele><time>2026-05-03T07:56:14.995Z</time></trkpt><trkpt lat="37.11069080564615" lon="14.011615032188981"><ele>15.0</ele><time>2026-05-03T07:56:15.995Z</time></trkpt><trkpt lat="37.110691334484244" lon="14.011787072075759"><ele>15.0</ele><time>2026-05-03T07:56:16.995Z</time></trkpt><trkpt lat="37.11068755948282" lon="14.011965744144275"><ele>15.0</ele><time>2026-05-03T07:56:17.995Z</time></trkpt><trkpt lat="37.11067712678577" lon="14.012147965886289"><ele>15.0</ele><time>2026-05-03T07:56:18.995Z</time></trkpt><trkpt lat="37.1106576930477" lon="14.0123277875154"><ele>15.0</ele><time>2026-05-03T07:56:19.995Z</time></trkpt><trkpt lat="37.11062854319683" lon="14.012502346954522"><ele>15.0</ele><time>2026-05-03T07:56:20.995Z</time></trkpt><trkpt lat="37.1105808332106" lon="14.012670598160817"><ele>15.0</ele><time>2026-05-03T07:56:21.995Z</time></trkpt><trkpt lat="37.11052354121553" lon="14.012819061125255"><ele>15.0</ele><time>2026-05-03T07:56:22.995Z</time></trkpt><trkpt lat="37.110521362128225" lon="14.012949193137022"><ele>15.0</ele><time>2026-05-03T07:56:23.995Z</time></trkpt><trkpt lat="37.110505909076885" lon="14.01308154104286"><ele>15.0</ele><time>2026-05-03T07:56:24.995Z</time></trkpt><trkpt lat="37.110489577116894" lon="14.013221416171413"><ele>15.6</ele><time>2026-05-03T07:56:25.996Z</time></trkpt><trkpt lat="37.110474383560685" lon="14.013353608723902"><ele>16.2</ele><time>2026-05-03T07:56:26.996Z</time></trkpt><trkpt lat="37.11046548298751" lon="14.01346297157134"><ele>16.8</ele><time>2026-05-03T07:56:27.996Z</time></trkpt><trkpt lat="37.110458281102446" lon="14.013581149374732"><ele>17.4</ele><time>2026-05-03T07:56:28.996Z</time></trkpt><trkpt lat="37.110454855367486" lon="14.013697073497612"><ele>18.0</ele><time>2026-05-03T07:56:29.996Z</time></trkpt><trkpt lat="37.11045777537857" lon="14.013844891327293"><ele>18.0</ele><time>2026-05-03T07:56:30.996Z</time></trkpt><trkpt lat="37.11047003635615" lon="14.013938845836282"><ele>18.0</ele><time>2026-05-03T07:56:31.996Z</time></trkpt><trkpt lat="37.110488183691025" lon="14.01403532738987"><ele>18.0</ele><time>2026-05-03T07:56:32.996Z</time></trkpt><trkpt lat="37.110526405298664" lon="14.014318112734387"><ele>18.0</ele><time>2026-05-03T07:56:33.996Z</time></trkpt><trkpt lat="37.11059830155456" lon="14.014460658319967"><ele>18.5</ele><time>2026-05-03T07:56:34.996Z</time></trkpt><trkpt lat="37.11065199213129" lon="14.014599555614263"><ele>19.0</ele><time>2026-05-03T07:56:35.996Z</time></trkpt><trkpt lat="37.110704080296806" lon="14.014739567169789"><ele>19.5</ele><time>2026-05-03T07:56:36.996Z</time></trkpt><trkpt lat="37.11075828581433" lon="14.014882582422933"><ele>20.0</ele><time>2026-05-03T07:56:37.995Z</time></trkpt><trkpt lat="37.1108071790415" lon="14.01502328569812"><ele>21.0</ele><time>2026-05-03T07:56:38.996Z</time></trkpt><trkpt lat="37.110859212690706" lon="14.01516914010858"><ele>22.0</ele><time>2026-05-03T07:56:39.996Z</time></trkpt><trkpt lat="37.11090713729715" lon="14.015315906261332"><ele>23.0</ele><time>2026-05-03T07:56:40.996Z</time></trkpt><trkpt lat="37.11095587683498" lon="14.0154632043236"><ele>24.0</ele><time>2026-05-03T07:56:41.996Z</time></trkpt><trkpt lat="37.111005888211416" lon="14.015610283131737"><ele>24.0</ele><time>2026-05-03T07:56:42.996Z</time></trkpt><trkpt lat="37.11105752077886" lon="14.015760221418676"><ele>24.0</ele><time>2026-05-03T07:56:43.996Z</time></trkpt><trkpt lat="37.111108211485515" lon="14.015911231753998"><ele>24.0</ele><time>2026-05-03T07:56:44.996Z</time></trkpt><trkpt lat="37.11115953043935" lon="14.016063042234792"><ele>24.0</ele><time>2026-05-03T07:56:45.996Z</time></trkpt><trkpt lat="37.111210164934725" lon="14.016217062720566"><ele>23.75</ele><time>2026-05-03T07:56:46.996Z</time></trkpt><trkpt lat="37.11126268559041" lon="14.016371182517478"><ele>23.5</ele><time>2026-05-03T07:56:47.996Z</time></trkpt><trkpt lat="37.111311972939696" lon="14.016524890434646"><ele>23.25</ele><time>2026-05-03T07:56:48.996Z</time></trkpt><trkpt lat="37.11136001631363" lon="14.016679958043655"><ele>23.0</ele><time>2026-05-03T07:56:49.996Z</time></trkpt><trkpt lat="37.111407848067344" lon="14.016835426934911"><ele>23.0</ele><time>2026-05-03T07:56:50.996Z</time></trkpt><trkpt lat="37.11145236923819" lon="14.016989706964786"><ele>23.0</ele><time>2026-05-03T07:56:51.996Z</time></trkpt><trkpt lat="37.111495558835024" lon="14.017143392935719"><ele>23.0</ele><time>2026-05-03T07:56:52.996Z</time></trkpt><trkpt lat="37.11153434511096" lon="14.017295927166602"><ele>23.0</ele><time>2026-05-03T07:56:53.996Z</time></trkpt><trkpt lat="37.111573588835874" lon="14.01744156839461"><ele>24.5</ele><time>2026-05-03T07:56:54.996Z</time></trkpt><trkpt lat="37.11160563920691" lon="14.017586461470104"><ele>26.0</ele><time>2026-05-03T07:56:55.996Z</time></trkpt><trkpt lat="37.111633110492164" lon="14.017736917995926"><ele>27.5</ele><time>2026-05-03T07:56:56.996Z</time></trkpt><trkpt lat="37.111663931993135" lon="14.01789121312468"><ele>29.0</ele><time>2026-05-03T07:56:57.996Z</time></trkpt><trkpt lat="37.11169775931836" lon="14.018044554841259"><ele>29.0</ele><time>2026-05-03T07:56:58.996Z</time></trkpt><trkpt lat="37.11173214812436" lon="14.018202406361594"><ele>29.0</ele><time>2026-05-03T07:56:59.996Z</time></trkpt><trkpt lat="37.11176807718417" lon="14.018360994151582"><ele>29.0</ele><time>2026-05-03T07:57:00.996Z</time></trkpt><trkpt lat="37.111803144130974" lon="14.018519396325845"><ele>29.0</ele><time>2026-05-03T07:57:01.996Z</time></trkpt><trkpt lat="37.1118377292841" lon="14.018677377596703"><ele>28.25</ele><time>2026-05-03T07:57:02.996Z</time></trkpt><trkpt lat="37.11187494756319" lon="14.018837640127813"><ele>27.5</ele><time>2026-05-03T07:57:03.996Z</time></trkpt><trkpt lat="37.11191299220582" lon="14.01899927584503"><ele>26.75</ele><time>2026-05-03T07:57:04.996Z</time></trkpt><trkpt lat="37.111952811227034" lon="14.01916232640256"><ele>26.0</ele><time>2026-05-03T07:57:05.996Z</time></trkpt><trkpt lat="37.11199349054624" lon="14.01932692568908"><ele>25.75</ele><time>2026-05-03T07:57:06.996Z</time></trkpt><trkpt lat="37.1120353216201" lon="14.01949325721824"><ele>25.5</ele><time>2026-05-03T07:57:07.996Z</time></trkpt><trkpt lat="37.11207413339227" lon="14.01965899268085"><ele>25.25</ele><time>2026-05-03T07:57:08.996Z</time></trkpt><trkpt lat="37.112114070862226" lon="14.01982454238771"><ele>25.0</ele><time>2026-05-03T07:57:09.996Z</time></trkpt><trkpt lat="37.112154085606875" lon="14.019989743480386"><ele>24.25</ele><time>2026-05-03T07:57:10.996Z</time></trkpt><trkpt lat="37.11219173883661" lon="14.0201544465882"><ele>23.5</ele><time>2026-05-03T07:57:11.996Z</time></trkpt><trkpt lat="37.11222747734187" lon="14.020314637274925"><ele>22.75</ele><time>2026-05-03T07:57:12.995Z</time></trkpt><trkpt lat="37.11226291701688" lon="14.020472908342905"><ele>22.0</ele><time>2026-05-03T07:57:13.995Z</time></trkpt><trkpt lat="37.11229776173992" lon="14.020630205059957"><ele>22.0</ele><time>2026-05-03T07:57:14.995Z</time></trkpt><trkpt lat="37.11233116567122" lon="14.02078895596153"><ele>22.0</ele><time>2026-05-03T07:57:15.995Z</time></trkpt><trkpt lat="37.11236470197176" lon="14.020950684851613"><ele>22.0</ele><time>2026-05-03T07:57:16.995Z</time></trkpt><trkpt lat="37.11240044249604" lon="14.021116668657175"><ele>22.0</ele><time>2026-05-03T07:57:17.995Z</time></trkpt><trkpt lat="37.112438598246605" lon="14.021286000449502"><ele>22.0</ele><time>2026-05-03T07:57:18.995Z</time></trkpt><trkpt lat="37.11247701362525" lon="14.021453654079217"><ele>22.0</ele><time>2026-05-03T07:57:19.995Z</time></trkpt><trkpt lat="37.11251549179247" lon="14.021622988468376"><ele>22.0</ele><time>2026-05-03T07:57:20.995Z</time></trkpt><trkpt lat="37.11255467169404" lon="14.021793147498482"><ele>22.0</ele><time>2026-05-03T07:57:21.995Z</time></trkpt><trkpt lat="37.11259323050867" lon="14.021961379040997"><ele>22.0</ele><time>2026-05-03T07:57:22.995Z</time></trkpt><trkpt lat="37.11262867350447" lon="14.022129941219902"><ele>22.0</ele><time>2026-05-03T07:57:23.995Z</time></trkpt><trkpt lat="37.11265828995803" lon="14.022294520555302"><ele>22.0</ele><time>2026-05-03T07:57:24.995Z</time></trkpt><trkpt lat="37.11267592870801" lon="14.022457319743898"><ele>22.0</ele><time>2026-05-03T07:57:25.995Z</time></trkpt><trkpt lat="37.11267610139107" lon="14.022611131267343"><ele>22.0</ele><time>2026-05-03T07:57:26.995Z</time></trkpt><trkpt lat="37.1126565148055" lon="14.022760723163675"><ele>22.0</ele><time>2026-05-03T07:57:27.995Z</time></trkpt><trkpt lat="37.11261701263181" lon="14.022903469912338"><ele>22.0</ele><time>2026-05-03T07:57:28.995Z</time></trkpt><trkpt lat="37.11256495025478" lon="14.023036074959702"><ele>22.0</ele><time>2026-05-03T07:57:29.995Z</time></trkpt><trkpt lat="37.11250247017254" lon="14.023157705869576"><ele>22.0</ele><time>2026-05-03T07:57:30.995Z</time></trkpt><trkpt lat="37.11243271779016" lon="14.023270838346587"><ele>22.0</ele><time>2026-05-03T07:57:31.995Z</time></trkpt><trkpt lat="37.11236006170044" lon="14.023385202562823"><ele>22.0</ele><time>2026-05-03T07:57:32.995Z</time></trkpt><trkpt lat="37.11228490642664" lon="14.023498284060933"><ele>22.0</ele><time>2026-05-03T07:57:33.995Z</time></trkpt><trkpt lat="37.11220970038321" lon="14.023613333913948"><ele>22.25</ele><time>2026-05-03T07:57:34.995Z</time></trkpt><trkpt lat="37.11213516667009" lon="14.023724814066615"><ele>22.5</ele><time>2026-05-03T07:57:35.995Z</time></trkpt><trkpt lat="37.112061265173196" lon="14.0238340468106"><ele>22.75</ele><time>2026-05-03T07:57:36.995Z</time></trkpt><trkpt lat="37.11199387234592" lon="14.023946450030966"><ele>23.0</ele><time>2026-05-03T07:57:37.995Z</time></trkpt><trkpt lat="37.11193492683512" lon="14.02406507797726"><ele>23.799999999999997</ele><time>2026-05-03T07:57:38.995Z</time></trkpt><trkpt lat="37.11189045730312" lon="14.024188709723688"><ele>24.6</ele><time>2026-05-03T07:57:39.995Z</time></trkpt><trkpt lat="37.111862345948786" lon="14.024320277683689"><ele>25.400000000000002</ele><time>2026-05-03T07:57:40.995Z</time></trkpt><trkpt lat="37.11184324258395" lon="14.024457196027083"><ele>26.200000000000003</ele><time>2026-05-03T07:57:41.995Z</time></trkpt><trkpt lat="37.111836724800895" lon="14.024603363098993"><ele>27.0</ele><time>2026-05-03T07:57:42.995Z</time></trkpt><trkpt lat="37.111826103839256" lon="14.024744786943256"><ele>27.0</ele><time>2026-05-03T07:57:43.995Z</time></trkpt><trkpt lat="37.11181986698125" lon="14.024888282818942"><ele>27.0</ele><time>2026-05-03T07:57:44.995Z</time></trkpt><trkpt lat="37.11181418220055" lon="14.025036963217833"><ele>27.0</ele><time>2026-05-03T07:57:45.995Z</time></trkpt><trkpt lat="37.11180463942104" lon="14.025189787138112"><ele>27.0</ele><time>2026-05-03T07:57:46.995Z</time></trkpt><trkpt lat="37.111794986234294" lon="14.025348600456365"><ele>27.25</ele><time>2026-05-03T07:57:47.995Z</time></trkpt><trkpt lat="37.111785050779204" lon="14.025510189449705"><ele>27.5</ele><time>2026-05-03T07:57:48.995Z</time></trkpt><trkpt lat="37.11177414005317" lon="14.025673143739214"><ele>27.75</ele><time>2026-05-03T07:57:49.995Z</time></trkpt><trkpt lat="37.11176319402084" lon="14.025841225151623"><ele>28.0</ele><time>2026-05-03T07:57:50.995Z</time></trkpt><trkpt lat="37.111753064310214" lon="14.026011973242818"><ele>28.0</ele><time>2026-05-03T07:57:51.995Z</time></trkpt><trkpt lat="37.111743761793704" lon="14.026188183618713"><ele>28.0</ele><time>2026-05-03T07:57:52.995Z</time></trkpt><trkpt lat="37.11173368327716" lon="14.026367412129572"><ele>28.0</ele><time>2026-05-03T07:57:53.995Z</time></trkpt><trkpt lat="37.111723635763134" lon="14.02654891184226"><ele>28.0</ele><time>2026-05-03T07:57:54.995Z</time></trkpt><trkpt lat="37.11171405941816" lon="14.026735832821918"><ele>28.0</ele><time>2026-05-03T07:57:55.995Z</time></trkpt><trkpt lat="37.1117087403407" lon="14.026920598199201"><ele>28.0</ele><time>2026-05-03T07:57:56.995Z</time></trkpt><trkpt lat="37.111696479949295" lon="14.027100729096375"><ele>28.0</ele><time>2026-05-03T07:57:57.995Z</time></trkpt><trkpt lat="37.111688554108014" lon="14.027279692228664"><ele>28.0</ele><time>2026-05-03T07:57:58.995Z</time></trkpt><trkpt lat="37.11168829627603" lon="14.027461831919473"><ele>28.25</ele><time>2026-05-03T07:57:59.995Z</time></trkpt><trkpt lat="37.11169200129996" lon="14.027642835405148"><ele>28.5</ele><time>2026-05-03T07:58:00.995Z</time></trkpt><trkpt lat="37.11169709821401" lon="14.027825544383425"><ele>28.75</ele><time>2026-05-03T07:58:01.995Z</time></trkpt><trkpt lat="37.111701061422615" lon="14.028006132821687"><ele>29.0</ele><time>2026-05-03T07:58:02.995Z</time></trkpt><trkpt lat="37.111705997355195" lon="14.028188540858876"><ele>28.75</ele><time>2026-05-03T07:58:03.995Z</time></trkpt><trkpt lat="37.11171342722861" lon="14.028370230913458"><ele>28.5</ele><time>2026-05-03T07:58:04.995Z</time></trkpt><trkpt lat="37.11172124881179" lon="14.028543885689833"><ele>28.25</ele><time>2026-05-03T07:58:05.995Z</time></trkpt><trkpt lat="37.11172777930772" lon="14.028701786868947"><ele>28.0</ele><time>2026-05-03T07:58:06.995Z</time></trkpt><trkpt lat="37.11173129179293" lon="14.028849799619678"><ele>28.0</ele><time>2026-05-03T07:58:07.995Z</time></trkpt><trkpt lat="37.11173610683648" lon="14.0289958229954"><ele>28.0</ele><time>2026-05-03T07:58:08.995Z</time></trkpt><trkpt lat="37.11174158243166" lon="14.029148945637814"><ele>28.0</ele><time>2026-05-03T07:58:09.995Z</time></trkpt><trkpt lat="37.11174901156628" lon="14.029309415864416"><ele>28.0</ele><time>2026-05-03T07:58:10.995Z</time></trkpt><trkpt lat="37.11175845489216" lon="14.029477528915617"><ele>27.75</ele><time>2026-05-03T07:58:11.995Z</time></trkpt><trkpt lat="37.111768673094055" lon="14.02964321889788"><ele>27.5</ele><time>2026-05-03T07:58:12.995Z</time></trkpt><trkpt lat="37.11177872367604" lon="14.029807329172904"><ele>27.25</ele><time>2026-05-03T07:58:13.995Z</time></trkpt><trkpt lat="37.11178277591947" lon="14.02995460097945"><ele>27.0</ele><time>2026-05-03T07:58:14.995Z</time></trkpt><trkpt lat="37.11179356465695" lon="14.030085346696431"><ele>27.5</ele><time>2026-05-03T07:58:15.995Z</time></trkpt><trkpt lat="37.111802931482536" lon="14.030200851618742"><ele>28.0</ele><time>2026-05-03T07:58:16.995Z</time></trkpt><trkpt lat="37.11181005213609" lon="14.030298365096034"><ele>28.5</ele><time>2026-05-03T07:58:17.995Z</time></trkpt><trkpt lat="37.11180320569509" lon="14.030427571523655"><ele>29.0</ele><time>2026-05-03T07:58:19.995Z</time></trkpt><trkpt lat="37.11201589377429" lon="14.030473436140422"><ele>28.999999999999996</ele><time>2026-05-03T07:58:24.994Z</time></trkpt><trkpt lat="37.11210208387284" lon="14.030469978731423"><ele>29.0</ele><time>2026-05-03T07:58:27.994Z</time></trkpt><trkpt lat="37.112178046101576" lon="14.0305055427147"><ele>29.0</ele><time>2026-05-03T07:58:30.994Z</time></trkpt><trkpt lat="37.112124838567354" lon="14.030458964463758"><ele>29.0</ele><time>2026-05-03T07:58:37.996Z</time></trkpt><trkpt lat="37.112061064947135" lon="14.03046825848154"><ele>28.999999999999996</ele><time>2026-05-03T07:58:39.995Z</time></trkpt><trkpt lat="37.11196631182679" lon="14.030471376060838"><ele>29.0</ele><time>2026-05-03T07:58:42.995Z</time></trkpt><trkpt lat="37.11188969647821" lon="14.030465587015431"><ele>28.999999999999996</ele><time>2026-05-03T07:58:45.995Z</time></trkpt><trkpt lat="37.111824188900734" lon="14.030538977907934"><ele>29.0</ele><time>2026-05-03T07:58:50.995Z</time></trkpt><trkpt lat="37.11181847362505" lon="14.0306209759543"><ele>29.0</ele><time>2026-05-03T07:58:51.995Z</time></trkpt><trkpt lat="37.111820632961596" lon="14.030721527586032"><ele>29.0</ele><time>2026-05-03T07:58:52.995Z</time></trkpt><trkpt lat="37.111829003723585" lon="14.030839605867344"><ele>28.999999999999996</ele><time>2026-05-03T07:58:53.995Z</time></trkpt><trkpt lat="37.111841939423165" lon="14.030982480831733"><ele>29.0</ele><time>2026-05-03T07:58:54.995Z</time></trkpt><trkpt lat="37.111851385232335" lon="14.031142475356603"><ele>28.25</ele><time>2026-05-03T07:58:55.995Z</time></trkpt><trkpt lat="37.11185823197088" lon="14.031291037945472"><ele>27.5</ele><time>2026-05-03T07:58:56.995Z</time></trkpt><trkpt lat="37.11186677006035" lon="14.03144659068279"><ele>26.75</ele><time>2026-05-03T07:58:57.994Z</time></trkpt><trkpt lat="37.11187205647007" lon="14.031604383118506"><ele>26.0</ele><time>2026-05-03T07:58:58.994Z</time></trkpt><trkpt lat="37.11187903613408" lon="14.031764141652394"><ele>26.0</ele><time>2026-05-03T07:58:59.994Z</time></trkpt><trkpt lat="37.11188691127374" lon="14.03192702818869"><ele>26.0</ele><time>2026-05-03T07:59:00.994Z</time></trkpt><trkpt lat="37.11189359882095" lon="14.032089484367228"><ele>26.0</ele><time>2026-05-03T07:59:01.994Z</time></trkpt><trkpt lat="37.11190388816828" lon="14.032261998271263"><ele>26.0</ele><time>2026-05-03T07:59:02.994Z</time></trkpt><trkpt lat="37.11191551644203" lon="14.03245413805135"><ele>26.25</ele><time>2026-05-03T07:59:03.994Z</time></trkpt><trkpt lat="37.1119243823092" lon="14.032633354701202"><ele>26.5</ele><time>2026-05-03T07:59:04.994Z</time></trkpt><trkpt lat="37.111931680091786" lon="14.032807303119666"><ele>26.75</ele><time>2026-05-03T07:59:05.994Z</time></trkpt><trkpt lat="37.11194019648126" lon="14.032984666636576"><ele>27.0</ele><time>2026-05-03T07:59:06.994Z</time></trkpt><trkpt lat="37.11194908958022" lon="14.033163615689944"><ele>26.75</ele><time>2026-05-03T07:59:07.994Z</time></trkpt><trkpt lat="37.11195832972476" lon="14.033343758436414"><ele>26.5</ele><time>2026-05-03T07:59:08.994Z</time></trkpt><trkpt lat="37.11196780434953" lon="14.033523928114947"><ele>26.25</ele><time>2026-05-03T07:59:09.994Z</time></trkpt><trkpt lat="37.11197384169597" lon="14.033707573909426"><ele>26.0</ele><time>2026-05-03T07:59:10.994Z</time></trkpt><trkpt lat="37.11197603149725" lon="14.03389387696353"><ele>26.0</ele><time>2026-05-03T07:59:11.994Z</time></trkpt><trkpt lat="37.111968498051375" lon="14.034080082506382"><ele>26.0</ele><time>2026-05-03T07:59:12.994Z</time></trkpt><trkpt lat="37.1119418033075" lon="14.03426709289527"><ele>26.0</ele><time>2026-05-03T07:59:13.994Z</time></trkpt><trkpt lat="37.111903415074565" lon="14.034454443072734"><ele>26.666666666666664</ele><time>2026-05-03T07:59:14.994Z</time></trkpt><trkpt lat="37.111862927482115" lon="14.034656977994056"><ele>27.333333333333336</ele><time>2026-05-03T07:59:15.994Z</time></trkpt><trkpt lat="37.11182292229183" lon="14.034871211025145"><ele>28.0</ele><time>2026-05-03T07:59:16.994Z</time></trkpt><trkpt lat="37.11178095403189" lon="14.035083062604444"><ele>28.0</ele><time>2026-05-03T07:59:17.994Z</time></trkpt><trkpt lat="37.11174206477513" lon="14.035277204308466"><ele>28.0</ele><time>2026-05-03T07:59:18.994Z</time></trkpt><trkpt lat="37.11171027478362" lon="14.035474715592642"><ele>28.0</ele><time>2026-05-03T07:59:19.994Z</time></trkpt><trkpt lat="37.11168837170304" lon="14.035682417029447"><ele>27.0</ele><time>2026-05-03T07:59:20.994Z</time></trkpt><trkpt lat="37.111686241243504" lon="14.03589131212078"><ele>26.0</ele><time>2026-05-03T07:59:21.994Z</time></trkpt><trkpt lat="37.11169949417779" lon="14.03610074481459"><ele>25.0</ele><time>2026-05-03T07:59:22.994Z</time></trkpt><trkpt lat="37.11171010828283" lon="14.036315588572982"><ele>25.0</ele><time>2026-05-03T07:59:23.994Z</time></trkpt><trkpt lat="37.11176862171849" lon="14.036522753821515"><ele>25.0</ele><time>2026-05-03T07:59:24.994Z</time></trkpt><trkpt lat="37.11181657785233" lon="14.036727295250028"><ele>25.0</ele><time>2026-05-03T07:59:25.994Z</time></trkpt><trkpt lat="37.11186724315934" lon="14.03693128850118"><ele>25.0</ele><time>2026-05-03T07:59:26.994Z</time></trkpt><trkpt lat="37.11189769481579" lon="14.037143978913655"><ele>25.0</ele><time>2026-05-03T07:59:27.994Z</time></trkpt><trkpt lat="37.11190708590406" lon="14.037366136476207"><ele>25.0</ele><time>2026-05-03T07:59:28.994Z</time></trkpt><trkpt lat="37.11190609722111" lon="14.03758829813453"><ele>25.0</ele><time>2026-05-03T07:59:29.994Z</time></trkpt><trkpt lat="37.111890810729854" lon="14.037803737986525"><ele>25.0</ele><time>2026-05-03T07:59:30.994Z</time></trkpt><trkpt lat="37.11187822185288" lon="14.038020781051035"><ele>25.0</ele><time>2026-05-03T07:59:31.994Z</time></trkpt><trkpt lat="37.11186760901464" lon="14.03823493231427"><ele>24.666666666666668</ele><time>2026-05-03T07:59:32.994Z</time></trkpt><trkpt lat="37.11185556726845" lon="14.038449626238327"><ele>24.333333333333336</ele><time>2026-05-03T07:59:33.994Z</time></trkpt><trkpt lat="37.111846141406225" lon="14.038665883339615"><ele>24.0</ele><time>2026-05-03T07:59:34.994Z</time></trkpt><trkpt lat="37.11184441505139" lon="14.038884083183994"><ele>24.0</ele><time>2026-05-03T07:59:35.994Z</time></trkpt><trkpt lat="37.11185103620163" lon="14.039103182342485"><ele>24.0</ele><time>2026-05-03T07:59:36.994Z</time></trkpt><trkpt lat="37.11186396327502" lon="14.039320409079485"><ele>24.0</ele><time>2026-05-03T07:59:37.994Z</time></trkpt><trkpt lat="37.111879432094206" lon="14.039536102262792"><ele>23.333333333333332</ele><time>2026-05-03T07:59:38.994Z</time></trkpt><trkpt lat="37.11189483986464" lon="14.039751814465145"><ele>22.666666666666664</ele><time>2026-05-03T07:59:39.994Z</time></trkpt><trkpt lat="37.11191361924413" lon="14.039966519132932"><ele>22.0</ele><time>2026-05-03T07:59:40.994Z</time></trkpt><trkpt lat="37.11193171217901" lon="14.040183832314911"><ele>21.666666666666664</ele><time>2026-05-03T07:59:41.994Z</time></trkpt><trkpt lat="37.111947939603596" lon="14.040403681561676"><ele>21.333333333333332</ele><time>2026-05-03T07:59:42.994Z</time></trkpt><trkpt lat="37.111962359171606" lon="14.040628186221817"><ele>21.0</ele><time>2026-05-03T07:59:43.994Z</time></trkpt><trkpt lat="37.11197694354708" lon="14.040853482490045"><ele>21.0</ele><time>2026-05-03T07:59:44.994Z</time></trkpt><trkpt lat="37.11199109177553" lon="14.041078987652824"><ele>21.0</ele><time>2026-05-03T07:59:45.994Z</time></trkpt><trkpt lat="37.11200800685264" lon="14.041306593668024"><ele>21.0</ele><time>2026-05-03T07:59:46.994Z</time></trkpt><trkpt lat="37.11202495011719" lon="14.041534080869761"><ele>20.333333333333332</ele><time>2026-05-03T07:59:47.994Z</time></trkpt><trkpt lat="37.11203816264155" lon="14.041762129693069"><ele>19.666666666666664</ele><time>2026-05-03T07:59:48.994Z</time></trkpt><trkpt lat="37.1120501880026" lon="14.041993767644334"><ele>19.0</ele><time>2026-05-03T07:59:49.994Z</time></trkpt><trkpt lat="37.11206670230426" lon="14.042221669500139"><ele>19.0</ele><time>2026-05-03T07:59:50.994Z</time></trkpt><trkpt lat="37.11208435047368" lon="14.04244846075097"><ele>19.0</ele><time>2026-05-03T07:59:51.994Z</time></trkpt><trkpt lat="37.11210327783182" lon="14.042677370653552"><ele>19.0</ele><time>2026-05-03T07:59:52.994Z</time></trkpt><trkpt lat="37.11212132462346" lon="14.042902233145984"><ele>19.0</ele><time>2026-05-03T07:59:53.994Z</time></trkpt><trkpt lat="37.112137879518436" lon="14.043126247016207"><ele>19.0</ele><time>2026-05-03T07:59:54.994Z</time></trkpt><trkpt lat="37.11214971655073" lon="14.043348315444245"><ele>19.0</ele><time>2026-05-03T07:59:55.994Z</time></trkpt><trkpt lat="37.11215347728584" lon="14.043568024190733"><ele>19.0</ele><time>2026-05-03T07:59:56.994Z</time></trkpt><trkpt lat="37.11214082581531" lon="14.043790420639525"><ele>19.0</ele><time>2026-05-03T07:59:57.994Z</time></trkpt><trkpt lat="37.112092050738624" lon="14.044008151772113"><ele>19.0</ele><time>2026-05-03T07:59:58.994Z</time></trkpt><trkpt lat="37.11204562925583" lon="14.044228485812258"><ele>19.0</ele><time>2026-05-03T07:59:59.994Z</time></trkpt><trkpt lat="37.112009742039774" lon="14.044452169135864"><ele>19.0</ele><time>2026-05-03T08:00:00.994Z</time></trkpt><trkpt lat="37.111956662651195" lon="14.044667693766014"><ele>19.0</ele><time>2026-05-03T08:00:01.994Z</time></trkpt><trkpt lat="37.111905526787716" lon="14.044884112414172"><ele>19.0</ele><time>2026-05-03T08:00:02.994Z</time></trkpt><trkpt lat="37.111855159440644" lon="14.0451015923462"><ele>19.0</ele><time>2026-05-03T08:00:03.994Z</time></trkpt><trkpt lat="37.11180673776208" lon="14.045318991027191"><ele>19.0</ele><time>2026-05-03T08:00:04.994Z</time></trkpt><trkpt lat="37.11175912695939" lon="14.045535454477744"><ele>19.0</ele><time>2026-05-03T08:00:05.994Z</time></trkpt><trkpt lat="37.111711010004555" lon="14.045753698631797"><ele>19.0</ele><time>2026-05-03T08:00:06.994Z</time></trkpt><trkpt lat="37.11166221182279" lon="14.045969896880374"><ele>19.0</ele><time>2026-05-03T08:00:07.994Z</time></trkpt><trkpt lat="37.11161368232649" lon="14.046187822581887"><ele>17.666666666666664</ele><time>2026-05-03T08:00:08.994Z</time></trkpt><trkpt lat="37.111565048657454" lon="14.046407764333622"><ele>16.333333333333332</ele><time>2026-05-03T08:00:09.993Z</time></trkpt><trkpt lat="37.111516478239444" lon="14.04662731769627"><ele>15.0</ele><time>2026-05-03T08:00:10.993Z</time></trkpt><trkpt lat="37.11146798066908" lon="14.046844306687142"><ele>15.0</ele><time>2026-05-03T08:00:11.993Z</time></trkpt><trkpt lat="37.111418860332485" lon="14.047058463507536"><ele>15.0</ele><time>2026-05-03T08:00:12.993Z</time></trkpt><trkpt lat="37.111370688340905" lon="14.047277149015358"><ele>15.0</ele><time>2026-05-03T08:00:13.993Z</time></trkpt><trkpt lat="37.11132316103524" lon="14.04749713285934"><ele>15.0</ele><time>2026-05-03T08:00:14.993Z</time></trkpt><trkpt lat="37.111276110562954" lon="14.04771522422258"><ele>15.0</ele><time>2026-05-03T08:00:15.993Z</time></trkpt><trkpt lat="37.11122830142715" lon="14.047935857482193"><ele>15.0</ele><time>2026-05-03T08:00:16.993Z</time></trkpt><trkpt lat="37.11118001056866" lon="14.048154327746998"><ele>15.333333333333332</ele><time>2026-05-03T08:00:17.993Z</time></trkpt><trkpt lat="37.111132592999176" lon="14.048368468189752"><ele>15.666666666666666</ele><time>2026-05-03T08:00:18.993Z</time></trkpt><trkpt lat="37.1110843000863" lon="14.048576954560254"><ele>16.0</ele><time>2026-05-03T08:00:19.993Z</time></trkpt><trkpt lat="37.111040357532275" lon="14.048770355729415"><ele>16.0</ele><time>2026-05-03T08:00:20.993Z</time></trkpt><trkpt lat="37.11100101289836" lon="14.048952726466016"><ele>16.0</ele><time>2026-05-03T08:00:21.993Z</time></trkpt><trkpt lat="37.11096454798978" lon="14.049133286903144"><ele>16.0</ele><time>2026-05-03T08:00:22.993Z</time></trkpt><trkpt lat="37.11093988765585" lon="14.049318889806601"><ele>16.0</ele><time>2026-05-03T08:00:23.993Z</time></trkpt><trkpt lat="37.11093001524974" lon="14.049509282675215"><ele>16.333333333333332</ele><time>2026-05-03T08:00:24.993Z</time></trkpt><trkpt lat="37.110938331563396" lon="14.049701026487398"><ele>16.666666666666668</ele><time>2026-05-03T08:00:25.993Z</time></trkpt><trkpt lat="37.11095703260471" lon="14.049896474627744"><ele>17.0</ele><time>2026-05-03T08:00:26.993Z</time></trkpt><trkpt lat="37.11098299782606" lon="14.050092331536616"><ele>17.333333333333336</ele><time>2026-05-03T08:00:27.993Z</time></trkpt><trkpt lat="37.11101006102946" lon="14.050289972600973"><ele>17.666666666666668</ele><time>2026-05-03T08:00:28.993Z</time></trkpt><trkpt lat="37.11103571887553" lon="14.050490624856266"><ele>18.0</ele><time>2026-05-03T08:00:29.993Z</time></trkpt><trkpt lat="37.11106206408038" lon="14.050693211257208"><ele>18.0</ele><time>2026-05-03T08:00:30.993Z</time></trkpt><trkpt lat="37.11108940260208" lon="14.050897674151729"><ele>18.0</ele><time>2026-05-03T08:00:31.993Z</time></trkpt><trkpt lat="37.11111518185214" lon="14.051102296996902"><ele>18.0</ele><time>2026-05-03T08:00:32.993Z</time></trkpt><trkpt lat="37.1111394240201" lon="14.051308352199607"><ele>18.0</ele><time>2026-05-03T08:00:33.993Z</time></trkpt><trkpt lat="37.11116368823008" lon="14.051514768459748"><ele>18.0</ele><time>2026-05-03T08:00:34.993Z</time></trkpt><trkpt lat="37.11118763918655" lon="14.051716783638225"><ele>18.0</ele><time>2026-05-03T08:00:35.993Z</time></trkpt><trkpt lat="37.11121119801382" lon="14.051920284112555"><ele>19.0</ele><time>2026-05-03T08:00:36.993Z</time></trkpt><trkpt lat="37.111232828524535" lon="14.052122605595322"><ele>20.0</ele><time>2026-05-03T08:00:37.995Z</time></trkpt><trkpt lat="37.11125631327817" lon="14.052325362127426"><ele>21.0</ele><time>2026-05-03T08:00:38.995Z</time></trkpt><trkpt lat="37.11128211327563" lon="14.05252874787939"><ele>21.333333333333332</ele><time>2026-05-03T08:00:39.995Z</time></trkpt><trkpt lat="37.11130740986716" lon="14.05273474750173"><ele>21.666666666666664</ele><time>2026-05-03T08:00:40.995Z</time></trkpt><trkpt lat="37.11133416537278" lon="14.05293404831125"><ele>22.0</ele><time>2026-05-03T08:00:41.995Z</time></trkpt><trkpt lat="37.11137073970699" lon="14.053133121814005"><ele>20.666666666666664</ele><time>2026-05-03T08:00:42.995Z</time></trkpt><trkpt lat="37.11141970819817" lon="14.053327574227"><ele>19.333333333333332</ele><time>2026-05-03T08:00:43.995Z</time></trkpt><trkpt lat="37.11148813579038" lon="14.053511644404322"><ele>18.0</ele><time>2026-05-03T08:00:44.994Z</time></trkpt><trkpt lat="37.111566569173505" lon="14.05369169060563"><ele>19.0</ele><time>2026-05-03T08:00:45.994Z</time></trkpt><trkpt lat="37.11164883069348" lon="14.053876934716971"><ele>20.0</ele><time>2026-05-03T08:00:46.994Z</time></trkpt><trkpt lat="37.111733365556475" lon="14.054065635093352"><ele>21.0</ele><time>2026-05-03T08:00:47.994Z</time></trkpt><trkpt lat="37.111819665444145" lon="14.054255180981961"><ele>21.0</ele><time>2026-05-03T08:00:48.994Z</time></trkpt><trkpt lat="37.11190134463622" lon="14.054446962496167"><ele>21.0</ele><time>2026-05-03T08:00:49.994Z</time></trkpt><trkpt lat="37.11197937514575" lon="14.054635413312623"><ele>21.0</ele><time>2026-05-03T08:00:50.994Z</time></trkpt><trkpt lat="37.11205780494538" lon="14.054819963213971"><ele>21.333333333333332</ele><time>2026-05-03T08:00:51.994Z</time></trkpt><trkpt lat="37.11213797290946" lon="14.055006174478608"><ele>21.666666666666664</ele><time>2026-05-03T08:00:52.994Z</time></trkpt><trkpt lat="37.112216131989655" lon="14.055188816675322"><ele>22.0</ele><time>2026-05-03T08:00:53.994Z</time></trkpt><trkpt lat="37.112294453654314" lon="14.05537239128472"><ele>22.0</ele><time>2026-05-03T08:00:54.994Z</time></trkpt><trkpt lat="37.11237312841706" lon="14.055557611569832"><ele>22.0</ele><time>2026-05-03T08:00:55.994Z</time></trkpt><trkpt lat="37.11245284485687" lon="14.055743645124394"><ele>22.0</ele><time>2026-05-03T08:00:56.994Z</time></trkpt><trkpt lat="37.11253494313967" lon="14.055929295444699"><ele>22.666666666666664</ele><time>2026-05-03T08:00:57.994Z</time></trkpt><trkpt lat="37.11261864055511" lon="14.056120255545132"><ele>23.333333333333332</ele><time>2026-05-03T08:00:58.994Z</time></trkpt><trkpt lat="37.11270125693614" lon="14.056309884522763"><ele>24.0</ele><time>2026-05-03T08:00:59.994Z</time></trkpt><trkpt lat="37.11278518362199" lon="14.05650033322134"><ele>24.666666666666664</ele><time>2026-05-03T08:01:00.994Z</time></trkpt><trkpt lat="37.112867692215126" lon="14.05668757386499"><ele>25.333333333333332</ele><time>2026-05-03T08:01:01.994Z</time></trkpt><trkpt lat="37.11294988618284" lon="14.05687356053943"><ele>26.0</ele><time>2026-05-03T08:01:02.994Z</time></trkpt><trkpt lat="37.11303137979375" lon="14.057059523364817"><ele>26.0</ele><time>2026-05-03T08:01:03.994Z</time></trkpt><trkpt lat="37.113109356607836" lon="14.05724165797475"><ele>26.0</ele><time>2026-05-03T08:01:04.994Z</time></trkpt><trkpt lat="37.11318673083001" lon="14.05742527900102"><ele>26.0</ele><time>2026-05-03T08:01:05.994Z</time></trkpt><trkpt lat="37.11326413068478" lon="14.057608624642894"><ele>26.333333333333332</ele><time>2026-05-03T08:01:06.994Z</time></trkpt><trkpt lat="37.11334409848877" lon="14.05779425237636"><ele>26.666666666666664</ele><time>2026-05-03T08:01:07.994Z</time></trkpt><trkpt lat="37.11342681582895" lon="14.057980637928667"><ele>27.0</ele><time>2026-05-03T08:01:08.994Z</time></trkpt><trkpt lat="37.113511878133934" lon="14.058168702895074"><ele>27.333333333333336</ele><time>2026-05-03T08:01:09.994Z</time></trkpt><trkpt lat="37.11359635537703" lon="14.05836083935672"><ele>27.666666666666668</ele><time>2026-05-03T08:01:10.994Z</time></trkpt><trkpt lat="37.11368177307511" lon="14.058556042091515"><ele>28.0</ele><time>2026-05-03T08:01:11.994Z</time></trkpt><trkpt lat="37.113766153431875" lon="14.05875167667339"><ele>28.0</ele><time>2026-05-03T08:01:12.994Z</time></trkpt><trkpt lat="37.113852412579206" lon="14.058946979694428"><ele>28.0</ele><time>2026-05-03T08:01:13.994Z</time></trkpt><trkpt lat="37.11394012485224" lon="14.05913646723559"><ele>28.0</ele><time>2026-05-03T08:01:14.994Z</time></trkpt><trkpt lat="37.11402701857425" lon="14.059318633540805"><ele>28.666666666666668</ele><time>2026-05-03T08:01:15.994Z</time></trkpt><trkpt lat="37.114108983551354" lon="14.059502586475107"><ele>29.333333333333336</ele><time>2026-05-03T08:01:16.994Z</time></trkpt><trkpt lat="37.1141828821912" lon="14.059688001851036"><ele>30.0</ele><time>2026-05-03T08:01:17.994Z</time></trkpt><trkpt lat="37.11424225854589" lon="14.059876169193627"><ele>29.333333333333336</ele><time>2026-05-03T08:01:18.994Z</time></trkpt><trkpt lat="37.1142860908786" lon="14.060075238079973"><ele>28.666666666666668</ele><time>2026-05-03T08:01:19.994Z</time></trkpt><trkpt lat="37.1143175514464" lon="14.06027719280934"><ele>28.0</ele><time>2026-05-03T08:01:20.994Z</time></trkpt><trkpt lat="37.11433973810909" lon="14.060483321316743"><ele>28.0</ele><time>2026-05-03T08:01:21.994Z</time></trkpt><trkpt lat="37.11435958191112" lon="14.060687530055889"><ele>28.0</ele><time>2026-05-03T08:01:22.994Z</time></trkpt><trkpt lat="37.11437850465778" lon="14.060890143240162"><ele>28.0</ele><time>2026-05-03T08:01:23.994Z</time></trkpt><trkpt lat="37.114397612233084" lon="14.061098519331395"><ele>27.0</ele><time>2026-05-03T08:01:24.994Z</time></trkpt><trkpt lat="37.11442373618043" lon="14.061300926314722"><ele>26.0</ele><time>2026-05-03T08:01:25.994Z</time></trkpt><trkpt lat="37.11447155999749" lon="14.061494882230969"><ele>25.0</ele><time>2026-05-03T08:01:26.994Z</time></trkpt><trkpt lat="37.11454543350499" lon="14.061678877289776"><ele>25.0</ele><time>2026-05-03T08:01:27.994Z</time></trkpt><trkpt lat="37.11464064203128" lon="14.061846165220974"><ele>25.0</ele><time>2026-05-03T08:01:28.994Z</time></trkpt><trkpt lat="37.114740851957016" lon="14.062012291873131"><ele>25.0</ele><time>2026-05-03T08:01:29.994Z</time></trkpt><trkpt lat="37.11484165149403" lon="14.062178020223751"><ele>25.333333333333336</ele><time>2026-05-03T08:01:30.994Z</time></trkpt><trkpt lat="37.114943196366035" lon="14.062346323392937"><ele>25.666666666666664</ele><time>2026-05-03T08:01:31.994Z</time></trkpt><trkpt lat="37.1150449349544" lon="14.062516151757206"><ele>26.0</ele><time>2026-05-03T08:01:32.994Z</time></trkpt><trkpt lat="37.11514631877011" lon="14.062687739451675"><ele>27.333333333333332</ele><time>2026-05-03T08:01:33.994Z</time></trkpt><trkpt lat="37.11524740434089" lon="14.062859112266732"><ele>28.666666666666664</ele><time>2026-05-03T08:01:34.994Z</time></trkpt><trkpt lat="37.1153495988917" lon="14.063031609935248"><ele>30.0</ele><time>2026-05-03T08:01:35.994Z</time></trkpt><trkpt lat="37.11545057917141" lon="14.063202462923597"><ele>30.333333333333336</ele><time>2026-05-03T08:01:36.994Z</time></trkpt><trkpt lat="37.11555212863899" lon="14.063371167175777"><ele>30.666666666666668</ele><time>2026-05-03T08:01:37.994Z</time></trkpt><trkpt lat="37.11565485839348" lon="14.063541088177802"><ele>31.0</ele><time>2026-05-03T08:01:38.994Z</time></trkpt><trkpt lat="37.11575788332167" lon="14.063709930266514"><ele>31.333333333333336</ele><time>2026-05-03T08:01:39.994Z</time></trkpt><trkpt lat="37.11586013709998" lon="14.06387629116486"><ele>31.666666666666664</ele><time>2026-05-03T08:01:40.994Z</time></trkpt><trkpt lat="37.115963882254185" lon="14.064045210623046"><ele>32.0</ele><time>2026-05-03T08:01:41.993Z</time></trkpt><trkpt lat="37.11606902862979" lon="14.064214286006697"><ele>33.0</ele><time>2026-05-03T08:01:42.993Z</time></trkpt><trkpt lat="37.1161715890235" lon="14.064383146984943"><ele>34.0</ele><time>2026-05-03T08:01:43.993Z</time></trkpt><trkpt lat="37.116273054032504" lon="14.064552504359428"><ele>35.0</ele><time>2026-05-03T08:01:44.993Z</time></trkpt><trkpt lat="37.11637743333795" lon="14.06471253525583"><ele>35.0</ele><time>2026-05-03T08:01:45.993Z</time></trkpt><trkpt lat="37.11649188655035" lon="14.064859741142733"><ele>35.0</ele><time>2026-05-03T08:01:46.993Z</time></trkpt><trkpt lat="37.1166160451601" lon="14.0649936308207"><ele>35.0</ele><time>2026-05-03T08:01:47.993Z</time></trkpt><trkpt lat="37.11674903278749" lon="14.065116516018971"><ele>35.666666666666664</ele><time>2026-05-03T08:01:48.993Z</time></trkpt><trkpt lat="37.116887787442906" lon="14.065226958322734"><ele>36.333333333333336</ele><time>2026-05-03T08:01:49.993Z</time></trkpt><trkpt lat="37.11702932308215" lon="14.065338092300077"><ele>37.0</ele><time>2026-05-03T08:01:50.993Z</time></trkpt><trkpt lat="37.11717019735762" lon="14.065457024250136"><ele>37.0</ele><time>2026-05-03T08:01:51.993Z</time></trkpt><trkpt lat="37.11731312568714" lon="14.065578141676188"><ele>37.0</ele><time>2026-05-03T08:01:52.993Z</time></trkpt><trkpt lat="37.117456476150636" lon="14.065696631586782"><ele>37.0</ele><time>2026-05-03T08:01:53.993Z</time></trkpt><trkpt lat="37.11760112287188" lon="14.065815034716946"><ele>37.66666666666667</ele><time>2026-05-03T08:01:54.993Z</time></trkpt><trkpt lat="37.11774838998942" lon="14.06593681742128"><ele>38.333333333333336</ele><time>2026-05-03T08:01:55.993Z</time></trkpt><trkpt lat="37.11789333718308" lon="14.066060200976125"><ele>39.0</ele><time>2026-05-03T08:01:56.993Z</time></trkpt><trkpt lat="37.11803770826" lon="14.06617859253728"><ele>39.0</ele><time>2026-05-03T08:01:57.993Z</time></trkpt><trkpt lat="37.1181832479051" lon="14.066293521702596"><ele>39.0</ele><time>2026-05-03T08:01:58.993Z</time></trkpt><trkpt lat="37.1183244510715" lon="14.066413943047614"><ele>39.0</ele><time>2026-05-03T08:01:59.993Z</time></trkpt><trkpt lat="37.11846626943997" lon="14.066533636059244"><ele>39.666666666666664</ele><time>2026-05-03T08:02:00.993Z</time></trkpt><trkpt lat="37.11860639349601" lon="14.066651048445589"><ele>40.33333333333333</ele><time>2026-05-03T08:02:01.993Z</time></trkpt><trkpt lat="37.1187466103623" lon="14.066768107650002"><ele>41.0</ele><time>2026-05-03T08:02:02.993Z</time></trkpt><trkpt lat="37.11888553466035" lon="14.06688771738938"><ele>41.0</ele><time>2026-05-03T08:02:03.993Z</time></trkpt><trkpt lat="37.119020830474334" lon="14.06701093531664"><ele>41.0</ele><time>2026-05-03T08:02:04.993Z</time></trkpt><trkpt lat="37.11915232829443" lon="14.067143341192704"><ele>41.0</ele><time>2026-05-03T08:02:05.993Z</time></trkpt><trkpt lat="37.1192713172132" lon="14.06728803890487"><ele>42.33333333333333</ele><time>2026-05-03T08:02:06.993Z</time></trkpt><trkpt lat="37.1193823863371" lon="14.067440795586187"><ele>43.666666666666664</ele><time>2026-05-03T08:02:07.993Z</time></trkpt><trkpt lat="37.11949367047183" lon="14.067594224714925"><ele>45.0</ele><time>2026-05-03T08:02:08.993Z</time></trkpt><trkpt lat="37.119603782126276" lon="14.067747778863186"><ele>45.0</ele><time>2026-05-03T08:02:09.993Z</time></trkpt><trkpt lat="37.11971175995763" lon="14.06790151371971"><ele>45.0</ele><time>2026-05-03T08:02:10.993Z</time></trkpt><trkpt lat="37.11981650533206" lon="14.068054623007939"><ele>45.0</ele><time>2026-05-03T08:02:11.993Z</time></trkpt><trkpt lat="37.119919607910106" lon="14.06820375040744"><ele>45.666666666666664</ele><time>2026-05-03T08:02:12.993Z</time></trkpt><trkpt lat="37.120021584266475" lon="14.068349202561965"><ele>46.33333333333333</ele><time>2026-05-03T08:02:13.993Z</time></trkpt><trkpt lat="37.12012242593866" lon="14.068494582312788"><ele>47.0</ele><time>2026-05-03T08:02:14.993Z</time></trkpt><trkpt lat="37.12021849653501" lon="14.068634772592272"><ele>47.0</ele><time>2026-05-03T08:02:15.993Z</time></trkpt><trkpt lat="37.12030496136871" lon="14.068766219624926"><ele>47.0</ele><time>2026-05-03T08:02:16.993Z</time></trkpt><trkpt lat="37.12037484555704" lon="14.068895832668057"><ele>47.0</ele><time>2026-05-03T08:02:17.993Z</time></trkpt><trkpt lat="37.12043254818661" lon="14.06902329304942"><ele>47.0</ele><time>2026-05-03T08:02:18.993Z</time></trkpt><trkpt lat="37.12048722455908" lon="14.069142571362425"><ele>47.2</ele><time>2026-05-03T08:02:19.993Z</time></trkpt><trkpt lat="37.12054025095306" lon="14.069255272098037"><ele>47.400000000000006</ele><time>2026-05-03T08:02:20.993Z</time></trkpt><trkpt lat="37.120590300199524" lon="14.069365477309827"><ele>47.599999999999994</ele><time>2026-05-03T08:02:21.993Z</time></trkpt><trkpt lat="37.12064120446474" lon="14.069478229999595"><ele>47.8</ele><time>2026-05-03T08:02:22.993Z</time></trkpt><trkpt lat="37.120694525699236" lon="14.069592370919432"><ele>48.0</ele><time>2026-05-03T08:02:23.993Z</time></trkpt><trkpt lat="37.12074515616878" lon="14.069715047948232"><ele>48.0</ele><time>2026-05-03T08:02:24.993Z</time></trkpt><trkpt lat="37.120784131858564" lon="14.06985316616541"><ele>48.0</ele><time>2026-05-03T08:02:25.993Z</time></trkpt><trkpt lat="37.12080813884277" lon="14.070000695987748"><ele>48.0</ele><time>2026-05-03T08:02:26.993Z</time></trkpt><trkpt lat="37.12082445816555" lon="14.070156070538532"><ele>48.0</ele><time>2026-05-03T08:02:27.993Z</time></trkpt><trkpt lat="37.12083443816224" lon="14.07031454134637"><ele>47.75</ele><time>2026-05-03T08:02:28.993Z</time></trkpt><trkpt lat="37.120845062550295" lon="14.0704814838778"><ele>47.5</ele><time>2026-05-03T08:02:29.993Z</time></trkpt><trkpt lat="37.12085771931543" lon="14.070650759555363"><ele>47.25</ele><time>2026-05-03T08:02:30.993Z</time></trkpt><trkpt lat="37.12087077482133" lon="14.070824199335426"><ele>47.0</ele><time>2026-05-03T08:02:31.993Z</time></trkpt><trkpt lat="37.12087497256961" lon="14.071002003162363"><ele>46.5</ele><time>2026-05-03T08:02:32.993Z</time></trkpt><trkpt lat="37.12086508944028" lon="14.071182621921484"><ele>46.0</ele><time>2026-05-03T08:02:33.993Z</time></trkpt><trkpt lat="37.12084646875019" lon="14.071369578089406"><ele>45.5</ele><time>2026-05-03T08:02:34.993Z</time></trkpt><trkpt lat="37.120821469664605" lon="14.071549760776026"><ele>45.0</ele><time>2026-05-03T08:02:35.993Z</time></trkpt><trkpt lat="37.12079563680225" lon="14.071729583741961"><ele>44.25</ele><time>2026-05-03T08:02:36.993Z</time></trkpt><trkpt lat="37.12076697825769" lon="14.071909884068091"><ele>43.5</ele><time>2026-05-03T08:02:37.993Z</time></trkpt><trkpt lat="37.12073022608467" lon="14.072086078270905"><ele>42.75</ele><time>2026-05-03T08:02:38.993Z</time></trkpt><trkpt lat="37.120678992364425" lon="14.072254486426038"><ele>42.0</ele><time>2026-05-03T08:02:39.993Z</time></trkpt><trkpt lat="37.12060349691328" lon="14.07240202058263"><ele>44.0</ele><time>2026-05-03T08:02:40.993Z</time></trkpt><trkpt lat="37.120509983434296" lon="14.072530202457855"><ele>46.0</ele><time>2026-05-03T08:02:41.993Z</time></trkpt><trkpt lat="37.12043135915461" lon="14.072675344105186"><ele>48.0</ele><time>2026-05-03T08:02:42.993Z</time></trkpt><trkpt lat="37.12036349131566" lon="14.072832721403111"><ele>50.0</ele><time>2026-05-03T08:02:43.994Z</time></trkpt><trkpt lat="37.12029439731003" lon="14.072991768911812"><ele>50.0</ele><time>2026-05-03T08:02:44.994Z</time></trkpt><trkpt lat="37.12021966559778" lon="14.07316382379098"><ele>50.0</ele><time>2026-05-03T08:02:45.994Z</time></trkpt><trkpt lat="37.120143826446686" lon="14.073338428278678"><ele>50.0</ele><time>2026-05-03T08:02:46.994Z</time></trkpt><trkpt lat="37.12009015922594" lon="14.073564631371124"><ele>51.333333333333336</ele><time>2026-05-03T08:02:47.994Z</time></trkpt><trkpt lat="37.12003223278113" lon="14.073751073285239"><ele>52.66666666666667</ele><time>2026-05-03T08:02:48.994Z</time></trkpt><trkpt lat="37.11996146009042" lon="14.073922186547701"><ele>54.0</ele><time>2026-05-03T08:02:49.994Z</time></trkpt><trkpt lat="37.11989359725746" lon="14.074092914740728"><ele>50.333333333333336</ele><time>2026-05-03T08:02:50.994Z</time></trkpt><trkpt lat="37.119829403930375" lon="14.074265458470853"><ele>46.66666666666667</ele><time>2026-05-03T08:02:51.994Z</time></trkpt><trkpt lat="37.11977317796621" lon="14.074441243926929"><ele>43.0</ele><time>2026-05-03T08:02:52.994Z</time></trkpt><trkpt lat="37.1197277949825" lon="14.074624697670547"><ele>43.0</ele><time>2026-05-03T08:02:53.994Z</time></trkpt><trkpt lat="37.11968755157685" lon="14.074807534229327"><ele>43.0</ele><time>2026-05-03T08:02:54.994Z</time></trkpt><trkpt lat="37.11965272262807" lon="14.074990549292737"><ele>43.0</ele><time>2026-05-03T08:02:55.994Z</time></trkpt><trkpt lat="37.11961867340427" lon="14.075174243917044"><ele>41.333333333333336</ele><time>2026-05-03T08:02:56.994Z</time></trkpt><trkpt lat="37.11958400078893" lon="14.075360182436286"><ele>39.666666666666664</ele><time>2026-05-03T08:02:57.994Z</time></trkpt><trkpt lat="37.119548472671866" lon="14.075544476053434"><ele>38.0</ele><time>2026-05-03T08:02:58.994Z</time></trkpt><trkpt lat="37.11951336168443" lon="14.07573001140881"><ele>36.75</ele><time>2026-05-03T08:02:59.994Z</time></trkpt><trkpt lat="37.11947842402273" lon="14.075909485165727"><ele>35.5</ele><time>2026-05-03T08:03:00.994Z</time></trkpt><trkpt lat="37.119446913110124" lon="14.076084508009199"><ele>34.25</ele><time>2026-05-03T08:03:01.994Z</time></trkpt><trkpt lat="37.11941496270996" lon="14.076249536248833"><ele>33.0</ele><time>2026-05-03T08:03:02.994Z</time></trkpt><trkpt lat="37.11939454929803" lon="14.076412052824042"><ele>33.0</ele><time>2026-05-03T08:03:03.994Z</time></trkpt><trkpt lat="37.11939076273996" lon="14.076575431596327"><ele>33.0</ele><time>2026-05-03T08:03:04.994Z</time></trkpt><trkpt lat="37.11943663274318" lon="14.076731139112557"><ele>33.0</ele><time>2026-05-03T08:03:05.994Z</time></trkpt><trkpt lat="37.11949626981472" lon="14.07688005991554"><ele>33.0</ele><time>2026-05-03T08:03:06.994Z</time></trkpt><trkpt lat="37.11956079698914" lon="14.077035473188726"><ele>32.25</ele><time>2026-05-03T08:03:07.994Z</time></trkpt><trkpt lat="37.11963469600912" lon="14.07718465118979"><ele>31.5</ele><time>2026-05-03T08:03:08.994Z</time></trkpt><trkpt lat="37.11969845793374" lon="14.077343752569893"><ele>30.75</ele><time>2026-05-03T08:03:09.994Z</time></trkpt><trkpt lat="37.11976204410107" lon="14.077503259707875"><ele>30.0</ele><time>2026-05-03T08:03:10.994Z</time></trkpt><trkpt lat="37.11982727703819" lon="14.077664675175258"><ele>30.0</ele><time>2026-05-03T08:03:11.994Z</time></trkpt><trkpt lat="37.11989256500277" lon="14.077826079056589"><ele>30.0</ele><time>2026-05-03T08:03:12.994Z</time></trkpt><trkpt lat="37.11996398591149" lon="14.077985954740786"><ele>30.0</ele><time>2026-05-03T08:03:13.994Z</time></trkpt><trkpt lat="37.12002842022589" lon="14.078150706024157"><ele>30.0</ele><time>2026-05-03T08:03:14.994Z</time></trkpt><trkpt lat="37.12009409277337" lon="14.078314611382435"><ele>30.0</ele><time>2026-05-03T08:03:15.994Z</time></trkpt><trkpt lat="37.12016330896517" lon="14.078478140508276"><ele>30.0</ele><time>2026-05-03T08:03:16.994Z</time></trkpt><trkpt lat="37.120232895341246" lon="14.078641787945708"><ele>30.0</ele><time>2026-05-03T08:03:17.994Z</time></trkpt><trkpt lat="37.12030386792481" lon="14.078806578667635"><ele>30.0</ele><time>2026-05-03T08:03:18.994Z</time></trkpt><trkpt lat="37.120377376988785" lon="14.078974516347616"><ele>28.666666666666664</ele><time>2026-05-03T08:03:19.994Z</time></trkpt><trkpt lat="37.12044979842883" lon="14.07914292384627"><ele>27.333333333333332</ele><time>2026-05-03T08:03:20.994Z</time></trkpt><trkpt lat="37.12052010331801" lon="14.079312092162436"><ele>26.0</ele><time>2026-05-03T08:03:21.994Z</time></trkpt><trkpt lat="37.12059133211031" lon="14.079484701548338"><ele>26.0</ele><time>2026-05-03T08:03:22.994Z</time></trkpt><trkpt lat="37.120664800799894" lon="14.079659792846783"><ele>26.0</ele><time>2026-05-03T08:03:23.994Z</time></trkpt><trkpt lat="37.120738199118684" lon="14.079834958923406"><ele>26.0</ele><time>2026-05-03T08:03:24.994Z</time></trkpt><trkpt lat="37.120809387621" lon="14.080013246295149"><ele>26.0</ele><time>2026-05-03T08:03:25.994Z</time></trkpt><trkpt lat="37.120878050635" lon="14.08018737098191"><ele>26.0</ele><time>2026-05-03T08:03:26.994Z</time></trkpt><trkpt lat="37.120949387232706" lon="14.080361283439865"><ele>26.0</ele><time>2026-05-03T08:03:27.994Z</time></trkpt><trkpt lat="37.12102437677991" lon="14.080538112817335"><ele>26.0</ele><time>2026-05-03T08:03:28.994Z</time></trkpt><trkpt lat="37.12110113623604" lon="14.080717360690088"><ele>26.0</ele><time>2026-05-03T08:03:29.994Z</time></trkpt><trkpt lat="37.12118135361585" lon="14.080890861607795"><ele>26.0</ele><time>2026-05-03T08:03:30.994Z</time></trkpt><trkpt lat="37.12125843818619" lon="14.081068282386468"><ele>26.333333333333332</ele><time>2026-05-03T08:03:31.994Z</time></trkpt><trkpt lat="37.121332898284834" lon="14.081250013067178"><ele>26.666666666666664</ele><time>2026-05-03T08:03:32.994Z</time></trkpt><trkpt lat="37.121403498828606" lon="14.081429722635951"><ele>27.0</ele><time>2026-05-03T08:03:33.994Z</time></trkpt><trkpt lat="37.121475349120345" lon="14.081610327256785"><ele>27.333333333333336</ele><time>2026-05-03T08:03:34.994Z</time></trkpt><trkpt lat="37.12154504651421" lon="14.081791967589124"><ele>27.666666666666668</ele><time>2026-05-03T08:03:35.994Z</time></trkpt><trkpt lat="37.12160883095948" lon="14.081980945981519"><ele>28.0</ele><time>2026-05-03T08:03:36.994Z</time></trkpt><trkpt lat="37.12167008305127" lon="14.082173699612731"><ele>29.333333333333336</ele><time>2026-05-03T08:03:37.994Z</time></trkpt><trkpt lat="37.12172470002783" lon="14.08236918822477"><ele>30.666666666666664</ele><time>2026-05-03T08:03:38.994Z</time></trkpt><trkpt lat="37.121777348084265" lon="14.082571435335815"><ele>32.0</ele><time>2026-05-03T08:03:39.994Z</time></trkpt><trkpt lat="37.1218309433638" lon="14.082774424543226"><ele>31.666666666666664</ele><time>2026-05-03T08:03:40.994Z</time></trkpt><trkpt lat="37.12188489848524" lon="14.082975776027665"><ele>31.333333333333336</ele><time>2026-05-03T08:03:41.994Z</time></trkpt><trkpt lat="37.12194151811477" lon="14.083180544826874"><ele>31.0</ele><time>2026-05-03T08:03:42.994Z</time></trkpt><trkpt lat="37.121999112452485" lon="14.083386312453397"><ele>31.0</ele><time>2026-05-03T08:03:43.994Z</time></trkpt><trkpt lat="37.1220564591123" lon="14.083595973369963"><ele>31.0</ele><time>2026-05-03T08:03:44.994Z</time></trkpt><trkpt lat="37.12211111683114" lon="14.08380546676295"><ele>31.0</ele><time>2026-05-03T08:03:45.994Z</time></trkpt><trkpt lat="37.122166725365005" lon="14.084009703323801"><ele>31.0</ele><time>2026-05-03T08:03:46.994Z</time></trkpt><trkpt lat="37.122223736884216" lon="14.084217735998472"><ele>31.0</ele><time>2026-05-03T08:03:47.994Z</time></trkpt><trkpt lat="37.12228059668731" lon="14.084422024797105"><ele>31.0</ele><time>2026-05-03T08:03:48.994Z</time></trkpt><trkpt lat="37.12233798270611" lon="14.08462120799052"><ele>31.0</ele><time>2026-05-03T08:03:49.994Z</time></trkpt><trkpt lat="37.122394667770486" lon="14.084821593562394"><ele>31.0</ele><time>2026-05-03T08:03:50.994Z</time></trkpt><trkpt lat="37.122449836508416" lon="14.085020672245534"><ele>31.0</ele><time>2026-05-03T08:03:51.994Z</time></trkpt><trkpt lat="37.12250407961071" lon="14.085219849789526"><ele>30.666666666666668</ele><time>2026-05-03T08:03:52.994Z</time></trkpt><trkpt lat="37.12255827981045" lon="14.085418976709928"><ele>30.333333333333336</ele><time>2026-05-03T08:03:53.994Z</time></trkpt><trkpt lat="37.12261174460275" lon="14.085614974939414"><ele>30.0</ele><time>2026-05-03T08:03:54.994Z</time></trkpt><trkpt lat="37.12266642463641" lon="14.085809189611195"><ele>29.666666666666664</ele><time>2026-05-03T08:03:55.994Z</time></trkpt><trkpt lat="37.122720356249154" lon="14.086003532532818"><ele>29.333333333333332</ele><time>2026-05-03T08:03:56.994Z</time></trkpt><trkpt lat="37.122774624787894" lon="14.086196581484502"><ele>29.0</ele><time>2026-05-03T08:03:57.994Z</time></trkpt><trkpt lat="37.12282915266832" lon="14.086391133002872"><ele>29.0</ele><time>2026-05-03T08:03:58.994Z</time></trkpt><trkpt lat="37.12288427445008" lon="14.08658826809678"><ele>29.0</ele><time>2026-05-03T08:03:59.994Z</time></trkpt><trkpt lat="37.12294048553498" lon="14.08678727850248"><ele>29.0</ele><time>2026-05-03T08:04:00.994Z</time></trkpt><trkpt lat="37.12299626386815" lon="14.086988585222977"><ele>28.666666666666664</ele><time>2026-05-03T08:04:01.994Z</time></trkpt><trkpt lat="37.123050858692814" lon="14.087189414813249"><ele>28.333333333333336</ele><time>2026-05-03T08:04:02.994Z</time></trkpt><trkpt lat="37.1231045960655" lon="14.087387753963935"><ele>28.0</ele><time>2026-05-03T08:04:03.994Z</time></trkpt><trkpt lat="37.1231605447513" lon="14.087588431179075"><ele>28.0</ele><time>2026-05-03T08:04:04.994Z</time></trkpt><trkpt lat="37.12321522705736" lon="14.087788114713529"><ele>28.0</ele><time>2026-05-03T08:04:05.994Z</time></trkpt><trkpt lat="37.12327149271394" lon="14.087989361938524"><ele>28.0</ele><time>2026-05-03T08:04:06.994Z</time></trkpt><trkpt lat="37.12332949936044" lon="14.08819173198251"><ele>28.333333333333336</ele><time>2026-05-03T08:04:07.994Z</time></trkpt><trkpt lat="37.12338727249161" lon="14.088396063769878"><ele>28.666666666666664</ele><time>2026-05-03T08:04:08.993Z</time></trkpt><trkpt lat="37.123444486916085" lon="14.088602500004388"><ele>29.0</ele><time>2026-05-03T08:04:09.993Z</time></trkpt><trkpt lat="37.123501504864095" lon="14.088810838855585"><ele>29.0</ele><time>2026-05-03T08:04:10.993Z</time></trkpt><trkpt lat="37.1235597144543" lon="14.089019463954608"><ele>29.0</ele><time>2026-05-03T08:04:11.993Z</time></trkpt><trkpt lat="37.123618259668056" lon="14.089229377461407"><ele>29.0</ele><time>2026-05-03T08:04:12.993Z</time></trkpt><trkpt lat="37.12368011469745" lon="14.089441083188351"><ele>28.0</ele><time>2026-05-03T08:04:13.993Z</time></trkpt><trkpt lat="37.123739161916006" lon="14.08965394037475"><ele>27.0</ele><time>2026-05-03T08:04:14.993Z</time></trkpt><trkpt lat="37.123799124599394" lon="14.089866706379151"><ele>26.0</ele><time>2026-05-03T08:04:15.993Z</time></trkpt><trkpt lat="37.123858554772305" lon="14.090077428999157"><ele>25.666666666666664</ele><time>2026-05-03T08:04:16.993Z</time></trkpt><trkpt lat="37.12391770227942" lon="14.090283431539772"><ele>25.333333333333336</ele><time>2026-05-03T08:04:17.993Z</time></trkpt><trkpt lat="37.12397446097678" lon="14.090488595600025"><ele>25.0</ele><time>2026-05-03T08:04:18.993Z</time></trkpt><trkpt lat="37.12403106909398" lon="14.090691115157062"><ele>25.333333333333336</ele><time>2026-05-03T08:04:19.993Z</time></trkpt><trkpt lat="37.12408760703101" lon="14.090895570783172"><ele>25.666666666666664</ele><time>2026-05-03T08:04:20.993Z</time></trkpt><trkpt lat="37.12414220529122" lon="14.09109951529429"><ele>26.0</ele><time>2026-05-03T08:04:21.993Z</time></trkpt><trkpt lat="37.12419566434231" lon="14.091297009347421"><ele>26.0</ele><time>2026-05-03T08:04:22.993Z</time></trkpt><trkpt lat="37.12425026623235" lon="14.091493044966032"><ele>26.0</ele><time>2026-05-03T08:04:23.993Z</time></trkpt><trkpt lat="37.124305904753335" lon="14.091688585436668"><ele>26.0</ele><time>2026-05-03T08:04:24.993Z</time></trkpt><trkpt lat="37.12436125853602" lon="14.091885448110599"><ele>26.333333333333332</ele><time>2026-05-03T08:04:25.993Z</time></trkpt><trkpt lat="37.12441600658205" lon="14.092081592049212"><ele>26.666666666666664</ele><time>2026-05-03T08:04:26.993Z</time></trkpt><trkpt lat="37.12447137497316" lon="14.092278302786202"><ele>27.0</ele><time>2026-05-03T08:04:27.993Z</time></trkpt><trkpt lat="37.124525901485896" lon="14.09247821831105"><ele>27.666666666666664</ele><time>2026-05-03T08:04:28.993Z</time></trkpt><trkpt lat="37.12457951679098" lon="14.092676282818037"><ele>28.333333333333332</ele><time>2026-05-03T08:04:29.993Z</time></trkpt><trkpt lat="37.1246328874659" lon="14.09287452340918"><ele>29.0</ele><time>2026-05-03T08:04:30.993Z</time></trkpt><trkpt lat="37.124688074385396" lon="14.093074247121214"><ele>29.333333333333332</ele><time>2026-05-03T08:04:31.993Z</time></trkpt><trkpt lat="37.12474311872158" lon="14.09327337867806"><ele>29.666666666666664</ele><time>2026-05-03T08:04:32.993Z</time></trkpt><trkpt lat="37.12479943111581" lon="14.093472044813737"><ele>30.0</ele><time>2026-05-03T08:04:33.993Z</time></trkpt><trkpt lat="37.12485524585865" lon="14.093672526658326"><ele>30.0</ele><time>2026-05-03T08:04:34.993Z</time></trkpt><trkpt lat="37.12491001262425" lon="14.093872932569326"><ele>30.0</ele><time>2026-05-03T08:04:35.993Z</time></trkpt><trkpt lat="37.124967247369504" lon="14.094071822021982"><ele>30.0</ele><time>2026-05-03T08:04:36.993Z</time></trkpt><trkpt lat="37.1250222525274" lon="14.094272949070195"><ele>30.0</ele><time>2026-05-03T08:04:37.993Z</time></trkpt><trkpt lat="37.12507794849425" lon="14.094472955822567"><ele>30.0</ele><time>2026-05-03T08:04:38.993Z</time></trkpt><trkpt lat="37.1251349873024" lon="14.094674377491549"><ele>30.0</ele><time>2026-05-03T08:04:39.993Z</time></trkpt><trkpt lat="37.12519219130139" lon="14.094879793924154"><ele>30.0</ele><time>2026-05-03T08:04:40.993Z</time></trkpt><trkpt lat="37.12525113406906" lon="14.095085616916137"><ele>30.0</ele><time>2026-05-03T08:04:41.993Z</time></trkpt><trkpt lat="37.1253086186509" lon="14.095292206690932"><ele>30.0</ele><time>2026-05-03T08:04:42.993Z</time></trkpt><trkpt lat="37.12536556636351" lon="14.095497529172281"><ele>30.0</ele><time>2026-05-03T08:04:43.993Z</time></trkpt><trkpt lat="37.125422613138355" lon="14.095702322457162"><ele>30.0</ele><time>2026-05-03T08:04:44.993Z</time></trkpt><trkpt lat="37.125481143803405" lon="14.095905851037907"><ele>30.0</ele><time>2026-05-03T08:04:45.993Z</time></trkpt><trkpt lat="37.12553901471699" lon="14.09610875243505"><ele>30.666666666666664</ele><time>2026-05-03T08:04:46.993Z</time></trkpt><trkpt lat="37.12559715017512" lon="14.096311183587911"><ele>31.333333333333332</ele><time>2026-05-03T08:04:47.993Z</time></trkpt><trkpt lat="37.12565648746469" lon="14.096514212717201"><ele>32.0</ele><time>2026-05-03T08:04:48.993Z</time></trkpt><trkpt lat="37.125714499365316" lon="14.096716898720363"><ele>32.0</ele><time>2026-05-03T08:04:49.994Z</time></trkpt><trkpt lat="37.12576981329587" lon="14.096918373295683"><ele>32.0</ele><time>2026-05-03T08:04:50.994Z</time></trkpt><trkpt lat="37.12581859896028" lon="14.097119143064951"><ele>32.0</ele><time>2026-05-03T08:04:51.994Z</time></trkpt><trkpt lat="37.125859394083825" lon="14.097323216430475"><ele>32.0</ele><time>2026-05-03T08:04:52.994Z</time></trkpt><trkpt lat="37.12588538755814" lon="14.097538522129412"><ele>32.0</ele><time>2026-05-03T08:04:53.993Z</time></trkpt><trkpt lat="37.12586750324703" lon="14.09774429996358"><ele>32.0</ele><time>2026-05-03T08:04:54.993Z</time></trkpt><trkpt lat="37.125844560535604" lon="14.097956677751"><ele>32.0</ele><time>2026-05-03T08:04:55.994Z</time></trkpt><trkpt lat="37.125814475591035" lon="14.098172102830716"><ele>32.0</ele><time>2026-05-03T08:04:56.993Z</time></trkpt><trkpt lat="37.125781654939665" lon="14.098388004725466"><ele>32.0</ele><time>2026-05-03T08:04:57.993Z</time></trkpt><trkpt lat="37.12574842767973" lon="14.09860658570471"><ele>30.333333333333332</ele><time>2026-05-03T08:04:58.994Z</time></trkpt><trkpt lat="37.12571636277024" lon="14.098825684576257"><ele>28.666666666666664</ele><time>2026-05-03T08:04:59.993Z</time></trkpt><trkpt lat="37.125684187423076" lon="14.099045418552738"><ele>27.0</ele><time>2026-05-03T08:05:00.993Z</time></trkpt><trkpt lat="37.12565143787751" lon="14.099260958512682"><ele>26.666666666666664</ele><time>2026-05-03T08:05:01.994Z</time></trkpt><trkpt lat="37.12562202657733" lon="14.099481463677359"><ele>26.333333333333332</ele><time>2026-05-03T08:05:02.994Z</time></trkpt><trkpt lat="37.12559385734822" lon="14.09969648537058"><ele>26.0</ele><time>2026-05-03T08:05:03.994Z</time></trkpt><trkpt lat="37.125562680778096" lon="14.099910988401104"><ele>26.0</ele><time>2026-05-03T08:05:04.994Z</time></trkpt><trkpt lat="37.12553462388266" lon="14.100125392273364"><ele>26.0</ele><time>2026-05-03T08:05:05.994Z</time></trkpt><trkpt lat="37.125505241659816" lon="14.100335965912116"><ele>26.0</ele><time>2026-05-03T08:05:06.994Z</time></trkpt><trkpt lat="37.125476351520255" lon="14.10054766502244"><ele>26.0</ele><time>2026-05-03T08:05:07.994Z</time></trkpt><trkpt lat="37.1254470705968" lon="14.100760893835172"><ele>26.0</ele><time>2026-05-03T08:05:08.994Z</time></trkpt><trkpt lat="37.125416813632455" lon="14.100975198296116"><ele>26.0</ele><time>2026-05-03T08:05:09.994Z</time></trkpt><trkpt lat="37.12538670557518" lon="14.101193840813657"><ele>26.0</ele><time>2026-05-03T08:05:10.994Z</time></trkpt><trkpt lat="37.12535638068747" lon="14.101412879123517"><ele>26.0</ele><time>2026-05-03T08:05:11.994Z</time></trkpt><trkpt lat="37.12532784654593" lon="14.10163048814391"><ele>26.0</ele><time>2026-05-03T08:05:12.994Z</time></trkpt><trkpt lat="37.12529515951648" lon="14.101847770545353"><ele>26.333333333333332</ele><time>2026-05-03T08:05:13.994Z</time></trkpt><trkpt lat="37.125262649778676" lon="14.102067528000854"><ele>26.666666666666664</ele><time>2026-05-03T08:05:14.994Z</time></trkpt><trkpt lat="37.12522355857654" lon="14.102281904352557"><ele>27.0</ele><time>2026-05-03T08:05:15.994Z</time></trkpt><trkpt lat="37.125161703819614" lon="14.102493184703802"><ele>27.333333333333336</ele><time>2026-05-03T08:05:16.994Z</time></trkpt><trkpt lat="37.12508807034672" lon="14.102691525908185"><ele>27.666666666666668</ele><time>2026-05-03T08:05:17.994Z</time></trkpt><trkpt lat="37.125009944934845" lon="14.102877194279007"><ele>28.0</ele><time>2026-05-03T08:05:18.994Z</time></trkpt><trkpt lat="37.124931216986774" lon="14.103062495764012"><ele>27.666666666666668</ele><time>2026-05-03T08:05:19.994Z</time></trkpt><trkpt lat="37.12485785533992" lon="14.103251914005423"><ele>27.333333333333336</ele><time>2026-05-03T08:05:20.994Z</time></trkpt><trkpt lat="37.12478445492571" lon="14.103448711978723"><ele>27.0</ele><time>2026-05-03T08:05:21.994Z</time></trkpt><trkpt lat="37.12472365172112" lon="14.103651757204014"><ele>27.0</ele><time>2026-05-03T08:05:22.994Z</time></trkpt><trkpt lat="37.124681279463886" lon="14.10385810087284"><ele>27.0</ele><time>2026-05-03T08:05:23.994Z</time></trkpt><trkpt lat="37.124641862347" lon="14.104073845592405"><ele>27.0</ele><time>2026-05-03T08:05:24.994Z</time></trkpt><trkpt lat="37.12460812110864" lon="14.10429090716374"><ele>27.0</ele><time>2026-05-03T08:05:25.994Z</time></trkpt><trkpt lat="37.12458192050553" lon="14.104511397088219"><ele>27.0</ele><time>2026-05-03T08:05:26.994Z</time></trkpt><trkpt lat="37.124552415851" lon="14.104732681239051"><ele>27.0</ele><time>2026-05-03T08:05:27.994Z</time></trkpt><trkpt lat="37.12452452053954" lon="14.104952810602764"><ele>26.666666666666664</ele><time>2026-05-03T08:05:28.994Z</time></trkpt><trkpt lat="37.12449764708877" lon="14.105172296119683"><ele>26.333333333333332</ele><time>2026-05-03T08:05:29.994Z</time></trkpt><trkpt lat="37.124471713313234" lon="14.105385853885323"><ele>26.0</ele><time>2026-05-03T08:05:30.994Z</time></trkpt><trkpt lat="37.124445038842374" lon="14.105583916844333"><ele>26.0</ele><time>2026-05-03T08:05:31.994Z</time></trkpt><trkpt lat="37.12442290478223" lon="14.105760236362832"><ele>26.0</ele><time>2026-05-03T08:05:32.994Z</time></trkpt><trkpt lat="37.12439646642959" lon="14.105926135748659"><ele>26.0</ele><time>2026-05-03T08:05:33.994Z</time></trkpt><trkpt lat="37.12437815943385" lon="14.106072365980307"><ele>26.0</ele><time>2026-05-03T08:05:34.994Z</time></trkpt><trkpt lat="37.12436617650795" lon="14.106199104337726"><ele>26.0</ele><time>2026-05-03T08:05:35.994Z</time></trkpt><trkpt lat="37.124347774539096" lon="14.10630399969001"><ele>26.0</ele><time>2026-05-03T08:05:36.994Z</time></trkpt><trkpt lat="37.12434089259641" lon="14.106397157875488"><ele>26.0</ele><time>2026-05-03T08:05:37.994Z</time></trkpt><trkpt lat="37.12430832978199" lon="14.10653805227119"><ele>26.0</ele><time>2026-05-03T08:05:39.994Z</time></trkpt><trkpt lat="37.1244314408593" lon="14.10664164775309"><ele>26.0</ele><time>2026-05-03T08:05:41.994Z</time></trkpt><trkpt lat="37.124502261412005" lon="14.10665734773257"><ele>26.0</ele><time>2026-05-03T08:05:42.994Z</time></trkpt><trkpt lat="37.124581538470736" lon="14.106669050241996"><ele>26.0</ele><time>2026-05-03T08:05:43.994Z</time></trkpt><trkpt lat="37.124670766854486" lon="14.106676909851107"><ele>26.0</ele><time>2026-05-03T08:05:44.994Z</time></trkpt><trkpt lat="37.124769349167224" lon="14.106666514300523"><ele>26.0</ele><time>2026-05-03T08:05:45.994Z</time></trkpt><trkpt lat="37.12486907387564" lon="14.106643955301125"><ele>26.0</ele><time>2026-05-03T08:05:46.994Z</time></trkpt><trkpt lat="37.12497080983881" lon="14.106612176686163"><ele>26.200000000000003</ele><time>2026-05-03T08:05:47.994Z</time></trkpt><trkpt lat="37.12507849647395" lon="14.106584530733384"><ele>26.400000000000002</ele><time>2026-05-03T08:05:48.994Z</time></trkpt><trkpt lat="37.12518581073665" lon="14.106537526860999"><ele>26.6</ele><time>2026-05-03T08:05:49.994Z</time></trkpt><trkpt lat="37.12529130584395" lon="14.106497501659588"><ele>26.8</ele><time>2026-05-03T08:05:50.994Z</time></trkpt><trkpt lat="37.12539564862668" lon="14.106459142980388"><ele>27.0</ele><time>2026-05-03T08:05:51.994Z</time></trkpt><trkpt lat="37.12549205636153" lon="14.106417658927878"><ele>27.0</ele><time>2026-05-03T08:05:52.994Z</time></trkpt><trkpt lat="37.12557980351404" lon="14.106390335249777"><ele>27.000000000000004</ele><time>2026-05-03T08:05:53.993Z</time></trkpt><trkpt lat="37.12566879704094" lon="14.106361970062073"><ele>27.000000000000004</ele><time>2026-05-03T08:05:54.993Z</time></trkpt><trkpt lat="37.12576123113089" lon="14.10634382095567"><ele>27.0</ele><time>2026-05-03T08:05:55.993Z</time></trkpt><trkpt lat="37.12586306613579" lon="14.106336245524615"><ele>27.0</ele><time>2026-05-03T08:05:56.993Z</time></trkpt><trkpt lat="37.12597581375367" lon="14.10634085376468"><ele>27.5</ele><time>2026-05-03T08:05:57.993Z</time></trkpt><trkpt lat="37.1260836978417" lon="14.10634172324912"><ele>28.0</ele><time>2026-05-03T08:05:58.993Z</time></trkpt><trkpt lat="37.126189772123546" lon="14.106342581493323"><ele>28.5</ele><time>2026-05-03T08:05:59.993Z</time></trkpt><trkpt lat="37.12630069296299" lon="14.10634979996331"><ele>29.0</ele><time>2026-05-03T08:06:00.993Z</time></trkpt><trkpt lat="37.12643323854624" lon="14.10635854663675"><ele>29.0</ele><time>2026-05-03T08:06:01.993Z</time></trkpt><trkpt lat="37.12655100635192" lon="14.106367560538997"><ele>29.0</ele><time>2026-05-03T08:06:02.993Z</time></trkpt><trkpt lat="37.126642467241815" lon="14.10638498467734"><ele>29.0</ele><time>2026-05-03T08:06:03.993Z</time></trkpt><trkpt lat="37.12672260405463" lon="14.106409474551366"><ele>29.0</ele><time>2026-05-03T08:06:04.993Z</time></trkpt><trkpt lat="37.1267963879057" lon="14.106459208442647"><ele>29.0</ele><time>2026-05-03T08:06:05.993Z</time></trkpt><trkpt lat="37.12687336191276" lon="14.106528954574129"><ele>30.4</ele><time>2026-05-03T08:06:06.993Z</time></trkpt><trkpt lat="37.126960965248635" lon="14.106616244138861"><ele>31.799999999999997</ele><time>2026-05-03T08:06:07.993Z</time></trkpt><trkpt lat="37.127051957787884" lon="14.106701453265776"><ele>33.2</ele><time>2026-05-03T08:06:08.993Z</time></trkpt><trkpt lat="37.12714560831618" lon="14.106782549950676"><ele>34.6</ele><time>2026-05-03T08:06:09.993Z</time></trkpt><trkpt lat="37.12723573315924" lon="14.106861911766394"><ele>36.0</ele><time>2026-05-03T08:06:10.993Z</time></trkpt><trkpt lat="37.1273218224232" lon="14.106934554045052"><ele>36.0</ele><time>2026-05-03T08:06:11.993Z</time></trkpt><trkpt lat="37.12739204672985" lon="14.107005261181516"><ele>36.0</ele><time>2026-05-03T08:06:12.993Z</time></trkpt><trkpt lat="37.12746592136778" lon="14.107074921433782"><ele>36.0</ele><time>2026-05-03T08:06:13.993Z</time></trkpt><trkpt lat="37.127542304017176" lon="14.107164058926202"><ele>36.0</ele><time>2026-05-03T08:06:14.993Z</time></trkpt><trkpt lat="37.127611297222444" lon="14.107276848992585"><ele>36.0</ele><time>2026-05-03T08:06:15.993Z</time></trkpt><trkpt lat="37.1276766139831" lon="14.10740228395969"><ele>36.75</ele><time>2026-05-03T08:06:16.993Z</time></trkpt><trkpt lat="37.12774652378363" lon="14.107543745378946"><ele>37.5</ele><time>2026-05-03T08:06:17.993Z</time></trkpt><trkpt lat="37.12782943510005" lon="14.107694514606562"><ele>38.25</ele><time>2026-05-03T08:06:18.993Z</time></trkpt><trkpt lat="37.12790841106647" lon="14.107836134089098"><ele>39.0</ele><time>2026-05-03T08:06:19.993Z</time></trkpt><trkpt lat="37.1279775467078" lon="14.107964469566353"><ele>39.0</ele><time>2026-05-03T08:06:20.993Z</time></trkpt><trkpt lat="37.12804579492491" lon="14.108090711645382"><ele>39.0</ele><time>2026-05-03T08:06:21.993Z</time></trkpt><trkpt lat="37.1281089801186" lon="14.108212864920592"><ele>39.0</ele><time>2026-05-03T08:06:22.993Z</time></trkpt><trkpt lat="37.12816294357066" lon="14.108320881876113"><ele>39.0</ele><time>2026-05-03T08:06:23.993Z</time></trkpt><trkpt lat="37.12821306962949" lon="14.108422304493093"><ele>39.0</ele><time>2026-05-03T08:06:24.993Z</time></trkpt><trkpt lat="37.128259606678625" lon="14.10851768875487"><ele>38.4</ele><time>2026-05-03T08:06:25.993Z</time></trkpt><trkpt lat="37.12830583516337" lon="14.108610944304825"><ele>37.8</ele><time>2026-05-03T08:06:26.993Z</time></trkpt><trkpt lat="37.12836198578841" lon="14.108712895168626"><ele>37.2</ele><time>2026-05-03T08:06:27.993Z</time></trkpt><trkpt lat="37.128430591172325" lon="14.108830596555164"><ele>36.6</ele><time>2026-05-03T08:06:28.993Z</time></trkpt><trkpt lat="37.12849857599254" lon="14.108947991663088"><ele>36.0</ele><time>2026-05-03T08:06:29.993Z</time></trkpt><trkpt lat="37.128577060152764" lon="14.10904611884397"><ele>37.75</ele><time>2026-05-03T08:06:30.993Z</time></trkpt><trkpt lat="37.12866206522272" lon="14.109147840113165"><ele>39.5</ele><time>2026-05-03T08:06:31.993Z</time></trkpt><trkpt lat="37.12874674286866" lon="14.109238134040568"><ele>41.25</ele><time>2026-05-03T08:06:32.993Z</time></trkpt><trkpt lat="37.12882436360659" lon="14.109335379221013"><ele>43.0</ele><time>2026-05-03T08:06:33.993Z</time></trkpt><trkpt lat="37.12891342638326" lon="14.109460754893703"><ele>43.0</ele><time>2026-05-03T08:06:34.993Z</time></trkpt><trkpt lat="37.12900931439732" lon="14.109572196904168"><ele>43.0</ele><time>2026-05-03T08:06:35.993Z</time></trkpt><trkpt lat="37.12909826072039" lon="14.109697891096912"><ele>43.0</ele><time>2026-05-03T08:06:36.993Z</time></trkpt><trkpt lat="37.12918955044142" lon="14.109818816607262"><ele>43.0</ele><time>2026-05-03T08:06:37.993Z</time></trkpt><trkpt lat="37.129282419092974" lon="14.109936703112702"><ele>42.5</ele><time>2026-05-03T08:06:38.993Z</time></trkpt><trkpt lat="37.12937600613456" lon="14.110048631098765"><ele>42.0</ele><time>2026-05-03T08:06:39.993Z</time></trkpt><trkpt lat="37.12947230960684" lon="14.110160909355333"><ele>41.5</ele><time>2026-05-03T08:06:40.993Z</time></trkpt><trkpt lat="37.12956946621205" lon="14.110272851724334"><ele>41.0</ele><time>2026-05-03T08:06:41.993Z</time></trkpt><trkpt lat="37.12966125567839" lon="14.110390955145927"><ele>41.0</ele><time>2026-05-03T08:06:42.993Z</time></trkpt><trkpt lat="37.12975703110706" lon="14.1105069433503"><ele>41.0</ele><time>2026-05-03T08:06:43.993Z</time></trkpt><trkpt lat="37.12984840511513" lon="14.110616583200608"><ele>41.0</ele><time>2026-05-03T08:06:44.993Z</time></trkpt><trkpt lat="37.12992915541917" lon="14.110720268710018"><ele>41.0</ele><time>2026-05-03T08:06:45.993Z</time></trkpt><trkpt lat="37.13000663984176" lon="14.110806022803148"><ele>41.0</ele><time>2026-05-03T08:06:46.993Z</time></trkpt><trkpt lat="37.13007685564839" lon="14.110884589550626"><ele>41.0</ele><time>2026-05-03T08:06:47.993Z</time></trkpt><trkpt lat="37.13014165818104" lon="14.110951605323589"><ele>41.0</ele><time>2026-05-03T08:06:48.993Z</time></trkpt><trkpt lat="37.13020136148537" lon="14.111012859779771"><ele>41.0</ele><time>2026-05-03T08:06:49.993Z</time></trkpt><trkpt lat="37.13025540910773" lon="14.111063790592908"><ele>41.0</ele><time>2026-05-03T08:06:50.993Z</time></trkpt><trkpt lat="37.13033080928818" lon="14.111115049405445"><ele>41.0</ele><time>2026-05-03T08:06:51.992Z</time></trkpt><trkpt lat="37.130426339272056" lon="14.11115947719747"><ele>41.0</ele><time>2026-05-03T08:06:52.992Z</time></trkpt><trkpt lat="37.13053836577894" lon="14.111196130649573"><ele>41.0</ele><time>2026-05-03T08:06:53.992Z</time></trkpt><trkpt lat="37.13065309635363" lon="14.111234997796045"><ele>41.0</ele><time>2026-05-03T08:06:54.992Z</time></trkpt><trkpt lat="37.13077480892135" lon="14.11127193815487"><ele>41.0</ele><time>2026-05-03T08:06:55.993Z</time></trkpt><trkpt lat="37.13089421964578" lon="14.111293593451155"><ele>40.5</ele><time>2026-05-03T08:06:56.993Z</time></trkpt><trkpt lat="37.13102225742441" lon="14.111313428684332"><ele>40.0</ele><time>2026-05-03T08:06:57.993Z</time></trkpt><trkpt lat="37.13115337609826" lon="14.111341592151469"><ele>39.5</ele><time>2026-05-03T08:06:58.994Z</time></trkpt><trkpt lat="37.13128314732486" lon="14.111382212195657"><ele>39.0</ele><time>2026-05-03T08:06:59.993Z</time></trkpt><trkpt lat="37.13142140986214" lon="14.111411649693101"><ele>38.75</ele><time>2026-05-03T08:07:00.993Z</time></trkpt><trkpt lat="37.13156607611443" lon="14.111446630568137"><ele>38.5</ele><time>2026-05-03T08:07:01.993Z</time></trkpt><trkpt lat="37.13170802456216" lon="14.111488417469031"><ele>38.25</ele><time>2026-05-03T08:07:02.994Z</time></trkpt><trkpt lat="37.131847300583615" lon="14.111528848666598"><ele>38.0</ele><time>2026-05-03T08:07:03.994Z</time></trkpt><trkpt lat="37.1319802650258" lon="14.111571938821578"><ele>39.25</ele><time>2026-05-03T08:07:04.993Z</time></trkpt><trkpt lat="37.132108384556894" lon="14.111607011793108"><ele>40.5</ele><time>2026-05-03T08:07:05.993Z</time></trkpt><trkpt lat="37.13223701837317" lon="14.111640948154687"><ele>41.75</ele><time>2026-05-03T08:07:06.993Z</time></trkpt><trkpt lat="37.132363825294206" lon="14.111678825224882"><ele>43.0</ele><time>2026-05-03T08:07:07.993Z</time></trkpt><trkpt lat="37.13249468203352" lon="14.111701906611783"><ele>43.25</ele><time>2026-05-03T08:07:08.993Z</time></trkpt><trkpt lat="37.132627138386795" lon="14.11171979554314"><ele>43.5</ele><time>2026-05-03T08:07:09.993Z</time></trkpt><trkpt lat="37.13276464466572" lon="14.111729249841748"><ele>43.75</ele><time>2026-05-03T08:07:10.993Z</time></trkpt><trkpt lat="37.132906885316196" lon="14.111742116141157"><ele>44.0</ele><time>2026-05-03T08:07:11.993Z</time></trkpt><trkpt lat="37.133044326466994" lon="14.111766810352178"><ele>44.0</ele><time>2026-05-03T08:07:12.993Z</time></trkpt><trkpt lat="37.133184088556284" lon="14.11178687482461"><ele>44.0</ele><time>2026-05-03T08:07:13.993Z</time></trkpt><trkpt lat="37.13332397681116" lon="14.111806260138351"><ele>44.0</ele><time>2026-05-03T08:07:14.993Z</time></trkpt><trkpt lat="37.13346216593778" lon="14.111826771862965"><ele>44.0</ele><time>2026-05-03T08:07:15.993Z</time></trkpt><trkpt lat="37.133601378705286" lon="14.11184907951004"><ele>44.0</ele><time>2026-05-03T08:07:16.993Z</time></trkpt><trkpt lat="37.13373984649074" lon="14.11187128003684"><ele>44.0</ele><time>2026-05-03T08:07:17.993Z</time></trkpt><trkpt lat="37.133872940809766" lon="14.111896345040346"><ele>44.0</ele><time>2026-05-03T08:07:18.993Z</time></trkpt><trkpt lat="37.13400581137789" lon="14.111920747096697"><ele>44.0</ele><time>2026-05-03T08:07:19.993Z</time></trkpt><trkpt lat="37.13413117620623" lon="14.111947527301014"><ele>44.0</ele><time>2026-05-03T08:07:20.993Z</time></trkpt><trkpt lat="37.13424954359207" lon="14.111989061756798"><ele>44.0</ele><time>2026-05-03T08:07:21.993Z</time></trkpt><trkpt lat="37.13436079585132" lon="14.112053334847024"><ele>44.0</ele><time>2026-05-03T08:07:22.993Z</time></trkpt><trkpt lat="37.13445064279276" lon="14.112146875689286"><ele>44.0</ele><time>2026-05-03T08:07:23.993Z</time></trkpt><trkpt lat="37.13453591982702" lon="14.112263755693924"><ele>44.0</ele><time>2026-05-03T08:07:24.993Z</time></trkpt><trkpt lat="37.134615861495" lon="14.112388856072656"><ele>44.0</ele><time>2026-05-03T08:07:25.992Z</time></trkpt><trkpt lat="37.13469883648858" lon="14.112512438676514"><ele>44.0</ele><time>2026-05-03T08:07:26.992Z</time></trkpt><trkpt lat="37.13477706789786" lon="14.112632800294826"><ele>44.0</ele><time>2026-05-03T08:07:27.992Z</time></trkpt><trkpt lat="37.13485732734176" lon="14.112747468626184"><ele>45.5</ele><time>2026-05-03T08:07:28.992Z</time></trkpt><trkpt lat="37.13493720670711" lon="14.112863207648298"><ele>47.0</ele><time>2026-05-03T08:07:29.992Z</time></trkpt><trkpt lat="37.13501707878555" lon="14.112981127876308"><ele>48.5</ele><time>2026-05-03T08:07:30.992Z</time></trkpt><trkpt lat="37.135096985572595" lon="14.113097632989822"><ele>50.0</ele><time>2026-05-03T08:07:31.992Z</time></trkpt><trkpt lat="37.13517908021108" lon="14.113214105491894"><ele>52.0</ele><time>2026-05-03T08:07:32.992Z</time></trkpt><trkpt lat="37.135264009710504" lon="14.113323726764042"><ele>54.0</ele><time>2026-05-03T08:07:33.992Z</time></trkpt><trkpt lat="37.13535644969828" lon="14.113426921388179"><ele>56.0</ele><time>2026-05-03T08:07:34.992Z</time></trkpt><trkpt lat="37.13545194901656" lon="14.113525205293536"><ele>58.0</ele><time>2026-05-03T08:07:35.992Z</time></trkpt><trkpt lat="37.13555421147637" lon="14.1136175488618"><ele>58.0</ele><time>2026-05-03T08:07:36.992Z</time></trkpt><trkpt lat="37.13566559231772" lon="14.113704024701583"><ele>58.0</ele><time>2026-05-03T08:07:37.992Z</time></trkpt><trkpt lat="37.13577043213183" lon="14.113794486251372"><ele>58.0</ele><time>2026-05-03T08:07:38.992Z</time></trkpt><trkpt lat="37.13587506584733" lon="14.113885136429039"><ele>58.0</ele><time>2026-05-03T08:07:39.992Z</time></trkpt><trkpt lat="37.135986262085446" lon="14.113969405770442"><ele>58.75</ele><time>2026-05-03T08:07:40.992Z</time></trkpt><trkpt lat="37.136091542440184" lon="14.114054484684944"><ele>59.5</ele><time>2026-05-03T08:07:41.992Z</time></trkpt><trkpt lat="37.13621153417851" lon="14.114117727417248"><ele>60.25</ele><time>2026-05-03T08:07:42.992Z</time></trkpt><trkpt lat="37.13633947309707" lon="14.114140824847325"><ele>61.0</ele><time>2026-05-03T08:07:43.992Z</time></trkpt><trkpt lat="37.13643936722352" lon="14.114107714723882"><ele>61.0</ele><time>2026-05-03T08:07:44.992Z</time></trkpt><trkpt lat="37.13652632771578" lon="14.11409593390203"><ele>60.99999999999999</ele><time>2026-05-03T08:07:45.992Z</time></trkpt><trkpt lat="37.13662369966532" lon="14.114065578074761"><ele>60.99999999999999</ele><time>2026-05-03T08:07:46.992Z</time></trkpt><trkpt lat="37.13672775640895" lon="14.114030785176276"><ele>61.0</ele><time>2026-05-03T08:07:47.992Z</time></trkpt><trkpt lat="37.136839021657096" lon="14.114004722704413"><ele>61.0</ele><time>2026-05-03T08:07:48.992Z</time></trkpt><trkpt lat="37.136954154998755" lon="14.113987102689059"><ele>59.25</ele><time>2026-05-03T08:07:49.992Z</time></trkpt><trkpt lat="37.13706194800821" lon="14.113963309747799"><ele>57.5</ele><time>2026-05-03T08:07:50.992Z</time></trkpt><trkpt lat="37.13716677900331" lon="14.113918394829856"><ele>55.75</ele><time>2026-05-03T08:07:51.992Z</time></trkpt><trkpt lat="37.1372828153045" lon="14.11387297464175"><ele>54.0</ele><time>2026-05-03T08:07:52.992Z</time></trkpt><trkpt lat="37.137416929418855" lon="14.113827869222911"><ele>54.0</ele><time>2026-05-03T08:07:53.992Z</time></trkpt><trkpt lat="37.13754782115457" lon="14.11378212154626"><ele>54.0</ele><time>2026-05-03T08:07:54.992Z</time></trkpt><trkpt lat="37.13766573191343" lon="14.11373660089492"><ele>54.0</ele><time>2026-05-03T08:07:55.992Z</time></trkpt><trkpt lat="37.13776946203962" lon="14.113697445346727"><ele>54.0</ele><time>2026-05-03T08:07:56.992Z</time></trkpt><trkpt lat="37.13786941078961" lon="14.113672960929131"><ele>54.0</ele><time>2026-05-03T08:07:57.992Z</time></trkpt><trkpt lat="37.13796082480574" lon="14.113646994237584"><ele>54.00000000000001</ele><time>2026-05-03T08:07:58.992Z</time></trkpt><trkpt lat="37.13803430555011" lon="14.113596763488312"><ele>54.00000000000001</ele><time>2026-05-03T08:07:59.992Z</time></trkpt><trkpt lat="37.13812215519161" lon="14.113557967287699"><ele>54.0</ele><time>2026-05-03T08:08:00.992Z</time></trkpt><trkpt lat="37.13821325245654" lon="14.113517736835838"><ele>54.0</ele><time>2026-05-03T08:08:01.992Z</time></trkpt><trkpt lat="37.13832736950439" lon="14.11346734036261"><ele>54.75</ele><time>2026-05-03T08:08:02.992Z</time></trkpt><trkpt lat="37.138447646891485" lon="14.113414223361394"><ele>55.5</ele><time>2026-05-03T08:08:03.992Z</time></trkpt><trkpt lat="37.13857263294848" lon="14.11335902691775"><ele>56.25</ele><time>2026-05-03T08:08:04.992Z</time></trkpt><trkpt lat="37.138702504813494" lon="14.113301672797407"><ele>57.0</ele><time>2026-05-03T08:08:05.992Z</time></trkpt><trkpt lat="37.1388380697321" lon="14.113241804504142"><ele>56.75</ele><time>2026-05-03T08:08:06.992Z</time></trkpt><trkpt lat="37.138973209115704" lon="14.113194462973025"><ele>56.5</ele><time>2026-05-03T08:08:07.992Z</time></trkpt><trkpt lat="37.1390968737495" lon="14.11312351995866"><ele>56.25</ele><time>2026-05-03T08:08:08.992Z</time></trkpt><trkpt lat="37.13920642632121" lon="14.113060156601112"><ele>56.0</ele><time>2026-05-03T08:08:09.992Z</time></trkpt><trkpt lat="37.139315724469064" lon="14.113005546304455"><ele>56.0</ele><time>2026-05-03T08:08:10.992Z</time></trkpt><trkpt lat="37.1394185289975" lon="14.112958145746548"><ele>55.99999999999999</ele><time>2026-05-03T08:08:11.992Z</time></trkpt><trkpt lat="37.13950843886144" lon="14.112908558495862"><ele>55.99999999999999</ele><time>2026-05-03T08:08:12.992Z</time></trkpt><trkpt lat="37.139598843214685" lon="14.112862757459656"><ele>56.0</ele><time>2026-05-03T08:08:13.992Z</time></trkpt><trkpt lat="37.13970021254771" lon="14.112820125322694"><ele>56.0</ele><time>2026-05-03T08:08:14.992Z</time></trkpt><trkpt lat="37.139814253061715" lon="14.112776804328982"><ele>56.0</ele><time>2026-05-03T08:08:15.992Z</time></trkpt><trkpt lat="37.139933062526175" lon="14.112732731817566"><ele>56.0</ele><time>2026-05-03T08:08:16.992Z</time></trkpt><trkpt lat="37.140045598493685" lon="14.112689703709524"><ele>56.0</ele><time>2026-05-03T08:08:17.992Z</time></trkpt><trkpt lat="37.14015630990323" lon="14.112641885985385"><ele>56.0</ele><time>2026-05-03T08:08:18.992Z</time></trkpt><trkpt lat="37.140271203891814" lon="14.112590688528117"><ele>56.0</ele><time>2026-05-03T08:08:19.992Z</time></trkpt><trkpt lat="37.14039052794325" lon="14.112534515303375"><ele>56.0</ele><time>2026-05-03T08:08:20.992Z</time></trkpt><trkpt lat="37.14051071854329" lon="14.112480419153343"><ele>56.0</ele><time>2026-05-03T08:08:21.992Z</time></trkpt><trkpt lat="37.1406320637965" lon="14.112438844268235"><ele>56.0</ele><time>2026-05-03T08:08:22.992Z</time></trkpt><trkpt lat="37.14075559424054" lon="14.112394743795178"><ele>54.75</ele><time>2026-05-03T08:08:23.992Z</time></trkpt><trkpt lat="37.14087848544235" lon="14.112357338298551"><ele>53.5</ele><time>2026-05-03T08:08:24.992Z</time></trkpt><trkpt lat="37.140991896715576" lon="14.112288742528916"><ele>52.25</ele><time>2026-05-03T08:08:25.992Z</time></trkpt><trkpt lat="37.14111085132333" lon="14.112235129800238"><ele>51.0</ele><time>2026-05-03T08:08:26.992Z</time></trkpt><trkpt lat="37.141218371924474" lon="14.112186670422256"><ele>51.0</ele><time>2026-05-03T08:08:27.992Z</time></trkpt><trkpt lat="37.141316432778176" lon="14.112142474487822"><ele>51.0</ele><time>2026-05-03T08:08:28.992Z</time></trkpt><trkpt lat="37.141405393560845" lon="14.112102379963108"><ele>51.0</ele><time>2026-05-03T08:08:29.992Z</time></trkpt><trkpt lat="37.141487877168856" lon="14.112065204737377"><ele>51.0</ele><time>2026-05-03T08:08:30.992Z</time></trkpt><trkpt lat="37.14155811829159" lon="14.112033547126021"><ele>51.0</ele><time>2026-05-03T08:08:31.992Z</time></trkpt><trkpt lat="37.14161916488121" lon="14.112006033483802"><ele>51.0</ele><time>2026-05-03T08:08:32.992Z</time></trkpt><trkpt lat="37.141706151065456" lon="14.112137542304072"><ele>51.199999999999996</ele><time>2026-05-03T08:08:35.992Z</time></trkpt><trkpt lat="37.141675479267754" lon="14.112253144118307"><ele>51.4</ele><time>2026-05-03T08:08:37.992Z</time></trkpt><trkpt lat="37.14165743888311" lon="14.112404546199961"><ele>51.6</ele><time>2026-05-03T08:08:39.992Z</time></trkpt><trkpt lat="37.14161380295602" lon="14.112484040498584"><ele>51.8</ele><time>2026-05-03T08:08:40.992Z</time></trkpt><trkpt lat="37.14159177829986" lon="14.112591993872437"><ele>52.0</ele><time>2026-05-03T08:08:41.992Z</time></trkpt><trkpt lat="37.14156322852313" lon="14.112729500615323"><ele>52.6</ele><time>2026-05-03T08:08:42.992Z</time></trkpt><trkpt lat="37.14153236736638" lon="14.112878139893576"><ele>53.2</ele><time>2026-05-03T08:08:43.992Z</time></trkpt><trkpt lat="37.14150577431557" lon="14.113006222275889"><ele>53.8</ele><time>2026-05-03T08:08:44.992Z</time></trkpt><trkpt lat="37.14147896059889" lon="14.11313536719921"><ele>54.4</ele><time>2026-05-03T08:08:45.992Z</time></trkpt><trkpt lat="37.14145027741299" lon="14.113273516575523"><ele>55.0</ele><time>2026-05-03T08:08:46.992Z</time></trkpt><trkpt lat="37.141420636893805" lon="14.113415433702421"><ele>56.5</ele><time>2026-05-03T08:08:47.992Z</time></trkpt><trkpt lat="37.14138752949187" lon="14.113569946712188"><ele>58.0</ele><time>2026-05-03T08:08:48.992Z</time></trkpt><trkpt lat="37.141350316070394" lon="14.113743622515043"><ele>59.5</ele><time>2026-05-03T08:08:49.992Z</time></trkpt><trkpt lat="37.141312487588756" lon="14.113920169101421"><ele>61.0</ele><time>2026-05-03T08:08:50.992Z</time></trkpt><trkpt lat="37.14127118012397" lon="14.1141129519929"><ele>61.75</ele><time>2026-05-03T08:08:51.992Z</time></trkpt><trkpt lat="37.141236137914426" lon="14.114276495380327"><ele>62.5</ele><time>2026-05-03T08:08:52.992Z</time></trkpt><trkpt lat="37.14120336605883" lon="14.114427884866387"><ele>63.25</ele><time>2026-05-03T08:08:53.991Z</time></trkpt><trkpt lat="37.14117137531169" lon="14.114575796552154"><ele>64.0</ele><time>2026-05-03T08:08:54.991Z</time></trkpt><trkpt lat="37.14114428474816" lon="14.114701051609545"><ele>64.0</ele><time>2026-05-03T08:08:55.991Z</time></trkpt><trkpt lat="37.1411114640491" lon="14.114853437524284"><ele>64.0</ele><time>2026-05-03T08:08:56.991Z</time></trkpt><trkpt lat="37.14107831833391" lon="14.115011151322097"><ele>64.0</ele><time>2026-05-03T08:08:57.991Z</time></trkpt><trkpt lat="37.141044323262015" lon="14.115172906820666"><ele>64.0</ele><time>2026-05-03T08:08:58.991Z</time></trkpt><trkpt lat="37.14101188393739" lon="14.115333711018977"><ele>64.5</ele><time>2026-05-03T08:08:59.991Z</time></trkpt><trkpt lat="37.14099433173648" lon="14.11549918591014"><ele>65.0</ele><time>2026-05-03T08:09:00.991Z</time></trkpt><trkpt lat="37.140961204402004" lon="14.115664072665476"><ele>65.5</ele><time>2026-05-03T08:09:01.993Z</time></trkpt><trkpt lat="37.140934758539906" lon="14.115833494789317"><ele>66.0</ele><time>2026-05-03T08:09:02.993Z</time></trkpt><trkpt lat="37.14092320223735" lon="14.116003309145874"><ele>65.0</ele><time>2026-05-03T08:09:03.993Z</time></trkpt><trkpt lat="37.1409197314036" lon="14.116174591438126"><ele>64.0</ele><time>2026-05-03T08:09:04.992Z</time></trkpt><trkpt lat="37.14092102523214" lon="14.116347263119133"><ele>63.0</ele><time>2026-05-03T08:09:05.993Z</time></trkpt><trkpt lat="37.1409272016093" lon="14.11651982650447"><ele>62.0</ele><time>2026-05-03T08:09:06.992Z</time></trkpt><trkpt lat="37.14093236668755" lon="14.116696088219781"><ele>61.25</ele><time>2026-05-03T08:09:07.993Z</time></trkpt><trkpt lat="37.14094861815623" lon="14.116867905701998"><ele>60.5</ele><time>2026-05-03T08:09:08.993Z</time></trkpt><trkpt lat="37.140976499960516" lon="14.117038897876226"><ele>59.75</ele><time>2026-05-03T08:09:09.993Z</time></trkpt><trkpt lat="37.14101254943902" lon="14.11721012141149"><ele>59.0</ele><time>2026-05-03T08:09:10.993Z</time></trkpt><trkpt lat="37.141058411460385" lon="14.117378987971495"><ele>58.0</ele><time>2026-05-03T08:09:11.992Z</time></trkpt><trkpt lat="37.14110894477977" lon="14.117544813403374"><ele>57.0</ele><time>2026-05-03T08:09:12.992Z</time></trkpt><trkpt lat="37.141169063802614" lon="14.117706433201263"><ele>56.0</ele><time>2026-05-03T08:09:13.992Z</time></trkpt><trkpt lat="37.14123626890028" lon="14.117861184230486"><ele>55.0</ele><time>2026-05-03T08:09:14.992Z</time></trkpt><trkpt lat="37.1413080117275" lon="14.118012325568438"><ele>55.0</ele><time>2026-05-03T08:09:15.992Z</time></trkpt><trkpt lat="37.141383928268944" lon="14.118160398504177"><ele>55.0</ele><time>2026-05-03T08:09:16.992Z</time></trkpt><trkpt lat="37.14146628049319" lon="14.11830078934456"><ele>55.0</ele><time>2026-05-03T08:09:17.992Z</time></trkpt><trkpt lat="37.141559519775065" lon="14.118427145327427"><ele>55.0</ele><time>2026-05-03T08:09:18.992Z</time></trkpt><trkpt lat="37.141659202569834" lon="14.118549265259905"><ele>55.0</ele><time>2026-05-03T08:09:19.992Z</time></trkpt><trkpt lat="37.141759513905214" lon="14.118673200200082"><ele>55.0</ele><time>2026-05-03T08:09:20.992Z</time></trkpt><trkpt lat="37.141860304339545" lon="14.118794121388932"><ele>55.0</ele><time>2026-05-03T08:09:21.992Z</time></trkpt><trkpt lat="37.141960444222065" lon="14.118913222076559"><ele>55.0</ele><time>2026-05-03T08:09:22.992Z</time></trkpt><trkpt lat="37.14205914526429" lon="14.119032964156935"><ele>55.75</ele><time>2026-05-03T08:09:23.992Z</time></trkpt><trkpt lat="37.1421561389744" lon="14.119153231292595"><ele>56.5</ele><time>2026-05-03T08:09:24.992Z</time></trkpt><trkpt lat="37.14225344339697" lon="14.119274179968537"><ele>57.25</ele><time>2026-05-03T08:09:25.992Z</time></trkpt><trkpt lat="37.142349908667164" lon="14.119397834344658"><ele>58.0</ele><time>2026-05-03T08:09:26.992Z</time></trkpt><trkpt lat="37.14244656580779" lon="14.119521227773411"><ele>58.0</ele><time>2026-05-03T08:09:27.992Z</time></trkpt><trkpt lat="37.142543431807965" lon="14.119648221626102"><ele>58.0</ele><time>2026-05-03T08:09:28.992Z</time></trkpt><trkpt lat="37.14263837103968" lon="14.119778726332664"><ele>58.0</ele><time>2026-05-03T08:09:29.992Z</time></trkpt><trkpt lat="37.14273371081461" lon="14.119912652751346"><ele>58.0</ele><time>2026-05-03T08:09:30.992Z</time></trkpt><trkpt lat="37.142823207723374" lon="14.120049544927085"><ele>56.5</ele><time>2026-05-03T08:09:31.992Z</time></trkpt><trkpt lat="37.1429098382584" lon="14.120192757027096"><ele>55.0</ele><time>2026-05-03T08:09:32.992Z</time></trkpt><trkpt lat="37.14299775574323" lon="14.120341292309657"><ele>53.5</ele><time>2026-05-03T08:09:33.992Z</time></trkpt><trkpt lat="37.14307577446132" lon="14.120491696604873"><ele>52.0</ele><time>2026-05-03T08:09:34.992Z</time></trkpt><trkpt lat="37.143147369250805" lon="14.120644150574426"><ele>51.75</ele><time>2026-05-03T08:09:35.992Z</time></trkpt><trkpt lat="37.14321845966935" lon="14.1208053204684"><ele>51.5</ele><time>2026-05-03T08:09:36.992Z</time></trkpt><trkpt lat="37.1432838200897" lon="14.120968024799392"><ele>51.25</ele><time>2026-05-03T08:09:37.992Z</time></trkpt><trkpt lat="37.14334594905567" lon="14.121132755161476"><ele>51.0</ele><time>2026-05-03T08:09:38.992Z</time></trkpt><trkpt lat="37.143402588806595" lon="14.121302371706935"><ele>51.0</ele><time>2026-05-03T08:09:39.992Z</time></trkpt><trkpt lat="37.14345117439796" lon="14.121472366602974"><ele>51.0</ele><time>2026-05-03T08:09:40.992Z</time></trkpt><trkpt lat="37.14349507452705" lon="14.121645368619236"><ele>51.0</ele><time>2026-05-03T08:09:41.992Z</time></trkpt><trkpt lat="37.143536759439904" lon="14.121821318823903"><ele>51.0</ele><time>2026-05-03T08:09:42.992Z</time></trkpt><trkpt lat="37.14357298235465" lon="14.121998533004499"><ele>51.0</ele><time>2026-05-03T08:09:43.992Z</time></trkpt><trkpt lat="37.143611823055664" lon="14.122173721727316"><ele>51.0</ele><time>2026-05-03T08:09:44.992Z</time></trkpt><trkpt lat="37.14365114515527" lon="14.122349625253033"><ele>51.0</ele><time>2026-05-03T08:09:45.992Z</time></trkpt><trkpt lat="37.14369070375238" lon="14.122524338679748"><ele>51.0</ele><time>2026-05-03T08:09:46.992Z</time></trkpt><trkpt lat="37.14373179606332" lon="14.122699948986515"><ele>51.0</ele><time>2026-05-03T08:09:47.992Z</time></trkpt><trkpt lat="37.14377762482325" lon="14.122872026320415"><ele>51.0</ele><time>2026-05-03T08:09:48.992Z</time></trkpt><trkpt lat="37.14382778392076" lon="14.123040320138616"><ele>51.0</ele><time>2026-05-03T08:09:49.992Z</time></trkpt><trkpt lat="37.14388725683414" lon="14.123204321054203"><ele>51.0</ele><time>2026-05-03T08:09:50.992Z</time></trkpt><trkpt lat="37.143957276998385" lon="14.123363244880126"><ele>51.75</ele><time>2026-05-03T08:09:51.992Z</time></trkpt><trkpt lat="37.14403510955346" lon="14.123518375302307"><ele>52.5</ele><time>2026-05-03T08:09:52.992Z</time></trkpt><trkpt lat="37.14412262004349" lon="14.123664447570583"><ele>53.25</ele><time>2026-05-03T08:09:53.992Z</time></trkpt><trkpt lat="37.144216854749345" lon="14.123801146980675"><ele>54.0</ele><time>2026-05-03T08:09:54.992Z</time></trkpt><trkpt lat="37.14431905125482" lon="14.123927017672804"><ele>54.25</ele><time>2026-05-03T08:09:55.992Z</time></trkpt><trkpt lat="37.144426919363106" lon="14.124042890775916"><ele>54.5</ele><time>2026-05-03T08:09:56.992Z</time></trkpt><trkpt lat="37.14453712592871" lon="14.12416060768612"><ele>54.75</ele><time>2026-05-03T08:09:57.992Z</time></trkpt><trkpt lat="37.144649078793265" lon="14.12428117536764"><ele>55.0</ele><time>2026-05-03T08:09:58.992Z</time></trkpt><trkpt lat="37.14475625147748" lon="14.124401479474072"><ele>54.75</ele><time>2026-05-03T08:09:59.992Z</time></trkpt><trkpt lat="37.14486071629765" lon="14.124526009795382"><ele>54.5</ele><time>2026-05-03T08:10:00.992Z</time></trkpt><trkpt lat="37.144961105886765" lon="14.124653831881972"><ele>54.25</ele><time>2026-05-03T08:10:01.992Z</time></trkpt><trkpt lat="37.145055893482386" lon="14.124790439977136"><ele>54.0</ele><time>2026-05-03T08:10:02.992Z</time></trkpt><trkpt lat="37.14514755745176" lon="14.124937857487291"><ele>53.0</ele><time>2026-05-03T08:10:03.992Z</time></trkpt><trkpt lat="37.14522858083762" lon="14.1250974584066"><ele>52.0</ele><time>2026-05-03T08:10:04.992Z</time></trkpt><trkpt lat="37.14531118856536" lon="14.125258998436188"><ele>51.0</ele><time>2026-05-03T08:10:05.992Z</time></trkpt><trkpt lat="37.145395277923896" lon="14.125421400846664"><ele>51.0</ele><time>2026-05-03T08:10:06.992Z</time></trkpt><trkpt lat="37.145478789103876" lon="14.125583697802314"><ele>51.0</ele><time>2026-05-03T08:10:07.992Z</time></trkpt><trkpt lat="37.14556283655156" lon="14.125748034244149"><ele>51.0</ele><time>2026-05-03T08:10:08.992Z</time></trkpt><trkpt lat="37.145647616108285" lon="14.125908605745687"><ele>51.66666666666667</ele><time>2026-05-03T08:10:09.991Z</time></trkpt><trkpt lat="37.14573143895179" lon="14.126069791242973"><ele>52.333333333333336</ele><time>2026-05-03T08:10:10.991Z</time></trkpt><trkpt lat="37.14581606554141" lon="14.126227041921855"><ele>53.0</ele><time>2026-05-03T08:10:11.991Z</time></trkpt><trkpt lat="37.14589945045928" lon="14.126383286288176"><ele>53.0</ele><time>2026-05-03T08:10:12.991Z</time></trkpt><trkpt lat="37.14598211296459" lon="14.126538474924539"><ele>53.0</ele><time>2026-05-03T08:10:13.991Z</time></trkpt><trkpt lat="37.14606762524978" lon="14.126690964794987"><ele>53.0</ele><time>2026-05-03T08:10:14.991Z</time></trkpt><trkpt lat="37.146154360595865" lon="14.126845369835523"><ele>53.0</ele><time>2026-05-03T08:10:15.991Z</time></trkpt><trkpt lat="37.14623647696322" lon="14.127005910463952"><ele>54.333333333333336</ele><time>2026-05-03T08:10:16.991Z</time></trkpt><trkpt lat="37.14631860382122" lon="14.127163934407971"><ele>55.66666666666667</ele><time>2026-05-03T08:10:17.991Z</time></trkpt><trkpt lat="37.14640443106874" lon="14.127325848404936"><ele>57.0</ele><time>2026-05-03T08:10:18.991Z</time></trkpt><trkpt lat="37.14648508761464" lon="14.127485405096193"><ele>58.0</ele><time>2026-05-03T08:10:19.991Z</time></trkpt><trkpt lat="37.1465691327547" lon="14.127647191464932"><ele>59.0</ele><time>2026-05-03T08:10:20.991Z</time></trkpt><trkpt lat="37.14665441275798" lon="14.127811339038015"><ele>60.0</ele><time>2026-05-03T08:10:21.991Z</time></trkpt><trkpt lat="37.14674018043216" lon="14.12797553545564"><ele>60.0</ele><time>2026-05-03T08:10:22.991Z</time></trkpt><trkpt lat="37.14682816149625" lon="14.128140702998586"><ele>60.0</ele><time>2026-05-03T08:10:23.991Z</time></trkpt><trkpt lat="37.14691808248362" lon="14.128303573496657"><ele>60.0</ele><time>2026-05-03T08:10:24.991Z</time></trkpt><trkpt lat="37.147015472299756" lon="14.128465714881933"><ele>61.33333333333333</ele><time>2026-05-03T08:10:25.991Z</time></trkpt><trkpt lat="37.14711204112898" lon="14.128628315354"><ele>62.666666666666664</ele><time>2026-05-03T08:10:26.991Z</time></trkpt><trkpt lat="37.14721321334514" lon="14.128780881003859"><ele>64.0</ele><time>2026-05-03T08:10:27.991Z</time></trkpt><trkpt lat="37.147313994775196" lon="14.128933321252589"><ele>65.33333333333333</ele><time>2026-05-03T08:10:28.991Z</time></trkpt><trkpt lat="37.14741321245491" lon="14.129090096042948"><ele>66.66666666666667</ele><time>2026-05-03T08:10:29.991Z</time></trkpt><trkpt lat="37.14750854670685" lon="14.129249548481926"><ele>68.0</ele><time>2026-05-03T08:10:30.991Z</time></trkpt><trkpt lat="37.14759457646016" lon="14.12942047012476"><ele>68.0</ele><time>2026-05-03T08:10:31.991Z</time></trkpt><trkpt lat="37.14767305167251" lon="14.129603152855807"><ele>68.0</ele><time>2026-05-03T08:10:32.991Z</time></trkpt><trkpt lat="37.1477499173928" lon="14.129786794210618"><ele>68.0</ele><time>2026-05-03T08:10:33.991Z</time></trkpt><trkpt lat="37.14782604369028" lon="14.129970609607708"><ele>69.0</ele><time>2026-05-03T08:10:34.991Z</time></trkpt><trkpt lat="37.14790413364089" lon="14.130148559172884"><ele>70.0</ele><time>2026-05-03T08:10:35.991Z</time></trkpt><trkpt lat="37.147981273253" lon="14.130320031716067"><ele>71.0</ele><time>2026-05-03T08:10:36.991Z</time></trkpt><trkpt lat="37.14805858873104" lon="14.130493266610303"><ele>71.0</ele><time>2026-05-03T08:10:37.991Z</time></trkpt><trkpt lat="37.14813217346977" lon="14.130667752920669"><ele>71.0</ele><time>2026-05-03T08:10:38.991Z</time></trkpt><trkpt lat="37.148206080493516" lon="14.130842415994906"><ele>71.0</ele><time>2026-05-03T08:10:39.991Z</time></trkpt><trkpt lat="37.14828108971848" lon="14.131010837341524"><ele>73.66666666666667</ele><time>2026-05-03T08:10:40.991Z</time></trkpt><trkpt lat="37.14835877619151" lon="14.131174667069022"><ele>76.33333333333333</ele><time>2026-05-03T08:10:41.991Z</time></trkpt><trkpt lat="37.14844870445818" lon="14.131333503017986"><ele>79.0</ele><time>2026-05-03T08:10:42.991Z</time></trkpt><trkpt lat="37.148542079142835" lon="14.131487023106777"><ele>78.33333333333333</ele><time>2026-05-03T08:10:43.991Z</time></trkpt><trkpt lat="37.148641277676745" lon="14.13163767937466"><ele>77.66666666666667</ele><time>2026-05-03T08:10:44.991Z</time></trkpt><trkpt lat="37.14874727117265" lon="14.131782602086425"><ele>77.0</ele><time>2026-05-03T08:10:45.991Z</time></trkpt><trkpt lat="37.148858836046855" lon="14.13192408677516"><ele>77.0</ele><time>2026-05-03T08:10:46.991Z</time></trkpt><trkpt lat="37.14896980454846" lon="14.132068152923893"><ele>77.0</ele><time>2026-05-03T08:10:47.991Z</time></trkpt><trkpt lat="37.14908117188414" lon="14.132212986102571"><ele>77.0</ele><time>2026-05-03T08:10:48.991Z</time></trkpt><trkpt lat="37.14919123133423" lon="14.132355962776435"><ele>78.33333333333334</ele><time>2026-05-03T08:10:49.991Z</time></trkpt><trkpt lat="37.149297624658466" lon="14.13249747105488"><ele>79.66666666666667</ele><time>2026-05-03T08:10:50.991Z</time></trkpt><trkpt lat="37.1494045920198" lon="14.132639496330803"><ele>81.0</ele><time>2026-05-03T08:10:51.991Z</time></trkpt><trkpt lat="37.149504521117315" lon="14.132780303709042"><ele>81.0</ele><time>2026-05-03T08:10:52.991Z</time></trkpt><trkpt lat="37.14959476053314" lon="14.132928807499693"><ele>81.0</ele><time>2026-05-03T08:10:53.991Z</time></trkpt><trkpt lat="37.14966766005239" lon="14.133088768543287"><ele>81.0</ele><time>2026-05-03T08:10:54.991Z</time></trkpt><trkpt lat="37.14972647581243" lon="14.133260705639643"><ele>81.0</ele><time>2026-05-03T08:10:55.991Z</time></trkpt><trkpt lat="37.14977337166077" lon="14.133439431647773"><ele>81.0</ele><time>2026-05-03T08:10:56.991Z</time></trkpt><trkpt lat="37.14981416109541" lon="14.133608028904824"><ele>81.0</ele><time>2026-05-03T08:10:57.991Z</time></trkpt><trkpt lat="37.149863414635995" lon="14.133763906891081"><ele>81.0</ele><time>2026-05-03T08:10:58.991Z</time></trkpt><trkpt lat="37.14992255205079" lon="14.133915949598574"><ele>81.0</ele><time>2026-05-03T08:10:59.991Z</time></trkpt><trkpt lat="37.149989745905316" lon="14.134063725978416"><ele>84.0</ele><time>2026-05-03T08:11:00.991Z</time></trkpt><trkpt lat="37.1500656053454" lon="14.1342088497624"><ele>87.0</ele><time>2026-05-03T08:11:01.991Z</time></trkpt><trkpt lat="37.150150473852584" lon="14.134352614316"><ele>90.0</ele><time>2026-05-03T08:11:02.991Z</time></trkpt><trkpt lat="37.15023443480738" lon="14.13450118073644"><ele>93.0</ele><time>2026-05-03T08:11:03.991Z</time></trkpt><trkpt lat="37.15032404126156" lon="14.134649494047355"><ele>93.0</ele><time>2026-05-03T08:11:04.991Z</time></trkpt><trkpt lat="37.15042422726282" lon="14.134797106571591"><ele>93.0</ele><time>2026-05-03T08:11:05.991Z</time></trkpt><trkpt lat="37.150535403957875" lon="14.134936061909311"><ele>93.0</ele><time>2026-05-03T08:11:06.991Z</time></trkpt><trkpt lat="37.15064949414744" lon="14.135070148103317"><ele>97.33333333333334</ele><time>2026-05-03T08:11:07.992Z</time></trkpt><trkpt lat="37.150765332579105" lon="14.135201016687642"><ele>101.66666666666667</ele><time>2026-05-03T08:11:08.992Z</time></trkpt><trkpt lat="37.1508797515824" lon="14.135327442603577"><ele>106.0</ele><time>2026-05-03T08:11:09.992Z</time></trkpt><trkpt lat="37.150991389970564" lon="14.135450447302627"><ele>106.0</ele><time>2026-05-03T08:11:10.992Z</time></trkpt><trkpt lat="37.15109753352096" lon="14.135577099587671"><ele>106.0</ele><time>2026-05-03T08:11:11.992Z</time></trkpt><trkpt lat="37.151200628916534" lon="14.13570713837399"><ele>106.0</ele><time>2026-05-03T08:11:12.992Z</time></trkpt><trkpt lat="37.15129476207027" lon="14.135844676069762"><ele>106.0</ele><time>2026-05-03T08:11:13.992Z</time></trkpt><trkpt lat="37.15138603760993" lon="14.135994322245782"><ele>106.0</ele><time>2026-05-03T08:11:14.991Z</time></trkpt><trkpt lat="37.1514745495614" lon="14.136149494044309"><ele>106.0</ele><time>2026-05-03T08:11:15.991Z</time></trkpt><trkpt lat="37.151562733246514" lon="14.136305726245528"><ele>106.0</ele><time>2026-05-03T08:11:16.992Z</time></trkpt><trkpt lat="37.15165267633548" lon="14.13646715285842"><ele>104.66666666666667</ele><time>2026-05-03T08:11:17.992Z</time></trkpt><trkpt lat="37.15174624734608" lon="14.136625762639047"><ele>103.33333333333334</ele><time>2026-05-03T08:11:18.992Z</time></trkpt><trkpt lat="37.15183368909153" lon="14.136784830936827"><ele>102.0</ele><time>2026-05-03T08:11:19.992Z</time></trkpt><trkpt lat="37.151922560139354" lon="14.13694736110944"><ele>102.0</ele><time>2026-05-03T08:11:20.992Z</time></trkpt><trkpt lat="37.152010173996196" lon="14.137105565624832"><ele>102.0</ele><time>2026-05-03T08:11:21.992Z</time></trkpt><trkpt lat="37.152089829373296" lon="14.1372637468648"><ele>102.0</ele><time>2026-05-03T08:11:22.992Z</time></trkpt><trkpt lat="37.152161400485525" lon="14.137419575474938"><ele>102.0</ele><time>2026-05-03T08:11:23.992Z</time></trkpt><trkpt lat="37.15222704677338" lon="14.137580522827585"><ele>102.0</ele><time>2026-05-03T08:11:24.992Z</time></trkpt><trkpt lat="37.1522919097748" lon="14.13773889341803"><ele>102.0</ele><time>2026-05-03T08:11:25.992Z</time></trkpt><trkpt lat="37.15234819869451" lon="14.137899964184147"><ele>102.0</ele><time>2026-05-03T08:11:26.992Z</time></trkpt><trkpt lat="37.152397728494385" lon="14.138065179739133"><ele>102.0</ele><time>2026-05-03T08:11:27.992Z</time></trkpt><trkpt lat="37.15244096046334" lon="14.138232487909143"><ele>98.75</ele><time>2026-05-03T08:11:28.992Z</time></trkpt><trkpt lat="37.152479221468965" lon="14.138402538948945"><ele>95.5</ele><time>2026-05-03T08:11:29.992Z</time></trkpt><trkpt lat="37.152515175280044" lon="14.138578852503436"><ele>92.25</ele><time>2026-05-03T08:11:30.992Z</time></trkpt><trkpt lat="37.15254844720143" lon="14.138762217224036"><ele>89.0</ele><time>2026-05-03T08:11:31.992Z</time></trkpt><trkpt lat="37.152572858383245" lon="14.138950200170651"><ele>87.75</ele><time>2026-05-03T08:11:32.992Z</time></trkpt><trkpt lat="37.15258852250604" lon="14.139135283817156"><ele>86.5</ele><time>2026-05-03T08:11:33.992Z</time></trkpt><trkpt lat="37.152597681161474" lon="14.139320507862104"><ele>85.25</ele><time>2026-05-03T08:11:34.992Z</time></trkpt><trkpt lat="37.15260592414386" lon="14.139508085579887"><ele>84.0</ele><time>2026-05-03T08:11:35.992Z</time></trkpt><trkpt lat="37.15260942107089" lon="14.139697966097838"><ele>83.33333333333333</ele><time>2026-05-03T08:11:36.992Z</time></trkpt><trkpt lat="37.15261332636489" lon="14.139891765917046"><ele>82.66666666666666</ele><time>2026-05-03T08:11:37.992Z</time></trkpt><trkpt lat="37.15261730477651" lon="14.140086625068326"><ele>82.0</ele><time>2026-05-03T08:11:38.992Z</time></trkpt><trkpt lat="37.152622622280084" lon="14.140276984321941"><ele>82.0</ele><time>2026-05-03T08:11:39.992Z</time></trkpt><trkpt lat="37.15262868547241" lon="14.140466696665554"><ele>82.0</ele><time>2026-05-03T08:11:40.992Z</time></trkpt><trkpt lat="37.15263437158466" lon="14.140658946294034"><ele>82.0</ele><time>2026-05-03T08:11:41.992Z</time></trkpt><trkpt lat="37.15263894638013" lon="14.140855963589207"><ele>81.66666666666666</ele><time>2026-05-03T08:11:42.992Z</time></trkpt><trkpt lat="37.15264019392809" lon="14.141052085550466"><ele>81.33333333333333</ele><time>2026-05-03T08:11:43.992Z</time></trkpt><trkpt lat="37.15263764927132" lon="14.141247606928415"><ele>81.0</ele><time>2026-05-03T08:11:44.992Z</time></trkpt><trkpt lat="37.15263361204006" lon="14.14144280016639"><ele>80.0</ele><time>2026-05-03T08:11:45.992Z</time></trkpt><trkpt lat="37.15262659083709" lon="14.141635932964718"><ele>79.0</ele><time>2026-05-03T08:11:46.992Z</time></trkpt><trkpt lat="37.15261879798486" lon="14.14182901796794"><ele>78.0</ele><time>2026-05-03T08:11:47.992Z</time></trkpt><trkpt lat="37.15261036281349" lon="14.14202085414311"><ele>78.0</ele><time>2026-05-03T08:11:48.992Z</time></trkpt><trkpt lat="37.15260434506091" lon="14.14221301630477"><ele>78.0</ele><time>2026-05-03T08:11:49.992Z</time></trkpt><trkpt lat="37.15260087585571" lon="14.142406150071809"><ele>78.0</ele><time>2026-05-03T08:11:50.992Z</time></trkpt><trkpt lat="37.15259660983571" lon="14.142601528103114"><ele>77.0</ele><time>2026-05-03T08:11:51.992Z</time></trkpt><trkpt lat="37.15259493568459" lon="14.142794831514392"><ele>76.0</ele><time>2026-05-03T08:11:52.992Z</time></trkpt><trkpt lat="37.152593997413504" lon="14.14298845282378"><ele>75.0</ele><time>2026-05-03T08:11:53.992Z</time></trkpt><trkpt lat="37.1525954509816" lon="14.143178081804335"><ele>75.0</ele><time>2026-05-03T08:11:54.992Z</time></trkpt><trkpt lat="37.152602764322154" lon="14.143367751048352"><ele>75.0</ele><time>2026-05-03T08:11:55.992Z</time></trkpt><trkpt lat="37.15261735328836" lon="14.143549808460799"><ele>75.0</ele><time>2026-05-03T08:11:56.992Z</time></trkpt><trkpt lat="37.15263931064057" lon="14.14373272064934"><ele>75.0</ele><time>2026-05-03T08:11:57.992Z</time></trkpt><trkpt lat="37.15266588833832" lon="14.14391634431524"><ele>74.25</ele><time>2026-05-03T08:11:58.992Z</time></trkpt><trkpt lat="37.152694005113595" lon="14.144102501638923"><ele>73.5</ele><time>2026-05-03T08:11:59.992Z</time></trkpt><trkpt lat="37.152721472634596" lon="14.144284806964333"><ele>72.75</ele><time>2026-05-03T08:12:00.992Z</time></trkpt><trkpt lat="37.1527488891866" lon="14.144466237816205"><ele>72.0</ele><time>2026-05-03T08:12:01.992Z</time></trkpt><trkpt lat="37.152778370643986" lon="14.144646597083847"><ele>72.0</ele><time>2026-05-03T08:12:02.992Z</time></trkpt><trkpt lat="37.15280513839019" lon="14.144826849966055"><ele>72.0</ele><time>2026-05-03T08:12:03.992Z</time></trkpt><trkpt lat="37.15282993413493" lon="14.145006036184434"><ele>72.0</ele><time>2026-05-03T08:12:04.991Z</time></trkpt><trkpt lat="37.15285469541373" lon="14.145184384230378"><ele>72.0</ele><time>2026-05-03T08:12:05.991Z</time></trkpt><trkpt lat="37.15288010490073" lon="14.145361616921567"><ele>71.75</ele><time>2026-05-03T08:12:06.991Z</time></trkpt><trkpt lat="37.15290718150238" lon="14.145541041196063"><ele>71.5</ele><time>2026-05-03T08:12:07.991Z</time></trkpt><trkpt lat="37.15293154416048" lon="14.145721296884206"><ele>71.25</ele><time>2026-05-03T08:12:08.991Z</time></trkpt><trkpt lat="37.15295768870985" lon="14.14589931077215"><ele>71.0</ele><time>2026-05-03T08:12:09.991Z</time></trkpt><trkpt lat="37.15298212520032" lon="14.146078857454063"><ele>70.5</ele><time>2026-05-03T08:12:10.991Z</time></trkpt><trkpt lat="37.1530098326607" lon="14.14625918641329"><ele>70.0</ele><time>2026-05-03T08:12:11.991Z</time></trkpt><trkpt lat="37.15304004432596" lon="14.146442729238617"><ele>69.5</ele><time>2026-05-03T08:12:12.991Z</time></trkpt><trkpt lat="37.15307078955737" lon="14.146627191648653"><ele>69.0</ele><time>2026-05-03T08:12:13.991Z</time></trkpt><trkpt lat="37.15309996295881" lon="14.146816081630499"><ele>68.66666666666667</ele><time>2026-05-03T08:12:14.991Z</time></trkpt><trkpt lat="37.15312915972721" lon="14.147007519071453"><ele>68.33333333333334</ele><time>2026-05-03T08:12:15.991Z</time></trkpt><trkpt lat="37.15316002678518" lon="14.147199423588429"><ele>68.0</ele><time>2026-05-03T08:12:16.991Z</time></trkpt><trkpt lat="37.1531913989296" lon="14.147388871518148"><ele>69.66666666666667</ele><time>2026-05-03T08:12:17.991Z</time></trkpt><trkpt lat="37.15322760691556" lon="14.147577623551902"><ele>71.33333333333333</ele><time>2026-05-03T08:12:18.991Z</time></trkpt><trkpt lat="37.15326759937181" lon="14.147767428865263"><ele>73.0</ele><time>2026-05-03T08:12:19.991Z</time></trkpt><trkpt lat="37.15331436937799" lon="14.147949758240328"><ele>73.0</ele><time>2026-05-03T08:12:20.991Z</time></trkpt><trkpt lat="37.15336434901389" lon="14.148126370478787"><ele>73.0</ele><time>2026-05-03T08:12:21.991Z</time></trkpt><trkpt lat="37.15341741438758" lon="14.148298409424319"><ele>73.0</ele><time>2026-05-03T08:12:22.991Z</time></trkpt><trkpt lat="37.15347552217471" lon="14.148465868347348"><ele>73.0</ele><time>2026-05-03T08:12:23.991Z</time></trkpt><trkpt lat="37.153533020049245" lon="14.14862630913319"><ele>72.0</ele><time>2026-05-03T08:12:24.991Z</time></trkpt><trkpt lat="37.15358483920596" lon="14.148774858132898"><ele>71.0</ele><time>2026-05-03T08:12:25.991Z</time></trkpt><trkpt lat="37.15362828220832" lon="14.148915744908846"><ele>70.0</ele><time>2026-05-03T08:12:26.991Z</time></trkpt><trkpt lat="37.15367065888007" lon="14.149044599415516"><ele>69.0</ele><time>2026-05-03T08:12:27.991Z</time></trkpt><trkpt lat="37.15371339801481" lon="14.14915960366824"><ele>68.85714285714286</ele><time>2026-05-03T08:12:28.991Z</time></trkpt><trkpt lat="37.15375072680764" lon="14.149263024184314"><ele>68.71428571428572</ele><time>2026-05-03T08:12:29.991Z</time></trkpt><trkpt lat="37.153779482690304" lon="14.149338814091543"><ele>68.57142857142857</ele><time>2026-05-03T08:12:30.991Z</time></trkpt><trkpt lat="37.15383527160804" lon="14.149425260264428"><ele>68.42857142857143</ele><time>2026-05-03T08:12:32.991Z</time></trkpt><trkpt lat="37.15385941025768" lon="14.149501111845984"><ele>68.28571428571428</ele><time>2026-05-03T08:12:35.991Z</time></trkpt><trkpt lat="37.15388591890313" lon="14.14957517295518"><ele>68.14285714285714</ele><time>2026-05-03T08:12:39.991Z</time></trkpt><trkpt lat="37.153915943176465" lon="14.149659056137882"><ele>68.0</ele><time>2026-05-03T08:12:43.991Z</time></trkpt><trkpt lat="37.1539443827605" lon="14.1497385119353"><ele>73.0</ele><time>2026-05-03T08:12:47.991Z</time></trkpt><trkpt lat="37.154677604696516" lon="14.149950482565522"><ele>73.0</ele><time>2026-05-03T08:13:23.992Z</time></trkpt><trkpt lat="37.15475523963791" lon="14.14995844699615"><ele>73.0</ele><time>2026-05-03T08:13:25.992Z</time></trkpt><trkpt lat="37.154801150614745" lon="14.15015288994672"><ele>73.0</ele><time>2026-05-03T08:13:26.992Z</time></trkpt><trkpt lat="37.155019965639475" lon="14.150150756226186"><ele>75.5</ele><time>2026-05-03T08:13:31.992Z</time></trkpt><trkpt lat="37.15519641224617" lon="14.150158039756157"><ele>78.0</ele><time>2026-05-03T08:13:35.992Z</time></trkpt><trkpt lat="37.15529360892088" lon="14.150163633338465"><ele>80.5</ele><time>2026-05-03T08:13:37.992Z</time></trkpt><trkpt lat="37.15538580652059" lon="14.150170173885774"><ele>83.0</ele><time>2026-05-03T08:13:39.992Z</time></trkpt><trkpt lat="37.15548364583313" lon="14.15017735731119"><ele>83.0</ele><time>2026-05-03T08:13:41.992Z</time></trkpt><trkpt lat="37.15556345128878" lon="14.150183813770743"><ele>83.0</ele><time>2026-05-03T08:13:43.992Z</time></trkpt><trkpt lat="37.15563061995784" lon="14.150189247891035"><ele>83.0</ele><time>2026-05-03T08:13:45.992Z</time></trkpt><trkpt lat="37.15572627471299" lon="14.15020160121661"><ele>83.0</ele><time>2026-05-03T08:13:48.992Z</time></trkpt><trkpt lat="37.155798713238674" lon="14.150214073992734"><ele>83.0</ele><time>2026-05-03T08:13:50.992Z</time></trkpt><trkpt lat="37.15587210266025" lon="14.150224414701647"><ele>83.0</ele><time>2026-05-03T08:13:52.991Z</time></trkpt><trkpt lat="37.15595616604696" lon="14.150233054543811"><ele>86.0</ele><time>2026-05-03T08:13:55.991Z</time></trkpt><trkpt lat="37.155997383399075" lon="14.149993495511733"><ele>89.0</ele><time>2026-05-03T08:13:56.991Z</time></trkpt><trkpt lat="37.15606372206962" lon="14.14997269934309"><ele>92.0</ele><time>2026-05-03T08:13:58.991Z</time></trkpt><trkpt lat="37.156131033096244" lon="14.149907832364855"><ele>95.0</ele><time>2026-05-03T08:14:00.991Z</time></trkpt><trkpt lat="37.156219255558646" lon="14.14986994056128"><ele>98.0</ele><time>2026-05-03T08:14:02.991Z</time></trkpt><trkpt lat="37.156304024091206" lon="14.149867870989045"><ele>101.4</ele><time>2026-05-03T08:14:04.991Z</time></trkpt><trkpt lat="37.15638376496676" lon="14.149841349067158"><ele>104.80000000000001</ele><time>2026-05-03T08:14:06.991Z</time></trkpt><trkpt lat="37.1564674339773" lon="14.14983644612738"><ele>108.2</ele><time>2026-05-03T08:14:08.991Z</time></trkpt><trkpt lat="37.15656766547082" lon="14.149833629866873"><ele>111.6</ele><time>2026-05-03T08:14:10.991Z</time></trkpt><trkpt lat="37.15667354785896" lon="14.14983213827221"><ele>115.0</ele><time>2026-05-03T08:14:12.991Z</time></trkpt><trkpt lat="37.15678418233378" lon="14.149832570758626"><ele>115.00000000000001</ele><time>2026-05-03T08:14:14.991Z</time></trkpt><trkpt lat="37.15686895146669" lon="14.149835074514284"><ele>115.0</ele><time>2026-05-03T08:14:16.991Z</time></trkpt><trkpt lat="37.15693999457828" lon="14.149828624183712"><ele>115.0</ele><time>2026-05-03T08:14:18.991Z</time></trkpt><trkpt lat="37.1570072974724" lon="14.149759835750908"><ele>115.0</ele><time>2026-05-03T08:14:23.991Z</time></trkpt><trkpt lat="37.15702210953132" lon="14.149678164184236"><ele>115.00000000000001</ele><time>2026-05-03T08:14:26.991Z</time></trkpt><trkpt lat="37.15702251462988" lon="14.149544405617235"><ele>115.0</ele><time>2026-05-03T08:14:29.991Z</time></trkpt><trkpt lat="37.15698091202754" lon="14.149449090376482"><ele>115.00000000000001</ele><time>2026-05-03T08:14:31.991Z</time></trkpt><trkpt lat="37.156959710468485" lon="14.14931852232661"><ele>115.0</ele><time>2026-05-03T08:14:33.991Z</time></trkpt><trkpt lat="37.15698068521192" lon="14.149182209290714"><ele>115.0</ele><time>2026-05-03T08:14:35.991Z</time></trkpt><trkpt lat="37.15698734515168" lon="14.149092642308167"><ele>115.0</ele><time>2026-05-03T08:14:36.991Z</time></trkpt><trkpt lat="37.15699813396007" lon="14.149001272317117"><ele>115.00000000000001</ele><time>2026-05-03T08:14:37.991Z</time></trkpt><trkpt lat="37.15701033484529" lon="14.148899511358646"><ele>115.0</ele><time>2026-05-03T08:14:38.991Z</time></trkpt><trkpt lat="37.15701997297288" lon="14.148804024448875"><ele>117.8</ele><time>2026-05-03T08:14:39.991Z</time></trkpt><trkpt lat="37.15703170221815" lon="14.148676935622083"><ele>120.6</ele><time>2026-05-03T08:14:41.991Z</time></trkpt><trkpt lat="37.15699888100103" lon="14.148585065639216"><ele>123.4</ele><time>2026-05-03T08:14:43.991Z</time></trkpt><trkpt lat="37.15690857123447" lon="14.148543416979024"><ele>126.2</ele><time>2026-05-03T08:14:45.991Z</time></trkpt><trkpt lat="37.15678616415523" lon="14.14856970370702"><ele>129.0</ele><time>2026-05-03T08:14:47.991Z</time></trkpt><trkpt lat="37.15667655864704" lon="14.148610317814319"><ele>129.0</ele><time>2026-05-03T08:14:49.991Z</time></trkpt><trkpt lat="37.15660549070948" lon="14.148548367416323"><ele>129.0</ele><time>2026-05-03T08:14:52.991Z</time></trkpt><trkpt lat="37.15660900549319" lon="14.148462149027603"><ele>129.0</ele><time>2026-05-03T08:14:54.991Z</time></trkpt><trkpt lat="37.156670440499475" lon="14.148377968175637"><ele>129.0</ele><time>2026-05-03T08:14:56.991Z</time></trkpt><trkpt lat="37.156772283556634" lon="14.148291217334146"><ele>129.0</ele><time>2026-05-03T08:14:58.991Z</time></trkpt><trkpt lat="37.15685774971028" lon="14.14819232635327"><ele>132.2</ele><time>2026-05-03T08:15:00.991Z</time></trkpt><trkpt lat="37.15689549072623" lon="14.148070543854823"><ele>135.4</ele><time>2026-05-03T08:15:02.991Z</time></trkpt><trkpt lat="37.156902718154484" lon="14.147928160060799"><ele>138.6</ele><time>2026-05-03T08:15:04.991Z</time></trkpt><trkpt lat="37.15692810654796" lon="14.147798765194729"><ele>141.8</ele><time>2026-05-03T08:15:06.991Z</time></trkpt><trkpt lat="37.156959654762396" lon="14.14765714097806"><ele>145.0</ele><time>2026-05-03T08:15:08.991Z</time></trkpt><trkpt lat="37.15697834680709" lon="14.147513417514064"><ele>145.0</ele><time>2026-05-03T08:15:10.99Z</time></trkpt><trkpt lat="37.15698213037527" lon="14.147425669080363"><ele>145.0</ele><time>2026-05-03T08:15:11.99Z</time></trkpt><trkpt lat="37.156998009618796" lon="14.147343054937306"><ele>145.0</ele><time>2026-05-03T08:15:12.99Z</time></trkpt><trkpt lat="37.15702032733172" lon="14.14724533513615"><ele>145.0</ele><time>2026-05-03T08:15:13.99Z</time></trkpt><trkpt lat="37.15704030704283" lon="14.147147848114317"><ele>145.0</ele><time>2026-05-03T08:15:14.99Z</time></trkpt><trkpt lat="37.15706230261352" lon="14.147058468142864"><ele>145.0</ele><time>2026-05-03T08:15:15.99Z</time></trkpt><trkpt lat="37.157080309385265" lon="14.146957128569818"><ele>146.33333333333334</ele><time>2026-05-03T08:15:16.99Z</time></trkpt><trkpt lat="37.15708259113365" lon="14.14685251513063"><ele>147.66666666666669</ele><time>2026-05-03T08:15:17.99Z</time></trkpt><trkpt lat="37.15708475557371" lon="14.146744643583512"><ele>149.0</ele><time>2026-05-03T08:15:18.99Z</time></trkpt><trkpt lat="37.15708825068956" lon="14.146637284441638"><ele>150.33333333333334</ele><time>2026-05-03T08:15:19.991Z</time></trkpt><trkpt lat="37.1570799289018" lon="14.146537929614507"><ele>151.66666666666666</ele><time>2026-05-03T08:15:20.991Z</time></trkpt><trkpt lat="37.15707972432179" lon="14.14643494548631"><ele>153.0</ele><time>2026-05-03T08:15:21.991Z</time></trkpt><trkpt lat="37.15708424628774" lon="14.146338444811922"><ele>154.66666666666666</ele><time>2026-05-03T08:15:22.991Z</time></trkpt><trkpt lat="37.15709722843082" lon="14.146241757229124"><ele>156.33333333333334</ele><time>2026-05-03T08:15:23.991Z</time></trkpt><trkpt lat="37.15711634041084" lon="14.146143134140445"><ele>158.0</ele><time>2026-05-03T08:15:24.991Z</time></trkpt><trkpt lat="37.15713128390354" lon="14.146035276567517"><ele>159.66666666666669</ele><time>2026-05-03T08:15:25.991Z</time></trkpt><trkpt lat="37.15714132960588" lon="14.145933573328875"><ele>161.33333333333334</ele><time>2026-05-03T08:15:26.991Z</time></trkpt><trkpt lat="37.15714956499154" lon="14.145831975167372"><ele>163.0</ele><time>2026-05-03T08:15:27.991Z</time></trkpt><trkpt lat="37.157160459844086" lon="14.145727533732606"><ele>164.66666666666669</ele><time>2026-05-03T08:15:28.991Z</time></trkpt><trkpt lat="37.15717422392634" lon="14.14562762301798"><ele>166.33333333333334</ele><time>2026-05-03T08:15:29.99Z</time></trkpt><trkpt lat="37.157188421158715" lon="14.145544087992537"><ele>168.0</ele><time>2026-05-03T08:15:30.99Z</time></trkpt><trkpt lat="37.15720084211792" lon="14.145447649760552"><ele>169.66666666666666</ele><time>2026-05-03T08:15:31.991Z</time></trkpt><trkpt lat="37.15719479046409" lon="14.145343499473444"><ele>171.33333333333331</ele><time>2026-05-03T08:15:32.991Z</time></trkpt><trkpt lat="37.157177727938524" lon="14.145245833593894"><ele>173.0</ele><time>2026-05-03T08:15:33.991Z</time></trkpt><trkpt lat="37.157164900203085" lon="14.145165250254143"><ele>173.0</ele><time>2026-05-03T08:15:34.991Z</time></trkpt><trkpt lat="37.157163144389585" lon="14.145062157995488"><ele>173.0</ele><time>2026-05-03T08:15:35.991Z</time></trkpt><trkpt lat="37.157169266357016" lon="14.144962284985127"><ele>173.0</ele><time>2026-05-03T08:15:36.991Z</time></trkpt><trkpt lat="37.1571857535731" lon="14.144864789037918"><ele>173.0</ele><time>2026-05-03T08:15:37.991Z</time></trkpt><trkpt lat="37.15720490778192" lon="14.144777212183191"><ele>173.0</ele><time>2026-05-03T08:15:38.991Z</time></trkpt><trkpt lat="37.15721949732778" lon="14.144678890087386"><ele>173.0</ele><time>2026-05-03T08:15:39.991Z</time></trkpt><trkpt lat="37.15723673700568" lon="14.144597537474914"><ele>174.33333333333331</ele><time>2026-05-03T08:15:40.991Z</time></trkpt><trkpt lat="37.15724814678633" lon="14.144499507610552"><ele>175.66666666666666</ele><time>2026-05-03T08:15:41.991Z</time></trkpt><trkpt lat="37.15724682199998" lon="14.144407316377073"><ele>177.0</ele><time>2026-05-03T08:15:42.991Z</time></trkpt><trkpt lat="37.157249419248444" lon="14.144301085126955"><ele>178.33333333333334</ele><time>2026-05-03T08:15:43.991Z</time></trkpt><trkpt lat="37.157250979429946" lon="14.144202019002176"><ele>179.66666666666669</ele><time>2026-05-03T08:15:44.991Z</time></trkpt><trkpt lat="37.15724847749738" lon="14.144097591998895"><ele>181.0</ele><time>2026-05-03T08:15:45.991Z</time></trkpt><trkpt lat="37.15725584299303" lon="14.143995501663515"><ele>182.33333333333334</ele><time>2026-05-03T08:15:46.991Z</time></trkpt><trkpt lat="37.15725966568904" lon="14.143903994411772"><ele>183.66666666666669</ele><time>2026-05-03T08:15:47.991Z</time></trkpt><trkpt lat="37.15726060665042" lon="14.143794444838168"><ele>185.0</ele><time>2026-05-03T08:15:48.991Z</time></trkpt><trkpt lat="37.15725751128456" lon="14.143692286202269"><ele>186.33333333333334</ele><time>2026-05-03T08:15:49.991Z</time></trkpt><trkpt lat="37.15725701098568" lon="14.143587360503355"><ele>187.66666666666666</ele><time>2026-05-03T08:15:50.991Z</time></trkpt><trkpt lat="37.157255164966735" lon="14.143487518838969"><ele>189.0</ele><time>2026-05-03T08:15:51.991Z</time></trkpt><trkpt lat="37.15725329950846" lon="14.14339784840984"><ele>189.0</ele><time>2026-05-03T08:15:52.991Z</time></trkpt><trkpt lat="37.157256442880836" lon="14.143311666496043"><ele>189.0</ele><time>2026-05-03T08:15:53.991Z</time></trkpt><trkpt lat="37.15724426427554" lon="14.143226463449746"><ele>189.0</ele><time>2026-05-03T08:15:54.991Z</time></trkpt><trkpt lat="37.157209229839054" lon="14.143133678118303"><ele>189.0</ele><time>2026-05-03T08:15:55.991Z</time></trkpt><trkpt lat="37.15716854593671" lon="14.143060196498439"><ele>189.0</ele><time>2026-05-03T08:15:56.991Z</time></trkpt><trkpt lat="37.15712179567222" lon="14.142974253367893"><ele>189.0</ele><time>2026-05-03T08:15:57.991Z</time></trkpt><trkpt lat="37.15707942641375" lon="14.142882364700878"><ele>188.83333333333334</ele><time>2026-05-03T08:15:58.991Z</time></trkpt><trkpt lat="37.157042241691364" lon="14.142792512957072"><ele>188.66666666666666</ele><time>2026-05-03T08:15:59.991Z</time></trkpt><trkpt lat="37.15700771796841" lon="14.142697819821276"><ele>188.5</ele><time>2026-05-03T08:16:00.991Z</time></trkpt><trkpt lat="37.15697663472513" lon="14.142601729178372"><ele>188.33333333333331</ele><time>2026-05-03T08:16:01.991Z</time></trkpt><trkpt lat="37.15695679773823" lon="14.142504120297925"><ele>188.16666666666666</ele><time>2026-05-03T08:16:02.991Z</time></trkpt><trkpt lat="37.15694244613542" lon="14.142406133443858"><ele>188.0</ele><time>2026-05-03T08:16:03.991Z</time></trkpt><trkpt lat="37.15693651649901" lon="14.14232063651849"><ele>188.0</ele><time>2026-05-03T08:16:04.991Z</time></trkpt><trkpt lat="37.156942447633725" lon="14.142229995943397"><ele>188.0</ele><time>2026-05-03T08:16:05.991Z</time></trkpt><trkpt lat="37.1569526660649" lon="14.14214085632494"><ele>188.0</ele><time>2026-05-03T08:16:06.991Z</time></trkpt><trkpt lat="37.15696532786635" lon="14.142049713012819"><ele>188.0</ele><time>2026-05-03T08:16:07.991Z</time></trkpt><trkpt lat="37.15698353011518" lon="14.141968879912408"><ele>188.0</ele><time>2026-05-03T08:16:08.991Z</time></trkpt><trkpt lat="37.15701399092805" lon="14.141883500540505"><ele>188.0</ele><time>2026-05-03T08:16:09.991Z</time></trkpt><trkpt lat="37.15704044705809" lon="14.141793785807142"><ele>188.0</ele><time>2026-05-03T08:16:10.991Z</time></trkpt><trkpt lat="37.15707263707887" lon="14.141715564424892"><ele>188.0</ele><time>2026-05-03T08:16:11.991Z</time></trkpt><trkpt lat="37.15710908058098" lon="14.141632868431936"><ele>188.0</ele><time>2026-05-03T08:16:12.991Z</time></trkpt><trkpt lat="37.15713759501685" lon="14.14155073178376"><ele>188.0</ele><time>2026-05-03T08:16:13.99Z</time></trkpt><trkpt lat="37.157158014109896" lon="14.141472355055528"><ele>188.0</ele><time>2026-05-03T08:16:14.99Z</time></trkpt><trkpt lat="37.15717487097573" lon="14.14139002624512"><ele>188.0</ele><time>2026-05-03T08:16:15.99Z</time></trkpt><trkpt lat="37.15724084584241" lon="14.141283849470247"><ele>188.0</ele><time>2026-05-03T08:16:17.99Z</time></trkpt><trkpt lat="37.157301193393074" lon="14.141238993836712"><ele>188.16666666666666</ele><time>2026-05-03T08:16:18.99Z</time></trkpt><trkpt lat="37.157380698479734" lon="14.141212429746142"><ele>188.33333333333331</ele><time>2026-05-03T08:16:19.99Z</time></trkpt><trkpt lat="37.15745787044653" lon="14.141198100525012"><ele>188.5</ele><time>2026-05-03T08:16:20.99Z</time></trkpt><trkpt lat="37.15753427075596" lon="14.141175515386358"><ele>188.66666666666666</ele><time>2026-05-03T08:16:21.99Z</time></trkpt><trkpt lat="37.157608794229674" lon="14.141151495874844"><ele>188.83333333333334</ele><time>2026-05-03T08:16:22.99Z</time></trkpt><trkpt lat="37.157678810349886" lon="14.141128177513595"><ele>189.0</ele><time>2026-05-03T08:16:23.99Z</time></trkpt><trkpt lat="37.15774346084056" lon="14.141107908699489"><ele>189.0</ele><time>2026-05-03T08:16:24.99Z</time></trkpt><trkpt lat="37.15780890525446" lon="14.141084665042696"><ele>189.0</ele><time>2026-05-03T08:16:25.99Z</time></trkpt><trkpt lat="37.15787696927555" lon="14.141068406667909"><ele>189.0</ele><time>2026-05-03T08:16:26.99Z</time></trkpt><trkpt lat="37.157951746055794" lon="14.14105999138738"><ele>189.0</ele><time>2026-05-03T08:16:27.99Z</time></trkpt><trkpt lat="37.1580210586337" lon="14.141051988056487"><ele>189.0</ele><time>2026-05-03T08:16:28.99Z</time></trkpt><trkpt lat="37.15809296723608" lon="14.141040359610749"><ele>189.0</ele><time>2026-05-03T08:16:29.99Z</time></trkpt><trkpt lat="37.15815847528535" lon="14.141025673973582"><ele>189.0</ele><time>2026-05-03T08:16:30.99Z</time></trkpt><trkpt lat="37.15822322769714" lon="14.141017118820692"><ele>191.2</ele><time>2026-05-03T08:16:31.99Z</time></trkpt><trkpt lat="37.15835988921486" lon="14.140996241408759"><ele>193.39999999999998</ele><time>2026-05-03T08:16:33.99Z</time></trkpt><trkpt lat="37.15843812102327" lon="14.140986532168897"><ele>195.6</ele><time>2026-05-03T08:16:34.99Z</time></trkpt><trkpt lat="37.158535063399206" lon="14.14096469959928"><ele>197.8</ele><time>2026-05-03T08:16:36.99Z</time></trkpt><trkpt lat="37.1585975377016" lon="14.140898487251553"><ele>200.0</ele><time>2026-05-03T08:16:38.99Z</time></trkpt><trkpt lat="37.15859343007979" lon="14.14075747058434"><ele>202.16666666666669</ele><time>2026-05-03T08:16:40.99Z</time></trkpt><trkpt lat="37.158538181902536" lon="14.140615712016377"><ele>204.33333333333334</ele><time>2026-05-03T08:16:42.99Z</time></trkpt><trkpt lat="37.15849308958579" lon="14.140545253827998"><ele>206.5</ele><time>2026-05-03T08:16:43.99Z</time></trkpt><trkpt lat="37.158446964804334" lon="14.140483455163738"><ele>208.66666666666669</ele><time>2026-05-03T08:16:44.99Z</time></trkpt><trkpt lat="37.15839193294521" lon="14.140406040210822"><ele>210.83333333333334</ele><time>2026-05-03T08:16:45.99Z</time></trkpt><trkpt lat="37.1583401608636" lon="14.140331661262927"><ele>213.0</ele><time>2026-05-03T08:16:46.99Z</time></trkpt><trkpt lat="37.15829346878151" lon="14.14024863920295"><ele>213.0</ele><time>2026-05-03T08:16:47.99Z</time></trkpt><trkpt lat="37.158232777020565" lon="14.140164439803174"><ele>213.0</ele><time>2026-05-03T08:16:48.99Z</time></trkpt><trkpt lat="37.158184731169854" lon="14.140096816876076"><ele>213.0</ele><time>2026-05-03T08:16:49.99Z</time></trkpt><trkpt lat="37.15809692468886" lon="14.139995365825584"><ele>213.0</ele><time>2026-05-03T08:16:51.99Z</time></trkpt><trkpt lat="37.158070483956934" lon="14.13989070893892"><ele>213.0</ele><time>2026-05-03T08:16:53.99Z</time></trkpt><trkpt lat="37.158085988584396" lon="14.139798893709667"><ele>213.0</ele><time>2026-05-03T08:16:55.99Z</time></trkpt><trkpt lat="37.158138683448875" lon="14.139743176089464"><ele>214.2</ele><time>2026-05-03T08:16:57.99Z</time></trkpt><trkpt lat="37.158231651239255" lon="14.139722086796903"><ele>215.4</ele><time>2026-05-03T08:16:59.99Z</time></trkpt><trkpt lat="37.158355710174455" lon="14.139731445754927"><ele>216.59999999999997</ele><time>2026-05-03T08:17:01.99Z</time></trkpt><trkpt lat="37.15842827165227" lon="14.139734539181017"><ele>217.79999999999998</ele><time>2026-05-03T08:17:02.99Z</time></trkpt><trkpt lat="37.15851085833409" lon="14.139718346601342"><ele>219.0</ele><time>2026-05-03T08:17:03.99Z</time></trkpt><trkpt lat="37.15860040382074" lon="14.139710640368673"><ele>219.0</ele><time>2026-05-03T08:17:04.99Z</time></trkpt><trkpt lat="37.15870061276481" lon="14.139706267726329"><ele>219.0</ele><time>2026-05-03T08:17:05.99Z</time></trkpt><trkpt lat="37.15877693294343" lon="14.139705864533312"><ele>219.0</ele><time>2026-05-03T08:17:06.99Z</time></trkpt><trkpt lat="37.158842218947576" lon="14.139703996358232"><ele>219.0</ele><time>2026-05-03T08:17:07.99Z</time></trkpt><trkpt lat="37.158905287210544" lon="14.13972743941133"><ele>219.0</ele><time>2026-05-03T08:17:08.99Z</time></trkpt><trkpt lat="37.15900499063889" lon="14.13983418819225"><ele>219.0</ele><time>2026-05-03T08:17:10.99Z</time></trkpt><trkpt lat="37.15905884481518" lon="14.139911396472902"><ele>220.0</ele><time>2026-05-03T08:17:11.99Z</time></trkpt><trkpt lat="37.15912742716745" lon="14.139974073759241"><ele>221.0</ele><time>2026-05-03T08:17:12.99Z</time></trkpt><trkpt lat="37.15920528020624" lon="14.140000996232752"><ele>222.0</ele><time>2026-05-03T08:17:13.99Z</time></trkpt><trkpt lat="37.15928885666317" lon="14.140017318403617"><ele>223.0</ele><time>2026-05-03T08:17:14.99Z</time></trkpt><trkpt lat="37.15936569205554" lon="14.140026105147937"><ele>224.0</ele><time>2026-05-03T08:17:15.99Z</time></trkpt><trkpt lat="37.15942966144335" lon="14.140047848750774"><ele>225.0</ele><time>2026-05-03T08:17:16.99Z</time></trkpt><trkpt lat="37.159504013481325" lon="14.140009434997861"><ele>225.0</ele><time>2026-05-03T08:17:18.99Z</time></trkpt><trkpt lat="37.15954350443779" lon="14.13992039969766"><ele>225.0</ele><time>2026-05-03T08:17:21.99Z</time></trkpt><trkpt lat="37.15957277836531" lon="14.139847714871372"><ele>231.0</ele><time>2026-05-03T08:17:23.99Z</time></trkpt><trkpt lat="37.159638331819814" lon="14.139843203599511"><ele>231.0</ele><time>2026-05-03T08:17:25.99Z</time></trkpt><trkpt lat="37.15970770046889" lon="14.13991437999914"><ele>225.0</ele><time>2026-05-03T08:17:28.991Z</time></trkpt><trkpt lat="37.15977279364211" lon="14.139950459508055"><ele>225.0</ele><time>2026-05-03T08:17:31.99Z</time></trkpt></trkseg><trkseg><trkpt lat="37.15979417695177" lon="14.13984968167947"><ele>231.0</ele><time>2026-05-03T08:42:31.976Z</time></trkpt><trkpt lat="37.15973801013655" lon="14.139791267347203"><ele>231.00000000000003</ele><time>2026-05-03T08:42:34.976Z</time></trkpt><trkpt lat="37.15968176505466" lon="14.139738894842255"><ele>231.00000000000003</ele><time>2026-05-03T08:42:37.977Z</time></trkpt><trkpt lat="37.15961624002931" lon="14.139691038960622"><ele>231.0</ele><time>2026-05-03T08:42:41.976Z</time></trkpt><trkpt lat="37.15961706171732" lon="14.139556325498798"><ele>231.0</ele><time>2026-05-03T08:42:44.977Z</time></trkpt><trkpt lat="37.15964562268025" lon="14.139398388882418"><ele>231.0</ele><time>2026-05-03T08:42:46.977Z</time></trkpt><trkpt lat="37.15969461792471" lon="14.13926213808184"><ele>231.00000000000003</ele><time>2026-05-03T08:42:48.977Z</time></trkpt><trkpt lat="37.15976707238974" lon="14.139140097030811"><ele>231.00000000000003</ele><time>2026-05-03T08:42:50.977Z</time></trkpt><trkpt lat="37.15980765461103" lon="14.13906920021006"><ele>231.0</ele><time>2026-05-03T08:42:51.977Z</time></trkpt><trkpt lat="37.159868429325705" lon="14.138953915874781"><ele>231.0</ele><time>2026-05-03T08:42:53.977Z</time></trkpt><trkpt lat="37.159950891956484" lon="14.138842126620048"><ele>231.14285714285714</ele><time>2026-05-03T08:42:55.977Z</time></trkpt><trkpt lat="37.15998834705574" lon="14.1387749399759"><ele>231.28571428571428</ele><time>2026-05-03T08:42:56.977Z</time></trkpt><trkpt lat="37.1600362052175" lon="14.138709729142045"><ele>231.42857142857144</ele><time>2026-05-03T08:42:57.977Z</time></trkpt><trkpt lat="37.16008212406337" lon="14.138639061824472"><ele>231.57142857142858</ele><time>2026-05-03T08:42:58.977Z</time></trkpt><trkpt lat="37.1601308383276" lon="14.138578600486186"><ele>231.71428571428572</ele><time>2026-05-03T08:42:59.977Z</time></trkpt><trkpt lat="37.16017781635499" lon="14.138510561036414"><ele>231.8571428571429</ele><time>2026-05-03T08:43:00.977Z</time></trkpt><trkpt lat="37.16022001556845" lon="14.138436108397618"><ele>232.00000000000003</ele><time>2026-05-03T08:43:01.977Z</time></trkpt><trkpt lat="37.160307583041416" lon="14.138307585927306"><ele>231.99999999999997</ele><time>2026-05-03T08:43:03.977Z</time></trkpt><trkpt lat="37.16035942889065" lon="14.138232672074238"><ele>232.0</ele><time>2026-05-03T08:43:04.977Z</time></trkpt><trkpt lat="37.1604083605738" lon="14.138162001419843"><ele>232.0</ele><time>2026-05-03T08:43:05.977Z</time></trkpt><trkpt lat="37.1604582428028" lon="14.138097096828409"><ele>232.0</ele><time>2026-05-03T08:43:06.977Z</time></trkpt><trkpt lat="37.16051523526242" lon="14.138005161911222"><ele>231.99999999999997</ele><time>2026-05-03T08:43:07.977Z</time></trkpt><trkpt lat="37.16057504406323" lon="14.137912328487078"><ele>232.0</ele><time>2026-05-03T08:43:08.977Z</time></trkpt><trkpt lat="37.16063633833251" lon="14.137816363608314"><ele>232.2</ele><time>2026-05-03T08:43:09.977Z</time></trkpt><trkpt lat="37.16070369264368" lon="14.137722884492343"><ele>232.39999999999998</ele><time>2026-05-03T08:43:10.977Z</time></trkpt><trkpt lat="37.16076737952756" lon="14.137630309063734"><ele>232.60000000000002</ele><time>2026-05-03T08:43:11.977Z</time></trkpt><trkpt lat="37.16082795668656" lon="14.137541461563945"><ele>232.8</ele><time>2026-05-03T08:43:12.977Z</time></trkpt><trkpt lat="37.160880494764086" lon="14.137461296330056"><ele>233.0</ele><time>2026-05-03T08:43:13.977Z</time></trkpt><trkpt lat="37.16092788701099" lon="14.137385893869077"><ele>231.33333333333334</ele><time>2026-05-03T08:43:14.977Z</time></trkpt><trkpt lat="37.160978140401006" lon="14.137314506799235"><ele>229.66666666666669</ele><time>2026-05-03T08:43:15.977Z</time></trkpt><trkpt lat="37.16104749048314" lon="14.137209155235423"><ele>228.0</ele><time>2026-05-03T08:43:17.977Z</time></trkpt><trkpt lat="37.16112808940467" lon="14.137136483139793"><ele>226.33333333333331</ele><time>2026-05-03T08:43:19.977Z</time></trkpt><trkpt lat="37.16121526909934" lon="14.137092265324917"><ele>224.66666666666666</ele><time>2026-05-03T08:43:21.977Z</time></trkpt><trkpt lat="37.161280979449565" lon="14.137060214213562"><ele>223.0</ele><time>2026-05-03T08:43:22.977Z</time></trkpt><trkpt lat="37.16134712189152" lon="14.137029766101554"><ele>222.99999999999997</ele><time>2026-05-03T08:43:23.977Z</time></trkpt><trkpt lat="37.161416677254266" lon="14.13700819235851"><ele>223.0</ele><time>2026-05-03T08:43:24.977Z</time></trkpt><trkpt lat="37.16148882731131" lon="14.13699790501153"><ele>223.0</ele><time>2026-05-03T08:43:25.977Z</time></trkpt><trkpt lat="37.16156034392778" lon="14.13696670774368"><ele>223.0</ele><time>2026-05-03T08:43:26.977Z</time></trkpt><trkpt lat="37.16167230753233" lon="14.136900944272396"><ele>222.99999999999997</ele><time>2026-05-03T08:43:28.977Z</time></trkpt><trkpt lat="37.161773893047744" lon="14.136864992163119"><ele>223.0</ele><time>2026-05-03T08:43:30.977Z</time></trkpt><trkpt lat="37.161840267222075" lon="14.136847422647083"><ele>223.99999999999997</ele><time>2026-05-03T08:43:31.977Z</time></trkpt><trkpt lat="37.16191958649869" lon="14.136818736382024"><ele>225.0</ele><time>2026-05-03T08:43:32.976Z</time></trkpt><trkpt lat="37.16200075536797" lon="14.136777734899873"><ele>226.0</ele><time>2026-05-03T08:43:33.976Z</time></trkpt><trkpt lat="37.16207336627358" lon="14.136744936766178"><ele>227.0</ele><time>2026-05-03T08:43:34.976Z</time></trkpt><trkpt lat="37.162152258054505" lon="14.136710655928297"><ele>227.99999999999997</ele><time>2026-05-03T08:43:35.976Z</time></trkpt><trkpt lat="37.16223336579404" lon="14.13667752506208"><ele>229.0</ele><time>2026-05-03T08:43:36.976Z</time></trkpt><trkpt lat="37.16231238117723" lon="14.136640863817199"><ele>228.0</ele><time>2026-05-03T08:43:37.976Z</time></trkpt><trkpt lat="37.16241156977235" lon="14.136594893360346"><ele>226.99999999999997</ele><time>2026-05-03T08:43:38.976Z</time></trkpt><trkpt lat="37.16251313676203" lon="14.136553946908865"><ele>225.99999999999997</ele><time>2026-05-03T08:43:39.976Z</time></trkpt><trkpt lat="37.16259533277813" lon="14.136529791147078"><ele>225.0</ele><time>2026-05-03T08:43:40.976Z</time></trkpt><trkpt lat="37.16268307577681" lon="14.136494154976603"><ele>224.0</ele><time>2026-05-03T08:43:41.976Z</time></trkpt><trkpt lat="37.162774627337534" lon="14.136459727186608"><ele>223.33333333333334</ele><time>2026-05-03T08:43:42.976Z</time></trkpt><trkpt lat="37.162854320313656" lon="14.13641858671437"><ele>222.66666666666669</ele><time>2026-05-03T08:43:43.976Z</time></trkpt><trkpt lat="37.16293560647565" lon="14.136385271595534"><ele>222.0</ele><time>2026-05-03T08:43:44.976Z</time></trkpt><trkpt lat="37.16300227543855" lon="14.13634982616285"><ele>221.33333333333331</ele><time>2026-05-03T08:43:45.976Z</time></trkpt><trkpt lat="37.16307837988076" lon="14.136322385130772"><ele>220.66666666666666</ele><time>2026-05-03T08:43:46.976Z</time></trkpt><trkpt lat="37.16316394825182" lon="14.13628922707822"><ele>220.0</ele><time>2026-05-03T08:43:47.976Z</time></trkpt><trkpt lat="37.163243357176235" lon="14.136260843964891"><ele>220.0</ele><time>2026-05-03T08:43:48.976Z</time></trkpt><trkpt lat="37.16332755897737" lon="14.136230785237716"><ele>220.0</ele><time>2026-05-03T08:43:49.976Z</time></trkpt><trkpt lat="37.163416865603836" lon="14.136193955801467"><ele>220.0</ele><time>2026-05-03T08:43:50.976Z</time></trkpt><trkpt lat="37.1635145920148" lon="14.136146432645065"><ele>220.0</ele><time>2026-05-03T08:43:51.976Z</time></trkpt><trkpt lat="37.16360590317219" lon="14.136102174006735"><ele>220.0</ele><time>2026-05-03T08:43:52.976Z</time></trkpt><trkpt lat="37.16368957500625" lon="14.136067654905624"><ele>219.99999999999997</ele><time>2026-05-03T08:43:53.976Z</time></trkpt><trkpt lat="37.16376339609615" lon="14.136042158496288"><ele>220.0</ele><time>2026-05-03T08:43:54.976Z</time></trkpt><trkpt lat="37.16383339608483" lon="14.136017101715476"><ele>220.0</ele><time>2026-05-03T08:43:55.976Z</time></trkpt><trkpt lat="37.16390411376018" lon="14.135980557353326"><ele>220.0</ele><time>2026-05-03T08:43:56.976Z</time></trkpt><trkpt lat="37.16397385033036" lon="14.135956825578516"><ele>220.0</ele><time>2026-05-03T08:43:57.976Z</time></trkpt><trkpt lat="37.16404102789752" lon="14.135941539771212"><ele>219.99999999999997</ele><time>2026-05-03T08:43:58.976Z</time></trkpt><trkpt lat="37.16410979523702" lon="14.135910378592845"><ele>220.0</ele><time>2026-05-03T08:43:59.976Z</time></trkpt><trkpt lat="37.164197193325535" lon="14.135881884259671"><ele>219.8</ele><time>2026-05-03T08:44:01.976Z</time></trkpt><trkpt lat="37.16428945398699" lon="14.135832894134534"><ele>219.6</ele><time>2026-05-03T08:44:03.976Z</time></trkpt><trkpt lat="37.1643830709893" lon="14.135799867794823"><ele>219.39999999999998</ele><time>2026-05-03T08:44:05.976Z</time></trkpt><trkpt lat="37.16446170925372" lon="14.135784323787759"><ele>219.2</ele><time>2026-05-03T08:44:07.976Z</time></trkpt><trkpt lat="37.16456878738421" lon="14.135778638374903"><ele>219.0</ele><time>2026-05-03T08:44:09.976Z</time></trkpt><trkpt lat="37.16464768335604" lon="14.135792008679676"><ele>219.0</ele><time>2026-05-03T08:44:10.976Z</time></trkpt><trkpt lat="37.164791746579" lon="14.13579309285945"><ele>218.99999999999997</ele><time>2026-05-03T08:44:12.976Z</time></trkpt><trkpt lat="37.164891428075016" lon="14.135804968685472"><ele>218.99999999999997</ele><time>2026-05-03T08:44:13.976Z</time></trkpt><trkpt lat="37.16499602706855" lon="14.135808771049447"><ele>219.0</ele><time>2026-05-03T08:44:14.976Z</time></trkpt><trkpt lat="37.16509285564473" lon="14.135820807919128"><ele>219.0</ele><time>2026-05-03T08:44:15.976Z</time></trkpt><trkpt lat="37.16518162814599" lon="14.135829542611626"><ele>219.0</ele><time>2026-05-03T08:44:16.976Z</time></trkpt><trkpt lat="37.1652613578175" lon="14.13583384083384"><ele>219.0</ele><time>2026-05-03T08:44:17.976Z</time></trkpt><trkpt lat="37.16533986240998" lon="14.135842427511932"><ele>219.0</ele><time>2026-05-03T08:44:18.976Z</time></trkpt><trkpt lat="37.16541845391833" lon="14.135824638250345"><ele>219.0</ele><time>2026-05-03T08:44:19.976Z</time></trkpt><trkpt lat="37.16551494181026" lon="14.135827407861205"><ele>219.0</ele><time>2026-05-03T08:44:20.976Z</time></trkpt><trkpt lat="37.16559555940836" lon="14.135838982304648"><ele>219.0</ele><time>2026-05-03T08:44:21.976Z</time></trkpt><trkpt lat="37.16568741887189" lon="14.135844044131543"><ele>219.5</ele><time>2026-05-03T08:44:22.976Z</time></trkpt><trkpt lat="37.16576943362639" lon="14.135850940324598"><ele>220.0</ele><time>2026-05-03T08:44:23.976Z</time></trkpt><trkpt lat="37.165851402823144" lon="14.135851140494298"><ele>220.5</ele><time>2026-05-03T08:44:24.976Z</time></trkpt><trkpt lat="37.165934216333646" lon="14.1358533025945"><ele>221.0</ele><time>2026-05-03T08:44:25.976Z</time></trkpt><trkpt lat="37.16602780014943" lon="14.135854080164009"><ele>221.5</ele><time>2026-05-03T08:44:26.976Z</time></trkpt><trkpt lat="37.166118070659955" lon="14.135860618177402"><ele>222.0</ele><time>2026-05-03T08:44:27.976Z</time></trkpt><trkpt lat="37.16620392642048" lon="14.135869398580903"><ele>222.0</ele><time>2026-05-03T08:44:28.976Z</time></trkpt><trkpt lat="37.166295899453765" lon="14.13587813450321"><ele>222.0</ele><time>2026-05-03T08:44:29.976Z</time></trkpt><trkpt lat="37.16638140810593" lon="14.135879804248715"><ele>222.0</ele><time>2026-05-03T08:44:30.976Z</time></trkpt><trkpt lat="37.166470537431586" lon="14.135886805604894"><ele>222.0</ele><time>2026-05-03T08:44:31.976Z</time></trkpt><trkpt lat="37.16655449128286" lon="14.135894379156461"><ele>222.0</ele><time>2026-05-03T08:44:32.976Z</time></trkpt><trkpt lat="37.16664469225075" lon="14.135895977613542"><ele>222.0</ele><time>2026-05-03T08:44:33.976Z</time></trkpt><trkpt lat="37.16673539297449" lon="14.13589770851847"><ele>222.0</ele><time>2026-05-03T08:44:34.976Z</time></trkpt><trkpt lat="37.16684032432495" lon="14.13589999729864"><ele>222.0</ele><time>2026-05-03T08:44:35.976Z</time></trkpt><trkpt lat="37.166922876732855" lon="14.135899920643315"><ele>222.0</ele><time>2026-05-03T08:44:36.976Z</time></trkpt><trkpt lat="37.16699836140465" lon="14.135898652431562"><ele>222.0</ele><time>2026-05-03T08:44:37.976Z</time></trkpt><trkpt lat="37.16707797268525" lon="14.135904562439373"><ele>222.0</ele><time>2026-05-03T08:44:38.976Z</time></trkpt><trkpt lat="37.167155054574245" lon="14.135923076435251"><ele>222.0</ele><time>2026-05-03T08:44:39.976Z</time></trkpt><trkpt lat="37.167231888893184" lon="14.135936220859083"><ele>222.0</ele><time>2026-05-03T08:44:40.976Z</time></trkpt><trkpt lat="37.16729768975543" lon="14.135927861732677"><ele>222.0</ele><time>2026-05-03T08:44:41.976Z</time></trkpt><trkpt lat="37.16737017596389" lon="14.135937027492137"><ele>222.0</ele><time>2026-05-03T08:44:42.976Z</time></trkpt><trkpt lat="37.167441341333394" lon="14.135935634181937"><ele>222.0</ele><time>2026-05-03T08:44:43.976Z</time></trkpt><trkpt lat="37.16755910874946" lon="14.135948697536088"><ele>222.0</ele><time>2026-05-03T08:44:45.975Z</time></trkpt><trkpt lat="37.16765267536004" lon="14.135963344137197"><ele>222.0</ele><time>2026-05-03T08:44:47.975Z</time></trkpt><trkpt lat="37.167757284109896" lon="14.135965545894779"><ele>222.16666666666666</ele><time>2026-05-03T08:44:49.976Z</time></trkpt><trkpt lat="37.16786190765098" lon="14.135953954617724"><ele>222.33333333333331</ele><time>2026-05-03T08:44:51.975Z</time></trkpt><trkpt lat="37.167938689934715" lon="14.135946739927437"><ele>222.5</ele><time>2026-05-03T08:44:53.976Z</time></trkpt><trkpt lat="37.16800367761805" lon="14.135925881614261"><ele>222.66666666666666</ele><time>2026-05-03T08:44:56.975Z</time></trkpt><trkpt lat="37.16801373966352" lon="14.135839291567756"><ele>222.83333333333331</ele><time>2026-05-03T08:45:00.975Z</time></trkpt><trkpt lat="37.16795213752397" lon="14.135774024370022"><ele>223.0</ele><time>2026-05-03T08:45:02.975Z</time></trkpt><trkpt lat="37.16789154650942" lon="14.135727085488215"><ele>224.66666666666666</ele><time>2026-05-03T08:45:03.975Z</time></trkpt><trkpt lat="37.16782478811528" lon="14.135683903558942"><ele>226.33333333333331</ele><time>2026-05-03T08:45:04.975Z</time></trkpt><trkpt lat="37.1677540965096" lon="14.135611499917069"><ele>228.0</ele><time>2026-05-03T08:45:05.975Z</time></trkpt><trkpt lat="37.16768175820821" lon="14.135539648957783"><ele>229.66666666666669</ele><time>2026-05-03T08:45:06.975Z</time></trkpt><trkpt lat="37.16761113844823" lon="14.135468830020617"><ele>231.33333333333334</ele><time>2026-05-03T08:45:07.975Z</time></trkpt><trkpt lat="37.1675559192286" lon="14.13540713870574"><ele>233.0</ele><time>2026-05-03T08:45:08.975Z</time></trkpt><trkpt lat="37.167485877251835" lon="14.135349600506958"><ele>233.00000000000003</ele><time>2026-05-03T08:45:09.975Z</time></trkpt><trkpt lat="37.16741907799592" lon="14.135279847290187"><ele>233.0</ele><time>2026-05-03T08:45:10.975Z</time></trkpt><trkpt lat="37.1673223022308" lon="14.135185272725538"><ele>233.0</ele><time>2026-05-03T08:45:12.975Z</time></trkpt><trkpt lat="37.1672658330256" lon="14.135112407403296"><ele>233.0</ele><time>2026-05-03T08:45:13.975Z</time></trkpt><trkpt lat="37.16721107936238" lon="14.135056464665224"><ele>233.00000000000003</ele><time>2026-05-03T08:45:14.975Z</time></trkpt><trkpt lat="37.16715242924366" lon="14.134982788730886"><ele>233.0</ele><time>2026-05-03T08:45:15.975Z</time></trkpt><trkpt lat="37.16710307142082" lon="14.13490969088978"><ele>233.2</ele><time>2026-05-03T08:45:16.975Z</time></trkpt><trkpt lat="37.167015097912994" lon="14.134836217341546"><ele>233.4</ele><time>2026-05-03T08:45:18.975Z</time></trkpt><trkpt lat="37.1669243251863" lon="14.13476428861376"><ele>233.59999999999997</ele><time>2026-05-03T08:45:20.975Z</time></trkpt><trkpt lat="37.166883339079924" lon="14.13470107982343"><ele>233.79999999999998</ele><time>2026-05-03T08:45:21.975Z</time></trkpt><trkpt lat="37.166851156775266" lon="14.134623368174415"><ele>234.0</ele><time>2026-05-03T08:45:22.975Z</time></trkpt><trkpt lat="37.166785508326406" lon="14.134488815190116"><ele>234.0</ele><time>2026-05-03T08:45:24.975Z</time></trkpt><trkpt lat="37.16675338593784" lon="14.13440668771062"><ele>234.00000000000003</ele><time>2026-05-03T08:45:25.975Z</time></trkpt><trkpt lat="37.16672941681436" lon="14.13432552498742"><ele>234.0</ele><time>2026-05-03T08:45:26.975Z</time></trkpt><trkpt lat="37.166703150179785" lon="14.134230983136545"><ele>234.0</ele><time>2026-05-03T08:45:27.975Z</time></trkpt><trkpt lat="37.16668455368121" lon="14.134142595897638"><ele>234.00000000000003</ele><time>2026-05-03T08:45:28.975Z</time></trkpt><trkpt lat="37.166663845468996" lon="14.134059703191598"><ele>234.0</ele><time>2026-05-03T08:45:29.975Z</time></trkpt><trkpt lat="37.16664228600536" lon="14.13397705486521"><ele>234.0</ele><time>2026-05-03T08:45:30.975Z</time></trkpt><trkpt lat="37.166617856894014" lon="14.13389872157142"><ele>235.14285714285717</ele><time>2026-05-03T08:45:31.975Z</time></trkpt><trkpt lat="37.16659438665486" lon="14.13381721509818"><ele>236.2857142857143</ele><time>2026-05-03T08:45:32.975Z</time></trkpt><trkpt lat="37.16657005057124" lon="14.133726548662136"><ele>237.42857142857144</ele><time>2026-05-03T08:45:33.975Z</time></trkpt><trkpt lat="37.16655002355984" lon="14.13364128139067"><ele>238.57142857142856</ele><time>2026-05-03T08:45:34.974Z</time></trkpt><trkpt lat="37.16653906877804" lon="14.133542605822417"><ele>239.7142857142857</ele><time>2026-05-03T08:45:35.974Z</time></trkpt><trkpt lat="37.16654108840019" lon="14.133462262556332"><ele>240.85714285714283</ele><time>2026-05-03T08:45:36.974Z</time></trkpt><trkpt lat="37.1665506927453" lon="14.133354929518868"><ele>242.0</ele><time>2026-05-03T08:45:38.974Z</time></trkpt><trkpt lat="37.16660714197143" lon="14.133265181199997"><ele>242.00000000000003</ele><time>2026-05-03T08:45:42.974Z</time></trkpt><trkpt lat="37.16667688784085" lon="14.133276508612875"><ele>242.0</ele><time>2026-05-03T08:45:44.974Z</time></trkpt><trkpt lat="37.16677435025461" lon="14.133286118560354"><ele>242.0</ele><time>2026-05-03T08:45:47.974Z</time></trkpt><trkpt lat="37.166872280908144" lon="14.133298606730593"><ele>242.0</ele><time>2026-05-03T08:45:50.974Z</time></trkpt><trkpt lat="37.166950259216854" lon="14.133297172271023"><ele>242.00000000000003</ele><time>2026-05-03T08:45:52.974Z</time></trkpt><trkpt lat="37.16702246553497" lon="14.133303700428415"><ele>242.0</ele><time>2026-05-03T08:45:54.974Z</time></trkpt><trkpt lat="37.16709578742994" lon="14.133310105745666"><ele>242.00000000000003</ele><time>2026-05-03T08:45:56.974Z</time></trkpt><trkpt lat="37.16717898403797" lon="14.133319201756862"><ele>242.0</ele><time>2026-05-03T08:45:58.974Z</time></trkpt><trkpt lat="37.167243002701724" lon="14.133321797683676"><ele>242.0</ele><time>2026-05-03T08:46:00.974Z</time></trkpt><trkpt lat="37.167317897496154" lon="14.13331113574116"><ele>242.0</ele><time>2026-05-03T08:46:02.974Z</time></trkpt><trkpt lat="37.16741811896689" lon="14.133303139477098"><ele>242.00000000000003</ele><time>2026-05-03T08:46:04.974Z</time></trkpt><trkpt lat="37.16748105095924" lon="14.133276592781383"><ele>242.0</ele><time>2026-05-03T08:46:07.974Z</time></trkpt><trkpt lat="37.16754266086848" lon="14.133221500886723"><ele>246.39999999999998</ele><time>2026-05-03T08:46:09.974Z</time></trkpt><trkpt lat="37.16761940709181" lon="14.133127085168999"><ele>250.79999999999998</ele><time>2026-05-03T08:46:11.974Z</time></trkpt><trkpt lat="37.16770429019179" lon="14.133040577198212"><ele>255.2</ele><time>2026-05-03T08:46:13.974Z</time></trkpt><trkpt lat="37.167761331567746" lon="14.132955251211753"><ele>259.59999999999997</ele><time>2026-05-03T08:46:15.974Z</time></trkpt><trkpt lat="37.167817014508124" lon="14.132862690993953"><ele>264.0</ele><time>2026-05-03T08:46:17.974Z</time></trkpt><trkpt lat="37.16788895143816" lon="14.132773434769137"><ele>264.0</ele><time>2026-05-03T08:46:19.974Z</time></trkpt><trkpt lat="37.16793351431504" lon="14.132707893596296"><ele>264.0</ele><time>2026-05-03T08:46:20.974Z</time></trkpt><trkpt lat="37.16800530586255" lon="14.132610435022926"><ele>264.0</ele><time>2026-05-03T08:46:22.974Z</time></trkpt><trkpt lat="37.168055945508854" lon="14.132504989245005"><ele>264.0</ele><time>2026-05-03T08:46:24.974Z</time></trkpt><trkpt lat="37.1680855604542" lon="14.132419658880696"><ele>264.0</ele><time>2026-05-03T08:46:26.974Z</time></trkpt><trkpt lat="37.16812647885966" lon="14.132313606096147"><ele>264.0</ele><time>2026-05-03T08:46:28.974Z</time></trkpt><trkpt lat="37.168160400135285" lon="14.132210146909964"><ele>265.59999999999997</ele><time>2026-05-03T08:46:30.974Z</time></trkpt><trkpt lat="37.16819440289915" lon="14.132110168714151"><ele>267.2</ele><time>2026-05-03T08:46:32.974Z</time></trkpt><trkpt lat="37.168243330886845" lon="14.131987437008654"><ele>268.79999999999995</ele><time>2026-05-03T08:46:34.974Z</time></trkpt><trkpt lat="37.168269349398614" lon="14.131908123992734"><ele>270.4</ele><time>2026-05-03T08:46:35.974Z</time></trkpt><trkpt lat="37.16832700967507" lon="14.13177386347819"><ele>272.0</ele><time>2026-05-03T08:46:37.974Z</time></trkpt><trkpt lat="37.168360480592426" lon="14.131677076923925"><ele>274.5</ele><time>2026-05-03T08:46:39.974Z</time></trkpt><trkpt lat="37.168382887701426" lon="14.131549951177922"><ele>277.0</ele><time>2026-05-03T08:46:41.973Z</time></trkpt><trkpt lat="37.168415547501304" lon="14.131452234145325"><ele>279.5</ele><time>2026-05-03T08:46:43.973Z</time></trkpt><trkpt lat="37.168466112633595" lon="14.131361397302928"><ele>282.0</ele><time>2026-05-03T08:46:46.973Z</time></trkpt><trkpt lat="37.168499940973376" lon="14.131279978698673"><ele>284.5</ele><time>2026-05-03T08:46:48.973Z</time></trkpt><trkpt lat="37.168536014927064" lon="14.131193189407092"><ele>287.0</ele><time>2026-05-03T08:46:51.974Z</time></trkpt><trkpt lat="37.16861063245314" lon="14.131142969162356"><ele>287.0</ele><time>2026-05-03T08:46:54.974Z</time></trkpt><trkpt lat="37.168701827840565" lon="14.131044951569551"><ele>287.0</ele><time>2026-05-03T08:46:56.974Z</time></trkpt><trkpt lat="37.16874515398474" lon="14.130965881638714"><ele>287.0</ele><time>2026-05-03T08:46:57.974Z</time></trkpt><trkpt lat="37.16877902584597" lon="14.13089827383798"><ele>287.0</ele><time>2026-05-03T08:46:58.975Z</time></trkpt><trkpt lat="37.168844618846144" lon="14.130789970508843"><ele>287.0</ele><time>2026-05-03T08:47:00.974Z</time></trkpt><trkpt lat="37.168934163144996" lon="14.130688902086328"><ele>288.5</ele><time>2026-05-03T08:47:02.974Z</time></trkpt><trkpt lat="37.169039298099044" lon="14.130608547204613"><ele>290.0</ele><time>2026-05-03T08:47:04.974Z</time></trkpt><trkpt lat="37.169092890374316" lon="14.130564201038302"><ele>291.5</ele><time>2026-05-03T08:47:05.974Z</time></trkpt><trkpt lat="37.16915549272522" lon="14.130520099966013"><ele>293.0</ele><time>2026-05-03T08:47:06.974Z</time></trkpt><trkpt lat="37.16921456210212" lon="14.13047193674999"><ele>294.5</ele><time>2026-05-03T08:47:07.974Z</time></trkpt><trkpt lat="37.16927018794624" lon="14.130418380471502"><ele>296.0</ele><time>2026-05-03T08:47:08.974Z</time></trkpt><trkpt lat="37.16933035827663" lon="14.130363227958908"><ele>296.0</ele><time>2026-05-03T08:47:09.974Z</time></trkpt><trkpt lat="37.169387387875986" lon="14.130313103852318"><ele>296.0</ele><time>2026-05-03T08:47:10.974Z</time></trkpt><trkpt lat="37.169441139396476" lon="14.130265615924865"><ele>296.0</ele><time>2026-05-03T08:47:11.974Z</time></trkpt><trkpt lat="37.16954265272656" lon="14.130182750157449"><ele>296.0</ele><time>2026-05-03T08:47:13.974Z</time></trkpt><trkpt lat="37.16963841676171" lon="14.130099474658744"><ele>296.0</ele><time>2026-05-03T08:47:15.974Z</time></trkpt><trkpt lat="37.16973598500075" lon="14.130014301111945"><ele>296.0</ele><time>2026-05-03T08:47:17.974Z</time></trkpt><trkpt lat="37.169789591685095" lon="14.129962453015397"><ele>296.0</ele><time>2026-05-03T08:47:18.974Z</time></trkpt><trkpt lat="37.16984845064661" lon="14.12990255905711"><ele>296.0</ele><time>2026-05-03T08:47:19.974Z</time></trkpt><trkpt lat="37.169898827456656" lon="14.129835593061959"><ele>296.0</ele><time>2026-05-03T08:47:20.974Z</time></trkpt><trkpt lat="37.16995995671053" lon="14.129756100375458"><ele>296.0</ele><time>2026-05-03T08:47:21.974Z</time></trkpt><trkpt lat="37.17001471498062" lon="14.12966470254237"><ele>296.0</ele><time>2026-05-03T08:47:22.974Z</time></trkpt><trkpt lat="37.17008465631861" lon="14.129585859647491"><ele>297.1666666666667</ele><time>2026-05-03T08:47:23.974Z</time></trkpt><trkpt lat="37.170142803176546" lon="14.129532549249616"><ele>298.33333333333337</ele><time>2026-05-03T08:47:24.974Z</time></trkpt><trkpt lat="37.170219903199694" lon="14.129482169505303"><ele>299.5</ele><time>2026-05-03T08:47:25.974Z</time></trkpt><trkpt lat="37.170296032203396" lon="14.129454765974904"><ele>300.6666666666667</ele><time>2026-05-03T08:47:26.974Z</time></trkpt><trkpt lat="37.17039451062322" lon="14.12942680962087"><ele>301.8333333333333</ele><time>2026-05-03T08:47:27.974Z</time></trkpt><trkpt lat="37.170496548581475" lon="14.129398087338155"><ele>303.0</ele><time>2026-05-03T08:47:28.974Z</time></trkpt><trkpt lat="37.17057326327451" lon="14.129362596636145"><ele>303.0</ele><time>2026-05-03T08:47:29.974Z</time></trkpt><trkpt lat="37.17065142345347" lon="14.129321915533211"><ele>303.0</ele><time>2026-05-03T08:47:30.974Z</time></trkpt><trkpt lat="37.17072640524783" lon="14.12929200612118"><ele>303.0</ele><time>2026-05-03T08:47:31.974Z</time></trkpt><trkpt lat="37.170789295448614" lon="14.129254474058522"><ele>303.0</ele><time>2026-05-03T08:47:32.974Z</time></trkpt><trkpt lat="37.1709104739519" lon="14.129227348890867"><ele>303.0</ele><time>2026-05-03T08:47:34.974Z</time></trkpt><trkpt lat="37.170982784598344" lon="14.129240816018946"><ele>303.0</ele><time>2026-05-03T08:47:35.974Z</time></trkpt><trkpt lat="37.171057527485154" lon="14.129269928240898"><ele>302.1666666666667</ele><time>2026-05-03T08:47:36.974Z</time></trkpt><trkpt lat="37.17114591465533" lon="14.129329312147464"><ele>301.3333333333333</ele><time>2026-05-03T08:47:37.974Z</time></trkpt><trkpt lat="37.17122949775993" lon="14.129382286705296"><ele>300.5</ele><time>2026-05-03T08:47:38.974Z</time></trkpt><trkpt lat="37.171303901284965" lon="14.129429495860983"><ele>299.66666666666663</ele><time>2026-05-03T08:47:39.974Z</time></trkpt><trkpt lat="37.171370894151394" lon="14.129451590596252"><ele>298.8333333333333</ele><time>2026-05-03T08:47:40.974Z</time></trkpt><trkpt lat="37.17144128065968" lon="14.129468215015976"><ele>298.0</ele><time>2026-05-03T08:47:41.974Z</time></trkpt><trkpt lat="37.171521957094114" lon="14.12947660808459"><ele>299.16666666666663</ele><time>2026-05-03T08:47:42.974Z</time></trkpt><trkpt lat="37.1715878762623" lon="14.12946998256307"><ele>300.3333333333333</ele><time>2026-05-03T08:47:43.974Z</time></trkpt><trkpt lat="37.17167676753112" lon="14.129471493216027"><ele>301.5</ele><time>2026-05-03T08:47:45.974Z</time></trkpt><trkpt lat="37.171766572652054" lon="14.129569834915209"><ele>302.6666666666667</ele><time>2026-05-03T08:47:47.974Z</time></trkpt><trkpt lat="37.17180955257105" lon="14.129657479231932"><ele>303.83333333333337</ele><time>2026-05-03T08:47:48.974Z</time></trkpt><trkpt lat="37.1718577776997" lon="14.129727025864673"><ele>305.0</ele><time>2026-05-03T08:47:49.974Z</time></trkpt><trkpt lat="37.17190907811325" lon="14.129781021155038"><ele>302.0</ele><time>2026-05-03T08:47:50.974Z</time></trkpt><trkpt lat="37.17197329696502" lon="14.129894323407832"><ele>299.0</ele><time>2026-05-03T08:47:52.974Z</time></trkpt><trkpt lat="37.17202903137049" lon="14.130011191668537"><ele>296.0</ele><time>2026-05-03T08:47:54.974Z</time></trkpt><trkpt lat="37.17211107926408" lon="14.13008880622042"><ele>293.0</ele><time>2026-05-03T08:47:56.974Z</time></trkpt><trkpt lat="37.17219792575036" lon="14.130173320099244"><ele>290.0</ele><time>2026-05-03T08:47:58.974Z</time></trkpt><trkpt lat="37.17228610185856" lon="14.130249974110232"><ele>290.0</ele><time>2026-05-03T08:48:00.974Z</time></trkpt><trkpt lat="37.172347826382705" lon="14.130326465838404"><ele>290.0</ele><time>2026-05-03T08:48:02.974Z</time></trkpt><trkpt lat="37.17239187578476" lon="14.130419742302978"><ele>290.0</ele><time>2026-05-03T08:48:04.974Z</time></trkpt><trkpt lat="37.17240498382563" lon="14.130548774141868"><ele>290.0</ele><time>2026-05-03T08:48:06.974Z</time></trkpt><trkpt lat="37.17239188813668" lon="14.130696306186106"><ele>290.0</ele><time>2026-05-03T08:48:08.974Z</time></trkpt><trkpt lat="37.17241273317233" lon="14.130829707218439"><ele>291.2</ele><time>2026-05-03T08:48:10.973Z</time></trkpt><trkpt lat="37.1724734606323" lon="14.13095709932411"><ele>292.4</ele><time>2026-05-03T08:48:12.973Z</time></trkpt><trkpt lat="37.172536924224666" lon="14.13104280190518"><ele>293.6</ele><time>2026-05-03T08:48:14.973Z</time></trkpt><trkpt lat="37.17258960485474" lon="14.131086391339961"><ele>294.8</ele><time>2026-05-03T08:48:16.973Z</time></trkpt><trkpt lat="37.1726663476397" lon="14.13107483013539"><ele>296.0</ele><time>2026-05-03T08:48:18.973Z</time></trkpt><trkpt lat="37.172786401520945" lon="14.131059727320851"><ele>296.0</ele><time>2026-05-03T08:48:20.973Z</time></trkpt><trkpt lat="37.172857675219056" lon="14.131074651208452"><ele>296.0</ele><time>2026-05-03T08:48:21.973Z</time></trkpt><trkpt lat="37.17293032505698" lon="14.13109788326676"><ele>296.0</ele><time>2026-05-03T08:48:22.973Z</time></trkpt><trkpt lat="37.17300326109176" lon="14.131107374727515"><ele>296.0</ele><time>2026-05-03T08:48:23.973Z</time></trkpt><trkpt lat="37.17307159642481" lon="14.131113831377778"><ele>296.0</ele><time>2026-05-03T08:48:24.973Z</time></trkpt><trkpt lat="37.173135172090085" lon="14.13112576059184"><ele>296.0</ele><time>2026-05-03T08:48:25.973Z</time></trkpt><trkpt lat="37.17320050893298" lon="14.131141171908576"><ele>296.0</ele><time>2026-05-03T08:48:26.973Z</time></trkpt><trkpt lat="37.173269419189985" lon="14.131152972699857"><ele>298.1666666666667</ele><time>2026-05-03T08:48:27.973Z</time></trkpt><trkpt lat="37.17334047306775" lon="14.13116974750755"><ele>300.33333333333337</ele><time>2026-05-03T08:48:28.973Z</time></trkpt><trkpt lat="37.17340692537609" lon="14.13118145278619"><ele>302.5</ele><time>2026-05-03T08:48:29.973Z</time></trkpt><trkpt lat="37.17348188203533" lon="14.131190315728228"><ele>304.6666666666667</ele><time>2026-05-03T08:48:30.973Z</time></trkpt><trkpt lat="37.17354995659607" lon="14.131202168793052"><ele>306.8333333333333</ele><time>2026-05-03T08:48:31.973Z</time></trkpt><trkpt lat="37.17361521236975" lon="14.131200449258678"><ele>309.0</ele><time>2026-05-03T08:48:32.973Z</time></trkpt><trkpt lat="37.1737344395574" lon="14.13118156400204"><ele>309.0</ele><time>2026-05-03T08:48:34.973Z</time></trkpt><trkpt lat="37.173798073951396" lon="14.131160570430824"><ele>309.0</ele><time>2026-05-03T08:48:35.973Z</time></trkpt><trkpt lat="37.173857087300505" lon="14.131130834501581"><ele>309.0</ele><time>2026-05-03T08:48:36.973Z</time></trkpt><trkpt lat="37.17396273188951" lon="14.131068645220992"><ele>309.0</ele><time>2026-05-03T08:48:38.973Z</time></trkpt><trkpt lat="37.17407230668422" lon="14.130998056986607"><ele>309.0</ele><time>2026-05-03T08:48:40.973Z</time></trkpt><trkpt lat="37.17418546906525" lon="14.130927080037088"><ele>308.5714285714286</ele><time>2026-05-03T08:48:42.973Z</time></trkpt><trkpt lat="37.174236864859914" lon="14.13087742810018"><ele>308.14285714285717</ele><time>2026-05-03T08:48:43.973Z</time></trkpt><trkpt lat="37.17428933577254" lon="14.130823859885805"><ele>307.7142857142857</ele><time>2026-05-03T08:48:44.973Z</time></trkpt><trkpt lat="37.17432974610574" lon="14.130762430598798"><ele>307.28571428571433</ele><time>2026-05-03T08:48:45.973Z</time></trkpt><trkpt lat="37.17436538104212" lon="14.130690771524964"><ele>306.8571428571429</ele><time>2026-05-03T08:48:46.973Z</time></trkpt><trkpt lat="37.174395744968564" lon="14.130610466864537"><ele>306.42857142857144</ele><time>2026-05-03T08:48:47.973Z</time></trkpt><trkpt lat="37.17442969750004" lon="14.130536790771233"><ele>306.0</ele><time>2026-05-03T08:48:48.973Z</time></trkpt><trkpt lat="37.17446193614222" lon="14.130462038069266"><ele>308.8</ele><time>2026-05-03T08:48:49.973Z</time></trkpt><trkpt lat="37.17449543501592" lon="14.130390258511467"><ele>311.6</ele><time>2026-05-03T08:48:50.973Z</time></trkpt><trkpt lat="37.17456897653082" lon="14.130255986622977"><ele>314.4</ele><time>2026-05-03T08:48:52.973Z</time></trkpt><trkpt lat="37.17465379009526" lon="14.130125306019512"><ele>317.2</ele><time>2026-05-03T08:48:54.973Z</time></trkpt><trkpt lat="37.174714266767744" lon="14.130058088124311"><ele>320.0</ele><time>2026-05-03T08:48:55.973Z</time></trkpt><trkpt lat="37.17477113218381" lon="14.129996272823016"><ele>320.0</ele><time>2026-05-03T08:48:56.973Z</time></trkpt><trkpt lat="37.174833679474034" lon="14.129933253191442"><ele>320.0</ele><time>2026-05-03T08:48:57.973Z</time></trkpt><trkpt lat="37.17488820342462" lon="14.129872069275754"><ele>320.0</ele><time>2026-05-03T08:48:58.974Z</time></trkpt><trkpt lat="37.17493309334441" lon="14.12981081073366"><ele>320.0</ele><time>2026-05-03T08:48:59.973Z</time></trkpt><trkpt lat="37.17497781952457" lon="14.129750452185494"><ele>320.0</ele><time>2026-05-03T08:49:00.973Z</time></trkpt><trkpt lat="37.17502470587257" lon="14.129678641597042"><ele>320.0</ele><time>2026-05-03T08:49:01.973Z</time></trkpt><trkpt lat="37.17507092732704" lon="14.129614611221083"><ele>320.0</ele><time>2026-05-03T08:49:02.973Z</time></trkpt><trkpt lat="37.17514581823925" lon="14.129514612505735"><ele>318.83333333333337</ele><time>2026-05-03T08:49:04.973Z</time></trkpt><trkpt lat="37.17519371223912" lon="14.12940951887485"><ele>317.6666666666667</ele><time>2026-05-03T08:49:06.974Z</time></trkpt><trkpt lat="37.175189053458915" lon="14.129314461857055"><ele>316.5</ele><time>2026-05-03T08:49:08.974Z</time></trkpt><trkpt lat="37.17510807649475" lon="14.129271250894984"><ele>315.3333333333333</ele><time>2026-05-03T08:49:11.974Z</time></trkpt><trkpt lat="37.175048438222746" lon="14.129332747675438"><ele>314.16666666666663</ele><time>2026-05-03T08:49:13.974Z</time></trkpt><trkpt lat="37.17501169205014" lon="14.129428440247377"><ele>313.0</ele><time>2026-05-03T08:49:15.974Z</time></trkpt><trkpt lat="37.17494279420176" lon="14.129468301895285"><ele>313.0</ele><time>2026-05-03T08:49:17.974Z</time></trkpt><trkpt lat="37.17485648007456" lon="14.129496229354036"><ele>313.0</ele><time>2026-05-03T08:49:19.974Z</time></trkpt><trkpt lat="37.174726114629365" lon="14.129522038758616"><ele>313.0</ele><time>2026-05-03T08:49:21.973Z</time></trkpt><trkpt lat="37.174653477834816" lon="14.12954158102365"><ele>313.0</ele><time>2026-05-03T08:49:22.973Z</time></trkpt><trkpt lat="37.174534173985954" lon="14.12960028222779"><ele>313.0</ele><time>2026-05-03T08:49:24.973Z</time></trkpt><trkpt lat="37.17447561801957" lon="14.129641322299635"><ele>314.16666666666663</ele><time>2026-05-03T08:49:25.973Z</time></trkpt><trkpt lat="37.174349495050684" lon="14.129693568445816"><ele>315.3333333333333</ele><time>2026-05-03T08:49:27.973Z</time></trkpt><trkpt lat="37.17428761509132" lon="14.129728043674373"><ele>316.5</ele><time>2026-05-03T08:49:28.973Z</time></trkpt><trkpt lat="37.17422049559825" lon="14.129778115368058"><ele>317.6666666666667</ele><time>2026-05-03T08:49:29.973Z</time></trkpt><trkpt lat="37.174166785102315" lon="14.129826270062644"><ele>318.83333333333337</ele><time>2026-05-03T08:49:30.973Z</time></trkpt><trkpt lat="37.17408525743197" lon="14.129893889746262"><ele>320.0</ele><time>2026-05-03T08:49:32.973Z</time></trkpt><trkpt lat="37.173997398419736" lon="14.129866092864903"><ele>322.33333333333337</ele><time>2026-05-03T08:49:35.973Z</time></trkpt><trkpt lat="37.17397659712764" lon="14.129771950087202"><ele>324.6666666666667</ele><time>2026-05-03T08:49:37.973Z</time></trkpt><trkpt lat="37.174000589894845" lon="14.129625034644112"><ele>327.0</ele><time>2026-05-03T08:49:39.973Z</time></trkpt><trkpt lat="37.174020451768754" lon="14.129536901622785"><ele>329.3333333333333</ele><time>2026-05-03T08:49:40.973Z</time></trkpt><trkpt lat="37.17408441901272" lon="14.129428022517885"><ele>331.66666666666663</ele><time>2026-05-03T08:49:42.973Z</time></trkpt><trkpt lat="37.17413185641313" lon="14.129369164427503"><ele>334.0</ele><time>2026-05-03T08:49:43.973Z</time></trkpt><trkpt lat="37.17417930800774" lon="14.129281898715307"><ele>334.0</ele><time>2026-05-03T08:49:44.973Z</time></trkpt><trkpt lat="37.17421438739002" lon="14.129190767369375"><ele>334.0</ele><time>2026-05-03T08:49:45.973Z</time></trkpt><trkpt lat="37.17426950542492" lon="14.129098067302285"><ele>334.0</ele><time>2026-05-03T08:49:47.973Z</time></trkpt><trkpt lat="37.17426801959869" lon="14.128994687377975"><ele>334.0</ele><time>2026-05-03T08:49:50.973Z</time></trkpt><trkpt lat="37.1741990861176" lon="14.12894748677789"><ele>334.0</ele><time>2026-05-03T08:49:52.973Z</time></trkpt><trkpt lat="37.17408559524399" lon="14.128963364109886"><ele>334.0</ele><time>2026-05-03T08:49:54.973Z</time></trkpt><trkpt lat="37.174022488566735" lon="14.128975881236906"><ele>334.79999999999995</ele><time>2026-05-03T08:49:55.973Z</time></trkpt><trkpt lat="37.173946166494396" lon="14.12897057042235"><ele>335.59999999999997</ele><time>2026-05-03T08:49:56.973Z</time></trkpt><trkpt lat="37.1738669216861" lon="14.128945137744546"><ele>336.4</ele><time>2026-05-03T08:49:57.973Z</time></trkpt><trkpt lat="37.173732076146834" lon="14.128936200956376"><ele>337.2</ele><time>2026-05-03T08:49:59.973Z</time></trkpt><trkpt lat="37.17363569085558" lon="14.128953227684814"><ele>338.0</ele><time>2026-05-03T08:50:01.973Z</time></trkpt><trkpt lat="37.17354042914232" lon="14.129019827454453"><ele>338.0</ele><time>2026-05-03T08:50:03.973Z</time></trkpt><trkpt lat="37.17344127098181" lon="14.12907281888399"><ele>338.0</ele><time>2026-05-03T08:50:05.973Z</time></trkpt><trkpt lat="37.1733667203676" lon="14.129066797577774"><ele>338.0</ele><time>2026-05-03T08:50:07.973Z</time></trkpt><trkpt lat="37.1732792519494" lon="14.129015951413873"><ele>338.0</ele><time>2026-05-03T08:50:09.973Z</time></trkpt><trkpt lat="37.17319011055816" lon="14.129001331527983"><ele>338.0</ele><time>2026-05-03T08:50:11.973Z</time></trkpt><trkpt lat="37.17309559734879" lon="14.128990864834996"><ele>337.33333333333337</ele><time>2026-05-03T08:50:13.973Z</time></trkpt><trkpt lat="37.172998075339045" lon="14.128981873737896"><ele>336.6666666666667</ele><time>2026-05-03T08:50:15.973Z</time></trkpt><trkpt lat="37.172936756439476" lon="14.129005146341132"><ele>336.0</ele><time>2026-05-03T08:50:19.973Z</time></trkpt><trkpt lat="37.17298097841894" lon="14.129081075322292"><ele>335.3333333333333</ele><time>2026-05-03T08:50:23.973Z</time></trkpt><trkpt lat="37.17305328352172" lon="14.129126649256056"><ele>334.66666666666663</ele><time>2026-05-03T08:50:26.973Z</time></trkpt><trkpt lat="37.17312287658866" lon="14.12918404783186"><ele>334.0</ele><time>2026-05-03T08:50:29.973Z</time></trkpt><trkpt lat="37.173155193132324" lon="14.129254602904254"><ele>334.0</ele><time>2026-05-03T08:50:32.973Z</time></trkpt><trkpt lat="37.17310497883649" lon="14.129179289933935"><ele>334.0</ele><time>2026-05-03T09:01:18.932Z</time></trkpt><trkpt lat="37.173040911954004" lon="14.129150262037797"><ele>334.0</ele><time>2026-05-03T09:01:20.931Z</time></trkpt><trkpt lat="37.172980583265705" lon="14.129106894489276"><ele>334.0</ele><time>2026-05-03T09:01:22.93Z</time></trkpt><trkpt lat="37.17293345099256" lon="14.129051582081104"><ele>334.0</ele><time>2026-05-03T09:01:24.929Z</time></trkpt><trkpt lat="37.17296934754322" lon="14.128957227157915"><ele>334.0</ele><time>2026-05-03T09:01:27.928Z</time></trkpt><trkpt lat="37.173063032049164" lon="14.128974409963908"><ele>334.0</ele><time>2026-05-03T09:01:30.928Z</time></trkpt><trkpt lat="37.17317586103429" lon="14.129004448879797"><ele>334.0</ele><time>2026-05-03T09:01:32.927Z</time></trkpt><trkpt lat="37.17324098184887" lon="14.129012186598047"><ele>334.0</ele><time>2026-05-03T09:01:33.927Z</time></trkpt><trkpt lat="37.173331221761664" lon="14.129047856146968"><ele>334.0</ele><time>2026-05-03T09:01:35.926Z</time></trkpt><trkpt lat="37.17341365267797" lon="14.12908326877856"><ele>334.0</ele><time>2026-05-03T09:01:37.926Z</time></trkpt><trkpt lat="37.17351508232254" lon="14.129063691192561"><ele>334.79999999999995</ele><time>2026-05-03T09:01:39.925Z</time></trkpt><trkpt lat="37.17356633025863" lon="14.129015649191656"><ele>335.59999999999997</ele><time>2026-05-03T09:01:40.925Z</time></trkpt><trkpt lat="37.17362067906282" lon="14.128975059347992"><ele>336.4</ele><time>2026-05-03T09:01:41.925Z</time></trkpt><trkpt lat="37.17371901579489" lon="14.128933945740405"><ele>337.2</ele><time>2026-05-03T09:01:43.924Z</time></trkpt><trkpt lat="37.173828397226856" lon="14.128948141536306"><ele>338.0</ele><time>2026-05-03T09:01:45.924Z</time></trkpt><trkpt lat="37.17394467301383" lon="14.12895447755579"><ele>338.33333333333337</ele><time>2026-05-03T09:01:47.923Z</time></trkpt><trkpt lat="37.17406572159551" lon="14.12894650393497"><ele>338.6666666666667</ele><time>2026-05-03T09:01:49.923Z</time></trkpt><trkpt lat="37.174173335500384" lon="14.128928695417095"><ele>339.0</ele><time>2026-05-03T09:01:51.923Z</time></trkpt><trkpt lat="37.17425213540905" lon="14.128944781200637"><ele>339.3333333333333</ele><time>2026-05-03T09:01:53.923Z</time></trkpt><trkpt lat="37.17426963761392" lon="14.129025072942065"><ele>339.66666666666663</ele><time>2026-05-03T09:01:55.923Z</time></trkpt><trkpt lat="37.174246102750075" lon="14.12910055907492"><ele>340.0</ele><time>2026-05-03T09:01:57.923Z</time></trkpt><trkpt lat="37.174182563537144" lon="14.129203860328584"><ele>338.8</ele><time>2026-05-03T09:01:59.922Z</time></trkpt><trkpt lat="37.17414214856271" lon="14.129277206576266"><ele>337.6</ele><time>2026-05-03T09:02:00.922Z</time></trkpt><trkpt lat="37.174081986482896" lon="14.129392305241808"><ele>336.4</ele><time>2026-05-03T09:02:02.922Z</time></trkpt><trkpt lat="37.17400976824677" lon="14.129522595838518"><ele>335.2</ele><time>2026-05-03T09:02:04.922Z</time></trkpt><trkpt lat="37.17398273525815" lon="14.129603220725274"><ele>334.0</ele><time>2026-05-03T09:02:05.922Z</time></trkpt><trkpt lat="37.17397394227539" lon="14.129701146792968"><ele>334.0</ele><time>2026-05-03T09:02:07.922Z</time></trkpt><trkpt lat="37.17397133096602" lon="14.129791994594402"><ele>334.0</ele><time>2026-05-03T09:02:09.922Z</time></trkpt><trkpt lat="37.17402314686014" lon="14.129871640548084"><ele>334.0</ele><time>2026-05-03T09:02:12.922Z</time></trkpt><trkpt lat="37.17410390970747" lon="14.129837750296188"><ele>334.0</ele><time>2026-05-03T09:02:15.922Z</time></trkpt><trkpt lat="37.174155613427025" lon="14.129790499175794"><ele>334.0</ele><time>2026-05-03T09:02:16.921Z</time></trkpt><trkpt lat="37.17422434654603" lon="14.129734798191421"><ele>334.0</ele><time>2026-05-03T09:02:17.921Z</time></trkpt><trkpt lat="37.1743239933323" lon="14.129686514052226"><ele>334.0</ele><time>2026-05-03T09:02:18.921Z</time></trkpt><trkpt lat="37.17441693617386" lon="14.129638043164547"><ele>334.0</ele><time>2026-05-03T09:02:19.921Z</time></trkpt><trkpt lat="37.17449825179606" lon="14.12959820107943"><ele>334.0</ele><time>2026-05-03T09:02:20.921Z</time></trkpt><trkpt lat="37.17457247983472" lon="14.129550147673676"><ele>334.0</ele><time>2026-05-03T09:02:21.921Z</time></trkpt><trkpt lat="37.17464184716618" lon="14.129514614561062"><ele>334.0</ele><time>2026-05-03T09:02:22.921Z</time></trkpt><trkpt lat="37.17470455868578" lon="14.129490618053511"><ele>334.0</ele><time>2026-05-03T09:02:23.921Z</time></trkpt><trkpt lat="37.174834128238835" lon="14.129485027925115"><ele>330.2</ele><time>2026-05-03T09:02:25.921Z</time></trkpt><trkpt lat="37.174937566935675" lon="14.12944560673798"><ele>326.4</ele><time>2026-05-03T09:02:27.921Z</time></trkpt><trkpt lat="37.17499940172725" lon="14.129394162846904"><ele>322.6</ele><time>2026-05-03T09:02:29.921Z</time></trkpt><trkpt lat="37.175045481601195" lon="14.129292113627331"><ele>318.8</ele><time>2026-05-03T09:02:31.921Z</time></trkpt><trkpt lat="37.17514439249621" lon="14.129131033119208"><ele>315.0</ele><time>2026-05-03T09:02:33.921Z</time></trkpt><trkpt lat="37.17518355321597" lon="14.12901676844409"><ele>315.0</ele><time>2026-05-03T09:02:34.921Z</time></trkpt><trkpt lat="37.17520701373026" lon="14.128897274232619"><ele>315.0</ele><time>2026-05-03T09:02:36.921Z</time></trkpt><trkpt lat="37.17524754652114" lon="14.128818628669272"><ele>315.0</ele><time>2026-05-03T09:02:38.921Z</time></trkpt><trkpt lat="37.175278080741975" lon="14.128727727644575"><ele>315.0</ele><time>2026-05-03T09:02:41.921Z</time></trkpt><trkpt lat="37.17532651514107" lon="14.128649659007046"><ele>315.0</ele><time>2026-05-03T09:02:43.921Z</time></trkpt><trkpt lat="37.17537064246813" lon="14.128579175245058"><ele>315.0</ele><time>2026-05-03T09:02:45.921Z</time></trkpt><trkpt lat="37.17541795948177" lon="14.128492437574815"><ele>315.0</ele><time>2026-05-03T09:02:47.921Z</time></trkpt><trkpt lat="37.17545943764635" lon="14.12839246190857"><ele>315.0</ele><time>2026-05-03T09:02:49.92Z</time></trkpt><trkpt lat="37.17548311610689" lon="14.12830056625212"><ele>315.0</ele><time>2026-05-03T09:02:50.92Z</time></trkpt><trkpt lat="37.17546788064551" lon="14.128143110909694"><ele>315.0</ele><time>2026-05-03T09:02:52.92Z</time></trkpt><trkpt lat="37.17543479323981" lon="14.128053170597928"><ele>315.0</ele><time>2026-05-03T09:02:53.92Z</time></trkpt><trkpt lat="37.17541521862179" lon="14.127977646829232"><ele>315.0</ele><time>2026-05-03T09:02:54.92Z</time></trkpt><trkpt lat="37.17538788093624" lon="14.127883604086755"><ele>315.0</ele><time>2026-05-03T09:02:56.92Z</time></trkpt><trkpt lat="37.175369867494105" lon="14.127801112318776"><ele>315.0</ele><time>2026-05-03T09:02:57.92Z</time></trkpt><trkpt lat="37.17535160177775" lon="14.127685241637108"><ele>315.0</ele><time>2026-05-03T09:02:58.92Z</time></trkpt><trkpt lat="37.17534577688372" lon="14.12754033115299"><ele>315.0</ele><time>2026-05-03T09:02:59.92Z</time></trkpt><trkpt lat="37.17534650940282" lon="14.127403401099118"><ele>315.0</ele><time>2026-05-03T09:03:00.92Z</time></trkpt><trkpt lat="37.1753442746449" lon="14.127288414151936"><ele>314.0</ele><time>2026-05-03T09:03:01.92Z</time></trkpt><trkpt lat="37.17534610559091" lon="14.127196478210735"><ele>313.0</ele><time>2026-05-03T09:03:02.92Z</time></trkpt><trkpt lat="37.17533297276707" lon="14.127113715050982"><ele>312.0</ele><time>2026-05-03T09:03:03.92Z</time></trkpt><trkpt lat="37.175304329289624" lon="14.127012817708941"><ele>311.0</ele><time>2026-05-03T09:03:04.92Z</time></trkpt><trkpt lat="37.17527049954524" lon="14.12686536756423"><ele>310.0</ele><time>2026-05-03T09:03:05.92Z</time></trkpt><trkpt lat="37.17523196644171" lon="14.12670269614857"><ele>310.0</ele><time>2026-05-03T09:03:06.92Z</time></trkpt><trkpt lat="37.17519740204916" lon="14.12656382655325"><ele>310.0</ele><time>2026-05-03T09:03:07.92Z</time></trkpt><trkpt lat="37.17518061067783" lon="14.126475253210984"><ele>310.0</ele><time>2026-05-03T09:03:08.92Z</time></trkpt><trkpt lat="37.1751577917212" lon="14.126390474616938"><ele>310.0</ele><time>2026-05-03T09:03:09.92Z</time></trkpt><trkpt lat="37.1751161592006" lon="14.126282092708125"><ele>310.0</ele><time>2026-05-03T09:03:11.92Z</time></trkpt><trkpt lat="37.17502155098463" lon="14.126168618183105"><ele>309.2</ele><time>2026-05-03T09:03:13.92Z</time></trkpt><trkpt lat="37.174934355882215" lon="14.126104200032906"><ele>308.4</ele><time>2026-05-03T09:03:14.92Z</time></trkpt><trkpt lat="37.17482103641575" lon="14.126045332776446"><ele>307.6</ele><time>2026-05-03T09:03:15.92Z</time></trkpt><trkpt lat="37.17472426103797" lon="14.125974448844131"><ele>306.8</ele><time>2026-05-03T09:03:16.92Z</time></trkpt><trkpt lat="37.17463868267842" lon="14.125916798567172"><ele>306.0</ele><time>2026-05-03T09:03:17.92Z</time></trkpt><trkpt lat="37.17456379883685" lon="14.125884256380806"><ele>306.0</ele><time>2026-05-03T09:03:18.92Z</time></trkpt><trkpt lat="37.17450432749683" lon="14.125843137583539"><ele>306.0</ele><time>2026-05-03T09:03:19.92Z</time></trkpt><trkpt lat="37.17444480294676" lon="14.125785437908062"><ele>306.0</ele><time>2026-05-03T09:03:20.92Z</time></trkpt><trkpt lat="37.17436510159725" lon="14.125722459067706"><ele>306.0</ele><time>2026-05-03T09:03:21.92Z</time></trkpt><trkpt lat="37.17429793309778" lon="14.125647648392727"><ele>306.0</ele><time>2026-05-03T09:03:22.92Z</time></trkpt><trkpt lat="37.174239614697655" lon="14.125585617148106"><ele>306.0</ele><time>2026-05-03T09:03:23.92Z</time></trkpt><trkpt lat="37.174194116287524" lon="14.125520464580003"><ele>303.0</ele><time>2026-05-03T09:03:24.92Z</time></trkpt><trkpt lat="37.17413722386569" lon="14.125385306235856"><ele>300.0</ele><time>2026-05-03T09:03:26.919Z</time></trkpt><trkpt lat="37.17412686962089" lon="14.125293150221843"><ele>297.0</ele><time>2026-05-03T09:03:27.919Z</time></trkpt><trkpt lat="37.17412010819256" lon="14.12518018752891"><ele>294.0</ele><time>2026-05-03T09:03:28.919Z</time></trkpt><trkpt lat="37.1741185069442" lon="14.125048022388777"><ele>291.0</ele><time>2026-05-03T09:03:29.919Z</time></trkpt><trkpt lat="37.17411428699899" lon="14.124934160269067"><ele>289.1666666666667</ele><time>2026-05-03T09:03:30.919Z</time></trkpt><trkpt lat="37.17411140920039" lon="14.124832966206169"><ele>287.3333333333333</ele><time>2026-05-03T09:03:31.919Z</time></trkpt><trkpt lat="37.174100651361" lon="14.124743013177273"><ele>285.5</ele><time>2026-05-03T09:03:32.919Z</time></trkpt><trkpt lat="37.17408520043812" lon="14.124661701429766"><ele>283.66666666666663</ele><time>2026-05-03T09:03:33.919Z</time></trkpt><trkpt lat="37.17406800696581" lon="14.124583089827897"><ele>281.8333333333333</ele><time>2026-05-03T09:03:34.919Z</time></trkpt><trkpt lat="37.174076100150046" lon="14.124464658850114"><ele>280.0</ele><time>2026-05-03T09:03:36.92Z</time></trkpt><trkpt lat="37.17412746519807" lon="14.1243811740956"><ele>280.0</ele><time>2026-05-03T09:03:38.92Z</time></trkpt><trkpt lat="37.174235372990786" lon="14.124307425767446"><ele>280.0</ele><time>2026-05-03T09:03:40.92Z</time></trkpt><trkpt lat="37.17431652999246" lon="14.124270578274952"><ele>280.0</ele><time>2026-05-03T09:03:41.92Z</time></trkpt><trkpt lat="37.174383175163875" lon="14.124239451815745"><ele>280.0</ele><time>2026-05-03T09:03:42.92Z</time></trkpt><trkpt lat="37.174452501417576" lon="14.12417448414524"><ele>280.0</ele><time>2026-05-03T09:03:44.92Z</time></trkpt><trkpt lat="37.17445886623427" lon="14.124059110788702"><ele>280.0</ele><time>2026-05-03T09:03:46.92Z</time></trkpt><trkpt lat="37.1744632206893" lon="14.123955149399155"><ele>280.0</ele><time>2026-05-03T09:03:48.919Z</time></trkpt><trkpt lat="37.174546185528044" lon="14.123892527168811"><ele>280.0</ele><time>2026-05-03T09:03:50.92Z</time></trkpt><trkpt lat="37.174625204563334" lon="14.123949285254858"><ele>280.0</ele><time>2026-05-03T09:03:52.92Z</time></trkpt><trkpt lat="37.17466307096006" lon="14.124020511025305"><ele>280.0</ele><time>2026-05-03T09:03:54.92Z</time></trkpt><trkpt lat="37.174698660511886" lon="14.12412041907241"><ele>280.0</ele><time>2026-05-03T09:03:56.92Z</time></trkpt><trkpt lat="37.174723735629534" lon="14.124227049487411"><ele>280.0</ele><time>2026-05-03T09:03:58.919Z</time></trkpt><trkpt lat="37.17475490328682" lon="14.12433709950138"><ele>280.0</ele><time>2026-05-03T09:04:00.919Z</time></trkpt><trkpt lat="37.1747925216494" lon="14.12444464118454"><ele>280.0</ele><time>2026-05-03T09:04:02.919Z</time></trkpt><trkpt lat="37.17483494368703" lon="14.124535082083755"><ele>280.0</ele><time>2026-05-03T09:04:04.919Z</time></trkpt><trkpt lat="37.17489842802607" lon="14.124601010694528"><ele>280.0</ele><time>2026-05-03T09:04:06.919Z</time></trkpt><trkpt lat="37.17497240393595" lon="14.124637260260615"><ele>280.0</ele><time>2026-05-03T09:04:08.919Z</time></trkpt><trkpt lat="37.17503443017352" lon="14.124589142767318"><ele>277.8</ele><time>2026-05-03T09:04:10.919Z</time></trkpt><trkpt lat="37.175065067843924" lon="14.124486642163946"><ele>275.6</ele><time>2026-05-03T09:04:12.919Z</time></trkpt><trkpt lat="37.17506689180586" lon="14.124407412750351"><ele>273.4</ele><time>2026-05-03T09:04:13.919Z</time></trkpt><trkpt lat="37.1750640497007" lon="14.124283436921164"><ele>271.2</ele><time>2026-05-03T09:04:14.919Z</time></trkpt><trkpt lat="37.175074737206664" lon="14.12413260797135"><ele>269.0</ele><time>2026-05-03T09:04:15.919Z</time></trkpt><trkpt lat="37.17510682012963" lon="14.12403040767591"><ele>267.6666666666667</ele><time>2026-05-03T09:04:16.919Z</time></trkpt><trkpt lat="37.17514650052063" lon="14.123926504201485"><ele>266.33333333333337</ele><time>2026-05-03T09:04:17.919Z</time></trkpt><trkpt lat="37.17517650957318" lon="14.123843053851513"><ele>265.0</ele><time>2026-05-03T09:04:18.919Z</time></trkpt><trkpt lat="37.175193690552916" lon="14.123756453435009"><ele>263.6666666666667</ele><time>2026-05-03T09:04:19.919Z</time></trkpt><trkpt lat="37.175196468622595" lon="14.123674391887892"><ele>262.3333333333333</ele><time>2026-05-03T09:04:20.919Z</time></trkpt><trkpt lat="37.175181948882795" lon="14.123591979207227"><ele>261.0</ele><time>2026-05-03T09:04:21.919Z</time></trkpt><trkpt lat="37.17516122569119" lon="14.123476712125678"><ele>261.0</ele><time>2026-05-03T09:04:23.919Z</time></trkpt><trkpt lat="37.17514744374733" lon="14.123364431079876"><ele>261.0</ele><time>2026-05-03T09:04:25.919Z</time></trkpt><trkpt lat="37.17512408172737" lon="14.123235540382392"><ele>261.0</ele><time>2026-05-03T09:04:27.919Z</time></trkpt><trkpt lat="37.17512196976565" lon="14.123119506627207"><ele>261.0</ele><time>2026-05-03T09:04:29.919Z</time></trkpt><trkpt lat="37.17508141104978" lon="14.123032649309216"><ele>261.0</ele><time>2026-05-03T09:04:31.919Z</time></trkpt><trkpt lat="37.17498721296542" lon="14.122966612353856"><ele>257.5</ele><time>2026-05-03T09:04:33.919Z</time></trkpt><trkpt lat="37.174912802855495" lon="14.122938923186489"><ele>254.0</ele><time>2026-05-03T09:04:34.919Z</time></trkpt><trkpt lat="37.17482971992211" lon="14.122916852822293"><ele>250.5</ele><time>2026-05-03T09:04:35.919Z</time></trkpt><trkpt lat="37.174722548714065" lon="14.122949437678432"><ele>247.0</ele><time>2026-05-03T09:04:37.919Z</time></trkpt><trkpt lat="37.174646230150884" lon="14.12299568543066"><ele>243.5</ele><time>2026-05-03T09:04:39.918Z</time></trkpt><trkpt lat="37.17456462533736" lon="14.122984148736842"><ele>240.0</ele><time>2026-05-03T09:04:42.918Z</time></trkpt><trkpt lat="37.17456986967897" lon="14.122868272818515"><ele>236.2</ele><time>2026-05-03T09:04:44.918Z</time></trkpt><trkpt lat="37.17465566379447" lon="14.122759547334375"><ele>232.4</ele><time>2026-05-03T09:04:46.918Z</time></trkpt><trkpt lat="37.17471137914987" lon="14.12270212362902"><ele>228.60000000000002</ele><time>2026-05-03T09:04:47.918Z</time></trkpt><trkpt lat="37.17476227699566" lon="14.122586971756355"><ele>224.8</ele><time>2026-05-03T09:04:49.918Z</time></trkpt><trkpt lat="37.1747975089083" lon="14.122487202689276"><ele>221.0</ele><time>2026-05-03T09:04:51.918Z</time></trkpt><trkpt lat="37.174878696546244" lon="14.122384166024105"><ele>220.60000000000002</ele><time>2026-05-03T09:04:53.918Z</time></trkpt><trkpt lat="37.17497460487094" lon="14.122330272288611"><ele>220.20000000000002</ele><time>2026-05-03T09:04:55.918Z</time></trkpt><trkpt lat="37.17505453341408" lon="14.122327772071708"><ele>219.79999999999998</ele><time>2026-05-03T09:04:57.918Z</time></trkpt><trkpt lat="37.17515616522009" lon="14.122346326411563"><ele>219.39999999999998</ele><time>2026-05-03T09:04:59.918Z</time></trkpt><trkpt lat="37.17526052281683" lon="14.122425600497072"><ele>219.0</ele><time>2026-05-03T09:05:01.918Z</time></trkpt><trkpt lat="37.17539408800759" lon="14.122462574484608"><ele>220.6</ele><time>2026-05-03T09:05:03.918Z</time></trkpt><trkpt lat="37.17551027913695" lon="14.12248392172358"><ele>222.2</ele><time>2026-05-03T09:05:05.918Z</time></trkpt><trkpt lat="37.175577721701586" lon="14.122522428475277"><ele>223.79999999999998</ele><time>2026-05-03T09:05:06.918Z</time></trkpt><trkpt lat="37.17565103638392" lon="14.12260044160936"><ele>225.39999999999998</ele><time>2026-05-03T09:05:07.918Z</time></trkpt><trkpt lat="37.17571997725772" lon="14.122678312556124"><ele>227.0</ele><time>2026-05-03T09:05:08.918Z</time></trkpt><trkpt lat="37.17578740620716" lon="14.122747522275862"><ele>227.0</ele><time>2026-05-03T09:05:09.918Z</time></trkpt><trkpt lat="37.17583637228958" lon="14.122820383760079"><ele>227.0</ele><time>2026-05-03T09:05:10.918Z</time></trkpt><trkpt lat="37.17589216167107" lon="14.122886663810943"><ele>227.0</ele><time>2026-05-03T09:05:11.918Z</time></trkpt><trkpt lat="37.17593379563087" lon="14.122973774922936"><ele>227.0</ele><time>2026-05-03T09:05:12.918Z</time></trkpt><trkpt lat="37.17599453951476" lon="14.123077701463531"><ele>227.0</ele><time>2026-05-03T09:05:13.918Z</time></trkpt><trkpt lat="37.1760513938363" lon="14.123208341213163"><ele>229.39999999999998</ele><time>2026-05-03T09:05:14.918Z</time></trkpt><trkpt lat="37.17609560676582" lon="14.123300850600033"><ele>231.79999999999998</ele><time>2026-05-03T09:05:15.918Z</time></trkpt><trkpt lat="37.17611653430524" lon="14.123384996012247"><ele>234.2</ele><time>2026-05-03T09:05:16.918Z</time></trkpt><trkpt lat="37.17614438586347" lon="14.123459673236264"><ele>236.6</ele><time>2026-05-03T09:05:17.917Z</time></trkpt><trkpt lat="37.176197174126244" lon="14.123522236140243"><ele>239.0</ele><time>2026-05-03T09:05:19.917Z</time></trkpt><trkpt lat="37.1762869604115" lon="14.123265757625205"><ele>236.6</ele><time>2026-05-03T09:05:27.917Z</time></trkpt><trkpt lat="37.17630845011279" lon="14.12315558367519"><ele>234.2</ele><time>2026-05-03T09:05:28.917Z</time></trkpt><trkpt lat="37.1763344197839" lon="14.123071825225688"><ele>231.79999999999998</ele><time>2026-05-03T09:05:29.917Z</time></trkpt><trkpt lat="37.17639895631802" lon="14.12289013325228"><ele>229.39999999999998</ele><time>2026-05-03T09:05:31.917Z</time></trkpt><trkpt lat="37.17643980532173" lon="14.122788302339162"><ele>227.0</ele><time>2026-05-03T09:05:32.917Z</time></trkpt><trkpt lat="37.17646922182798" lon="14.122694581120527"><ele>227.00000000000003</ele><time>2026-05-03T09:05:33.917Z</time></trkpt><trkpt lat="37.176489946132136" lon="14.122616717558701"><ele>227.0</ele><time>2026-05-03T09:05:34.917Z</time></trkpt><trkpt lat="37.17649940506618" lon="14.122499926889486"><ele>227.0</ele><time>2026-05-03T09:05:36.917Z</time></trkpt><trkpt lat="37.17646334702573" lon="14.122375418330769"><ele>227.0</ele><time>2026-05-03T09:05:38.917Z</time></trkpt><trkpt lat="37.17642442681081" lon="14.122308898648031"><ele>227.00000000000003</ele><time>2026-05-03T09:05:39.917Z</time></trkpt><trkpt lat="37.17636223344244" lon="14.12220724899996"><ele>227.0</ele><time>2026-05-03T09:05:40.917Z</time></trkpt><trkpt lat="37.176285894463085" lon="14.122117382263632"><ele>224.00000000000003</ele><time>2026-05-03T09:05:41.917Z</time></trkpt><trkpt lat="37.176245844858116" lon="14.122029460091865"><ele>221.0</ele><time>2026-05-03T09:05:42.918Z</time></trkpt><trkpt lat="37.17622161538599" lon="14.121954274082157"><ele>218.0</ele><time>2026-05-03T09:05:43.918Z</time></trkpt><trkpt lat="37.1762005944164" lon="14.12187493275016"><ele>215.0</ele><time>2026-05-03T09:05:44.918Z</time></trkpt><trkpt lat="37.17615116808527" lon="14.121766426836194"><ele>212.00000000000003</ele><time>2026-05-03T09:05:46.917Z</time></trkpt><trkpt lat="37.1760592701042" lon="14.121698448043407"><ele>209.0</ele><time>2026-05-03T09:05:48.918Z</time></trkpt><trkpt lat="37.17599911485541" lon="14.121669374694953"><ele>209.0</ele><time>2026-05-03T09:05:49.918Z</time></trkpt><trkpt lat="37.17591514735805" lon="14.12163943471082"><ele>209.0</ele><time>2026-05-03T09:05:50.918Z</time></trkpt><trkpt lat="37.17583598066318" lon="14.121603042677329"><ele>209.0</ele><time>2026-05-03T09:05:51.918Z</time></trkpt><trkpt lat="37.175768688566116" lon="14.121561987612314"><ele>209.0</ele><time>2026-05-03T09:05:52.918Z</time></trkpt><trkpt lat="37.17567531982349" lon="14.121481635353652"><ele>209.0</ele><time>2026-05-03T09:05:54.918Z</time></trkpt><trkpt lat="37.175577760811905" lon="14.121379811502381"><ele>207.00000000000003</ele><time>2026-05-03T09:05:56.918Z</time></trkpt><trkpt lat="37.1755095138783" lon="14.121312367113413"><ele>205.0</ele><time>2026-05-03T09:05:57.918Z</time></trkpt><trkpt lat="37.175458591356794" lon="14.121217287514995"><ele>203.0</ele><time>2026-05-03T09:05:58.918Z</time></trkpt><trkpt lat="37.17539514464306" lon="14.121121589383772"><ele>201.0</ele><time>2026-05-03T09:05:59.918Z</time></trkpt><trkpt lat="37.175342382738215" lon="14.121032024058048"><ele>199.00000000000003</ele><time>2026-05-03T09:06:00.918Z</time></trkpt><trkpt lat="37.17530287776093" lon="14.120960190534252"><ele>197.0</ele><time>2026-05-03T09:06:01.918Z</time></trkpt><trkpt lat="37.175252897729536" lon="14.120875478089493"><ele>197.00000000000003</ele><time>2026-05-03T09:06:02.918Z</time></trkpt><trkpt lat="37.175198233947285" lon="14.120813777518192"><ele>197.0</ele><time>2026-05-03T09:06:03.918Z</time></trkpt><trkpt lat="37.17515003235413" lon="14.120742148770198"><ele>197.0</ele><time>2026-05-03T09:06:04.918Z</time></trkpt><trkpt lat="37.175107692164495" lon="14.120674071239975"><ele>197.0</ele><time>2026-05-03T09:06:05.918Z</time></trkpt><trkpt lat="37.175072178952135" lon="14.120606430942214"><ele>197.00000000000003</ele><time>2026-05-03T09:06:06.918Z</time></trkpt><trkpt lat="37.174992383934715" lon="14.120490716232329"><ele>197.0</ele><time>2026-05-03T09:06:08.918Z</time></trkpt><trkpt lat="37.174948127907285" lon="14.120431631079764"><ele>193.83333333333334</ele><time>2026-05-03T09:06:09.918Z</time></trkpt><trkpt lat="37.17489466037371" lon="14.120379638462722"><ele>190.66666666666669</ele><time>2026-05-03T09:06:10.918Z</time></trkpt><trkpt lat="37.17483954992626" lon="14.120340098498156"><ele>187.5</ele><time>2026-05-03T09:06:11.918Z</time></trkpt><trkpt lat="37.174745893900436" lon="14.120277841760128"><ele>184.33333333333334</ele><time>2026-05-03T09:06:13.918Z</time></trkpt><trkpt lat="37.17468923145432" lon="14.120211768448168"><ele>181.16666666666669</ele><time>2026-05-03T09:06:15.917Z</time></trkpt><trkpt lat="37.17462526385572" lon="14.12015012908618"><ele>178.0</ele><time>2026-05-03T09:06:17.917Z</time></trkpt><trkpt lat="37.17463154663385" lon="14.120058275239131"><ele>177.99999999999997</ele><time>2026-05-03T09:06:19.917Z</time></trkpt><trkpt lat="37.1746791235372" lon="14.119996433077723"><ele>178.0</ele><time>2026-05-03T09:06:21.917Z</time></trkpt><trkpt lat="37.17474137166226" lon="14.119982937769167"><ele>178.0</ele><time>2026-05-03T09:06:23.917Z</time></trkpt><trkpt lat="37.17483951228511" lon="14.119954475683649"><ele>178.0</ele><time>2026-05-03T09:06:25.917Z</time></trkpt><trkpt lat="37.174915481092356" lon="14.119948471005523"><ele>178.0</ele><time>2026-05-03T09:06:27.917Z</time></trkpt><trkpt lat="37.174983097212035" lon="14.119941445849925"><ele>177.99999999999997</ele><time>2026-05-03T09:06:30.917Z</time></trkpt><trkpt lat="37.17504087463355" lon="14.119899007193727"><ele>178.0</ele><time>2026-05-03T09:06:33.917Z</time></trkpt><trkpt lat="37.17498748522709" lon="14.119822181618979"><ele>175.66666666666669</ele><time>2026-05-03T09:06:37.917Z</time></trkpt><trkpt lat="37.1748904559561" lon="14.119770104846246"><ele>173.33333333333334</ele><time>2026-05-03T09:06:39.917Z</time></trkpt><trkpt lat="37.17481574430414" lon="14.119720526894017"><ele>171.0</ele><time>2026-05-03T09:06:40.917Z</time></trkpt><trkpt lat="37.17474146412104" lon="14.119660841153959"><ele>168.66666666666666</ele><time>2026-05-03T09:06:41.917Z</time></trkpt><trkpt lat="37.174681660629204" lon="14.11962150337169"><ele>166.33333333333331</ele><time>2026-05-03T09:06:42.917Z</time></trkpt><trkpt lat="37.17461068506902" lon="14.1195704682116"><ele>164.0</ele><time>2026-05-03T09:06:43.917Z</time></trkpt><trkpt lat="37.17453355013207" lon="14.119526046780049"><ele>164.0</ele><time>2026-05-03T09:06:44.917Z</time></trkpt><trkpt lat="37.174461786577346" lon="14.119477655988359"><ele>164.0</ele><time>2026-05-03T09:06:45.917Z</time></trkpt><trkpt lat="37.17438949608517" lon="14.119439539317368"><ele>164.0</ele><time>2026-05-03T09:06:46.917Z</time></trkpt><trkpt lat="37.17431340312083" lon="14.119395963375448"><ele>164.0</ele><time>2026-05-03T09:06:47.917Z</time></trkpt><trkpt lat="37.17424434753022" lon="14.11934980470762"><ele>164.0</ele><time>2026-05-03T09:06:48.917Z</time></trkpt><trkpt lat="37.17417717808054" lon="14.119298918000739"><ele>164.0</ele><time>2026-05-03T09:06:49.917Z</time></trkpt><trkpt lat="37.1741048740962" lon="14.119245429720003"><ele>164.0</ele><time>2026-05-03T09:06:50.917Z</time></trkpt><trkpt lat="37.17403128522357" lon="14.11920600793522"><ele>164.0</ele><time>2026-05-03T09:06:51.917Z</time></trkpt><trkpt lat="37.17397092083403" lon="14.11916912580603"><ele>164.0</ele><time>2026-05-03T09:06:52.917Z</time></trkpt><trkpt lat="37.173912947468295" lon="14.119125496820223"><ele>164.0</ele><time>2026-05-03T09:06:53.917Z</time></trkpt><trkpt lat="37.173837043575695" lon="14.119037201181301"><ele>164.0</ele><time>2026-05-03T09:06:55.916Z</time></trkpt><trkpt lat="37.173774866419" lon="14.118959488232946"><ele>164.0</ele><time>2026-05-03T09:06:57.916Z</time></trkpt><trkpt lat="37.173708908043984" lon="14.118882366539296"><ele>160.39999999999998</ele><time>2026-05-03T09:06:59.916Z</time></trkpt><trkpt lat="37.173639594898326" lon="14.118780155619271"><ele>156.79999999999998</ele><time>2026-05-03T09:07:01.916Z</time></trkpt><trkpt lat="37.173574522475015" lon="14.118661284359886"><ele>153.2</ele><time>2026-05-03T09:07:03.916Z</time></trkpt><trkpt lat="37.173543878198274" lon="14.11851789552734"><ele>149.6</ele><time>2026-05-03T09:07:05.916Z</time></trkpt><trkpt lat="37.17352405175778" lon="14.118422987924909"><ele>146.0</ele><time>2026-05-03T09:07:07.916Z</time></trkpt><trkpt lat="37.17350308171502" lon="14.1183135839184"><ele>146.0</ele><time>2026-05-03T09:07:10.916Z</time></trkpt><trkpt lat="37.17347125344877" lon="14.11824335344407"><ele>146.0</ele><time>2026-05-03T09:07:12.916Z</time></trkpt><trkpt lat="37.17342564909576" lon="14.118148190112988"><ele>146.0</ele><time>2026-05-03T09:07:15.916Z</time></trkpt><trkpt lat="37.17339314026374" lon="14.118079217074326"><ele>146.0</ele><time>2026-05-03T09:07:17.916Z</time></trkpt><trkpt lat="37.17336401821488" lon="14.118009092835328"><ele>146.0</ele><time>2026-05-03T09:07:19.916Z</time></trkpt><trkpt lat="37.17333258277938" lon="14.117936187978518"><ele>146.0</ele><time>2026-05-03T09:07:21.916Z</time></trkpt><trkpt lat="37.17330947875403" lon="14.117847309087868"><ele>146.0</ele><time>2026-05-03T09:07:23.916Z</time></trkpt><trkpt lat="37.17327287324671" lon="14.117745005000877"><ele>143.2</ele><time>2026-05-03T09:07:26.916Z</time></trkpt><trkpt lat="37.17320505875036" lon="14.117731981381548"><ele>140.39999999999998</ele><time>2026-05-03T09:07:28.916Z</time></trkpt><trkpt lat="37.17315678973762" lon="14.117832532392024"><ele>137.6</ele><time>2026-05-03T09:07:31.916Z</time></trkpt><trkpt lat="37.17313813945219" lon="14.117980856897903"><ele>134.79999999999998</ele><time>2026-05-03T09:07:33.915Z</time></trkpt><trkpt lat="37.17313197597441" lon="14.118119943651362"><ele>132.0</ele><time>2026-05-03T09:07:35.915Z</time></trkpt><trkpt lat="37.1731256967352" lon="14.118255990605645"><ele>131.0</ele><time>2026-05-03T09:07:37.915Z</time></trkpt><trkpt lat="37.173095835643984" lon="14.118409238720403"><ele>130.0</ele><time>2026-05-03T09:07:39.915Z</time></trkpt><trkpt lat="37.173048312382306" lon="14.118558859333012"><ele>129.0</ele><time>2026-05-03T09:07:41.915Z</time></trkpt><trkpt lat="37.17299915195629" lon="14.1187191904491"><ele>128.0</ele><time>2026-05-03T09:07:43.915Z</time></trkpt><trkpt lat="37.17296641251716" lon="14.118804655740147"><ele>127.99999999999999</ele><time>2026-05-03T09:07:44.915Z</time></trkpt><trkpt lat="37.17293928710826" lon="14.11889626793271"><ele>128.0</ele><time>2026-05-03T09:07:45.915Z</time></trkpt><trkpt lat="37.17291581124658" lon="14.118977491781578"><ele>128.0</ele><time>2026-05-03T09:07:46.915Z</time></trkpt><trkpt lat="37.17288347164569" lon="14.119058723867411"><ele>128.0</ele><time>2026-05-03T09:07:47.915Z</time></trkpt><trkpt lat="37.172859260458694" lon="14.119134398705437"><ele>127.99999999999999</ele><time>2026-05-03T09:07:48.916Z</time></trkpt><trkpt lat="37.17281938680882" lon="14.119243311915445"><ele>128.0</ele><time>2026-05-03T09:07:50.915Z</time></trkpt><trkpt lat="37.172801683552535" lon="14.119342521807138"><ele>127.80000000000001</ele><time>2026-05-03T09:07:52.915Z</time></trkpt><trkpt lat="37.172839282082" lon="14.119432243188708"><ele>127.60000000000001</ele><time>2026-05-03T09:07:54.915Z</time></trkpt><trkpt lat="37.17286947885818" lon="14.119502629253953"><ele>127.39999999999999</ele><time>2026-05-03T09:07:55.915Z</time></trkpt><trkpt lat="37.17293189584781" lon="14.119633711814064"><ele>127.19999999999999</ele><time>2026-05-03T09:07:57.915Z</time></trkpt><trkpt lat="37.17299862936205" lon="14.119758574510225"><ele>127.0</ele><time>2026-05-03T09:07:59.915Z</time></trkpt><trkpt lat="37.173051758903306" lon="14.119875032203273"><ele>128.4</ele><time>2026-05-03T09:08:01.915Z</time></trkpt><trkpt lat="37.173081471975856" lon="14.119971812427405"><ele>129.79999999999998</ele><time>2026-05-03T09:08:03.915Z</time></trkpt><trkpt lat="37.173063395335625" lon="14.120071719928807"><ele>131.2</ele><time>2026-05-03T09:08:05.915Z</time></trkpt><trkpt lat="37.173000276290395" lon="14.120138964408946"><ele>132.6</ele><time>2026-05-03T09:08:07.915Z</time></trkpt><trkpt lat="37.172905110789664" lon="14.120204452377957"><ele>134.0</ele><time>2026-05-03T09:08:09.915Z</time></trkpt><trkpt lat="37.17281031440869" lon="14.120310878669144"><ele>134.0</ele><time>2026-05-03T09:08:11.915Z</time></trkpt><trkpt lat="37.172763752564876" lon="14.120381015995383"><ele>134.0</ele><time>2026-05-03T09:08:12.915Z</time></trkpt><trkpt lat="37.1727121795605" lon="14.120449000881544"><ele>134.0</ele><time>2026-05-03T09:08:13.915Z</time></trkpt><trkpt lat="37.17265196782737" lon="14.120561593769184"><ele>134.0</ele><time>2026-05-03T09:08:15.914Z</time></trkpt><trkpt lat="37.17259414786066" lon="14.120691601547229"><ele>134.0</ele><time>2026-05-03T09:08:17.914Z</time></trkpt><trkpt lat="37.17254631100757" lon="14.120750947369467"><ele>134.0</ele><time>2026-05-03T09:08:18.914Z</time></trkpt><trkpt lat="37.17249795232791" lon="14.120813173053019"><ele>134.6</ele><time>2026-05-03T09:08:19.914Z</time></trkpt><trkpt lat="37.17244358283746" lon="14.120877551261104"><ele>135.2</ele><time>2026-05-03T09:08:20.914Z</time></trkpt><trkpt lat="37.17238795024557" lon="14.120939371760393"><ele>135.79999999999998</ele><time>2026-05-03T09:08:21.914Z</time></trkpt><trkpt lat="37.172308906789006" lon="14.121047572750467"><ele>136.4</ele><time>2026-05-03T09:08:23.914Z</time></trkpt><trkpt lat="37.17229045479771" lon="14.121179637237606"><ele>137.0</ele><time>2026-05-03T09:08:25.914Z</time></trkpt><trkpt lat="37.172279190015296" lon="14.121320605302351"><ele>137.0</ele><time>2026-05-03T09:08:27.914Z</time></trkpt><trkpt lat="37.172236017108155" lon="14.121419791427542"><ele>137.0</ele><time>2026-05-03T09:08:29.914Z</time></trkpt><trkpt lat="37.17214199265447" lon="14.121457024479335"><ele>137.0</ele><time>2026-05-03T09:08:31.914Z</time></trkpt><trkpt lat="37.1720751808826" lon="14.121457295012279"><ele>137.0</ele><time>2026-05-03T09:08:32.914Z</time></trkpt><trkpt lat="37.171967235353264" lon="14.121504452784553"><ele>137.0</ele><time>2026-05-03T09:08:34.914Z</time></trkpt><trkpt lat="37.171902413518524" lon="14.12162398423897"><ele>139.6</ele><time>2026-05-03T09:08:36.914Z</time></trkpt><trkpt lat="37.17187992275307" lon="14.12172297772487"><ele>142.2</ele><time>2026-05-03T09:08:37.914Z</time></trkpt><trkpt lat="37.17186342143477" lon="14.121840097877724"><ele>144.8</ele><time>2026-05-03T09:08:38.914Z</time></trkpt><trkpt lat="37.1718397156611" lon="14.121937101798608"><ele>147.4</ele><time>2026-05-03T09:08:39.914Z</time></trkpt><trkpt lat="37.1718104557268" lon="14.12205967087114"><ele>150.0</ele><time>2026-05-03T09:08:41.914Z</time></trkpt><trkpt lat="37.17175446802688" lon="14.122173100866105"><ele>150.0</ele><time>2026-05-03T09:08:43.914Z</time></trkpt><trkpt lat="37.1717207306751" lon="14.122286526342585"><ele>150.0</ele><time>2026-05-03T09:08:45.914Z</time></trkpt><trkpt lat="37.171684464345056" lon="14.122417994466023"><ele>150.0</ele><time>2026-05-03T09:08:47.914Z</time></trkpt><trkpt lat="37.17165764199153" lon="14.12251004048945"><ele>150.0</ele><time>2026-05-03T09:08:49.914Z</time></trkpt><trkpt lat="37.17162994092124" lon="14.122593340543078"><ele>150.0</ele><time>2026-05-03T09:08:53.914Z</time></trkpt><trkpt lat="37.17159625017271" lon="14.122665337433494"><ele>150.0</ele><time>2026-05-03T09:08:56.913Z</time></trkpt><trkpt lat="37.17154539732619" lon="14.122748185852688"><ele>150.33333333333334</ele><time>2026-05-03T09:09:00.913Z</time></trkpt><trkpt lat="37.171481081797445" lon="14.12280448608686"><ele>150.66666666666666</ele><time>2026-05-03T09:09:03.913Z</time></trkpt><trkpt lat="37.17142036331842" lon="14.12284873824695"><ele>151.0</ele><time>2026-05-03T09:09:05.913Z</time></trkpt><trkpt lat="37.171349257540946" lon="14.12288326764477"><ele>151.33333333333331</ele><time>2026-05-03T09:09:08.913Z</time></trkpt><trkpt lat="37.171258419026884" lon="14.122932707100166"><ele>151.66666666666666</ele><time>2026-05-03T09:09:11.913Z</time></trkpt><trkpt lat="37.171179139162064" lon="14.122953371143296"><ele>152.0</ele><time>2026-05-03T09:09:13.913Z</time></trkpt><trkpt lat="37.17110168461267" lon="14.122976650235254"><ele>152.0</ele><time>2026-05-03T09:09:15.913Z</time></trkpt><trkpt lat="37.171011132851554" lon="14.122977265099786"><ele>152.0</ele><time>2026-05-03T09:09:17.913Z</time></trkpt><trkpt lat="37.17092677908138" lon="14.122979922387444"><ele>152.0</ele><time>2026-05-03T09:09:19.913Z</time></trkpt><trkpt lat="37.17085094925344" lon="14.123005817480038"><ele>152.0</ele><time>2026-05-03T09:09:21.913Z</time></trkpt><trkpt lat="37.17079440205857" lon="14.123061109934369"><ele>152.0</ele><time>2026-05-03T09:09:23.913Z</time></trkpt><trkpt lat="37.170747972943445" lon="14.12312572262851"><ele>152.0</ele><time>2026-05-03T09:09:25.913Z</time></trkpt><trkpt lat="37.17069011318439" lon="14.12317715114493"><ele>154.0</ele><time>2026-05-03T09:09:27.913Z</time></trkpt><trkpt lat="37.170622256593106" lon="14.123233558066275"><ele>156.0</ele><time>2026-05-03T09:09:29.913Z</time></trkpt><trkpt lat="37.17054752525581" lon="14.123274966127097"><ele>158.0</ele><time>2026-05-03T09:09:31.913Z</time></trkpt><trkpt lat="37.17046483287804" lon="14.123282319140273"><ele>160.0</ele><time>2026-05-03T09:09:33.912Z</time></trkpt><trkpt lat="37.17039853667118" lon="14.123287086397262"><ele>162.0</ele><time>2026-05-03T09:09:35.912Z</time></trkpt><trkpt lat="37.170325766436335" lon="14.12334035133268"><ele>164.0</ele><time>2026-05-03T09:09:37.912Z</time></trkpt><trkpt lat="37.17027926541926" lon="14.123428056868223"><ele>164.0</ele><time>2026-05-03T09:09:39.912Z</time></trkpt><trkpt lat="37.17022683540797" lon="14.1235317339316"><ele>164.0</ele><time>2026-05-03T09:09:41.912Z</time></trkpt><trkpt lat="37.170167325353844" lon="14.123638795719302"><ele>164.0</ele><time>2026-05-03T09:09:43.912Z</time></trkpt><trkpt lat="37.17008367619591" lon="14.123735409690932"><ele>164.0</ele><time>2026-05-03T09:09:45.912Z</time></trkpt><trkpt lat="37.17001966893917" lon="14.12381936141771"><ele>164.0</ele><time>2026-05-03T09:09:47.912Z</time></trkpt><trkpt lat="37.169937200701405" lon="14.123900490533192"><ele>164.0</ele><time>2026-05-03T09:09:49.912Z</time></trkpt><trkpt lat="37.169879058546705" lon="14.123935774802808"><ele>164.0</ele><time>2026-05-03T09:09:50.912Z</time></trkpt><trkpt lat="37.169807550297065" lon="14.123966164141768"><ele>164.0</ele><time>2026-05-03T09:09:51.912Z</time></trkpt><trkpt lat="37.16974533747138" lon="14.124004574350447"><ele>164.0</ele><time>2026-05-03T09:09:52.912Z</time></trkpt><trkpt lat="37.169693289382366" lon="14.124086820624456"><ele>164.0</ele><time>2026-05-03T09:09:55.913Z</time></trkpt><trkpt lat="37.16974082532699" lon="14.124199560346726"><ele>164.0</ele><time>2026-05-03T09:09:58.913Z</time></trkpt><trkpt lat="37.169852870449574" lon="14.124250360393221"><ele>167.2</ele><time>2026-05-03T09:10:00.913Z</time></trkpt><trkpt lat="37.16997409442445" lon="14.12422281346316"><ele>170.39999999999998</ele><time>2026-05-03T09:10:02.913Z</time></trkpt><trkpt lat="37.17005017193819" lon="14.124186823640784"><ele>173.6</ele><time>2026-05-03T09:10:03.913Z</time></trkpt><trkpt lat="37.170126639177276" lon="14.124162555058453"><ele>176.8</ele><time>2026-05-03T09:10:04.912Z</time></trkpt><trkpt lat="37.17021453815356" lon="14.124148025331685"><ele>180.0</ele><time>2026-05-03T09:10:05.912Z</time></trkpt><trkpt lat="37.170303954324716" lon="14.124153751821348"><ele>180.0</ele><time>2026-05-03T09:10:06.913Z</time></trkpt><trkpt lat="37.17038756829584" lon="14.124157238361619"><ele>180.0</ele><time>2026-05-03T09:10:07.913Z</time></trkpt><trkpt lat="37.17047068372461" lon="14.124121047333407"><ele>180.0</ele><time>2026-05-03T09:10:08.913Z</time></trkpt><trkpt lat="37.17056286529428" lon="14.124065629264376"><ele>180.0</ele><time>2026-05-03T09:10:09.913Z</time></trkpt><trkpt lat="37.17065016277478" lon="14.124029481501033"><ele>180.0</ele><time>2026-05-03T09:10:10.913Z</time></trkpt><trkpt lat="37.17072180545388" lon="14.124009614289031"><ele>180.0</ele><time>2026-05-03T09:10:11.913Z</time></trkpt><trkpt lat="37.17078476645715" lon="14.123998794550767"><ele>178.57142857142856</ele><time>2026-05-03T09:10:12.913Z</time></trkpt><trkpt lat="37.17086574961245" lon="14.123991739931288"><ele>177.14285714285717</ele><time>2026-05-03T09:10:13.913Z</time></trkpt><trkpt lat="37.170958638661865" lon="14.12400158404689"><ele>175.71428571428572</ele><time>2026-05-03T09:10:14.913Z</time></trkpt><trkpt lat="37.17103976571122" lon="14.124004243015577"><ele>174.28571428571428</ele><time>2026-05-03T09:10:15.913Z</time></trkpt><trkpt lat="37.17110138191483" lon="14.124022446687123"><ele>172.85714285714283</ele><time>2026-05-03T09:10:16.913Z</time></trkpt><trkpt lat="37.171158859893744" lon="14.124057882554391"><ele>171.42857142857144</ele><time>2026-05-03T09:10:17.913Z</time></trkpt><trkpt lat="37.171221267906084" lon="14.124071543337166"><ele>170.0</ele><time>2026-05-03T09:10:18.913Z</time></trkpt><trkpt lat="37.17131905141567" lon="14.124078946450528"><ele>170.0</ele><time>2026-05-03T09:10:20.913Z</time></trkpt><trkpt lat="37.17137647924899" lon="14.124025770358676"><ele>170.0</ele><time>2026-05-03T09:10:22.913Z</time></trkpt><trkpt lat="37.171399212858255" lon="14.123903911646963"><ele>170.0</ele><time>2026-05-03T09:10:24.912Z</time></trkpt><trkpt lat="37.1714633050212" lon="14.123899423828622"><ele>170.0</ele><time>2026-05-03T09:10:28.912Z</time></trkpt><trkpt lat="37.171471157237164" lon="14.123985845746963"><ele>170.0</ele><time>2026-05-03T09:10:30.912Z</time></trkpt><trkpt lat="37.17147043889358" lon="14.124081743382197"><ele>170.0</ele><time>2026-05-03T09:10:32.912Z</time></trkpt><trkpt lat="37.17142621274707" lon="14.124146822781894"><ele>170.0</ele><time>2026-05-03T09:10:34.912Z</time></trkpt><trkpt lat="37.17133973532266" lon="14.12417104125138"><ele>176.5</ele><time>2026-05-03T09:10:36.912Z</time></trkpt><trkpt lat="37.171216740348264" lon="14.124187031798469"><ele>183.0</ele><time>2026-05-03T09:10:38.912Z</time></trkpt><trkpt lat="37.171109505327316" lon="14.124225545454722"><ele>189.5</ele><time>2026-05-03T09:10:40.912Z</time></trkpt><trkpt lat="37.17102542611064" lon="14.124288617889684"><ele>196.0</ele><time>2026-05-03T09:10:42.912Z</time></trkpt><trkpt lat="37.170931091396774" lon="14.124392047494615"><ele>196.0</ele><time>2026-05-03T09:10:44.912Z</time></trkpt><trkpt lat="37.17085115551496" lon="14.124478847528954"><ele>196.0</ele><time>2026-05-03T09:10:46.912Z</time></trkpt><trkpt lat="37.17077723701424" lon="14.124564845451722"><ele>196.0</ele><time>2026-05-03T09:10:48.912Z</time></trkpt><trkpt lat="37.170717661956154" lon="14.124636132664202"><ele>196.0</ele><time>2026-05-03T09:10:50.912Z</time></trkpt><trkpt lat="37.170692607863835" lon="14.124729148743945"><ele>196.0</ele><time>2026-05-03T09:10:52.912Z</time></trkpt><trkpt lat="37.17068709700172" lon="14.124840456089371"><ele>196.16666666666666</ele><time>2026-05-03T09:10:54.912Z</time></trkpt><trkpt lat="37.170689026780444" lon="14.124929567883306"><ele>196.33333333333331</ele><time>2026-05-03T09:10:56.912Z</time></trkpt><trkpt lat="37.170647603051286" lon="14.125040615726089"><ele>196.5</ele><time>2026-05-03T09:10:59.912Z</time></trkpt><trkpt lat="37.170602593013136" lon="14.125130562441466"><ele>196.66666666666669</ele><time>2026-05-03T09:11:01.912Z</time></trkpt><trkpt lat="37.17054137476346" lon="14.125221943544476"><ele>196.83333333333334</ele><time>2026-05-03T09:11:03.911Z</time></trkpt><trkpt lat="37.17047992026368" lon="14.125316484183115"><ele>197.0</ele><time>2026-05-03T09:11:05.911Z</time></trkpt><trkpt lat="37.170450375258795" lon="14.125417127828278"><ele>197.00000000000003</ele><time>2026-05-03T09:11:07.911Z</time></trkpt><trkpt lat="37.17041390964235" lon="14.125546205143614"><ele>197.0</ele><time>2026-05-03T09:11:09.911Z</time></trkpt><trkpt lat="37.17040620658038" lon="14.125674586974945"><ele>197.0</ele><time>2026-05-03T09:11:11.911Z</time></trkpt><trkpt lat="37.17040182434682" lon="14.125771385192538"><ele>197.0</ele><time>2026-05-03T09:11:13.911Z</time></trkpt><trkpt lat="37.170393153998475" lon="14.125870970106648"><ele>197.00000000000003</ele><time>2026-05-03T09:11:15.911Z</time></trkpt><trkpt lat="37.170381101017576" lon="14.125966199360166"><ele>197.0</ele><time>2026-05-03T09:11:17.911Z</time></trkpt><trkpt lat="37.17032570428225" lon="14.126037418721788"><ele>200.39999999999998</ele><time>2026-05-03T09:11:19.911Z</time></trkpt><trkpt lat="37.17023109673554" lon="14.126080143241191"><ele>203.79999999999998</ele><time>2026-05-03T09:11:21.911Z</time></trkpt><trkpt lat="37.170126604808345" lon="14.12609484682688"><ele>207.2</ele><time>2026-05-03T09:11:23.911Z</time></trkpt><trkpt lat="37.170032469267596" lon="14.126111914425872"><ele>210.6</ele><time>2026-05-03T09:11:25.911Z</time></trkpt><trkpt lat="37.16995936467211" lon="14.126153143742568"><ele>214.0</ele><time>2026-05-03T09:11:27.911Z</time></trkpt><trkpt lat="37.16988922676652" lon="14.126223418882361"><ele>212.66666666666666</ele><time>2026-05-03T09:11:29.911Z</time></trkpt><trkpt lat="37.16982355310712" lon="14.126276996659076"><ele>211.33333333333331</ele><time>2026-05-03T09:11:31.911Z</time></trkpt><trkpt lat="37.1697525126062" lon="14.126341986764995"><ele>210.0</ele><time>2026-05-03T09:11:33.911Z</time></trkpt><trkpt lat="37.16968763586837" lon="14.126402783697552"><ele>208.66666666666669</ele><time>2026-05-03T09:11:35.911Z</time></trkpt><trkpt lat="37.16960448275531" lon="14.126453465576187"><ele>207.33333333333334</ele><time>2026-05-03T09:11:37.911Z</time></trkpt><trkpt lat="37.1695230320418" lon="14.12651349279563"><ele>206.0</ele><time>2026-05-03T09:11:39.911Z</time></trkpt><trkpt lat="37.16944731689027" lon="14.126577234874897"><ele>211.4</ele><time>2026-05-03T09:11:41.91Z</time></trkpt><trkpt lat="37.16936352560974" lon="14.126631741993348"><ele>216.8</ele><time>2026-05-03T09:11:43.91Z</time></trkpt><trkpt lat="37.169262727445165" lon="14.126682626559292"><ele>222.20000000000002</ele><time>2026-05-03T09:11:45.91Z</time></trkpt><trkpt lat="37.16917252971479" lon="14.126717362564952"><ele>227.60000000000002</ele><time>2026-05-03T09:11:47.91Z</time></trkpt><trkpt lat="37.16910072868119" lon="14.126801266949021"><ele>233.0</ele><time>2026-05-03T09:11:49.91Z</time></trkpt><trkpt lat="37.16902452581219" lon="14.12687959292567"><ele>234.8</ele><time>2026-05-03T09:11:51.91Z</time></trkpt><trkpt lat="37.168934633841594" lon="14.126914737444515"><ele>236.60000000000002</ele><time>2026-05-03T09:11:53.91Z</time></trkpt><trkpt lat="37.16883575039539" lon="14.126925823284159"><ele>238.39999999999998</ele><time>2026-05-03T09:11:55.91Z</time></trkpt><trkpt lat="37.16873289349341" lon="14.126923775023297"><ele>240.2</ele><time>2026-05-03T09:11:57.91Z</time></trkpt><trkpt lat="37.16862795654982" lon="14.12692438526174"><ele>242.0</ele><time>2026-05-03T09:11:59.91Z</time></trkpt><trkpt lat="37.16854007872094" lon="14.126952825934898"><ele>242.0</ele><time>2026-05-03T09:12:01.91Z</time></trkpt><trkpt lat="37.16846403912988" lon="14.126995236332775"><ele>242.0</ele><time>2026-05-03T09:12:03.911Z</time></trkpt><trkpt lat="37.16839375795277" lon="14.127072626297421"><ele>242.0</ele><time>2026-05-03T09:12:05.91Z</time></trkpt><trkpt lat="37.168319477736155" lon="14.127137113936616"><ele>242.0</ele><time>2026-05-03T09:12:07.911Z</time></trkpt><trkpt lat="37.168225197470775" lon="14.12717199748459"><ele>242.0</ele><time>2026-05-03T09:12:09.911Z</time></trkpt><trkpt lat="37.1681306972932" lon="14.127159261110672"><ele>246.0</ele><time>2026-05-03T09:12:11.911Z</time></trkpt><trkpt lat="37.16803192318692" lon="14.127154624143003"><ele>250.0</ele><time>2026-05-03T09:12:13.911Z</time></trkpt><trkpt lat="37.167936703635654" lon="14.127119453480676"><ele>254.0</ele><time>2026-05-03T09:12:15.911Z</time></trkpt><trkpt lat="37.167868890705265" lon="14.127024570905435"><ele>258.0</ele><time>2026-05-03T09:12:17.911Z</time></trkpt><trkpt lat="37.16781356432871" lon="14.126909259930734"><ele>262.0</ele><time>2026-05-03T09:12:19.911Z</time></trkpt><trkpt lat="37.167748415350914" lon="14.126810995492255"><ele>262.0</ele><time>2026-05-03T09:12:21.911Z</time></trkpt><trkpt lat="37.16764618062573" lon="14.126725536263258"><ele>262.0</ele><time>2026-05-03T09:12:23.911Z</time></trkpt><trkpt lat="37.16755681123622" lon="14.126681996226685"><ele>262.0</ele><time>2026-05-03T09:12:24.911Z</time></trkpt><trkpt lat="37.167475036770924" lon="14.126657627625496"><ele>262.0</ele><time>2026-05-03T09:12:25.911Z</time></trkpt><trkpt lat="37.16740845696017" lon="14.12662725211167"><ele>262.0</ele><time>2026-05-03T09:12:26.911Z</time></trkpt><trkpt lat="37.1673115134413" lon="14.126547938638149"><ele>260.8</ele><time>2026-05-03T09:12:28.911Z</time></trkpt><trkpt lat="37.16722576004024" lon="14.126518059280443"><ele>259.6</ele><time>2026-05-03T09:12:30.911Z</time></trkpt><trkpt lat="37.16717758998937" lon="14.12639169997677"><ele>258.40000000000003</ele><time>2026-05-03T09:12:32.911Z</time></trkpt><trkpt lat="37.1671132829135" lon="14.126298517554641"><ele>257.2</ele><time>2026-05-03T09:12:34.91Z</time></trkpt><trkpt lat="37.167065947327785" lon="14.126204330613078"><ele>256.0</ele><time>2026-05-03T09:12:36.91Z</time></trkpt><trkpt lat="37.167035942320524" lon="14.126117828690706"><ele>256.0</ele><time>2026-05-03T09:12:38.91Z</time></trkpt><trkpt lat="37.16698215282201" lon="14.12603582173649"><ele>256.0</ele><time>2026-05-03T09:12:40.91Z</time></trkpt><trkpt lat="37.16692343167809" lon="14.125974165041518"><ele>256.0</ele><time>2026-05-03T09:12:42.91Z</time></trkpt><trkpt lat="37.16685671103755" lon="14.125964902808574"><ele>256.0</ele><time>2026-05-03T09:12:44.91Z</time></trkpt><trkpt lat="37.16674316409451" lon="14.125984168208813"><ele>256.0</ele><time>2026-05-03T09:12:46.91Z</time></trkpt><trkpt lat="37.16663633184457" lon="14.125999751837693"><ele>255.99999999999997</ele><time>2026-05-03T09:12:48.91Z</time></trkpt><trkpt lat="37.1665410755501" lon="14.125999417549956"><ele>256.0</ele><time>2026-05-03T09:12:50.91Z</time></trkpt><trkpt lat="37.166432239830925" lon="14.126029229828498"><ele>256.0</ele><time>2026-05-03T09:12:52.91Z</time></trkpt><trkpt lat="37.16634692736092" lon="14.126063234835545"><ele>256.0</ele><time>2026-05-03T09:12:54.91Z</time></trkpt><trkpt lat="37.166283470092594" lon="14.126084970655878"><ele>255.99999999999997</ele><time>2026-05-03T09:12:57.91Z</time></trkpt><trkpt lat="37.16622505476292" lon="14.126145993191141"><ele>256.0</ele><time>2026-05-03T09:13:00.91Z</time></trkpt><trkpt lat="37.16616260263566" lon="14.126204506341338"><ele>254.7142857142857</ele><time>2026-05-03T09:13:02.91Z</time></trkpt><trkpt lat="37.16609096849075" lon="14.12623385269423"><ele>253.4285714285714</ele><time>2026-05-03T09:13:04.91Z</time></trkpt><trkpt lat="37.1660199859093" lon="14.126241676400545"><ele>252.14285714285714</ele><time>2026-05-03T09:13:07.91Z</time></trkpt><trkpt lat="37.16596005223341" lon="14.126196472021213"><ele>250.85714285714283</ele><time>2026-05-03T09:13:11.91Z</time></trkpt><trkpt lat="37.16590370550284" lon="14.126126221159648"><ele>249.57142857142856</ele><time>2026-05-03T09:13:16.909Z</time></trkpt><trkpt lat="37.16584649459241" lon="14.126086475953345"><ele>248.28571428571428</ele><time>2026-05-03T09:13:19.909Z</time></trkpt><trkpt lat="37.16579188669266" lon="14.126012408106195"><ele>247.0</ele><time>2026-05-03T09:13:22.909Z</time></trkpt><trkpt lat="37.1657503778118" lon="14.125924778847457"><ele>247.0</ele><time>2026-05-03T09:13:25.909Z</time></trkpt><trkpt lat="37.16570889134835" lon="14.125833050213442"><ele>247.0</ele><time>2026-05-03T09:13:28.909Z</time></trkpt><trkpt lat="37.16567137275641" lon="14.125769427025071"><ele>247.0</ele><time>2026-05-03T09:13:30.909Z</time></trkpt><trkpt lat="37.16562999212284" lon="14.125708236180115"><ele>247.0</ele><time>2026-05-03T09:13:32.909Z</time></trkpt><trkpt lat="37.16557759849046" lon="14.125664123555602"><ele>247.0</ele><time>2026-05-03T09:13:34.909Z</time></trkpt><trkpt lat="37.165519877540994" lon="14.125626416233523"><ele>247.0</ele><time>2026-05-03T09:13:36.909Z</time></trkpt><trkpt lat="37.16546184620393" lon="14.125545296025976"><ele>247.0</ele><time>2026-05-03T09:13:39.909Z</time></trkpt><trkpt lat="37.165393858345794" lon="14.125484834648788"><ele>245.28571428571428</ele><time>2026-05-03T09:13:42.909Z</time></trkpt><trkpt lat="37.16532840126846" lon="14.125427830359074"><ele>243.57142857142856</ele><time>2026-05-03T09:13:45.909Z</time></trkpt><trkpt lat="37.1652678391489" lon="14.125377060135257"><ele>241.85714285714283</ele><time>2026-05-03T09:13:49.909Z</time></trkpt><trkpt lat="37.16521053364301" lon="14.12533374134732"><ele>240.14285714285714</ele><time>2026-05-03T09:13:53.908Z</time></trkpt><trkpt lat="37.16515658047667" lon="14.125291777524355"><ele>238.4285714285714</ele><time>2026-05-03T09:13:56.908Z</time></trkpt><trkpt lat="37.1650976814052" lon="14.125219178020846"><ele>236.7142857142857</ele><time>2026-05-03T09:14:01.908Z</time></trkpt><trkpt lat="37.1650438894992" lon="14.125146389219584"><ele>235.0</ele><time>2026-05-03T09:14:04.908Z</time></trkpt><trkpt lat="37.16499770644691" lon="14.125077549166006"><ele>234.99999999999997</ele><time>2026-05-03T09:14:07.909Z</time></trkpt><trkpt lat="37.16495219834169" lon="14.12499622065524"><ele>235.0</ele><time>2026-05-03T09:14:11.909Z</time></trkpt><trkpt lat="37.16491600447995" lon="14.12491033342934"><ele>235.0</ele><time>2026-05-03T09:14:15.908Z</time></trkpt><trkpt lat="37.164881600554956" lon="14.124806946943878"><ele>235.0</ele><time>2026-05-03T09:14:19.908Z</time></trkpt><trkpt lat="37.16484438317387" lon="14.124727953579969"><ele>234.99999999999997</ele><time>2026-05-03T09:14:22.908Z</time></trkpt><trkpt lat="37.16482120338594" lon="14.124643142884251"><ele>235.0</ele><time>2026-05-03T09:14:25.908Z</time></trkpt><trkpt lat="37.164794868630146" lon="14.124553586291805"><ele>232.42857142857142</ele><time>2026-05-03T09:14:28.908Z</time></trkpt><trkpt lat="37.164758791271694" lon="14.124476249248747"><ele>229.85714285714283</ele><time>2026-05-03T09:14:31.908Z</time></trkpt><trkpt lat="37.16471485301128" lon="14.124400250176201"><ele>227.28571428571428</ele><time>2026-05-03T09:14:34.908Z</time></trkpt><trkpt lat="37.1646812241422" lon="14.12431492534296"><ele>224.71428571428572</ele><time>2026-05-03T09:14:37.908Z</time></trkpt><trkpt lat="37.16463714520253" lon="14.124230008311647"><ele>222.14285714285714</ele><time>2026-05-03T09:14:40.908Z</time></trkpt><trkpt lat="37.16459183500752" lon="14.124170791310306"><ele>219.57142857142856</ele><time>2026-05-03T09:14:43.908Z</time></trkpt><trkpt lat="37.16452134608601" lon="14.124141887313325"><ele>217.0</ele><time>2026-05-03T09:14:47.907Z</time></trkpt><trkpt lat="37.164437033270914" lon="14.124105733228001"><ele>216.99999999999997</ele><time>2026-05-03T09:14:51.907Z</time></trkpt><trkpt lat="37.164373432497555" lon="14.12406737788475"><ele>217.0</ele><time>2026-05-03T09:14:53.907Z</time></trkpt><trkpt lat="37.164290457838426" lon="14.124027693179814"><ele>217.0</ele><time>2026-05-03T09:14:56.907Z</time></trkpt><trkpt lat="37.16420565761552" lon="14.123992612873133"><ele>217.0</ele><time>2026-05-03T09:15:00.907Z</time></trkpt><trkpt lat="37.16412614040218" lon="14.123989763389236"><ele>216.99999999999997</ele><time>2026-05-03T09:15:04.907Z</time></trkpt><trkpt lat="37.164037920182864" lon="14.123998281722189"><ele>217.0</ele><time>2026-05-03T09:15:07.907Z</time></trkpt><trkpt lat="37.16395268989962" lon="14.123998020881041"><ele>215.33333333333331</ele><time>2026-05-03T09:15:10.907Z</time></trkpt><trkpt lat="37.16386502082466" lon="14.12401066140689"><ele>213.66666666666666</ele><time>2026-05-03T09:15:13.907Z</time></trkpt><trkpt lat="37.16377998452669" lon="14.124044500518549"><ele>212.0</ele><time>2026-05-03T09:15:16.907Z</time></trkpt><trkpt lat="37.16371918700225" lon="14.124070505046435"><ele>210.33333333333331</ele><time>2026-05-03T09:15:18.907Z</time></trkpt><trkpt lat="37.16366017236941" lon="14.12410143894714"><ele>208.66666666666666</ele><time>2026-05-03T09:15:20.907Z</time></trkpt><trkpt lat="37.16360835514424" lon="14.124154713650455"><ele>207.0</ele><time>2026-05-03T09:15:22.907Z</time></trkpt><trkpt lat="37.16354622453077" lon="14.124231536272326"><ele>206.5</ele><time>2026-05-03T09:15:25.907Z</time></trkpt><trkpt lat="37.16349663995865" lon="14.124283247239603"><ele>206.0</ele><time>2026-05-03T09:15:27.906Z</time></trkpt><trkpt lat="37.16342021925994" lon="14.124350095129254"><ele>205.5</ele><time>2026-05-03T09:15:30.906Z</time></trkpt><trkpt lat="37.16334593566337" lon="14.124381555829986"><ele>205.0</ele><time>2026-05-03T09:15:33.906Z</time></trkpt><trkpt lat="37.16326783366167" lon="14.124419797708944"><ele>204.5</ele><time>2026-05-03T09:15:36.906Z</time></trkpt><trkpt lat="37.16319384184641" lon="14.124438380744689"><ele>204.0</ele><time>2026-05-03T09:15:38.906Z</time></trkpt><trkpt lat="37.16311395176101" lon="14.124455892664592"><ele>202.42857142857144</ele><time>2026-05-03T09:15:40.906Z</time></trkpt><trkpt lat="37.16304433436456" lon="14.124479663061674"><ele>200.85714285714286</ele><time>2026-05-03T09:15:43.906Z</time></trkpt><trkpt lat="37.16297250678517" lon="14.124460817014551"><ele>199.28571428571428</ele><time>2026-05-03T09:15:46.906Z</time></trkpt><trkpt lat="37.162907394344394" lon="14.12445313129254"><ele>197.71428571428572</ele><time>2026-05-03T09:15:48.906Z</time></trkpt><trkpt lat="37.16282144599166" lon="14.12445296522885"><ele>196.14285714285714</ele><time>2026-05-03T09:15:50.906Z</time></trkpt><trkpt lat="37.16275704685667" lon="14.124463779765613"><ele>194.57142857142858</ele><time>2026-05-03T09:15:51.906Z</time></trkpt><trkpt lat="37.16267860480478" lon="14.124486212970641"><ele>193.0</ele><time>2026-05-03T09:15:52.906Z</time></trkpt><trkpt lat="37.16261646211204" lon="14.124511734607289"><ele>192.99999999999997</ele><time>2026-05-03T09:15:53.906Z</time></trkpt><trkpt lat="37.16252175230285" lon="14.124559879533203"><ele>193.0</ele><time>2026-05-03T09:15:55.906Z</time></trkpt><trkpt lat="37.162431289759915" lon="14.124618373901777"><ele>193.0</ele><time>2026-05-03T09:15:57.906Z</time></trkpt><trkpt lat="37.16236603367945" lon="14.124633528280818"><ele>193.0</ele><time>2026-05-03T09:15:59.906Z</time></trkpt><trkpt lat="37.162292127536446" lon="14.124661611417523"><ele>192.99999999999997</ele><time>2026-05-03T09:16:01.906Z</time></trkpt><trkpt lat="37.16221736493386" lon="14.124696264553444"><ele>193.0</ele><time>2026-05-03T09:16:03.906Z</time></trkpt><trkpt lat="37.16213702827472" lon="14.124730418102494"><ele>186.0</ele><time>2026-05-03T09:16:05.905Z</time></trkpt><trkpt lat="37.16207064645096" lon="14.124744530206225"><ele>186.0</ele><time>2026-05-03T09:16:07.905Z</time></trkpt><trkpt lat="37.16199131120116" lon="14.1247661648367"><ele>186.0</ele><time>2026-05-03T09:16:09.905Z</time></trkpt><trkpt lat="37.16191256015235" lon="14.124807888279497"><ele>186.0</ele><time>2026-05-03T09:16:11.905Z</time></trkpt><trkpt lat="37.16184861223195" lon="14.124831367356906"><ele>186.0</ele><time>2026-05-03T09:16:13.906Z</time></trkpt><trkpt lat="37.16178433742478" lon="14.124860176260741"><ele>186.0</ele><time>2026-05-03T09:16:15.906Z</time></trkpt></trkseg><trkseg><trkpt lat="37.1699868156943" lon="14.146150208452731"><ele>159.0</ele><time>2026-05-03T09:50:36.814Z</time></trkpt><trkpt lat="37.169912354330016" lon="14.146130727889995"><ele>159.0</ele><time>2026-05-03T09:50:38.813Z</time></trkpt><trkpt lat="37.16983682088071" lon="14.14611217975157"><ele>159.0</ele><time>2026-05-03T09:50:40.812Z</time></trkpt><trkpt lat="37.169728269641816" lon="14.146093310979877"><ele>159.0</ele><time>2026-05-03T09:50:42.811Z</time></trkpt><trkpt lat="37.16964524483789" lon="14.146087028647818"><ele>159.0</ele><time>2026-05-03T09:50:43.811Z</time></trkpt><trkpt lat="37.16903261852112" lon="14.146150363936858"><ele>153.8</ele><time>2026-05-03T09:50:44.811Z</time></trkpt><trkpt lat="37.16891523958872" lon="14.146223810157402"><ele>148.60000000000002</ele><time>2026-05-03T09:50:45.811Z</time></trkpt><trkpt lat="37.16880312240644" lon="14.146305779257021"><ele>143.4</ele><time>2026-05-03T09:50:46.811Z</time></trkpt><trkpt lat="37.16870486791988" lon="14.146372114073703"><ele>138.20000000000002</ele><time>2026-05-03T09:50:47.811Z</time></trkpt><trkpt lat="37.16864717429679" lon="14.146426074672851"><ele>133.0</ele><time>2026-05-03T09:50:48.811Z</time></trkpt><trkpt lat="37.16860125691319" lon="14.146525402902459"><ele>132.6</ele><time>2026-05-03T09:50:49.811Z</time></trkpt><trkpt lat="37.16860086383217" lon="14.146614347412454"><ele>132.20000000000002</ele><time>2026-05-03T09:50:50.811Z</time></trkpt><trkpt lat="37.168593307459574" lon="14.1467158528695"><ele>131.8</ele><time>2026-05-03T09:50:51.811Z</time></trkpt><trkpt lat="37.168615284858056" lon="14.146835514413436"><ele>131.4</ele><time>2026-05-03T09:50:52.811Z</time></trkpt><trkpt lat="37.16866007001435" lon="14.147023508701682"><ele>131.0</ele><time>2026-05-03T09:50:53.811Z</time></trkpt><trkpt lat="37.168694903895606" lon="14.147195288524227"><ele>131.0</ele><time>2026-05-03T09:50:54.811Z</time></trkpt><trkpt lat="37.168743487170616" lon="14.147361501156743"><ele>131.0</ele><time>2026-05-03T09:50:55.811Z</time></trkpt><trkpt lat="37.16879674641357" lon="14.147542316377276"><ele>131.0</ele><time>2026-05-03T09:50:56.811Z</time></trkpt><trkpt lat="37.16885384384759" lon="14.147708062622996"><ele>131.0</ele><time>2026-05-03T09:50:57.811Z</time></trkpt><trkpt lat="37.168908024021604" lon="14.147867040286462"><ele>129.8</ele><time>2026-05-03T09:50:58.811Z</time></trkpt><trkpt lat="37.168959445448706" lon="14.148016396859312"><ele>128.6</ele><time>2026-05-03T09:50:59.811Z</time></trkpt><trkpt lat="37.16900567933961" lon="14.148159031471186"><ele>127.4</ele><time>2026-05-03T09:51:00.811Z</time></trkpt><trkpt lat="37.169041869457295" lon="14.148278088125059"><ele>126.2</ele><time>2026-05-03T09:51:01.811Z</time></trkpt><trkpt lat="37.169055253509825" lon="14.148387498692255"><ele>125.0</ele><time>2026-05-03T09:51:02.811Z</time></trkpt><trkpt lat="37.16904990839619" lon="14.148491371240581"><ele>123.8</ele><time>2026-05-03T09:51:03.811Z</time></trkpt><trkpt lat="37.16901707210758" lon="14.148581551243499"><ele>122.6</ele><time>2026-05-03T09:51:04.811Z</time></trkpt><trkpt lat="37.168948794684454" lon="14.148649720705857"><ele>121.4</ele><time>2026-05-03T09:51:05.811Z</time></trkpt><trkpt lat="37.1688730476903" lon="14.14872855426388"><ele>120.2</ele><time>2026-05-03T09:51:06.811Z</time></trkpt><trkpt lat="37.1687390441736" lon="14.148853877322333"><ele>119.0</ele><time>2026-05-03T09:51:07.811Z</time></trkpt><trkpt lat="37.16862977672411" lon="14.148973249040486"><ele>119.0</ele><time>2026-05-03T09:51:08.811Z</time></trkpt><trkpt lat="37.16853456424621" lon="14.14911847179653"><ele>119.0</ele><time>2026-05-03T09:51:09.81Z</time></trkpt><trkpt lat="37.16846898711775" lon="14.149257939488951"><ele>119.0</ele><time>2026-05-03T09:51:10.81Z</time></trkpt><trkpt lat="37.16842358670875" lon="14.149385833516211"><ele>119.0</ele><time>2026-05-03T09:51:11.81Z</time></trkpt><trkpt lat="37.16837866370356" lon="14.14951051156729"><ele>119.0</ele><time>2026-05-03T09:51:12.81Z</time></trkpt><trkpt lat="37.16835007834541" lon="14.149633707451454"><ele>119.0</ele><time>2026-05-03T09:51:13.81Z</time></trkpt><trkpt lat="37.168320616774785" lon="14.149751661164563"><ele>119.0</ele><time>2026-05-03T09:51:14.81Z</time></trkpt><trkpt lat="37.168286045448475" lon="14.14985901181106"><ele>119.0</ele><time>2026-05-03T09:51:15.81Z</time></trkpt><trkpt lat="37.168250875363505" lon="14.149967148903498"><ele>119.0</ele><time>2026-05-03T09:51:16.81Z</time></trkpt><trkpt lat="37.16821088100824" lon="14.150078622958333"><ele>116.6</ele><time>2026-05-03T09:51:17.81Z</time></trkpt><trkpt lat="37.16815817932393" lon="14.1501829800292"><ele>114.2</ele><time>2026-05-03T09:51:18.81Z</time></trkpt><trkpt lat="37.168124867261746" lon="14.150281737940864"><ele>111.79999999999998</ele><time>2026-05-03T09:51:19.81Z</time></trkpt><trkpt lat="37.168086567012764" lon="14.150366339450734"><ele>109.39999999999999</ele><time>2026-05-03T09:51:20.81Z</time></trkpt><trkpt lat="37.16802176987287" lon="14.15041105677364"><ele>107.0</ele><time>2026-05-03T09:51:21.81Z</time></trkpt><trkpt lat="37.167885990975684" lon="14.15046357029724"><ele>106.99999999999999</ele><time>2026-05-03T09:51:23.81Z</time></trkpt><trkpt lat="37.16781621132011" lon="14.150395085550313"><ele>107.0</ele><time>2026-05-03T09:51:24.81Z</time></trkpt><trkpt lat="37.167770516858106" lon="14.150313742670365"><ele>107.0</ele><time>2026-05-03T09:51:25.81Z</time></trkpt><trkpt lat="37.16772438011044" lon="14.15022570500096"><ele>107.0</ele><time>2026-05-03T09:51:26.81Z</time></trkpt><trkpt lat="37.16772030675795" lon="14.150115207692286"><ele>106.99999999999999</ele><time>2026-05-03T09:51:27.81Z</time></trkpt><trkpt lat="37.167764754521706" lon="14.149997684711714"><ele>107.0</ele><time>2026-05-03T09:51:28.81Z</time></trkpt><trkpt lat="37.167808950684154" lon="14.149861248917974"><ele>107.19999999999999</ele><time>2026-05-03T09:51:29.81Z</time></trkpt><trkpt lat="37.1678490644383" lon="14.149721507815551"><ele>107.39999999999999</ele><time>2026-05-03T09:51:30.81Z</time></trkpt><trkpt lat="37.16788582060852" lon="14.14959309235193"><ele>107.60000000000001</ele><time>2026-05-03T09:51:31.81Z</time></trkpt><trkpt lat="37.16790963132313" lon="14.149484509985275"><ele>107.80000000000001</ele><time>2026-05-03T09:51:32.81Z</time></trkpt><trkpt lat="37.167930768309496" lon="14.14939450838975"><ele>108.0</ele><time>2026-05-03T09:51:33.81Z</time></trkpt><trkpt lat="37.16791973475551" lon="14.149296577251327"><ele>108.0</ele><time>2026-05-03T09:51:34.81Z</time></trkpt><trkpt lat="37.167865922497725" lon="14.149212672769297"><ele>108.00000000000001</ele><time>2026-05-03T09:51:35.81Z</time></trkpt><trkpt lat="37.16780445681711" lon="14.149136488338918"><ele>108.00000000000001</ele><time>2026-05-03T09:51:36.81Z</time></trkpt><trkpt lat="37.16771969348948" lon="14.149084368149385"><ele>108.0</ele><time>2026-05-03T09:51:37.81Z</time></trkpt><trkpt lat="37.1676421132909" lon="14.149037483049456"><ele>108.0</ele><time>2026-05-03T09:51:38.809Z</time></trkpt><trkpt lat="37.167544471301895" lon="14.149073319660369"><ele>108.0</ele><time>2026-05-03T09:51:39.809Z</time></trkpt><trkpt lat="37.167470576741266" lon="14.149158127626555"><ele>108.00000000000001</ele><time>2026-05-03T09:51:40.809Z</time></trkpt><trkpt lat="37.167410430219434" lon="14.149232657650934"><ele>108.00000000000001</ele><time>2026-05-03T09:51:41.809Z</time></trkpt><trkpt lat="37.167359135179346" lon="14.149353472007775"><ele>108.0</ele><time>2026-05-03T09:51:42.809Z</time></trkpt><trkpt lat="37.167315625754966" lon="14.149484023065755"><ele>108.0</ele><time>2026-05-03T09:51:43.809Z</time></trkpt><trkpt lat="37.16724756629209" lon="14.14962092713066"><ele>107.25</ele><time>2026-05-03T09:51:44.809Z</time></trkpt><trkpt lat="37.16719114962711" lon="14.149762604073917"><ele>106.5</ele><time>2026-05-03T09:51:45.809Z</time></trkpt><trkpt lat="37.16712242133838" lon="14.14988906560365"><ele>105.75</ele><time>2026-05-03T09:51:46.809Z</time></trkpt><trkpt lat="37.1670308564226" lon="14.15000478730812"><ele>105.0</ele><time>2026-05-03T09:51:47.809Z</time></trkpt><trkpt lat="37.166937630750866" lon="14.150110476513994"><ele>105.0</ele><time>2026-05-03T09:51:48.809Z</time></trkpt><trkpt lat="37.16685086009113" lon="14.150227790091755"><ele>105.0</ele><time>2026-05-03T09:51:49.809Z</time></trkpt><trkpt lat="37.166731247380234" lon="14.150321641898534"><ele>105.0</ele><time>2026-05-03T09:51:50.809Z</time></trkpt><trkpt lat="37.16663565777772" lon="14.150419945694097"><ele>105.0</ele><time>2026-05-03T09:51:51.809Z</time></trkpt><trkpt lat="37.16654853865452" lon="14.150517505487347"><ele>104.75</ele><time>2026-05-03T09:51:52.809Z</time></trkpt><trkpt lat="37.16646445539661" lon="14.150613210313736"><ele>104.5</ele><time>2026-05-03T09:51:53.809Z</time></trkpt><trkpt lat="37.16637533111638" lon="14.150712664257636"><ele>104.25</ele><time>2026-05-03T09:51:54.809Z</time></trkpt><trkpt lat="37.166285939197195" lon="14.150804448023647"><ele>104.0</ele><time>2026-05-03T09:51:55.809Z</time></trkpt><trkpt lat="37.16619736601622" lon="14.150896132603096"><ele>104.0</ele><time>2026-05-03T09:51:56.809Z</time></trkpt><trkpt lat="37.166109715317624" lon="14.15098184514517"><ele>104.0</ele><time>2026-05-03T09:51:57.809Z</time></trkpt><trkpt lat="37.16602892322726" lon="14.151077320831149"><ele>104.0</ele><time>2026-05-03T09:51:58.809Z</time></trkpt><trkpt lat="37.16593900074072" lon="14.151157096934915"><ele>104.0</ele><time>2026-05-03T09:51:59.809Z</time></trkpt><trkpt lat="37.1658528969435" lon="14.15123593736233"><ele>104.0</ele><time>2026-05-03T09:52:00.809Z</time></trkpt><trkpt lat="37.165772760342335" lon="14.151326749651988"><ele>104.0</ele><time>2026-05-03T09:52:01.809Z</time></trkpt><trkpt lat="37.16569912053094" lon="14.151431576273593"><ele>104.0</ele><time>2026-05-03T09:52:02.809Z</time></trkpt><trkpt lat="37.165610578936594" lon="14.151516372027695"><ele>104.0</ele><time>2026-05-03T09:52:03.809Z</time></trkpt><trkpt lat="37.165518852921366" lon="14.151593480073116"><ele>104.0</ele><time>2026-05-03T09:52:04.809Z</time></trkpt><trkpt lat="37.165439134732026" lon="14.15168745009341"><ele>104.0</ele><time>2026-05-03T09:52:05.809Z</time></trkpt><trkpt lat="37.16533916376682" lon="14.151776481622749"><ele>103.5</ele><time>2026-05-03T09:52:06.808Z</time></trkpt><trkpt lat="37.16524123156733" lon="14.151860191828776"><ele>103.0</ele><time>2026-05-03T09:52:07.808Z</time></trkpt><trkpt lat="37.165148577394376" lon="14.151963310660674"><ele>102.5</ele><time>2026-05-03T09:52:08.808Z</time></trkpt><trkpt lat="37.165060494651655" lon="14.152071874341448"><ele>102.0</ele><time>2026-05-03T09:52:09.808Z</time></trkpt><trkpt lat="37.164973761988136" lon="14.152166154120055"><ele>102.0</ele><time>2026-05-03T09:52:10.808Z</time></trkpt><trkpt lat="37.16488820459696" lon="14.152262327308422"><ele>102.0</ele><time>2026-05-03T09:52:11.808Z</time></trkpt><trkpt lat="37.16480066718945" lon="14.152355267666762"><ele>102.0</ele><time>2026-05-03T09:52:12.808Z</time></trkpt><trkpt lat="37.16471713109452" lon="14.152438987750356"><ele>102.0</ele><time>2026-05-03T09:52:13.808Z</time></trkpt><trkpt lat="37.16463584157984" lon="14.152498966874635"><ele>102.0</ele><time>2026-05-03T09:52:14.808Z</time></trkpt><trkpt lat="37.16456208821493" lon="14.152542151919373"><ele>100.83333333333333</ele><time>2026-05-03T09:52:15.808Z</time></trkpt><trkpt lat="37.164491136363345" lon="14.152572052703336"><ele>99.66666666666667</ele><time>2026-05-03T09:52:16.808Z</time></trkpt><trkpt lat="37.16441943830808" lon="14.152604447161336"><ele>98.5</ele><time>2026-05-03T09:52:17.808Z</time></trkpt><trkpt lat="37.16436001670559" lon="14.152653386159237"><ele>97.33333333333334</ele><time>2026-05-03T09:52:18.808Z</time></trkpt><trkpt lat="37.164291248506" lon="14.152712738392772"><ele>96.16666666666667</ele><time>2026-05-03T09:52:19.808Z</time></trkpt><trkpt lat="37.16421339728132" lon="14.152747215495415"><ele>95.0</ele><time>2026-05-03T09:52:20.808Z</time></trkpt><trkpt lat="37.16412333173292" lon="14.152759087538108"><ele>95.0</ele><time>2026-05-03T09:52:21.808Z</time></trkpt><trkpt lat="37.16402478928484" lon="14.152741318330301"><ele>95.0</ele><time>2026-05-03T09:52:22.808Z</time></trkpt><trkpt lat="37.163933606859906" lon="14.152658036823654"><ele>95.0</ele><time>2026-05-03T09:52:23.808Z</time></trkpt><trkpt lat="37.16382746766371" lon="14.152600896473986"><ele>95.0</ele><time>2026-05-03T09:52:24.808Z</time></trkpt><trkpt lat="37.163713661423216" lon="14.15252988703694"><ele>95.0</ele><time>2026-05-03T09:52:25.808Z</time></trkpt><trkpt lat="37.163591871455125" lon="14.152452850671247"><ele>95.0</ele><time>2026-05-03T09:52:26.808Z</time></trkpt><trkpt lat="37.163468088347166" lon="14.152374553564982"><ele>95.0</ele><time>2026-05-03T09:52:27.808Z</time></trkpt><trkpt lat="37.16334089483115" lon="14.152293998988675"><ele>95.0</ele><time>2026-05-03T09:52:28.808Z</time></trkpt><trkpt lat="37.16321389034498" lon="14.15221341429981"><ele>97.25</ele><time>2026-05-03T09:52:29.808Z</time></trkpt><trkpt lat="37.16309644154759" lon="14.152142886900629"><ele>99.5</ele><time>2026-05-03T09:52:30.808Z</time></trkpt><trkpt lat="37.1629819214877" lon="14.15210694844637"><ele>101.75</ele><time>2026-05-03T09:52:31.808Z</time></trkpt><trkpt lat="37.16287650511718" lon="14.15205249801065"><ele>104.0</ele><time>2026-05-03T09:52:32.808Z</time></trkpt><trkpt lat="37.162751256791346" lon="14.152024067885357"><ele>104.0</ele><time>2026-05-03T09:52:33.808Z</time></trkpt><trkpt lat="37.16261866975746" lon="14.15200361979582"><ele>104.0</ele><time>2026-05-03T09:52:34.809Z</time></trkpt><trkpt lat="37.162485884078826" lon="14.151985942090569"><ele>104.0</ele><time>2026-05-03T09:52:35.808Z</time></trkpt><trkpt lat="37.162355200846775" lon="14.151972523124424"><ele>104.0</ele><time>2026-05-03T09:52:36.808Z</time></trkpt><trkpt lat="37.16222572208118" lon="14.151982713388744"><ele>104.0</ele><time>2026-05-03T09:52:37.808Z</time></trkpt><trkpt lat="37.16209837299787" lon="14.151978952947346"><ele>104.0</ele><time>2026-05-03T09:52:38.809Z</time></trkpt><trkpt lat="37.16196339486034" lon="14.152005855872245"><ele>104.0</ele><time>2026-05-03T09:52:39.809Z</time></trkpt><trkpt lat="37.16182509212931" lon="14.152055372504073"><ele>104.0</ele><time>2026-05-03T09:52:40.808Z</time></trkpt><trkpt lat="37.16168890250823" lon="14.152124790132861"><ele>104.0</ele><time>2026-05-03T09:52:41.808Z</time></trkpt><trkpt lat="37.16156233226367" lon="14.152208094254105"><ele>104.0</ele><time>2026-05-03T09:52:42.808Z</time></trkpt><trkpt lat="37.16144029224443" lon="14.152293747530745"><ele>104.0</ele><time>2026-05-03T09:52:43.809Z</time></trkpt><trkpt lat="37.1613234773727" lon="14.15237080420214"><ele>104.0</ele><time>2026-05-03T09:52:44.809Z</time></trkpt><trkpt lat="37.16121392692906" lon="14.152430510605894"><ele>103.2</ele><time>2026-05-03T09:52:45.809Z</time></trkpt><trkpt lat="37.16111538400637" lon="14.152480637053795"><ele>102.4</ele><time>2026-05-03T09:52:46.809Z</time></trkpt><trkpt lat="37.16101988997447" lon="14.15251471005578"><ele>101.6</ele><time>2026-05-03T09:52:47.808Z</time></trkpt><trkpt lat="37.16091227941866" lon="14.152527734826165"><ele>100.8</ele><time>2026-05-03T09:52:48.808Z</time></trkpt><trkpt lat="37.16079645680641" lon="14.152536475080705"><ele>100.0</ele><time>2026-05-03T09:52:49.808Z</time></trkpt><trkpt lat="37.160678623079924" lon="14.152541559840968"><ele>99.6</ele><time>2026-05-03T09:52:50.808Z</time></trkpt><trkpt lat="37.160562501413104" lon="14.152549798284689"><ele>99.2</ele><time>2026-05-03T09:52:51.808Z</time></trkpt><trkpt lat="37.16045241334019" lon="14.15256956428194"><ele>98.80000000000001</ele><time>2026-05-03T09:52:52.808Z</time></trkpt><trkpt lat="37.16034278437622" lon="14.152616278528127"><ele>98.4</ele><time>2026-05-03T09:52:53.808Z</time></trkpt><trkpt lat="37.16025116494174" lon="14.152655171385145"><ele>98.0</ele><time>2026-05-03T09:52:54.808Z</time></trkpt><trkpt lat="37.160165116172486" lon="14.15265842910775"><ele>97.99999999999999</ele><time>2026-05-03T09:52:55.808Z</time></trkpt><trkpt lat="37.16009583427299" lon="14.152667877684621"><ele>98.0</ele><time>2026-05-03T09:52:56.807Z</time></trkpt><trkpt lat="37.160023073639046" lon="14.152660246400737"><ele>98.0</ele><time>2026-05-03T09:52:57.807Z</time></trkpt><trkpt lat="37.15995711657297" lon="14.152604032432718"><ele>98.0</ele><time>2026-05-03T09:52:58.807Z</time></trkpt><trkpt lat="37.15992961818766" lon="14.152500655388852"><ele>97.99999999999999</ele><time>2026-05-03T09:52:59.807Z</time></trkpt><trkpt lat="37.15989663025597" lon="14.152393542703098"><ele>98.0</ele><time>2026-05-03T09:53:00.807Z</time></trkpt><trkpt lat="37.159874845351275" lon="14.15228101051088"><ele>98.66666666666666</ele><time>2026-05-03T09:53:01.807Z</time></trkpt><trkpt lat="37.159856528007786" lon="14.152149669027265"><ele>99.33333333333333</ele><time>2026-05-03T09:53:02.807Z</time></trkpt><trkpt lat="37.159853269316784" lon="14.152042193333465"><ele>100.0</ele><time>2026-05-03T09:53:03.807Z</time></trkpt><trkpt lat="37.15986027955589" lon="14.151944103047164"><ele>100.66666666666666</ele><time>2026-05-03T09:53:04.807Z</time></trkpt><trkpt lat="37.15988114779568" lon="14.151863062388568"><ele>101.33333333333333</ele><time>2026-05-03T09:53:05.807Z</time></trkpt><trkpt lat="37.15995699339904" lon="14.151787113293036"><ele>102.0</ele><time>2026-05-03T09:53:06.807Z</time></trkpt><trkpt lat="37.16003503184025" lon="14.151710613043932"><ele>102.0</ele><time>2026-05-03T09:53:07.807Z</time></trkpt><trkpt lat="37.16009410690936" lon="14.151622453985103"><ele>102.0</ele><time>2026-05-03T09:53:08.807Z</time></trkpt><trkpt lat="37.160125882201626" lon="14.151538860294291"><ele>102.0</ele><time>2026-05-03T09:53:09.807Z</time></trkpt><trkpt lat="37.160131049509616" lon="14.151443703826061"><ele>102.0</ele><time>2026-05-03T09:53:10.807Z</time></trkpt><trkpt lat="37.16009690273911" lon="14.15132579374782"><ele>102.0</ele><time>2026-05-03T09:53:11.807Z</time></trkpt><trkpt lat="37.16003826567071" lon="14.151235305039572"><ele>102.0</ele><time>2026-05-03T09:53:12.807Z</time></trkpt><trkpt lat="37.15995123939925" lon="14.151172428878054"><ele>103.0</ele><time>2026-05-03T09:53:13.807Z</time></trkpt><trkpt lat="37.15988206974995" lon="14.151091355930394"><ele>104.0</ele><time>2026-05-03T09:53:14.807Z</time></trkpt><trkpt lat="37.15982801638469" lon="14.15101215804702"><ele>104.99999999999999</ele><time>2026-05-03T09:53:15.807Z</time></trkpt><trkpt lat="37.15978678643475" lon="14.150907021939341"><ele>106.0</ele><time>2026-05-03T09:53:16.807Z</time></trkpt><trkpt lat="37.159788345299404" lon="14.150773800761598"><ele>107.0</ele><time>2026-05-03T09:53:17.807Z</time></trkpt><trkpt lat="37.15978525468023" lon="14.150645525672639"><ele>104.66666666666666</ele><time>2026-05-03T09:53:18.807Z</time></trkpt><trkpt lat="37.159772896304645" lon="14.150537571288043"><ele>102.33333333333333</ele><time>2026-05-03T09:53:19.807Z</time></trkpt><trkpt lat="37.15977787180346" lon="14.150455672165005"><ele>100.0</ele><time>2026-05-03T09:53:20.807Z</time></trkpt><trkpt lat="37.15976958863486" lon="14.150372923254242"><ele>97.66666666666666</ele><time>2026-05-03T09:53:21.807Z</time></trkpt><trkpt lat="37.15978710031282" lon="14.150287634957134"><ele>95.33333333333333</ele><time>2026-05-03T09:53:22.807Z</time></trkpt><trkpt lat="37.159775770794674" lon="14.150181835852145"><ele>93.0</ele><time>2026-05-03T09:53:23.807Z</time></trkpt><trkpt lat="37.15978681250444" lon="14.15006320983272"><ele>93.0</ele><time>2026-05-03T09:53:24.806Z</time></trkpt><trkpt lat="37.15976896222315" lon="14.149920990965507"><ele>93.0</ele><time>2026-05-03T09:53:25.806Z</time></trkpt><trkpt lat="37.15971636426663" lon="14.149772101996637"><ele>93.0</ele><time>2026-05-03T09:53:26.806Z</time></trkpt><trkpt lat="37.15969196446889" lon="14.149622107684747"><ele>93.0</ele><time>2026-05-03T09:53:27.806Z</time></trkpt><trkpt lat="37.15965298052221" lon="14.149486112091434"><ele>93.0</ele><time>2026-05-03T09:53:28.806Z</time></trkpt><trkpt lat="37.1596046550082" lon="14.149350445723764"><ele>93.0</ele><time>2026-05-03T09:53:29.806Z</time></trkpt><trkpt lat="37.15956190754574" lon="14.149213217933399"><ele>93.0</ele><time>2026-05-03T09:53:30.806Z</time></trkpt><trkpt lat="37.15951253064701" lon="14.149086605886637"><ele>93.0</ele><time>2026-05-03T09:53:31.806Z</time></trkpt><trkpt lat="37.15946717015679" lon="14.148965731315288"><ele>93.83333333333333</ele><time>2026-05-03T09:53:32.806Z</time></trkpt><trkpt lat="37.159422302825895" lon="14.148867675145935"><ele>94.66666666666666</ele><time>2026-05-03T09:53:33.806Z</time></trkpt><trkpt lat="37.159372246920846" lon="14.148784320749266"><ele>95.5</ele><time>2026-05-03T09:53:34.806Z</time></trkpt><trkpt lat="37.15932419448211" lon="14.148709982813347"><ele>96.33333333333333</ele><time>2026-05-03T09:53:35.806Z</time></trkpt><trkpt lat="37.15926934081898" lon="14.148648240678535"><ele>97.16666666666666</ele><time>2026-05-03T09:53:36.806Z</time></trkpt><trkpt lat="37.15919841176949" lon="14.148613712555115"><ele>98.0</ele><time>2026-05-03T09:53:37.806Z</time></trkpt><trkpt lat="37.15911852976741" lon="14.148604061112088"><ele>98.0</ele><time>2026-05-03T09:53:38.806Z</time></trkpt><trkpt lat="37.15903756040761" lon="14.148631488599621"><ele>98.0</ele><time>2026-05-03T09:53:39.806Z</time></trkpt><trkpt lat="37.15895356039951" lon="14.148664811988827"><ele>98.0</ele><time>2026-05-03T09:53:40.806Z</time></trkpt><trkpt lat="37.15888585785229" lon="14.148766699300978"><ele>98.0</ele><time>2026-05-03T09:53:41.806Z</time></trkpt><trkpt lat="37.15884078825026" lon="14.148887343929875"><ele>98.0</ele><time>2026-05-03T09:53:42.806Z</time></trkpt><trkpt lat="37.15879525318388" lon="14.149024760341389"><ele>100.75</ele><time>2026-05-03T09:53:43.806Z</time></trkpt><trkpt lat="37.158776124667774" lon="14.14918789951041"><ele>103.5</ele><time>2026-05-03T09:53:44.806Z</time></trkpt><trkpt lat="37.15872307184059" lon="14.149337657969383"><ele>106.25</ele><time>2026-05-03T09:53:45.806Z</time></trkpt><trkpt lat="37.15866970879394" lon="14.149466021672875"><ele>109.0</ele><time>2026-05-03T09:53:46.806Z</time></trkpt><trkpt lat="37.158612507214" lon="14.149575087945173"><ele>109.0</ele><time>2026-05-03T09:53:47.806Z</time></trkpt><trkpt lat="37.158545985143654" lon="14.149671097586415"><ele>109.0</ele><time>2026-05-03T09:53:48.806Z</time></trkpt><trkpt lat="37.158471224770494" lon="14.149766117275021"><ele>109.0</ele><time>2026-05-03T09:53:49.806Z</time></trkpt><trkpt lat="37.158386516018304" lon="14.149854494858637"><ele>109.0</ele><time>2026-05-03T09:53:50.806Z</time></trkpt><trkpt lat="37.15829749177048" lon="14.14993178018465"><ele>109.0</ele><time>2026-05-03T09:53:51.806Z</time></trkpt><trkpt lat="37.158189494236375" lon="14.149973919354753"><ele>107.5</ele><time>2026-05-03T09:53:52.806Z</time></trkpt><trkpt lat="37.158081042134455" lon="14.15001486669299"><ele>106.0</ele><time>2026-05-03T09:53:53.805Z</time></trkpt><trkpt lat="37.157964495662036" lon="14.150044228264997"><ele>104.5</ele><time>2026-05-03T09:53:54.805Z</time></trkpt><trkpt lat="37.157847713039374" lon="14.15006277101092"><ele>103.0</ele><time>2026-05-03T09:53:55.805Z</time></trkpt><trkpt lat="37.15772602815485" lon="14.150079688770571"><ele>103.0</ele><time>2026-05-03T09:53:56.805Z</time></trkpt><trkpt lat="37.15760675905933" lon="14.150058710236216"><ele>103.0</ele><time>2026-05-03T09:53:57.805Z</time></trkpt><trkpt lat="37.15749172961183" lon="14.150030399183771"><ele>103.0</ele><time>2026-05-03T09:53:58.805Z</time></trkpt><trkpt lat="37.157387062155976" lon="14.149990071224346"><ele>103.0</ele><time>2026-05-03T09:53:59.805Z</time></trkpt><trkpt lat="37.15729035002296" lon="14.149971984674497"><ele>103.0</ele><time>2026-05-03T09:54:00.805Z</time></trkpt><trkpt lat="37.15719069477037" lon="14.149938094784293"><ele>103.0</ele><time>2026-05-03T09:54:01.805Z</time></trkpt><trkpt lat="37.15708104759881" lon="14.14992977571159"><ele>103.0</ele><time>2026-05-03T09:54:02.805Z</time></trkpt><trkpt lat="37.15697470984159" lon="14.149931165276474"><ele>103.0</ele><time>2026-05-03T09:54:03.805Z</time></trkpt><trkpt lat="37.15687685986514" lon="14.149944594464593"><ele>103.0</ele><time>2026-05-03T09:54:04.805Z</time></trkpt><trkpt lat="37.15678160451915" lon="14.149964340409385"><ele>103.0</ele><time>2026-05-03T09:54:05.805Z</time></trkpt><trkpt lat="37.15669020482743" lon="14.15000105897223"><ele>103.0</ele><time>2026-05-03T09:54:06.805Z</time></trkpt><trkpt lat="37.156594405163375" lon="14.150042122623717"><ele>103.0</ele><time>2026-05-03T09:54:07.805Z</time></trkpt><trkpt lat="37.156479868013875" lon="14.150070119880743"><ele>103.0</ele><time>2026-05-03T09:54:08.805Z</time></trkpt><trkpt lat="37.15636539185601" lon="14.150117252518568"><ele>103.0</ele><time>2026-05-03T09:54:09.805Z</time></trkpt><trkpt lat="37.15625162412608" lon="14.150137687198972"><ele>101.75</ele><time>2026-05-03T09:54:10.805Z</time></trkpt><trkpt lat="37.15614685039652" lon="14.150166763033628"><ele>100.5</ele><time>2026-05-03T09:54:11.805Z</time></trkpt><trkpt lat="37.15603082565682" lon="14.150177633861311"><ele>99.25</ele><time>2026-05-03T09:54:12.805Z</time></trkpt><trkpt lat="37.15590826594812" lon="14.150183765678005"><ele>98.0</ele><time>2026-05-03T09:54:13.805Z</time></trkpt><trkpt lat="37.155767416457095" lon="14.15018054167417"><ele>94.25</ele><time>2026-05-03T09:54:14.805Z</time></trkpt><trkpt lat="37.15561555291683" lon="14.150162501192598"><ele>90.5</ele><time>2026-05-03T09:54:15.805Z</time></trkpt><trkpt lat="37.15547715539105" lon="14.150150950653135"><ele>86.75</ele><time>2026-05-03T09:54:16.805Z</time></trkpt><trkpt lat="37.15533799988716" lon="14.150141228792794"><ele>83.0</ele><time>2026-05-03T09:54:17.805Z</time></trkpt><trkpt lat="37.15520605920867" lon="14.150136428480609"><ele>83.0</ele><time>2026-05-03T09:54:18.805Z</time></trkpt><trkpt lat="37.155080035495715" lon="14.150126870658454"><ele>83.0</ele><time>2026-05-03T09:54:19.805Z</time></trkpt><trkpt lat="37.15496111871586" lon="14.15011342646472"><ele>83.0</ele><time>2026-05-03T09:54:20.805Z</time></trkpt><trkpt lat="37.15485217643295" lon="14.150115642583618"><ele>83.0</ele><time>2026-05-03T09:54:21.805Z</time></trkpt><trkpt lat="37.15475360734513" lon="14.150131714982956"><ele>81.33333333333334</ele><time>2026-05-03T09:54:22.804Z</time></trkpt><trkpt lat="37.15466624851298" lon="14.150163135453122"><ele>79.66666666666667</ele><time>2026-05-03T09:54:23.804Z</time></trkpt><trkpt lat="37.154578920574686" lon="14.150195371905276"><ele>78.0</ele><time>2026-05-03T09:54:24.804Z</time></trkpt><trkpt lat="37.154500994215525" lon="14.15026306453571"><ele>76.33333333333333</ele><time>2026-05-03T09:54:25.804Z</time></trkpt><trkpt lat="37.15443193807613" lon="14.150333047117467"><ele>74.66666666666666</ele><time>2026-05-03T09:54:26.804Z</time></trkpt><trkpt lat="37.15437721391551" lon="14.150390091971481"><ele>73.0</ele><time>2026-05-03T09:54:27.804Z</time></trkpt><trkpt lat="37.15430531327445" lon="14.150472281874645"><ele>73.0</ele><time>2026-05-03T09:54:29.804Z</time></trkpt><trkpt lat="37.15422928774788" lon="14.150492365085693"><ele>73.0</ele><time>2026-05-03T09:54:31.804Z</time></trkpt><trkpt lat="37.1541609960458" lon="14.150252914957465"><ele>73.0</ele><time>2026-05-03T09:54:33.804Z</time></trkpt><trkpt lat="37.154112767059914" lon="14.150112163991052"><ele>73.0</ele><time>2026-05-03T09:54:34.804Z</time></trkpt><trkpt lat="37.15406097754551" lon="14.149964073212633"><ele>71.33333333333333</ele><time>2026-05-03T09:54:35.804Z</time></trkpt><trkpt lat="37.15400135888137" lon="14.149795893405926"><ele>69.66666666666667</ele><time>2026-05-03T09:54:36.804Z</time></trkpt><trkpt lat="37.15394001986158" lon="14.149624290647779"><ele>68.0</ele><time>2026-05-03T09:54:37.804Z</time></trkpt><trkpt lat="37.15387571542051" lon="14.149444633933001"><ele>68.0</ele><time>2026-05-03T09:54:38.804Z</time></trkpt><trkpt lat="37.153813324040534" lon="14.14927032201835"><ele>68.0</ele><time>2026-05-03T09:54:39.804Z</time></trkpt><trkpt lat="37.15375189715463" lon="14.149098704748388"><ele>68.0</ele><time>2026-05-03T09:54:40.805Z</time></trkpt><trkpt lat="37.15369074912163" lon="14.148927866550025"><ele>68.33333333333334</ele><time>2026-05-03T09:54:41.805Z</time></trkpt><trkpt lat="37.15363143999255" lon="14.148758897861004"><ele>68.66666666666667</ele><time>2026-05-03T09:54:42.805Z</time></trkpt><trkpt lat="37.15357213230391" lon="14.148587878933444"><ele>69.0</ele><time>2026-05-03T09:54:43.805Z</time></trkpt><trkpt lat="37.153510514055355" lon="14.148410197305132"><ele>69.0</ele><time>2026-05-03T09:54:44.805Z</time></trkpt><trkpt lat="37.15345373128551" lon="14.148231065753228"><ele>69.0</ele><time>2026-05-03T09:54:45.805Z</time></trkpt><trkpt lat="37.1534014530283" lon="14.148045842027633"><ele>69.0</ele><time>2026-05-03T09:54:46.805Z</time></trkpt><trkpt lat="37.1533495340886" lon="14.147850568270504"><ele>68.66666666666667</ele><time>2026-05-03T09:54:47.804Z</time></trkpt><trkpt lat="37.153300316344094" lon="14.147651340123613"><ele>68.33333333333334</ele><time>2026-05-03T09:54:48.804Z</time></trkpt><trkpt lat="37.15325443430582" lon="14.14744408856672"><ele>68.0</ele><time>2026-05-03T09:54:49.805Z</time></trkpt><trkpt lat="37.15320431147013" lon="14.147224373030067"><ele>68.0</ele><time>2026-05-03T09:54:50.804Z</time></trkpt><trkpt lat="37.15316296354537" lon="14.146985258994972"><ele>68.0</ele><time>2026-05-03T09:54:51.804Z</time></trkpt><trkpt lat="37.153122005754476" lon="14.146756977955386"><ele>68.0</ele><time>2026-05-03T09:54:52.805Z</time></trkpt><trkpt lat="37.15308347253182" lon="14.14652514409736"><ele>68.33333333333334</ele><time>2026-05-03T09:54:53.805Z</time></trkpt><trkpt lat="37.15304349209708" lon="14.146293846608573"><ele>68.66666666666667</ele><time>2026-05-03T09:54:54.805Z</time></trkpt><trkpt lat="37.153020608819425" lon="14.146057766778029"><ele>69.0</ele><time>2026-05-03T09:54:55.805Z</time></trkpt><trkpt lat="37.152968606763224" lon="14.145831967516509"><ele>69.66666666666667</ele><time>2026-05-03T09:54:56.805Z</time></trkpt><trkpt lat="37.152949295659276" lon="14.145599064834839"><ele>70.33333333333334</ele><time>2026-05-03T09:54:57.804Z</time></trkpt><trkpt lat="37.15290152704232" lon="14.145384515360146"><ele>71.0</ele><time>2026-05-03T09:54:58.804Z</time></trkpt><trkpt lat="37.152879950044465" lon="14.145150356730438"><ele>71.0</ele><time>2026-05-03T09:54:59.804Z</time></trkpt><trkpt lat="37.1528326273257" lon="14.14491619588334"><ele>71.0</ele><time>2026-05-03T09:55:00.804Z</time></trkpt><trkpt lat="37.15279930567608" lon="14.144681566340962"><ele>71.0</ele><time>2026-05-03T09:55:01.804Z</time></trkpt><trkpt lat="37.152767910298586" lon="14.144444159943816"><ele>71.33333333333334</ele><time>2026-05-03T09:55:02.804Z</time></trkpt><trkpt lat="37.15273356177127" lon="14.144201895227605"><ele>71.66666666666667</ele><time>2026-05-03T09:55:03.804Z</time></trkpt><trkpt lat="37.15269980886889" lon="14.14396330396758"><ele>72.0</ele><time>2026-05-03T09:55:04.804Z</time></trkpt><trkpt lat="37.152669864402114" lon="14.143719809195343"><ele>73.0</ele><time>2026-05-03T09:55:05.804Z</time></trkpt><trkpt lat="37.1526508420356" lon="14.143475305921681"><ele>74.0</ele><time>2026-05-03T09:55:06.804Z</time></trkpt><trkpt lat="37.15263979424668" lon="14.143226510061805"><ele>75.0</ele><time>2026-05-03T09:55:07.804Z</time></trkpt><trkpt lat="37.152636159483244" lon="14.142980274286293"><ele>75.0</ele><time>2026-05-03T09:55:08.804Z</time></trkpt><trkpt lat="37.15263583560341" lon="14.142735917447641"><ele>75.0</ele><time>2026-05-03T09:55:09.804Z</time></trkpt><trkpt lat="37.15264013107105" lon="14.14249818727149"><ele>75.0</ele><time>2026-05-03T09:55:10.804Z</time></trkpt><trkpt lat="37.152643898844225" lon="14.142252899654398"><ele>76.0</ele><time>2026-05-03T09:55:11.804Z</time></trkpt><trkpt lat="37.15264792137966" lon="14.142008178011286"><ele>77.0</ele><time>2026-05-03T09:55:12.804Z</time></trkpt><trkpt lat="37.152654146655955" lon="14.14176053125458"><ele>78.0</ele><time>2026-05-03T09:55:13.804Z</time></trkpt><trkpt lat="37.15266181804089" lon="14.141518838253464"><ele>79.0</ele><time>2026-05-03T09:55:14.804Z</time></trkpt><trkpt lat="37.152660621183706" lon="14.14127118873293"><ele>80.0</ele><time>2026-05-03T09:55:15.804Z</time></trkpt><trkpt lat="37.15266377137502" lon="14.141023697081721"><ele>81.0</ele><time>2026-05-03T09:55:16.804Z</time></trkpt><trkpt lat="37.1526648196472" lon="14.140762479878433"><ele>81.33333333333333</ele><time>2026-05-03T09:55:17.804Z</time></trkpt><trkpt lat="37.15266450127171" lon="14.14050207388835"><ele>81.66666666666666</ele><time>2026-05-03T09:55:18.804Z</time></trkpt><trkpt lat="37.15265942003893" lon="14.140232287736733"><ele>82.0</ele><time>2026-05-03T09:55:19.804Z</time></trkpt><trkpt lat="37.15265592631963" lon="14.13995999644574"><ele>82.66666666666666</ele><time>2026-05-03T09:55:20.804Z</time></trkpt><trkpt lat="37.15265130629861" lon="14.139684643962738"><ele>83.33333333333333</ele><time>2026-05-03T09:55:21.804Z</time></trkpt><trkpt lat="37.152641958804594" lon="14.139405294168327"><ele>84.0</ele><time>2026-05-03T09:55:22.804Z</time></trkpt><trkpt lat="37.15262412609205" lon="14.1391217079787"><ele>86.5</ele><time>2026-05-03T09:55:23.804Z</time></trkpt><trkpt lat="37.15261076292606" lon="14.138832925224387"><ele>89.0</ele><time>2026-05-03T09:55:24.804Z</time></trkpt><trkpt lat="37.15256965118456" lon="14.138551282732525"><ele>89.0</ele><time>2026-05-03T09:55:25.804Z</time></trkpt><trkpt lat="37.152492687981685" lon="14.138282501232739"><ele>89.0</ele><time>2026-05-03T09:55:26.803Z</time></trkpt><trkpt lat="37.15242607794387" lon="14.138012025166692"><ele>93.33333333333334</ele><time>2026-05-03T09:55:27.803Z</time></trkpt><trkpt lat="37.15234421085921" lon="14.137755491558371"><ele>97.66666666666667</ele><time>2026-05-03T09:55:28.803Z</time></trkpt><trkpt lat="37.152253067517314" lon="14.137505051845341"><ele>102.0</ele><time>2026-05-03T09:55:29.803Z</time></trkpt><trkpt lat="37.1521520726091" lon="14.137273417937914"><ele>102.0</ele><time>2026-05-03T09:55:30.803Z</time></trkpt><trkpt lat="37.152030592000514" lon="14.13703584503594"><ele>102.0</ele><time>2026-05-03T09:55:31.803Z</time></trkpt><trkpt lat="37.15190501851008" lon="14.136809960030508"><ele>102.0</ele><time>2026-05-03T09:55:32.803Z</time></trkpt><trkpt lat="37.15177487930913" lon="14.136577121733488"><ele>103.0</ele><time>2026-05-03T09:55:33.803Z</time></trkpt><trkpt lat="37.15164812421409" lon="14.13635055186991"><ele>104.0</ele><time>2026-05-03T09:55:34.803Z</time></trkpt><trkpt lat="37.15152360855526" lon="14.136120775815833"><ele>105.0</ele><time>2026-05-03T09:55:35.803Z</time></trkpt><trkpt lat="37.151392589787115" lon="14.135897295920403"><ele>105.33333333333334</ele><time>2026-05-03T09:55:36.803Z</time></trkpt><trkpt lat="37.151251640167416" lon="14.135683463338076"><ele>105.66666666666667</ele><time>2026-05-03T09:55:37.803Z</time></trkpt><trkpt lat="37.15109156226577" lon="14.135481290281383"><ele>106.0</ele><time>2026-05-03T09:55:38.803Z</time></trkpt><trkpt lat="37.150927136121076" lon="14.13528952212677"><ele>106.0</ele><time>2026-05-03T09:55:39.803Z</time></trkpt><trkpt lat="37.15074136614622" lon="14.135091538171551"><ele>106.0</ele><time>2026-05-03T09:55:40.803Z</time></trkpt><trkpt lat="37.15056635073702" lon="14.134881047688722"><ele>99.5</ele><time>2026-05-03T09:55:41.803Z</time></trkpt><trkpt lat="37.150401172831465" lon="14.13466961125984"><ele>93.0</ele><time>2026-05-03T09:55:42.803Z</time></trkpt><trkpt lat="37.150251195043815" lon="14.134437630443415"><ele>93.0</ele><time>2026-05-03T09:55:43.803Z</time></trkpt><trkpt lat="37.15012445603059" lon="14.134190760433455"><ele>93.0</ele><time>2026-05-03T09:55:44.803Z</time></trkpt><trkpt lat="37.15000912820241" lon="14.133960624667997"><ele>92.33333333333333</ele><time>2026-05-03T09:55:45.803Z</time></trkpt><trkpt lat="37.14991514912665" lon="14.133732524709584"><ele>91.66666666666666</ele><time>2026-05-03T09:55:46.803Z</time></trkpt><trkpt lat="37.14983083842553" lon="14.13351421114882"><ele>91.0</ele><time>2026-05-03T09:55:47.803Z</time></trkpt><trkpt lat="37.149764752742385" lon="14.133298698077628"><ele>87.66666666666666</ele><time>2026-05-03T09:55:48.803Z</time></trkpt><trkpt lat="37.14971318994867" lon="14.133088584381797"><ele>84.33333333333333</ele><time>2026-05-03T09:55:49.803Z</time></trkpt><trkpt lat="37.14961513445088" lon="14.132895553850753"><ele>81.0</ele><time>2026-05-03T09:55:50.803Z</time></trkpt><trkpt lat="37.149505920293535" lon="14.132707949123088"><ele>81.0</ele><time>2026-05-03T09:55:51.803Z</time></trkpt><trkpt lat="37.149381917115576" lon="14.132508210689188"><ele>81.0</ele><time>2026-05-03T09:55:52.803Z</time></trkpt><trkpt lat="37.14923754476731" lon="14.132322671945078"><ele>81.0</ele><time>2026-05-03T09:55:53.803Z</time></trkpt><trkpt lat="37.14908894267572" lon="14.132136130631972"><ele>79.66666666666667</ele><time>2026-05-03T09:55:54.803Z</time></trkpt><trkpt lat="37.148941787271795" lon="14.13194966617501"><ele>78.33333333333334</ele><time>2026-05-03T09:55:55.802Z</time></trkpt><trkpt lat="37.14879702994293" lon="14.131757865646886"><ele>77.0</ele><time>2026-05-03T09:55:56.802Z</time></trkpt><trkpt lat="37.14865824781129" lon="14.13156067166095"><ele>77.66666666666667</ele><time>2026-05-03T09:55:57.802Z</time></trkpt><trkpt lat="37.148521438089944" lon="14.131365932718667"><ele>78.33333333333333</ele><time>2026-05-03T09:55:58.802Z</time></trkpt><trkpt lat="37.14840944766916" lon="14.13113699782319"><ele>79.0</ele><time>2026-05-03T09:55:59.802Z</time></trkpt><trkpt lat="37.14830280044554" lon="14.13090956091057"><ele>76.33333333333333</ele><time>2026-05-03T09:56:00.802Z</time></trkpt><trkpt lat="37.14819463984662" lon="14.1306715725192"><ele>73.66666666666667</ele><time>2026-05-03T09:56:01.802Z</time></trkpt><trkpt lat="37.1480789347312" lon="14.130435681075562"><ele>71.0</ele><time>2026-05-03T09:56:02.802Z</time></trkpt><trkpt lat="37.14797576826012" lon="14.130191445788777"><ele>71.0</ele><time>2026-05-03T09:56:03.802Z</time></trkpt><trkpt lat="37.147871113966715" lon="14.129948195575425"><ele>71.0</ele><time>2026-05-03T09:56:04.802Z</time></trkpt><trkpt lat="37.14776285799623" lon="14.129706322064107"><ele>71.0</ele><time>2026-05-03T09:56:05.802Z</time></trkpt><trkpt lat="37.147653960751" lon="14.12946150542264"><ele>69.5</ele><time>2026-05-03T09:56:06.802Z</time></trkpt><trkpt lat="37.14753157996454" lon="14.129218450576545"><ele>68.0</ele><time>2026-05-03T09:56:07.802Z</time></trkpt><trkpt lat="37.14740466072978" lon="14.128985044822505"><ele>66.0</ele><time>2026-05-03T09:56:08.802Z</time></trkpt><trkpt lat="37.14726433407283" lon="14.128751233447213"><ele>64.0</ele><time>2026-05-03T09:56:09.802Z</time></trkpt><trkpt lat="37.147114866831" lon="14.128524080789362"><ele>64.0</ele><time>2026-05-03T09:56:10.802Z</time></trkpt><trkpt lat="37.1469681043053" lon="14.128290323301448"><ele>64.0</ele><time>2026-05-03T09:56:11.802Z</time></trkpt><trkpt lat="37.146827772988104" lon="14.128046207252186"><ele>62.0</ele><time>2026-05-03T09:56:12.802Z</time></trkpt><trkpt lat="37.14669200896728" lon="14.127794278303314"><ele>60.0</ele><time>2026-05-03T09:56:13.802Z</time></trkpt><trkpt lat="37.14656177196559" lon="14.127536462323132"><ele>58.5</ele><time>2026-05-03T09:56:14.802Z</time></trkpt><trkpt lat="37.146422592222635" lon="14.127275084609547"><ele>57.0</ele><time>2026-05-03T09:56:15.802Z</time></trkpt><trkpt lat="37.146281832578005" lon="14.12701972122661"><ele>57.0</ele><time>2026-05-03T09:56:16.802Z</time></trkpt><trkpt lat="37.14614541405996" lon="14.126765879695224"><ele>57.0</ele><time>2026-05-03T09:56:17.802Z</time></trkpt><trkpt lat="37.146004739802116" lon="14.12650680166745"><ele>55.0</ele><time>2026-05-03T09:56:18.802Z</time></trkpt><trkpt lat="37.145866426545496" lon="14.12624524089439"><ele>53.0</ele><time>2026-05-03T09:56:19.802Z</time></trkpt><trkpt lat="37.145726727598024" lon="14.125988902475996"><ele>52.5</ele><time>2026-05-03T09:56:20.802Z</time></trkpt><trkpt lat="37.14559535197057" lon="14.125732442797906"><ele>52.0</ele><time>2026-05-03T09:56:21.802Z</time></trkpt><trkpt lat="37.14545901900523" lon="14.125477712956606"><ele>51.5</ele><time>2026-05-03T09:56:22.802Z</time></trkpt><trkpt lat="37.145330752606995" lon="14.125208724183352"><ele>51.0</ele><time>2026-05-03T09:56:23.801Z</time></trkpt><trkpt lat="37.145195460452705" lon="14.124957452616934"><ele>52.5</ele><time>2026-05-03T09:56:24.801Z</time></trkpt><trkpt lat="37.14503919200619" lon="14.124718322827984"><ele>54.0</ele><time>2026-05-03T09:56:25.801Z</time></trkpt><trkpt lat="37.1448892635858" lon="14.124481920415109"><ele>52.0</ele><time>2026-05-03T09:56:26.801Z</time></trkpt><trkpt lat="37.144715240943796" lon="14.12426558132186"><ele>50.0</ele><time>2026-05-03T09:56:27.801Z</time></trkpt><trkpt lat="37.144537909465505" lon="14.12407890910706"><ele>51.66666666666667</ele><time>2026-05-03T09:56:28.801Z</time></trkpt><trkpt lat="37.144352795418655" lon="14.123907635688177"><ele>53.33333333333333</ele><time>2026-05-03T09:56:29.801Z</time></trkpt><trkpt lat="37.14422069586776" lon="14.123724334861048"><ele>55.0</ele><time>2026-05-03T09:56:30.801Z</time></trkpt><trkpt lat="37.14410097692204" lon="14.123550665464364"><ele>54.666666666666664</ele><time>2026-05-03T09:56:31.801Z</time></trkpt><trkpt lat="37.14397513397449" lon="14.12334439573546"><ele>54.33333333333333</ele><time>2026-05-03T09:56:32.801Z</time></trkpt><trkpt lat="37.14387099990201" lon="14.123108263347856"><ele>54.0</ele><time>2026-05-03T09:56:33.801Z</time></trkpt><trkpt lat="37.143807759245476" lon="14.122845681435805"><ele>52.5</ele><time>2026-05-03T09:56:34.801Z</time></trkpt><trkpt lat="37.1437391367372" lon="14.12256920228313"><ele>51.0</ele><time>2026-05-03T09:56:35.801Z</time></trkpt><trkpt lat="37.143678821288105" lon="14.122276190813507"><ele>50.5</ele><time>2026-05-03T09:56:36.801Z</time></trkpt><trkpt lat="37.143614112778245" lon="14.121986337294521"><ele>50.0</ele><time>2026-05-03T09:56:37.801Z</time></trkpt><trkpt lat="37.143547932421995" lon="14.121707702880034"><ele>50.5</ele><time>2026-05-03T09:56:38.801Z</time></trkpt><trkpt lat="37.14346949315939" lon="14.121424970552996"><ele>51.0</ele><time>2026-05-03T09:56:39.801Z</time></trkpt><trkpt lat="37.14338960511382" lon="14.121147681763082"><ele>51.0</ele><time>2026-05-03T09:56:40.801Z</time></trkpt><trkpt lat="37.14329906827646" lon="14.120871760129358"><ele>51.0</ele><time>2026-05-03T09:56:41.801Z</time></trkpt><trkpt lat="37.14318754043931" lon="14.120612380995512"><ele>51.5</ele><time>2026-05-03T09:56:42.801Z</time></trkpt><trkpt lat="37.143068097781786" lon="14.120358227475254"><ele>52.0</ele><time>2026-05-03T09:56:43.801Z</time></trkpt><trkpt lat="37.14292732787762" lon="14.120114131638617"><ele>55.0</ele><time>2026-05-03T09:56:44.801Z</time></trkpt><trkpt lat="37.1427794809199" lon="14.119886656244196"><ele>58.0</ele><time>2026-05-03T09:56:45.801Z</time></trkpt><trkpt lat="37.14261942714184" lon="14.11966956790656"><ele>58.0</ele><time>2026-05-03T09:56:46.802Z</time></trkpt><trkpt lat="37.1424538105967" lon="14.119467048531908"><ele>58.0</ele><time>2026-05-03T09:56:47.801Z</time></trkpt><trkpt lat="37.14228015987417" lon="14.11926150999049"><ele>56.5</ele><time>2026-05-03T09:56:48.801Z</time></trkpt><trkpt lat="37.14210824324173" lon="14.11906174050103"><ele>55.0</ele><time>2026-05-03T09:56:49.801Z</time></trkpt><trkpt lat="37.141937793874206" lon="14.118856692723085"><ele>55.0</ele><time>2026-05-03T09:56:50.801Z</time></trkpt><trkpt lat="37.141768812074545" lon="14.118651930167992"><ele>55.0</ele><time>2026-05-03T09:56:51.801Z</time></trkpt><trkpt lat="37.141603168599104" lon="14.118442648247807"><ele>55.0</ele><time>2026-05-03T09:56:52.802Z</time></trkpt><trkpt lat="37.141463030172865" lon="14.118209420987768"><ele>55.0</ele><time>2026-05-03T09:56:53.801Z</time></trkpt><trkpt lat="37.141336552876105" lon="14.117972507649545"><ele>55.0</ele><time>2026-05-03T09:56:54.801Z</time></trkpt><trkpt lat="37.14121810966626" lon="14.117713731891621"><ele>55.0</ele><time>2026-05-03T09:56:55.801Z</time></trkpt><trkpt lat="37.14110668679543" lon="14.117460193492793"><ele>57.0</ele><time>2026-05-03T09:56:56.8Z</time></trkpt><trkpt lat="37.141032162683814" lon="14.117182790643545"><ele>59.0</ele><time>2026-05-03T09:56:57.8Z</time></trkpt><trkpt lat="37.14097442649884" lon="14.11689995490358"><ele>59.0</ele><time>2026-05-03T09:56:58.801Z</time></trkpt><trkpt lat="37.14093865563233" lon="14.11661574752234"><ele>59.0</ele><time>2026-05-03T09:56:59.801Z</time></trkpt><trkpt lat="37.14094089557873" lon="14.11632424274407"><ele>60.5</ele><time>2026-05-03T09:57:00.801Z</time></trkpt><trkpt lat="37.1409457849523" lon="14.11604768345849"><ele>62.0</ele><time>2026-05-03T09:57:01.801Z</time></trkpt><trkpt lat="37.14097253030366" lon="14.115761351484899"><ele>64.0</ele><time>2026-05-03T09:57:02.801Z</time></trkpt><trkpt lat="37.141018452296166" lon="14.115478929979298"><ele>66.0</ele><time>2026-05-03T09:57:03.801Z</time></trkpt><trkpt lat="37.14107250242313" lon="14.115202833193408"><ele>66.0</ele><time>2026-05-03T09:57:04.801Z</time></trkpt><trkpt lat="37.141121126121305" lon="14.114924196841157"><ele>66.0</ele><time>2026-05-03T09:57:05.801Z</time></trkpt><trkpt lat="37.14117924756307" lon="14.114649962136134"><ele>65.33333333333333</ele><time>2026-05-03T09:57:06.801Z</time></trkpt><trkpt lat="37.14123537872686" lon="14.114378512772918"><ele>64.66666666666666</ele><time>2026-05-03T09:57:07.801Z</time></trkpt><trkpt lat="37.14129666954925" lon="14.114133283945455"><ele>64.0</ele><time>2026-05-03T09:57:08.801Z</time></trkpt><trkpt lat="37.1413452121521" lon="14.113897022933898"><ele>63.0</ele><time>2026-05-03T09:57:09.8Z</time></trkpt><trkpt lat="37.141388992494875" lon="14.113675236052487"><ele>62.0</ele><time>2026-05-03T09:57:10.8Z</time></trkpt><trkpt lat="37.14143532212481" lon="14.113472826990982"><ele>61.0</ele><time>2026-05-03T09:57:11.8Z</time></trkpt><trkpt lat="37.14148090269678" lon="14.11327959555727"><ele>59.0</ele><time>2026-05-03T09:57:12.8Z</time></trkpt><trkpt lat="37.1415251372024" lon="14.113085430392386"><ele>57.0</ele><time>2026-05-03T09:57:13.8Z</time></trkpt><trkpt lat="37.14156562826639" lon="14.112904868765638"><ele>55.0</ele><time>2026-05-03T09:57:14.8Z</time></trkpt><trkpt lat="37.141597347717514" lon="14.112734685393809"><ele>55.0</ele><time>2026-05-03T09:57:15.8Z</time></trkpt><trkpt lat="37.14163015345543" lon="14.112577305207983"><ele>55.0</ele><time>2026-05-03T09:57:16.8Z</time></trkpt><trkpt lat="37.14165972971462" lon="14.112434680925169"><ele>55.0</ele><time>2026-05-03T09:57:17.8Z</time></trkpt><trkpt lat="37.14168484271491" lon="14.112315917655382"><ele>55.0</ele><time>2026-05-03T09:57:18.8Z</time></trkpt><trkpt lat="37.14170863711082" lon="14.112220183296428"><ele>55.0</ele><time>2026-05-03T09:57:19.8Z</time></trkpt><trkpt lat="37.1417472431132" lon="14.112083631373812"><ele>54.49999999999999</ele><time>2026-05-03T09:57:21.8Z</time></trkpt><trkpt lat="37.14177976185937" lon="14.111971864620259"><ele>54.0</ele><time>2026-05-03T09:57:23.8Z</time></trkpt><trkpt lat="37.14175279041768" lon="14.111867291287579"><ele>53.5</ele><time>2026-05-03T09:57:26.8Z</time></trkpt><trkpt lat="37.14167447341735" lon="14.111899811456139"><ele>53.0</ele><time>2026-05-03T09:57:28.8Z</time></trkpt><trkpt lat="37.141614642969465" lon="14.111944915691161"><ele>52.49999999999999</ele><time>2026-05-03T09:57:29.8Z</time></trkpt><trkpt lat="37.14153250942288" lon="14.111986857124498"><ele>52.0</ele><time>2026-05-03T09:57:30.8Z</time></trkpt><trkpt lat="37.141425812623815" lon="14.112032115905103"><ele>51.75</ele><time>2026-05-03T09:57:31.8Z</time></trkpt><trkpt lat="37.14130800277595" lon="14.112090334912823"><ele>51.5</ele><time>2026-05-03T09:57:32.8Z</time></trkpt><trkpt lat="37.14118172883913" lon="14.112155886505189"><ele>51.25</ele><time>2026-05-03T09:57:33.8Z</time></trkpt><trkpt lat="37.14102816339621" lon="14.112220138539323"><ele>51.0</ele><time>2026-05-03T09:57:34.8Z</time></trkpt><trkpt lat="37.140859129998375" lon="14.11229896762143"><ele>51.66666666666667</ele><time>2026-05-03T09:57:35.8Z</time></trkpt><trkpt lat="37.140698074895035" lon="14.112369627703059"><ele>52.333333333333336</ele><time>2026-05-03T09:57:36.8Z</time></trkpt><trkpt lat="37.1405307312614" lon="14.11244649529391"><ele>53.0</ele><time>2026-05-03T09:57:37.8Z</time></trkpt><trkpt lat="37.140338251157694" lon="14.112533976681169"><ele>54.0</ele><time>2026-05-03T09:57:38.799Z</time></trkpt><trkpt lat="37.140139143045516" lon="14.112618887803158"><ele>55.0</ele><time>2026-05-03T09:57:39.799Z</time></trkpt><trkpt lat="37.13994675330446" lon="14.112686822538667"><ele>56.0</ele><time>2026-05-03T09:57:40.799Z</time></trkpt><trkpt lat="37.139763272214715" lon="14.112767773817765"><ele>56.0</ele><time>2026-05-03T09:57:41.799Z</time></trkpt><trkpt lat="37.139591518999794" lon="14.11284351772647"><ele>56.0</ele><time>2026-05-03T09:57:42.799Z</time></trkpt><trkpt lat="37.13941640198417" lon="14.112920618927404"><ele>56.0</ele><time>2026-05-03T09:57:43.799Z</time></trkpt><trkpt lat="37.13924190172159" lon="14.112997448594946"><ele>56.0</ele><time>2026-05-03T09:57:44.799Z</time></trkpt><trkpt lat="37.13907300098704" lon="14.113071812864762"><ele>56.0</ele><time>2026-05-03T09:57:45.799Z</time></trkpt><trkpt lat="37.138898769224696" lon="14.11314874555703"><ele>56.0</ele><time>2026-05-03T09:57:46.799Z</time></trkpt><trkpt lat="37.138727001979774" lon="14.11322460154483"><ele>56.333333333333336</ele><time>2026-05-03T09:57:47.799Z</time></trkpt><trkpt lat="37.13855095023252" lon="14.113302349669251"><ele>56.66666666666667</ele><time>2026-05-03T09:57:48.799Z</time></trkpt><trkpt lat="37.13837424831843" lon="14.11338038491922"><ele>57.0</ele><time>2026-05-03T09:57:49.799Z</time></trkpt><trkpt lat="37.13820263408989" lon="14.11345617332764"><ele>56.25</ele><time>2026-05-03T09:57:50.799Z</time></trkpt><trkpt lat="37.13806103900538" lon="14.113518704615483"><ele>55.5</ele><time>2026-05-03T09:57:51.799Z</time></trkpt><trkpt lat="37.13795380980229" lon="14.11356605932323"><ele>54.75</ele><time>2026-05-03T09:57:52.799Z</time></trkpt><trkpt lat="37.13785692421417" lon="14.113613260223186"><ele>54.0</ele><time>2026-05-03T09:57:53.799Z</time></trkpt><trkpt lat="37.13776252755681" lon="14.113650107464325"><ele>54.0</ele><time>2026-05-03T09:57:54.799Z</time></trkpt><trkpt lat="37.137652598938104" lon="14.113692549938756"><ele>54.0</ele><time>2026-05-03T09:57:55.799Z</time></trkpt><trkpt lat="37.137530803624855" lon="14.113737271567217"><ele>54.0</ele><time>2026-05-03T09:57:56.799Z</time></trkpt><trkpt lat="37.13740232579323" lon="14.113783200389129"><ele>54.0</ele><time>2026-05-03T09:57:57.799Z</time></trkpt><trkpt lat="37.13726963291819" lon="14.113826908553294"><ele>53.25</ele><time>2026-05-03T09:57:58.799Z</time></trkpt><trkpt lat="37.13713252496249" lon="14.113869073470768"><ele>52.5</ele><time>2026-05-03T09:57:59.799Z</time></trkpt><trkpt lat="37.13698763236848" lon="14.113911935226346"><ele>51.75</ele><time>2026-05-03T09:58:00.799Z</time></trkpt><trkpt lat="37.136846172855655" lon="14.113969640753824"><ele>51.0</ele><time>2026-05-03T09:58:01.799Z</time></trkpt><trkpt lat="37.13668951889783" lon="14.114021764329289"><ele>51.5</ele><time>2026-05-03T09:58:02.799Z</time></trkpt><trkpt lat="37.13655035811658" lon="14.114049347698051"><ele>52.0</ele><time>2026-05-03T09:58:03.799Z</time></trkpt><trkpt lat="37.13642806113107" lon="14.114080603914344"><ele>52.5</ele><time>2026-05-03T09:58:04.799Z</time></trkpt><trkpt lat="37.136315773106475" lon="14.114115846194997"><ele>53.0</ele><time>2026-05-03T09:58:05.799Z</time></trkpt><trkpt lat="37.13619630172325" lon="14.11409386083307"><ele>53.0</ele><time>2026-05-03T09:58:06.799Z</time></trkpt><trkpt lat="37.1360823338473" lon="14.11400270808321"><ele>53.0</ele><time>2026-05-03T09:58:07.798Z</time></trkpt><trkpt lat="37.135958994031256" lon="14.113916642398973"><ele>53.0</ele><time>2026-05-03T09:58:08.798Z</time></trkpt><trkpt lat="37.13582522702947" lon="14.113811783611446"><ele>53.0</ele><time>2026-05-03T09:58:09.798Z</time></trkpt><trkpt lat="37.13567899219688" lon="14.113686413885643"><ele>54.66666666666667</ele><time>2026-05-03T09:58:10.798Z</time></trkpt><trkpt lat="37.135532692792246" lon="14.113549161638385"><ele>56.33333333333333</ele><time>2026-05-03T09:58:11.798Z</time></trkpt><trkpt lat="37.13539536898371" lon="14.11341120504878"><ele>58.0</ele><time>2026-05-03T09:58:12.798Z</time></trkpt><trkpt lat="37.135257343771656" lon="14.11324863519087"><ele>55.33333333333333</ele><time>2026-05-03T09:58:13.798Z</time></trkpt><trkpt lat="37.13513273523927" lon="14.113069109324028"><ele>52.66666666666667</ele><time>2026-05-03T09:58:14.798Z</time></trkpt><trkpt lat="37.13501911767998" lon="14.112901943622695"><ele>50.0</ele><time>2026-05-03T09:58:15.798Z</time></trkpt><trkpt lat="37.13491327326217" lon="14.11274844667297"><ele>51.333333333333336</ele><time>2026-05-03T09:58:16.798Z</time></trkpt><trkpt lat="37.13481194383398" lon="14.11260149726583"><ele>52.66666666666667</ele><time>2026-05-03T09:58:17.798Z</time></trkpt><trkpt lat="37.13471210475839" lon="14.112453789691058"><ele>54.0</ele><time>2026-05-03T09:58:18.798Z</time></trkpt><trkpt lat="37.13460929851638" lon="14.112302191893708"><ele>51.5</ele><time>2026-05-03T09:58:19.798Z</time></trkpt><trkpt lat="37.13450071343941" lon="14.112154930128067"><ele>49.0</ele><time>2026-05-03T09:58:20.798Z</time></trkpt><trkpt lat="37.13439184685972" lon="14.112032601580276"><ele>46.5</ele><time>2026-05-03T09:58:21.798Z</time></trkpt><trkpt lat="37.13427158763029" lon="14.111937947319202"><ele>44.0</ele><time>2026-05-03T09:58:22.798Z</time></trkpt><trkpt lat="37.134131205027394" lon="14.111885582547458"><ele>44.0</ele><time>2026-05-03T09:58:23.798Z</time></trkpt><trkpt lat="37.13397275829569" lon="14.111858944749793"><ele>44.0</ele><time>2026-05-03T09:58:24.798Z</time></trkpt><trkpt lat="37.13379567796325" lon="14.111835063331355"><ele>44.0</ele><time>2026-05-03T09:58:25.798Z</time></trkpt><trkpt lat="37.13362208833847" lon="14.11181402662693"><ele>44.0</ele><time>2026-05-03T09:58:26.798Z</time></trkpt><trkpt lat="37.13343833844262" lon="14.111793872671969"><ele>44.0</ele><time>2026-05-03T09:58:27.798Z</time></trkpt><trkpt lat="37.13325529694326" lon="14.111773683358127"><ele>44.0</ele><time>2026-05-03T09:58:28.798Z</time></trkpt><trkpt lat="37.13307077161613" lon="14.111747554698118"><ele>44.0</ele><time>2026-05-03T09:58:29.798Z</time></trkpt><trkpt lat="37.13288650969303" lon="14.111714710289842"><ele>44.0</ele><time>2026-05-03T09:58:30.798Z</time></trkpt><trkpt lat="37.132704866635244" lon="14.111677687957936"><ele>44.0</ele><time>2026-05-03T09:58:31.798Z</time></trkpt><trkpt lat="37.132526360946876" lon="14.111638756945839"><ele>43.666666666666664</ele><time>2026-05-03T09:58:32.798Z</time></trkpt><trkpt lat="37.13234325209074" lon="14.111598568517545"><ele>43.333333333333336</ele><time>2026-05-03T09:58:33.798Z</time></trkpt><trkpt lat="37.13215948112284" lon="14.111556505527734"><ele>43.0</ele><time>2026-05-03T09:58:34.798Z</time></trkpt><trkpt lat="37.131976579818634" lon="14.111514495248523"><ele>41.66666666666667</ele><time>2026-05-03T09:58:35.798Z</time></trkpt><trkpt lat="37.13179475536083" lon="14.11147273358889"><ele>40.333333333333336</ele><time>2026-05-03T09:58:36.797Z</time></trkpt><trkpt lat="37.13162263093105" lon="14.11143170834949"><ele>39.0</ele><time>2026-05-03T09:58:37.797Z</time></trkpt><trkpt lat="37.13146270317708" lon="14.111392244492238"><ele>39.0</ele><time>2026-05-03T09:58:38.797Z</time></trkpt><trkpt lat="37.13131480769461" lon="14.111355749698143"><ele>39.0</ele><time>2026-05-03T09:58:39.797Z</time></trkpt><trkpt lat="37.1311760710319" lon="14.111321514991152"><ele>39.0</ele><time>2026-05-03T09:58:40.797Z</time></trkpt><trkpt lat="37.13104657575533" lon="14.111288983209688"><ele>39.0</ele><time>2026-05-03T09:58:41.797Z</time></trkpt><trkpt lat="37.13092245551973" lon="14.11125619458626"><ele>39.0</ele><time>2026-05-03T09:58:42.797Z</time></trkpt><trkpt lat="37.13080013553164" lon="14.111223601290027"><ele>39.0</ele><time>2026-05-03T09:58:43.797Z</time></trkpt><trkpt lat="37.130688161743336" lon="14.111191477214025"><ele>39.0</ele><time>2026-05-03T09:58:44.797Z</time></trkpt><trkpt lat="37.1305817185103" lon="14.111158459265015"><ele>39.0</ele><time>2026-05-03T09:58:45.797Z</time></trkpt><trkpt lat="37.13048772503834" lon="14.111124085343276"><ele>39.0</ele><time>2026-05-03T09:58:46.797Z</time></trkpt><trkpt lat="37.13040567004517" lon="14.111089363370683"><ele>39.4</ele><time>2026-05-03T09:58:47.797Z</time></trkpt><trkpt lat="37.13033571736949" lon="14.11105535671814"><ele>39.8</ele><time>2026-05-03T09:58:48.797Z</time></trkpt><trkpt lat="37.13027645492738" lon="14.111014631919865"><ele>40.199999999999996</ele><time>2026-05-03T09:58:49.797Z</time></trkpt><trkpt lat="37.130206823540725" lon="14.110953736334798"><ele>40.599999999999994</ele><time>2026-05-03T09:58:50.797Z</time></trkpt><trkpt lat="37.130126813718505" lon="14.11086644368662"><ele>41.0</ele><time>2026-05-03T09:58:51.797Z</time></trkpt><trkpt lat="37.130035933575215" lon="14.11075995191461"><ele>41.0</ele><time>2026-05-03T09:58:52.798Z</time></trkpt><trkpt lat="37.12992894896141" lon="14.110630256606784"><ele>41.0</ele><time>2026-05-03T09:58:53.798Z</time></trkpt><trkpt lat="37.12981563035084" lon="14.11049288277985"><ele>41.0</ele><time>2026-05-03T09:58:54.798Z</time></trkpt><trkpt lat="37.129693963383986" lon="14.11034538812865"><ele>41.0</ele><time>2026-05-03T09:58:55.798Z</time></trkpt><trkpt lat="37.129561766621265" lon="14.110185128798673"><ele>41.0</ele><time>2026-05-03T09:58:56.798Z</time></trkpt><trkpt lat="37.129438518800946" lon="14.110035717725863"><ele>41.0</ele><time>2026-05-03T09:58:57.798Z</time></trkpt><trkpt lat="37.12932032468669" lon="14.109892433322992"><ele>41.666666666666664</ele><time>2026-05-03T09:58:58.798Z</time></trkpt><trkpt lat="37.12920280034245" lon="14.109749960862473"><ele>42.333333333333336</ele><time>2026-05-03T09:58:59.798Z</time></trkpt><trkpt lat="37.129085987684114" lon="14.109608351108252"><ele>43.0</ele><time>2026-05-03T09:59:00.797Z</time></trkpt><trkpt lat="37.12897657899888" lon="14.109478340950275"><ele>43.0</ele><time>2026-05-03T09:59:01.798Z</time></trkpt><trkpt lat="37.12889279298439" lon="14.109378746238677"><ele>43.0</ele><time>2026-05-03T09:59:02.797Z</time></trkpt><trkpt lat="37.12880451459317" lon="14.109300920024454"><ele>43.0</ele><time>2026-05-03T09:59:03.797Z</time></trkpt><trkpt lat="37.12873433859138" lon="14.109187237520523"><ele>43.0</ele><time>2026-05-03T09:59:04.797Z</time></trkpt><trkpt lat="37.128648190621384" lon="14.109080610021227"><ele>41.25</ele><time>2026-05-03T09:59:05.798Z</time></trkpt><trkpt lat="37.12857357433504" lon="14.108983635099626"><ele>39.5</ele><time>2026-05-03T09:59:06.798Z</time></trkpt><trkpt lat="37.12848538964668" lon="14.108893374087895"><ele>37.75</ele><time>2026-05-03T09:59:07.798Z</time></trkpt><trkpt lat="37.12840099760392" lon="14.108759636118986"><ele>36.0</ele><time>2026-05-03T09:59:08.798Z</time></trkpt><trkpt lat="37.128320145162434" lon="14.108606047401574"><ele>36.0</ele><time>2026-05-03T09:59:09.798Z</time></trkpt><trkpt lat="37.12824329056577" lon="14.108446640536304"><ele>36.0</ele><time>2026-05-03T09:59:10.798Z</time></trkpt><trkpt lat="37.128155981965946" lon="14.10827661061097"><ele>36.0</ele><time>2026-05-03T09:59:11.798Z</time></trkpt><trkpt lat="37.12806246013609" lon="14.108096852399319"><ele>37.0</ele><time>2026-05-03T09:59:12.798Z</time></trkpt><trkpt lat="37.12796741542635" lon="14.107915094212673"><ele>38.0</ele><time>2026-05-03T09:59:13.797Z</time></trkpt><trkpt lat="37.12787528867802" lon="14.107735991703079"><ele>39.0</ele><time>2026-05-03T09:59:14.797Z</time></trkpt><trkpt lat="37.12778636073918" lon="14.10755962886568"><ele>37.25</ele><time>2026-05-03T09:59:15.797Z</time></trkpt><trkpt lat="37.12770022256552" lon="14.107394052831292"><ele>35.5</ele><time>2026-05-03T09:59:16.797Z</time></trkpt><trkpt lat="37.12762178710666" lon="14.107249318909496"><ele>33.75</ele><time>2026-05-03T09:59:17.797Z</time></trkpt><trkpt lat="37.127539067380226" lon="14.10712770845842"><ele>32.0</ele><time>2026-05-03T09:59:18.797Z</time></trkpt><trkpt lat="37.127439672725146" lon="14.107016437691959"><ele>33.33333333333333</ele><time>2026-05-03T09:59:19.797Z</time></trkpt><trkpt lat="37.12732158883371" lon="14.106909920976241"><ele>34.666666666666664</ele><time>2026-05-03T09:59:20.797Z</time></trkpt><trkpt lat="37.12719237221649" lon="14.106797769833925"><ele>36.0</ele><time>2026-05-03T09:59:21.797Z</time></trkpt><trkpt lat="37.12706178998624" lon="14.106667252526906"><ele>34.5</ele><time>2026-05-03T09:59:22.797Z</time></trkpt><trkpt lat="37.12694737168894" lon="14.106560300158288"><ele>33.0</ele><time>2026-05-03T09:59:23.797Z</time></trkpt><trkpt lat="37.126844025070454" lon="14.106471596496046"><ele>31.5</ele><time>2026-05-03T09:59:24.797Z</time></trkpt><trkpt lat="37.12675304229841" lon="14.106403006228076"><ele>30.0</ele><time>2026-05-03T09:59:25.797Z</time></trkpt><trkpt lat="37.12667119089432" lon="14.106360881690307"><ele>30.0</ele><time>2026-05-03T09:59:26.797Z</time></trkpt><trkpt lat="37.1265886278777" lon="14.106310104395204"><ele>30.0</ele><time>2026-05-03T09:59:27.797Z</time></trkpt><trkpt lat="37.12646328841452" lon="14.106324844697978"><ele>30.0</ele><time>2026-05-03T09:59:28.797Z</time></trkpt><trkpt lat="37.126342851716124" lon="14.106316006671276"><ele>30.0</ele><time>2026-05-03T09:59:29.797Z</time></trkpt><trkpt lat="37.126217850193356" lon="14.106298020080446"><ele>29.75</ele><time>2026-05-03T09:59:30.797Z</time></trkpt><trkpt lat="37.12608647198118" lon="14.106296022240915"><ele>29.5</ele><time>2026-05-03T09:59:31.797Z</time></trkpt><trkpt lat="37.125950716729086" lon="14.106313397559985"><ele>29.25</ele><time>2026-05-03T09:59:32.797Z</time></trkpt><trkpt lat="37.12581473192284" lon="14.10631304329793"><ele>29.0</ele><time>2026-05-03T09:59:33.797Z</time></trkpt><trkpt lat="37.125686235600135" lon="14.106307178284466"><ele>28.5</ele><time>2026-05-03T09:59:34.797Z</time></trkpt><trkpt lat="37.1255665575323" lon="14.106355960085978"><ele>28.0</ele><time>2026-05-03T09:59:35.797Z</time></trkpt><trkpt lat="37.1254453154471" lon="14.10639723810643"><ele>27.5</ele><time>2026-05-03T09:59:36.797Z</time></trkpt><trkpt lat="37.12531110908559" lon="14.106429369323932"><ele>27.0</ele><time>2026-05-03T09:59:37.797Z</time></trkpt><trkpt lat="37.12518986094264" lon="14.106475257833193"><ele>27.0</ele><time>2026-05-03T09:59:38.797Z</time></trkpt><trkpt lat="37.125073564642555" lon="14.106518971688484"><ele>27.000000000000004</ele><time>2026-05-03T09:59:39.797Z</time></trkpt><trkpt lat="37.12496983303144" lon="14.106555382501046"><ele>27.000000000000004</ele><time>2026-05-03T09:59:40.797Z</time></trkpt><trkpt lat="37.12487384870531" lon="14.106582950627702"><ele>27.0</ele><time>2026-05-03T09:59:41.796Z</time></trkpt><trkpt lat="37.124783394847945" lon="14.106602141857755"><ele>27.0</ele><time>2026-05-03T09:59:42.796Z</time></trkpt><trkpt lat="37.124702020317606" lon="14.106614739617344"><ele>26.833333333333332</ele><time>2026-05-03T09:59:43.796Z</time></trkpt><trkpt lat="37.12462618096869" lon="14.106618981725736"><ele>26.666666666666664</ele><time>2026-05-03T09:59:44.796Z</time></trkpt><trkpt lat="37.12455550109493" lon="14.10661269800628"><ele>26.5</ele><time>2026-05-03T09:59:45.796Z</time></trkpt><trkpt lat="37.1244905877942" lon="14.106607534169592"><ele>26.333333333333332</ele><time>2026-05-03T09:59:46.796Z</time></trkpt><trkpt lat="37.124401896572515" lon="14.106554692828366"><ele>26.166666666666664</ele><time>2026-05-03T09:59:48.796Z</time></trkpt><trkpt lat="37.12438070850431" lon="14.106404386023916"><ele>26.0</ele><time>2026-05-03T09:59:50.796Z</time></trkpt><trkpt lat="37.12437985934343" lon="14.106307204640236"><ele>26.0</ele><time>2026-05-03T09:59:51.796Z</time></trkpt><trkpt lat="37.12440090573005" lon="14.10617588098437"><ele>26.0</ele><time>2026-05-03T09:59:52.796Z</time></trkpt><trkpt lat="37.12442530491932" lon="14.106030139556083"><ele>26.0</ele><time>2026-05-03T09:59:53.796Z</time></trkpt><trkpt lat="37.12444551039931" lon="14.105855798909348"><ele>26.0</ele><time>2026-05-03T09:59:54.796Z</time></trkpt><trkpt lat="37.12446898220472" lon="14.10566540870494"><ele>26.0</ele><time>2026-05-03T09:59:55.796Z</time></trkpt><trkpt lat="37.12449186552762" lon="14.105456962050733"><ele>26.0</ele><time>2026-05-03T09:59:56.796Z</time></trkpt><trkpt lat="37.12451882434261" lon="14.10523281506379"><ele>26.0</ele><time>2026-05-03T09:59:57.796Z</time></trkpt><trkpt lat="37.124552234584534" lon="14.104996939724941"><ele>26.333333333333332</ele><time>2026-05-03T09:59:58.796Z</time></trkpt><trkpt lat="37.124586588190255" lon="14.10475223728891"><ele>26.666666666666664</ele><time>2026-05-03T09:59:59.796Z</time></trkpt><trkpt lat="37.1246201124953" lon="14.104512208868401"><ele>27.0</ele><time>2026-05-03T10:00:00.796Z</time></trkpt><trkpt lat="37.124654228261306" lon="14.104279091645544"><ele>27.0</ele><time>2026-05-03T10:00:01.796Z</time></trkpt><trkpt lat="37.124694747809215" lon="14.104047812698756"><ele>27.0</ele><time>2026-05-03T10:00:02.796Z</time></trkpt><trkpt lat="37.124743050544275" lon="14.103818010763632"><ele>27.0</ele><time>2026-05-03T10:00:03.796Z</time></trkpt><trkpt lat="37.124799224699764" lon="14.103585129855114"><ele>27.0</ele><time>2026-05-03T10:00:04.796Z</time></trkpt><trkpt lat="37.1248667479569" lon="14.103354812880736"><ele>27.0</ele><time>2026-05-03T10:00:05.796Z</time></trkpt><trkpt lat="37.12494749194288" lon="14.103133551696278"><ele>27.0</ele><time>2026-05-03T10:00:06.796Z</time></trkpt><trkpt lat="37.12503631130322" lon="14.10291673573643"><ele>27.0</ele><time>2026-05-03T10:00:07.796Z</time></trkpt><trkpt lat="37.125123540614176" lon="14.102697500024915"><ele>27.0</ele><time>2026-05-03T10:00:08.796Z</time></trkpt><trkpt lat="37.1252050942479" lon="14.102472097099367"><ele>27.0</ele><time>2026-05-03T10:00:09.796Z</time></trkpt><trkpt lat="37.125267511118636" lon="14.102241608672099"><ele>27.0</ele><time>2026-05-03T10:00:10.795Z</time></trkpt><trkpt lat="37.125314271914476" lon="14.102007601562294"><ele>27.0</ele><time>2026-05-03T10:00:11.795Z</time></trkpt><trkpt lat="37.125348542874136" lon="14.1017622425008"><ele>27.0</ele><time>2026-05-03T10:00:12.795Z</time></trkpt><trkpt lat="37.125381557707364" lon="14.101515923622381"><ele>26.666666666666664</ele><time>2026-05-03T10:00:13.795Z</time></trkpt><trkpt lat="37.12541723270993" lon="14.101268176008459"><ele>26.333333333333332</ele><time>2026-05-03T10:00:14.795Z</time></trkpt><trkpt lat="37.12545222285197" lon="14.101018402207153"><ele>26.0</ele><time>2026-05-03T10:00:15.795Z</time></trkpt><trkpt lat="37.12548687587795" lon="14.100770290368008"><ele>26.0</ele><time>2026-05-03T10:00:16.795Z</time></trkpt><trkpt lat="37.125522303387946" lon="14.100519902548479"><ele>26.0</ele><time>2026-05-03T10:00:17.795Z</time></trkpt><trkpt lat="37.12555934548177" lon="14.100267796036361"><ele>26.0</ele><time>2026-05-03T10:00:18.795Z</time></trkpt><trkpt lat="37.12559565041047" lon="14.100017527035478"><ele>26.0</ele><time>2026-05-03T10:00:19.795Z</time></trkpt><trkpt lat="37.12563029748485" lon="14.09976456141846"><ele>26.0</ele><time>2026-05-03T10:00:20.795Z</time></trkpt><trkpt lat="37.125662227549704" lon="14.09951195611412"><ele>26.0</ele><time>2026-05-03T10:00:21.795Z</time></trkpt><trkpt lat="37.12569542848555" lon="14.099258979499616"><ele>27.333333333333332</ele><time>2026-05-03T10:00:22.795Z</time></trkpt><trkpt lat="37.125729906037975" lon="14.099007490364267"><ele>28.666666666666664</ele><time>2026-05-03T10:00:23.795Z</time></trkpt><trkpt lat="37.12576602656828" lon="14.098756281049658"><ele>30.0</ele><time>2026-05-03T10:00:24.795Z</time></trkpt><trkpt lat="37.1258044889984" lon="14.098506286904927"><ele>30.0</ele><time>2026-05-03T10:00:25.795Z</time></trkpt><trkpt lat="37.12584262185169" lon="14.098257208529771"><ele>30.0</ele><time>2026-05-03T10:00:26.795Z</time></trkpt><trkpt lat="37.12588059771826" lon="14.098012161311921"><ele>30.0</ele><time>2026-05-03T10:00:27.795Z</time></trkpt><trkpt lat="37.125908796507154" lon="14.097769628380206"><ele>30.666666666666664</ele><time>2026-05-03T10:00:28.795Z</time></trkpt><trkpt lat="37.12591367004434" lon="14.097527901986682"><ele>31.333333333333332</ele><time>2026-05-03T10:00:29.795Z</time></trkpt><trkpt lat="37.12589738721113" lon="14.097287467567039"><ele>32.0</ele><time>2026-05-03T10:00:30.795Z</time></trkpt><trkpt lat="37.125857185172926" lon="14.097050403015212"><ele>32.0</ele><time>2026-05-03T10:00:31.795Z</time></trkpt><trkpt lat="37.12579770628846" lon="14.09682240775457"><ele>32.0</ele><time>2026-05-03T10:00:32.795Z</time></trkpt><trkpt lat="37.125729975476176" lon="14.0965941495707"><ele>32.0</ele><time>2026-05-03T10:00:33.795Z</time></trkpt><trkpt lat="37.12566767635773" lon="14.096363888687092"><ele>32.0</ele><time>2026-05-03T10:00:34.795Z</time></trkpt><trkpt lat="37.125602854260094" lon="14.096129561775093"><ele>32.0</ele><time>2026-05-03T10:00:35.795Z</time></trkpt><trkpt lat="37.12553765649553" lon="14.095895284082692"><ele>32.0</ele><time>2026-05-03T10:00:36.795Z</time></trkpt><trkpt lat="37.125471389526865" lon="14.095651675400664"><ele>31.333333333333332</ele><time>2026-05-03T10:00:37.795Z</time></trkpt><trkpt lat="37.12540409993486" lon="14.095408441711202"><ele>30.666666666666664</ele><time>2026-05-03T10:00:38.795Z</time></trkpt><trkpt lat="37.12533575659506" lon="14.095164276763374"><ele>30.0</ele><time>2026-05-03T10:00:39.794Z</time></trkpt><trkpt lat="37.12526629957218" lon="14.094915699115774"><ele>30.0</ele><time>2026-05-03T10:00:40.794Z</time></trkpt><trkpt lat="37.125196164426754" lon="14.094670722105324"><ele>30.0</ele><time>2026-05-03T10:00:41.794Z</time></trkpt><trkpt lat="37.12512923995962" lon="14.094423253496782"><ele>30.0</ele><time>2026-05-03T10:00:42.794Z</time></trkpt><trkpt lat="37.1250603035333" lon="14.09417629453687"><ele>30.0</ele><time>2026-05-03T10:00:43.794Z</time></trkpt><trkpt lat="37.12498924248341" lon="14.09392903859709"><ele>30.0</ele><time>2026-05-03T10:00:44.794Z</time></trkpt><trkpt lat="37.12491637564661" lon="14.093680894260823"><ele>30.0</ele><time>2026-05-03T10:00:45.794Z</time></trkpt><trkpt lat="37.12484500038388" lon="14.093429526179477"><ele>29.666666666666664</ele><time>2026-05-03T10:00:46.794Z</time></trkpt><trkpt lat="37.12477242747069" lon="14.093179132308416"><ele>29.333333333333332</ele><time>2026-05-03T10:00:47.794Z</time></trkpt><trkpt lat="37.12469961911748" lon="14.092928250004096"><ele>29.0</ele><time>2026-05-03T10:00:48.794Z</time></trkpt><trkpt lat="37.12462798032803" lon="14.09267326488687"><ele>28.333333333333332</ele><time>2026-05-03T10:00:49.794Z</time></trkpt><trkpt lat="37.12455626828979" lon="14.092415383368463"><ele>27.666666666666664</ele><time>2026-05-03T10:00:50.794Z</time></trkpt><trkpt lat="37.12448684619055" lon="14.092158573167676"><ele>27.0</ele><time>2026-05-03T10:00:51.794Z</time></trkpt><trkpt lat="37.12441307913391" lon="14.091902027649237"><ele>27.0</ele><time>2026-05-03T10:00:52.794Z</time></trkpt><trkpt lat="37.12434407627246" lon="14.091645152965608"><ele>27.0</ele><time>2026-05-03T10:00:53.794Z</time></trkpt><trkpt lat="37.12427371374467" lon="14.091386845811762"><ele>27.0</ele><time>2026-05-03T10:00:54.794Z</time></trkpt><trkpt lat="37.12420123652146" lon="14.091126987636235"><ele>26.666666666666664</ele><time>2026-05-03T10:00:55.794Z</time></trkpt><trkpt lat="37.12412994784739" lon="14.09086807971016"><ele>26.333333333333332</ele><time>2026-05-03T10:00:56.794Z</time></trkpt><trkpt lat="37.12405606446204" lon="14.09060852659628"><ele>26.0</ele><time>2026-05-03T10:00:57.794Z</time></trkpt><trkpt lat="37.12398404198597" lon="14.09034946682011"><ele>26.0</ele><time>2026-05-03T10:00:58.794Z</time></trkpt><trkpt lat="37.123908730837684" lon="14.090089055439753"><ele>26.0</ele><time>2026-05-03T10:00:59.794Z</time></trkpt><trkpt lat="37.123834827369464" lon="14.089825694617307"><ele>26.0</ele><time>2026-05-03T10:01:00.794Z</time></trkpt><trkpt lat="37.12376178611071" lon="14.08956154059124"><ele>26.0</ele><time>2026-05-03T10:01:01.795Z</time></trkpt><trkpt lat="37.12368934131002" lon="14.089297312698273"><ele>26.0</ele><time>2026-05-03T10:01:02.794Z</time></trkpt><trkpt lat="37.12361520771686" lon="14.089031623576194"><ele>26.0</ele><time>2026-05-03T10:01:03.794Z</time></trkpt><trkpt lat="37.12353950190353" lon="14.08876710496782"><ele>26.666666666666664</ele><time>2026-05-03T10:01:04.794Z</time></trkpt><trkpt lat="37.12346446025068" lon="14.088508174681495"><ele>27.333333333333336</ele><time>2026-05-03T10:01:05.794Z</time></trkpt><trkpt lat="37.123391550840026" lon="14.088245750542809"><ele>28.0</ele><time>2026-05-03T10:01:06.794Z</time></trkpt><trkpt lat="37.12331724106543" lon="14.087985094808785"><ele>28.0</ele><time>2026-05-03T10:01:07.794Z</time></trkpt><trkpt lat="37.123242920139305" lon="14.087721948217645"><ele>28.0</ele><time>2026-05-03T10:01:08.794Z</time></trkpt><trkpt lat="37.12317597759149" lon="14.087462287722595"><ele>28.0</ele><time>2026-05-03T10:01:09.794Z</time></trkpt><trkpt lat="37.123103677047354" lon="14.087203390588236"><ele>28.0</ele><time>2026-05-03T10:01:10.794Z</time></trkpt><trkpt lat="37.123037654951524" lon="14.08694243290831"><ele>28.0</ele><time>2026-05-03T10:01:11.794Z</time></trkpt><trkpt lat="37.12296958485167" lon="14.086680803449427"><ele>28.0</ele><time>2026-05-03T10:01:12.794Z</time></trkpt><trkpt lat="37.122905003445744" lon="14.086422310086396"><ele>28.333333333333336</ele><time>2026-05-03T10:01:13.793Z</time></trkpt><trkpt lat="37.122832247436975" lon="14.086164685148775"><ele>28.666666666666664</ele><time>2026-05-03T10:01:14.793Z</time></trkpt><trkpt lat="37.122753265707225" lon="14.08590662094592"><ele>29.0</ele><time>2026-05-03T10:01:15.793Z</time></trkpt><trkpt lat="37.12267994379093" lon="14.085648112485572"><ele>29.333333333333332</ele><time>2026-05-03T10:01:16.793Z</time></trkpt><trkpt lat="37.122608056860365" lon="14.08538762505715"><ele>29.666666666666664</ele><time>2026-05-03T10:01:17.793Z</time></trkpt><trkpt lat="37.12253604671497" lon="14.08512737778959"><ele>30.0</ele><time>2026-05-03T10:01:18.793Z</time></trkpt><trkpt lat="37.122467857253895" lon="14.084869795587679"><ele>30.333333333333336</ele><time>2026-05-03T10:01:19.793Z</time></trkpt><trkpt lat="37.122397420715075" lon="14.084612352425124"><ele>30.666666666666668</ele><time>2026-05-03T10:01:20.793Z</time></trkpt><trkpt lat="37.12232610594193" lon="14.084354891871099"><ele>31.0</ele><time>2026-05-03T10:01:21.793Z</time></trkpt><trkpt lat="37.12225320215225" lon="14.084100292000615"><ele>31.0</ele><time>2026-05-03T10:01:22.793Z</time></trkpt><trkpt lat="37.122180700323085" lon="14.083851102932773"><ele>31.0</ele><time>2026-05-03T10:01:23.793Z</time></trkpt><trkpt lat="37.12210575912077" lon="14.08360167193442"><ele>31.0</ele><time>2026-05-03T10:01:24.793Z</time></trkpt><trkpt lat="37.12203087507745" lon="14.083351010630391"><ele>32.0</ele><time>2026-05-03T10:01:25.793Z</time></trkpt><trkpt lat="37.12196033606398" lon="14.08310196194863"><ele>33.0</ele><time>2026-05-03T10:01:26.793Z</time></trkpt><trkpt lat="37.121888007173446" lon="14.082853076889325"><ele>34.0</ele><time>2026-05-03T10:01:27.793Z</time></trkpt><trkpt lat="37.121817686940005" lon="14.08259851406877"><ele>33.333333333333336</ele><time>2026-05-03T10:01:28.793Z</time></trkpt><trkpt lat="37.12174730383028" lon="14.082347440552391"><ele>32.666666666666664</ele><time>2026-05-03T10:01:29.793Z</time></trkpt><trkpt lat="37.121674061820194" lon="14.082099113033124"><ele>32.0</ele><time>2026-05-03T10:01:30.793Z</time></trkpt><trkpt lat="37.12159183764982" lon="14.081853505247205"><ele>30.666666666666664</ele><time>2026-05-03T10:01:31.793Z</time></trkpt><trkpt lat="37.121503680885006" lon="14.081611436801891"><ele>29.333333333333336</ele><time>2026-05-03T10:01:32.793Z</time></trkpt><trkpt lat="37.12140958743527" lon="14.0813764589642"><ele>28.0</ele><time>2026-05-03T10:01:33.793Z</time></trkpt><trkpt lat="37.12131142672467" lon="14.08114198063212"><ele>27.666666666666668</ele><time>2026-05-03T10:01:34.793Z</time></trkpt><trkpt lat="37.121212457007054" lon="14.080904756036691"><ele>27.333333333333336</ele><time>2026-05-03T10:01:35.793Z</time></trkpt><trkpt lat="37.121109653723735" lon="14.080663125373865"><ele>27.0</ele><time>2026-05-03T10:01:36.793Z</time></trkpt><trkpt lat="37.12100629053526" lon="14.080424214027763"><ele>26.666666666666664</ele><time>2026-05-03T10:01:37.793Z</time></trkpt><trkpt lat="37.12090917955641" lon="14.080180911967332"><ele>26.333333333333332</ele><time>2026-05-03T10:01:38.793Z</time></trkpt><trkpt lat="37.12080844117698" lon="14.079941017801637"><ele>26.0</ele><time>2026-05-03T10:01:39.793Z</time></trkpt><trkpt lat="37.120709927936076" lon="14.07970468586546"><ele>26.0</ele><time>2026-05-03T10:01:40.793Z</time></trkpt><trkpt lat="37.12061132428584" lon="14.07946832640748"><ele>26.0</ele><time>2026-05-03T10:01:41.793Z</time></trkpt><trkpt lat="37.12051900365024" lon="14.079236808266856"><ele>26.0</ele><time>2026-05-03T10:01:42.792Z</time></trkpt><trkpt lat="37.12042547523054" lon="14.079015464433828"><ele>27.333333333333332</ele><time>2026-05-03T10:01:43.792Z</time></trkpt><trkpt lat="37.1203338562157" lon="14.078796060441535"><ele>28.666666666666664</ele><time>2026-05-03T10:01:44.792Z</time></trkpt><trkpt lat="37.12024477357294" lon="14.078577859660445"><ele>30.0</ele><time>2026-05-03T10:01:45.792Z</time></trkpt><trkpt lat="37.120154233328314" lon="14.078362260384374"><ele>30.333333333333336</ele><time>2026-05-03T10:01:46.792Z</time></trkpt><trkpt lat="37.12006454377219" lon="14.07814873887673"><ele>30.666666666666668</ele><time>2026-05-03T10:01:47.792Z</time></trkpt><trkpt lat="37.11997350437364" lon="14.077938268488701"><ele>31.0</ele><time>2026-05-03T10:01:48.792Z</time></trkpt><trkpt lat="37.11988683492418" lon="14.077724602711168"><ele>30.666666666666668</ele><time>2026-05-03T10:01:49.792Z</time></trkpt><trkpt lat="37.11980000401821" lon="14.07752610995968"><ele>30.333333333333336</ele><time>2026-05-03T10:01:50.792Z</time></trkpt><trkpt lat="37.11972208795473" lon="14.07734008164876"><ele>30.0</ele><time>2026-05-03T10:01:51.792Z</time></trkpt><trkpt lat="37.119651938534425" lon="14.077168898440869"><ele>30.0</ele><time>2026-05-03T10:01:52.792Z</time></trkpt><trkpt lat="37.11958160341986" lon="14.077007482379685"><ele>30.0</ele><time>2026-05-03T10:01:53.792Z</time></trkpt><trkpt lat="37.119515699154995" lon="14.076844116663128"><ele>30.0</ele><time>2026-05-03T10:01:54.792Z</time></trkpt><trkpt lat="37.11945616544155" lon="14.076680194766514"><ele>30.0</ele><time>2026-05-03T10:01:55.792Z</time></trkpt><trkpt lat="37.11941083063576" lon="14.076527315381528"><ele>30.75</ele><time>2026-05-03T10:01:56.792Z</time></trkpt><trkpt lat="37.11941955401655" lon="14.076360322086755"><ele>31.5</ele><time>2026-05-03T10:01:57.792Z</time></trkpt><trkpt lat="37.11944713889892" lon="14.076189917862168"><ele>32.25</ele><time>2026-05-03T10:01:58.792Z</time></trkpt><trkpt lat="37.11946470520833" lon="14.076011294439427"><ele>33.0</ele><time>2026-05-03T10:01:59.792Z</time></trkpt><trkpt lat="37.11951592351999" lon="14.07582336227215"><ele>34.666666666666664</ele><time>2026-05-03T10:02:00.792Z</time></trkpt><trkpt lat="37.11956131824935" lon="14.075616039152422"><ele>36.33333333333333</ele><time>2026-05-03T10:02:01.792Z</time></trkpt><trkpt lat="37.119602831734966" lon="14.075402349840466"><ele>38.0</ele><time>2026-05-03T10:02:02.792Z</time></trkpt><trkpt lat="37.11964793910032" lon="14.075173410969219"><ele>39.666666666666664</ele><time>2026-05-03T10:02:03.792Z</time></trkpt><trkpt lat="37.119696670120405" lon="14.074934627501836"><ele>41.333333333333336</ele><time>2026-05-03T10:02:04.792Z</time></trkpt><trkpt lat="37.1197515051422" lon="14.074679506823395"><ele>43.0</ele><time>2026-05-03T10:02:05.792Z</time></trkpt><trkpt lat="37.11981166077515" lon="14.074433228032406"><ele>43.0</ele><time>2026-05-03T10:02:06.792Z</time></trkpt><trkpt lat="37.11988898345739" lon="14.074191544073107"><ele>43.0</ele><time>2026-05-03T10:02:07.792Z</time></trkpt><trkpt lat="37.11998691352934" lon="14.073958190508092"><ele>43.0</ele><time>2026-05-03T10:02:08.792Z</time></trkpt><trkpt lat="37.120090035261384" lon="14.073727793000035"><ele>42.66666666666667</ele><time>2026-05-03T10:02:09.792Z</time></trkpt><trkpt lat="37.12019167389914" lon="14.073495230911977"><ele>42.333333333333336</ele><time>2026-05-03T10:02:10.792Z</time></trkpt><trkpt lat="37.12028957331042" lon="14.073262100700141"><ele>42.0</ele><time>2026-05-03T10:02:11.791Z</time></trkpt><trkpt lat="37.12038726957547" lon="14.073032348654984"><ele>44.66666666666667</ele><time>2026-05-03T10:02:12.791Z</time></trkpt><trkpt lat="37.12048640037683" lon="14.072804083626059"><ele>47.333333333333336</ele><time>2026-05-03T10:02:13.791Z</time></trkpt><trkpt lat="37.1205822844793" lon="14.07257968632691"><ele>50.0</ele><time>2026-05-03T10:02:14.791Z</time></trkpt><trkpt lat="37.12067333890035" lon="14.072351724646863"><ele>47.333333333333336</ele><time>2026-05-03T10:02:15.791Z</time></trkpt><trkpt lat="37.120746396709066" lon="14.072117412145987"><ele>44.66666666666667</ele><time>2026-05-03T10:02:16.791Z</time></trkpt><trkpt lat="37.120798005796274" lon="14.071873205955619"><ele>42.0</ele><time>2026-05-03T10:02:17.791Z</time></trkpt><trkpt lat="37.1208376469996" lon="14.071627605303844"><ele>43.0</ele><time>2026-05-03T10:02:18.791Z</time></trkpt><trkpt lat="37.12087208918537" lon="14.071379650714315"><ele>44.0</ele><time>2026-05-03T10:02:19.859Z</time></trkpt><trkpt lat="37.12089830460424" lon="14.07113325468278"><ele>45.0</ele><time>2026-05-03T10:02:20.858Z</time></trkpt><trkpt lat="37.12090493164015" lon="14.070886082859984"><ele>45.666666666666664</ele><time>2026-05-03T10:02:21.858Z</time></trkpt><trkpt lat="37.12089198694842" lon="14.070637315023644"><ele>46.33333333333333</ele><time>2026-05-03T10:02:22.858Z</time></trkpt><trkpt lat="37.1208695319754" lon="14.07039184220854"><ele>47.0</ele><time>2026-05-03T10:02:23.858Z</time></trkpt><trkpt lat="37.12084891151732" lon="14.070145974879049"><ele>47.33333333333333</ele><time>2026-05-03T10:02:24.858Z</time></trkpt><trkpt lat="37.12081868053693" lon="14.069906605737005"><ele>47.666666666666664</ele><time>2026-05-03T10:02:25.858Z</time></trkpt><trkpt lat="37.120767248424706" lon="14.069682191192825"><ele>48.0</ele><time>2026-05-03T10:02:26.858Z</time></trkpt><trkpt lat="37.12068588809862" lon="14.069467049192431"><ele>48.0</ele><time>2026-05-03T10:02:27.858Z</time></trkpt><trkpt lat="37.12058767058131" lon="14.069252863746776"><ele>48.0</ele><time>2026-05-03T10:02:28.858Z</time></trkpt><trkpt lat="37.120483604626855" lon="14.069041404680476"><ele>48.0</ele><time>2026-05-03T10:02:29.858Z</time></trkpt><trkpt lat="37.12037825037009" lon="14.068834964918631"><ele>48.0</ele><time>2026-05-03T10:02:30.858Z</time></trkpt><trkpt lat="37.12026303721259" lon="14.068636656633048"><ele>48.0</ele><time>2026-05-03T10:02:31.858Z</time></trkpt><trkpt lat="37.12013973226845" lon="14.068446216314346"><ele>48.0</ele><time>2026-05-03T10:02:32.858Z</time></trkpt><trkpt lat="37.12001122256369" lon="14.068256680929949"><ele>47.0</ele><time>2026-05-03T10:02:33.858Z</time></trkpt><trkpt lat="37.11988578324387" lon="14.068069073295794"><ele>46.0</ele><time>2026-05-03T10:02:34.858Z</time></trkpt><trkpt lat="37.119752628551666" lon="14.067881932637619"><ele>45.0</ele><time>2026-05-03T10:02:35.858Z</time></trkpt><trkpt lat="37.1196225603495" lon="14.067693397836297"><ele>45.0</ele><time>2026-05-03T10:02:36.858Z</time></trkpt><trkpt lat="37.119492345158875" lon="14.06750631143475"><ele>45.0</ele><time>2026-05-03T10:02:37.858Z</time></trkpt><trkpt lat="37.119360297076845" lon="14.06731937436417"><ele>45.0</ele><time>2026-05-03T10:02:38.858Z</time></trkpt><trkpt lat="37.119220917206746" lon="14.067142078798527"><ele>43.666666666666664</ele><time>2026-05-03T10:02:39.858Z</time></trkpt><trkpt lat="37.119067469533135" lon="14.066982681189476"><ele>42.33333333333333</ele><time>2026-05-03T10:02:40.858Z</time></trkpt><trkpt lat="37.118900625301684" lon="14.066837738990365"><ele>41.0</ele><time>2026-05-03T10:02:41.858Z</time></trkpt><trkpt lat="37.11872910636802" lon="14.066696250228535"><ele>41.33333333333333</ele><time>2026-05-03T10:02:42.858Z</time></trkpt><trkpt lat="37.11855558391143" lon="14.06655764315523"><ele>41.666666666666664</ele><time>2026-05-03T10:02:43.858Z</time></trkpt><trkpt lat="37.118381795340916" lon="14.066413288397477"><ele>42.0</ele><time>2026-05-03T10:02:44.858Z</time></trkpt><trkpt lat="37.118208720317526" lon="14.066268118548937"><ele>41.0</ele><time>2026-05-03T10:02:45.858Z</time></trkpt><trkpt lat="37.11803487513298" lon="14.066124501612387"><ele>40.0</ele><time>2026-05-03T10:02:46.858Z</time></trkpt><trkpt lat="37.11786156335085" lon="14.065981971333233"><ele>39.0</ele><time>2026-05-03T10:02:47.858Z</time></trkpt><trkpt lat="37.11768605286132" lon="14.065840892488115"><ele>39.0</ele><time>2026-05-03T10:02:48.858Z</time></trkpt><trkpt lat="37.11751220075872" lon="14.065702473889761"><ele>39.0</ele><time>2026-05-03T10:02:49.858Z</time></trkpt><trkpt lat="37.117339468635" lon="14.065559165172575"><ele>39.0</ele><time>2026-05-03T10:02:50.858Z</time></trkpt><trkpt lat="37.11716890123218" lon="14.065412552587361"><ele>38.333333333333336</ele><time>2026-05-03T10:02:51.858Z</time></trkpt><trkpt lat="37.11699765128537" lon="14.065271826305782"><ele>37.66666666666667</ele><time>2026-05-03T10:02:52.858Z</time></trkpt><trkpt lat="37.11682625874941" lon="14.065130625958943"><ele>37.0</ele><time>2026-05-03T10:02:53.858Z</time></trkpt><trkpt lat="37.116660313978706" lon="14.064980602279913"><ele>36.333333333333336</ele><time>2026-05-03T10:02:54.858Z</time></trkpt><trkpt lat="37.11650526112397" lon="14.06481232939829"><ele>35.666666666666664</ele><time>2026-05-03T10:02:55.858Z</time></trkpt><trkpt lat="37.11636606447911" lon="14.064626435282277"><ele>35.0</ele><time>2026-05-03T10:02:56.858Z</time></trkpt><trkpt lat="37.11624078173141" lon="14.064427546748924"><ele>35.0</ele><time>2026-05-03T10:02:57.858Z</time></trkpt><trkpt lat="37.11612363445503" lon="14.064225642729966"><ele>35.0</ele><time>2026-05-03T10:02:58.858Z</time></trkpt><trkpt lat="37.11600348420983" lon="14.064021759672409"><ele>35.0</ele><time>2026-05-03T10:02:59.858Z</time></trkpt><trkpt lat="37.11588065717038" lon="14.063818498874298"><ele>34.0</ele><time>2026-05-03T10:03:00.858Z</time></trkpt><trkpt lat="37.11575759165987" lon="14.063615035000149"><ele>33.0</ele><time>2026-05-03T10:03:01.858Z</time></trkpt><trkpt lat="37.11563286335256" lon="14.063410291515304"><ele>32.0</ele><time>2026-05-03T10:03:02.858Z</time></trkpt><trkpt lat="37.115509005063046" lon="14.063206033255097"><ele>31.333333333333332</ele><time>2026-05-03T10:03:03.858Z</time></trkpt><trkpt lat="37.11538482575596" lon="14.063002412817708"><ele>30.666666666666664</ele><time>2026-05-03T10:03:04.859Z</time></trkpt><trkpt lat="37.11526052807425" lon="14.062802078604836"><ele>30.0</ele><time>2026-05-03T10:03:05.859Z</time></trkpt><trkpt lat="37.11513709195402" lon="14.062600947948463"><ele>28.666666666666664</ele><time>2026-05-03T10:03:06.859Z</time></trkpt><trkpt lat="37.11501574327014" lon="14.062404653549283"><ele>27.333333333333332</ele><time>2026-05-03T10:03:07.859Z</time></trkpt><trkpt lat="37.11490002137074" lon="14.062211987581527"><ele>26.0</ele><time>2026-05-03T10:03:08.858Z</time></trkpt><trkpt lat="37.11478679579706" lon="14.062027270962124"><ele>25.666666666666664</ele><time>2026-05-03T10:03:09.858Z</time></trkpt><trkpt lat="37.11468070429369" lon="14.061857708307516"><ele>25.333333333333336</ele><time>2026-05-03T10:03:10.859Z</time></trkpt><trkpt lat="37.11458756999142" lon="14.061694180074378"><ele>25.0</ele><time>2026-05-03T10:03:11.859Z</time></trkpt><trkpt lat="37.11450652343892" lon="14.061518528740487"><ele>25.0</ele><time>2026-05-03T10:03:12.859Z</time></trkpt><trkpt lat="37.11443999425926" lon="14.061318492125123"><ele>25.0</ele><time>2026-05-03T10:03:13.858Z</time></trkpt><trkpt lat="37.11442065490607" lon="14.061097768995408"><ele>25.0</ele><time>2026-05-03T10:03:14.859Z</time></trkpt><trkpt lat="37.11440083606062" lon="14.060875072918801"><ele>26.0</ele><time>2026-05-03T10:03:15.859Z</time></trkpt><trkpt lat="37.11438111219838" lon="14.060643553285493"><ele>27.0</ele><time>2026-05-03T10:03:16.859Z</time></trkpt><trkpt lat="37.11434390831529" lon="14.060407409711619"><ele>28.0</ele><time>2026-05-03T10:03:17.858Z</time></trkpt><trkpt lat="37.11431776350657" lon="14.060169608395201"><ele>28.666666666666668</ele><time>2026-05-03T10:03:18.858Z</time></trkpt><trkpt lat="37.11427364997783" lon="14.05993769624268"><ele>29.333333333333336</ele><time>2026-05-03T10:03:19.858Z</time></trkpt><trkpt lat="37.114212608039026" lon="14.05971382846416"><ele>30.0</ele><time>2026-05-03T10:03:20.858Z</time></trkpt><trkpt lat="37.11413167647096" lon="14.059495650312039"><ele>29.333333333333336</ele><time>2026-05-03T10:03:21.858Z</time></trkpt><trkpt lat="37.11404084388436" lon="14.059279617875276"><ele>28.666666666666668</ele><time>2026-05-03T10:03:22.858Z</time></trkpt><trkpt lat="37.11394531339341" lon="14.059065205614317"><ele>28.0</ele><time>2026-05-03T10:03:23.858Z</time></trkpt><trkpt lat="37.11384922822336" lon="14.058850354977338"><ele>28.0</ele><time>2026-05-03T10:03:24.858Z</time></trkpt><trkpt lat="37.11375425595145" lon="14.058632656731154"><ele>28.0</ele><time>2026-05-03T10:03:25.858Z</time></trkpt><trkpt lat="37.11365805238841" lon="14.058413904677792"><ele>28.0</ele><time>2026-05-03T10:03:26.858Z</time></trkpt><trkpt lat="37.11356019308016" lon="14.058192461270709"><ele>27.666666666666668</ele><time>2026-05-03T10:03:27.858Z</time></trkpt><trkpt lat="37.11346151042814" lon="14.057968622858041"><ele>27.333333333333336</ele><time>2026-05-03T10:03:28.858Z</time></trkpt><trkpt lat="37.1133634473735" lon="14.057741675075002"><ele>27.0</ele><time>2026-05-03T10:03:29.858Z</time></trkpt><trkpt lat="37.11326658282148" lon="14.05751092065326"><ele>26.666666666666664</ele><time>2026-05-03T10:03:30.858Z</time></trkpt><trkpt lat="37.11316950638403" lon="14.05727871085745"><ele>26.333333333333332</ele><time>2026-05-03T10:03:31.858Z</time></trkpt><trkpt lat="37.11307239413214" lon="14.057049005087126"><ele>26.0</ele><time>2026-05-03T10:03:32.858Z</time></trkpt><trkpt lat="37.11297330703442" lon="14.056817901953442"><ele>25.333333333333332</ele><time>2026-05-03T10:03:33.858Z</time></trkpt><trkpt lat="37.112872879529036" lon="14.056588696118421"><ele>24.666666666666664</ele><time>2026-05-03T10:03:34.858Z</time></trkpt><trkpt lat="37.11277151528512" lon="14.05635864414415"><ele>24.0</ele><time>2026-05-03T10:03:35.858Z</time></trkpt><trkpt lat="37.1126718805756" lon="14.056126734194512"><ele>24.0</ele><time>2026-05-03T10:03:36.858Z</time></trkpt><trkpt lat="37.112572369433074" lon="14.055892281114804"><ele>24.0</ele><time>2026-05-03T10:03:37.858Z</time></trkpt><trkpt lat="37.112474614887006" lon="14.055659030786478"><ele>24.0</ele><time>2026-05-03T10:03:38.858Z</time></trkpt><trkpt lat="37.1123767555429" lon="14.05542378246399"><ele>23.333333333333332</ele><time>2026-05-03T10:03:39.858Z</time></trkpt><trkpt lat="37.11227601672885" lon="14.055188874170161"><ele>22.666666666666664</ele><time>2026-05-03T10:03:40.858Z</time></trkpt><trkpt lat="37.112171835658735" lon="14.054954734255665"><ele>22.0</ele><time>2026-05-03T10:03:41.858Z</time></trkpt><trkpt lat="37.11206660693316" lon="14.054721820798846"><ele>21.666666666666664</ele><time>2026-05-03T10:03:42.858Z</time></trkpt><trkpt lat="37.111961737035436" lon="14.054488572179402"><ele>21.333333333333332</ele><time>2026-05-03T10:03:43.858Z</time></trkpt><trkpt lat="37.111857142934824" lon="14.054258925652295"><ele>21.0</ele><time>2026-05-03T10:03:44.858Z</time></trkpt><trkpt lat="37.111755407834394" lon="14.054032263219554"><ele>22.0</ele><time>2026-05-03T10:03:45.858Z</time></trkpt><trkpt lat="37.11165577333592" lon="14.053808852885489"><ele>23.0</ele><time>2026-05-03T10:03:46.858Z</time></trkpt><trkpt lat="37.111559183410144" lon="14.053583553941404"><ele>24.0</ele><time>2026-05-03T10:03:47.858Z</time></trkpt><trkpt lat="37.111471327890236" lon="14.053354881127474"><ele>23.333333333333332</ele><time>2026-05-03T10:03:48.858Z</time></trkpt><trkpt lat="37.11140332632405" lon="14.05311977527624"><ele>22.666666666666664</ele><time>2026-05-03T10:03:49.857Z</time></trkpt><trkpt lat="37.111353370064194" lon="14.05287619072594"><ele>22.0</ele><time>2026-05-03T10:03:50.857Z</time></trkpt><trkpt lat="37.111317699478924" lon="14.052622143512556"><ele>21.666666666666664</ele><time>2026-05-03T10:03:51.857Z</time></trkpt><trkpt lat="37.1112887336523" lon="14.052365519013158"><ele>21.333333333333332</ele><time>2026-05-03T10:03:52.857Z</time></trkpt><trkpt lat="37.11125962955534" lon="14.05210905069856"><ele>21.0</ele><time>2026-05-03T10:03:53.857Z</time></trkpt><trkpt lat="37.11123141666611" lon="14.051855291092126"><ele>20.0</ele><time>2026-05-03T10:03:54.857Z</time></trkpt><trkpt lat="37.11120459539212" lon="14.051598741015157"><ele>19.0</ele><time>2026-05-03T10:03:55.857Z</time></trkpt><trkpt lat="37.11117764995606" lon="14.05134348781394"><ele>18.0</ele><time>2026-05-03T10:03:56.857Z</time></trkpt><trkpt lat="37.111146767034576" lon="14.051087484550637"><ele>18.0</ele><time>2026-05-03T10:03:57.857Z</time></trkpt><trkpt lat="37.111117737303026" lon="14.050830087386274"><ele>18.0</ele><time>2026-05-03T10:03:58.857Z</time></trkpt><trkpt lat="37.111086362313" lon="14.050574940156839"><ele>18.0</ele><time>2026-05-03T10:03:59.857Z</time></trkpt><trkpt lat="37.111048469435616" lon="14.050321292598998"><ele>18.0</ele><time>2026-05-03T10:04:00.857Z</time></trkpt><trkpt lat="37.11101187875535" lon="14.050069879983457"><ele>18.0</ele><time>2026-05-03T10:04:01.857Z</time></trkpt><trkpt lat="37.11098402033897" lon="14.04981742228172"><ele>18.0</ele><time>2026-05-03T10:04:02.857Z</time></trkpt><trkpt lat="37.110969480111606" lon="14.049560973899974"><ele>17.666666666666668</ele><time>2026-05-03T10:04:03.857Z</time></trkpt><trkpt lat="37.11097666201383" lon="14.049302187741393"><ele>17.333333333333336</ele><time>2026-05-03T10:04:04.857Z</time></trkpt><trkpt lat="37.11101266367448" lon="14.04904394317614"><ele>17.0</ele><time>2026-05-03T10:04:05.857Z</time></trkpt><trkpt lat="37.111066962302985" lon="14.048786598887279"><ele>16.666666666666668</ele><time>2026-05-03T10:04:06.857Z</time></trkpt><trkpt lat="37.11112719333632" lon="14.04852459709554"><ele>16.333333333333332</ele><time>2026-05-03T10:04:07.857Z</time></trkpt><trkpt lat="37.11118974927331" lon="14.04825769843056"><ele>16.0</ele><time>2026-05-03T10:04:08.857Z</time></trkpt><trkpt lat="37.11124975654347" lon="14.04798584960357"><ele>15.5</ele><time>2026-05-03T10:04:09.857Z</time></trkpt><trkpt lat="37.111313645789295" lon="14.04771115864127"><ele>15.0</ele><time>2026-05-03T10:04:10.857Z</time></trkpt><trkpt lat="37.11137496893077" lon="14.047436014257864"><ele>15.0</ele><time>2026-05-03T10:04:11.857Z</time></trkpt><trkpt lat="37.11143458161833" lon="14.047160151662247"><ele>15.0</ele><time>2026-05-03T10:04:12.857Z</time></trkpt><trkpt lat="37.11149631578575" lon="14.046887104721097"><ele>14.666666666666668</ele><time>2026-05-03T10:04:13.857Z</time></trkpt><trkpt lat="37.1115581228171" lon="14.046614299711322"><ele>14.333333333333334</ele><time>2026-05-03T10:04:14.857Z</time></trkpt><trkpt lat="37.11161649981466" lon="14.046344274396816"><ele>14.0</ele><time>2026-05-03T10:04:15.857Z</time></trkpt><trkpt lat="37.11167552361174" lon="14.046076566000968"><ele>15.333333333333334</ele><time>2026-05-03T10:04:16.857Z</time></trkpt><trkpt lat="37.11173196744007" lon="14.045809078311615"><ele>16.666666666666668</ele><time>2026-05-03T10:04:17.857Z</time></trkpt><trkpt lat="37.11178909237591" lon="14.045546267422548"><ele>18.0</ele><time>2026-05-03T10:04:18.857Z</time></trkpt><trkpt lat="37.111847890857995" lon="14.045283419045171"><ele>18.333333333333332</ele><time>2026-05-03T10:04:19.857Z</time></trkpt><trkpt lat="37.111905892368306" lon="14.045023197416308"><ele>18.666666666666664</ele><time>2026-05-03T10:04:20.857Z</time></trkpt><trkpt lat="37.111963953812115" lon="14.044765092657162"><ele>19.0</ele><time>2026-05-03T10:04:21.857Z</time></trkpt><trkpt lat="37.11202507327762" lon="14.044507816437287"><ele>19.0</ele><time>2026-05-03T10:04:22.857Z</time></trkpt><trkpt lat="37.1120861751239" lon="14.044250915238251"><ele>19.0</ele><time>2026-05-03T10:04:23.857Z</time></trkpt><trkpt lat="37.11213728297299" lon="14.043993083457982"><ele>19.0</ele><time>2026-05-03T10:04:24.857Z</time></trkpt><trkpt lat="37.11217252485495" lon="14.04373507091829"><ele>19.0</ele><time>2026-05-03T10:04:25.857Z</time></trkpt><trkpt lat="37.11219210090485" lon="14.043473333423979"><ele>19.0</ele><time>2026-05-03T10:04:26.857Z</time></trkpt><trkpt lat="37.11218699977697" lon="14.043207711981061"><ele>19.0</ele><time>2026-05-03T10:04:27.857Z</time></trkpt><trkpt lat="37.112166584457015" lon="14.042940971999464"><ele>19.0</ele><time>2026-05-03T10:04:28.857Z</time></trkpt><trkpt lat="37.11214286729702" lon="14.042672216960103"><ele>19.0</ele><time>2026-05-03T10:04:29.857Z</time></trkpt><trkpt lat="37.112119824164346" lon="14.042402606540936"><ele>19.0</ele><time>2026-05-03T10:04:30.857Z</time></trkpt><trkpt lat="37.1120994475086" lon="14.042131901520754"><ele>19.0</ele><time>2026-05-03T10:04:31.857Z</time></trkpt><trkpt lat="37.11208098203884" lon="14.04185909900651"><ele>19.0</ele><time>2026-05-03T10:04:32.857Z</time></trkpt><trkpt lat="37.112060486301644" lon="14.04158132724156"><ele>19.0</ele><time>2026-05-03T10:04:33.856Z</time></trkpt><trkpt lat="37.112039956686104" lon="14.041304057322389"><ele>19.666666666666664</ele><time>2026-05-03T10:04:34.856Z</time></trkpt><trkpt lat="37.11202352392803" lon="14.041027349752127"><ele>20.333333333333332</ele><time>2026-05-03T10:04:35.856Z</time></trkpt><trkpt lat="37.112004824519616" lon="14.04075085878312"><ele>21.0</ele><time>2026-05-03T10:04:36.856Z</time></trkpt><trkpt lat="37.111982277497376" lon="14.040477209654552"><ele>21.0</ele><time>2026-05-03T10:04:37.856Z</time></trkpt><trkpt lat="37.11196326313253" lon="14.04020572891847"><ele>21.0</ele><time>2026-05-03T10:04:38.856Z</time></trkpt><trkpt lat="37.1119425564876" lon="14.039932312946318"><ele>21.0</ele><time>2026-05-03T10:04:39.856Z</time></trkpt><trkpt lat="37.111928027139456" lon="14.039664449545883"><ele>21.333333333333332</ele><time>2026-05-03T10:04:40.856Z</time></trkpt><trkpt lat="37.11191242645085" lon="14.0393936926027"><ele>21.666666666666664</ele><time>2026-05-03T10:04:41.856Z</time></trkpt><trkpt lat="37.11189519091556" lon="14.039124774898406"><ele>22.0</ele><time>2026-05-03T10:04:42.856Z</time></trkpt><trkpt lat="37.11188575359655" lon="14.038853194773735"><ele>22.666666666666664</ele><time>2026-05-03T10:04:43.856Z</time></trkpt><trkpt lat="37.11188901799672" lon="14.038582233422987"><ele>23.333333333333332</ele><time>2026-05-03T10:04:44.856Z</time></trkpt><trkpt lat="37.11190015472098" lon="14.038313774462534"><ele>24.0</ele><time>2026-05-03T10:04:45.856Z</time></trkpt><trkpt lat="37.11191436967787" lon="14.03804824482359"><ele>24.333333333333336</ele><time>2026-05-03T10:04:46.856Z</time></trkpt><trkpt lat="37.1119249061076" lon="14.037789162462468"><ele>24.666666666666668</ele><time>2026-05-03T10:04:47.856Z</time></trkpt><trkpt lat="37.11193596255208" lon="14.03754328179138"><ele>25.0</ele><time>2026-05-03T10:04:48.856Z</time></trkpt><trkpt lat="37.11193832112165" lon="14.037309013483094"><ele>25.0</ele><time>2026-05-03T10:04:49.856Z</time></trkpt><trkpt lat="37.11192221831759" lon="14.037081917517094"><ele>25.0</ele><time>2026-05-03T10:04:50.856Z</time></trkpt><trkpt lat="37.111885353574316" lon="14.036856188389768"><ele>25.0</ele><time>2026-05-03T10:04:51.856Z</time></trkpt><trkpt lat="37.111829399499165" lon="14.036632911806558"><ele>25.0</ele><time>2026-05-03T10:04:52.856Z</time></trkpt><trkpt lat="37.111776826762764" lon="14.036395844927483"><ele>25.0</ele><time>2026-05-03T10:04:53.856Z</time></trkpt><trkpt lat="37.11174125132932" lon="14.036150410117598"><ele>25.0</ele><time>2026-05-03T10:04:54.856Z</time></trkpt><trkpt lat="37.11172692844448" lon="14.035895334950517"><ele>26.0</ele><time>2026-05-03T10:04:55.856Z</time></trkpt><trkpt lat="37.111737319988684" lon="14.035636165776024"><ele>27.0</ele><time>2026-05-03T10:04:56.856Z</time></trkpt><trkpt lat="37.11176762714815" lon="14.03537681958231"><ele>28.0</ele><time>2026-05-03T10:04:57.856Z</time></trkpt><trkpt lat="37.111812001766644" lon="14.035118417674878"><ele>28.0</ele><time>2026-05-03T10:04:58.856Z</time></trkpt><trkpt lat="37.111864715996695" lon="14.034860190994246"><ele>28.0</ele><time>2026-05-03T10:04:59.856Z</time></trkpt><trkpt lat="37.1119136912812" lon="14.034600822451031"><ele>28.0</ele><time>2026-05-03T10:05:00.856Z</time></trkpt><trkpt lat="37.1119564249296" lon="14.034337105028246"><ele>27.333333333333336</ele><time>2026-05-03T10:05:01.856Z</time></trkpt><trkpt lat="37.111993831583085" lon="14.034071975217344"><ele>26.666666666666664</ele><time>2026-05-03T10:05:02.856Z</time></trkpt><trkpt lat="37.11201241996558" lon="14.03380341493525"><ele>26.0</ele><time>2026-05-03T10:05:03.856Z</time></trkpt><trkpt lat="37.11200880703614" lon="14.033528978981526"><ele>26.333333333333332</ele><time>2026-05-03T10:05:04.856Z</time></trkpt><trkpt lat="37.11199436265684" lon="14.033252107433563"><ele>26.666666666666664</ele><time>2026-05-03T10:05:05.856Z</time></trkpt><trkpt lat="37.11197678339488" lon="14.032972200655806"><ele>27.0</ele><time>2026-05-03T10:05:06.856Z</time></trkpt><trkpt lat="37.11195882075626" lon="14.03269192124783"><ele>26.666666666666664</ele><time>2026-05-03T10:05:07.856Z</time></trkpt><trkpt lat="37.11194418158666" lon="14.032410945571423"><ele>26.333333333333332</ele><time>2026-05-03T10:05:08.856Z</time></trkpt><trkpt lat="37.11192997016914" lon="14.032129477932713"><ele>26.0</ele><time>2026-05-03T10:05:09.856Z</time></trkpt><trkpt lat="37.1119142230043" lon="14.031844736083956"><ele>25.5</ele><time>2026-05-03T10:05:10.857Z</time></trkpt><trkpt lat="37.111901131487784" lon="14.031559273054208"><ele>25.0</ele><time>2026-05-03T10:05:11.857Z</time></trkpt><trkpt lat="37.11188756432869" lon="14.031271956255374"><ele>25.0</ele><time>2026-05-03T10:05:12.857Z</time></trkpt><trkpt lat="37.11187197359438" lon="14.030983405876142"><ele>25.0</ele><time>2026-05-03T10:05:13.857Z</time></trkpt><trkpt lat="37.111856350946546" lon="14.030694927020127"><ele>27.0</ele><time>2026-05-03T10:05:14.857Z</time></trkpt><trkpt lat="37.111842639336864" lon="14.030411475554839"><ele>29.0</ele><time>2026-05-03T10:05:15.857Z</time></trkpt><trkpt lat="37.11182995097356" lon="14.03013027457241"><ele>28.333333333333332</ele><time>2026-05-03T10:05:16.857Z</time></trkpt><trkpt lat="37.11181663986624" lon="14.029851715896095"><ele>27.666666666666664</ele><time>2026-05-03T10:05:17.857Z</time></trkpt><trkpt lat="37.11180269262791" lon="14.029576701115053"><ele>27.0</ele><time>2026-05-03T10:05:18.857Z</time></trkpt><trkpt lat="37.11178853901734" lon="14.02930392347904"><ele>27.333333333333336</ele><time>2026-05-03T10:05:19.856Z</time></trkpt><trkpt lat="37.111773941435146" lon="14.029031766018418"><ele>27.666666666666668</ele><time>2026-05-03T10:05:20.856Z</time></trkpt><trkpt lat="37.11176303990406" lon="14.028758098128888"><ele>28.0</ele><time>2026-05-03T10:05:21.856Z</time></trkpt><trkpt lat="37.1117542449854" lon="14.028488327895804"><ele>28.333333333333336</ele><time>2026-05-03T10:05:22.857Z</time></trkpt><trkpt lat="37.111749544404525" lon="14.02822012321009"><ele>28.666666666666664</ele><time>2026-05-03T10:05:23.856Z</time></trkpt><trkpt lat="37.11174293306851" lon="14.027953069685323"><ele>29.0</ele><time>2026-05-03T10:05:24.856Z</time></trkpt><trkpt lat="37.11173810574625" lon="14.027687906530584"><ele>28.666666666666664</ele><time>2026-05-03T10:05:25.856Z</time></trkpt><trkpt lat="37.11173742829457" lon="14.027418296912098"><ele>28.333333333333336</ele><time>2026-05-03T10:05:26.856Z</time></trkpt><trkpt lat="37.111738359948866" lon="14.02715285766587"><ele>28.0</ele><time>2026-05-03T10:05:27.856Z</time></trkpt><trkpt lat="37.1117442901249" lon="14.026885154304745"><ele>27.333333333333336</ele><time>2026-05-03T10:05:28.856Z</time></trkpt><trkpt lat="37.11175617645316" lon="14.02661736004158"><ele>26.666666666666664</ele><time>2026-05-03T10:05:29.856Z</time></trkpt><trkpt lat="37.11177005661315" lon="14.026351360274427"><ele>26.0</ele><time>2026-05-03T10:05:30.856Z</time></trkpt><trkpt lat="37.11178516140309" lon="14.026084296717114"><ele>26.0</ele><time>2026-05-03T10:05:31.856Z</time></trkpt><trkpt lat="37.1117969240386" lon="14.02581940679773"><ele>26.0</ele><time>2026-05-03T10:05:32.856Z</time></trkpt><trkpt lat="37.111809324880404" lon="14.025552488134924"><ele>26.0</ele><time>2026-05-03T10:05:33.856Z</time></trkpt><trkpt lat="37.11182249767232" lon="14.025292163527494"><ele>26.333333333333332</ele><time>2026-05-03T10:05:34.856Z</time></trkpt><trkpt lat="37.11183357044436" lon="14.02504403446873"><ele>26.666666666666664</ele><time>2026-05-03T10:05:35.856Z</time></trkpt><trkpt lat="37.11184549095309" lon="14.024815685551223"><ele>27.0</ele><time>2026-05-03T10:05:36.856Z</time></trkpt><trkpt lat="37.1118613146713" lon="14.02459851317453"><ele>27.0</ele><time>2026-05-03T10:05:37.856Z</time></trkpt><trkpt lat="37.111891274535495" lon="14.024390818631726"><ele>27.0</ele><time>2026-05-03T10:05:38.856Z</time></trkpt><trkpt lat="37.111932468468545" lon="14.024188918950983"><ele>27.0</ele><time>2026-05-03T10:05:39.856Z</time></trkpt><trkpt lat="37.11200847961332" lon="14.024000336249037"><ele>25.666666666666668</ele><time>2026-05-03T10:05:40.856Z</time></trkpt><trkpt lat="37.11211545823324" lon="14.023821912796274"><ele>24.333333333333336</ele><time>2026-05-03T10:05:41.856Z</time></trkpt><trkpt lat="37.11222933862382" lon="14.02364470803194"><ele>23.0</ele><time>2026-05-03T10:05:42.856Z</time></trkpt><trkpt lat="37.112346288100355" lon="14.02346831295945"><ele>22.666666666666668</ele><time>2026-05-03T10:05:43.856Z</time></trkpt><trkpt lat="37.11246127332133" lon="14.02329066062818"><ele>22.333333333333332</ele><time>2026-05-03T10:05:44.856Z</time></trkpt><trkpt lat="37.11256269707132" lon="14.023123889592899"><ele>22.0</ele><time>2026-05-03T10:05:45.856Z</time></trkpt><trkpt lat="37.11264363915726" lon="14.02293965979714"><ele>22.0</ele><time>2026-05-03T10:05:46.856Z</time></trkpt><trkpt lat="37.11269744030145" lon="14.022740974790498"><ele>22.0</ele><time>2026-05-03T10:05:47.856Z</time></trkpt><trkpt lat="37.11271395020385" lon="14.022529302817038"><ele>22.0</ele><time>2026-05-03T10:05:48.856Z</time></trkpt><trkpt lat="37.11270159677439" lon="14.022311842840319"><ele>22.0</ele><time>2026-05-03T10:05:49.855Z</time></trkpt><trkpt lat="37.112659933167336" lon="14.022094141345876"><ele>22.0</ele><time>2026-05-03T10:05:50.855Z</time></trkpt><trkpt lat="37.11261050271273" lon="14.021875672786814"><ele>22.0</ele><time>2026-05-03T10:05:51.855Z</time></trkpt><trkpt lat="37.11255626349857" lon="14.021651846247206"><ele>21.333333333333332</ele><time>2026-05-03T10:05:52.855Z</time></trkpt><trkpt lat="37.1125064229957" lon="14.021420942051153"><ele>20.666666666666668</ele><time>2026-05-03T10:05:53.855Z</time></trkpt><trkpt lat="37.11245606777385" lon="14.021184362472967"><ele>20.0</ele><time>2026-05-03T10:05:54.855Z</time></trkpt><trkpt lat="37.11240209315105" lon="14.020943697660597"><ele>20.666666666666668</ele><time>2026-05-03T10:05:55.855Z</time></trkpt><trkpt lat="37.11234661108069" lon="14.020699927075661"><ele>21.333333333333332</ele><time>2026-05-03T10:05:56.855Z</time></trkpt><trkpt lat="37.112291439513925" lon="14.020450571528915"><ele>22.0</ele><time>2026-05-03T10:05:57.855Z</time></trkpt><trkpt lat="37.112235001346725" lon="14.020202269676224"><ele>23.0</ele><time>2026-05-03T10:05:58.855Z</time></trkpt><trkpt lat="37.11218066115244" lon="14.019971892351194"><ele>24.0</ele><time>2026-05-03T10:05:59.855Z</time></trkpt><trkpt lat="37.11213622281713" lon="14.01976412155765"><ele>25.0</ele><time>2026-05-03T10:06:00.855Z</time></trkpt><trkpt lat="37.112092516878256" lon="14.019573295189161"><ele>25.0</ele><time>2026-05-03T10:06:01.855Z</time></trkpt><trkpt lat="37.112052128525555" lon="14.019390182510548"><ele>25.0</ele><time>2026-05-03T10:06:02.855Z</time></trkpt><trkpt lat="37.112013653178956" lon="14.019227286989636"><ele>25.0</ele><time>2026-05-03T10:06:03.855Z</time></trkpt><trkpt lat="37.11197604619827" lon="14.019079779865228"><ele>25.0</ele><time>2026-05-03T10:06:04.855Z</time></trkpt><trkpt lat="37.111935550777034" lon="14.018931317274872"><ele>25.333333333333336</ele><time>2026-05-03T10:06:05.855Z</time></trkpt><trkpt lat="37.11190791038578" lon="14.01876339631782"><ele>25.666666666666664</ele><time>2026-05-03T10:06:06.855Z</time></trkpt><trkpt lat="37.111866742819046" lon="14.018579871174639"><ele>26.0</ele><time>2026-05-03T10:06:07.855Z</time></trkpt><trkpt lat="37.11182147337932" lon="14.018380261377667"><ele>27.0</ele><time>2026-05-03T10:06:08.855Z</time></trkpt><trkpt lat="37.11177197898966" lon="14.018161398100336"><ele>28.0</ele><time>2026-05-03T10:06:09.855Z</time></trkpt><trkpt lat="37.11172204285868" lon="14.017940581787311"><ele>29.0</ele><time>2026-05-03T10:06:10.855Z</time></trkpt><trkpt lat="37.1116621048725" lon="14.017727044269883"><ele>29.0</ele><time>2026-05-03T10:06:11.855Z</time></trkpt><trkpt lat="37.11162403319168" lon="14.017531756863578"><ele>29.0</ele><time>2026-05-03T10:06:12.855Z</time></trkpt><trkpt lat="37.11158330215343" lon="14.017337403604104"><ele>29.0</ele><time>2026-05-03T10:06:13.855Z</time></trkpt><trkpt lat="37.11153596507757" lon="14.017137619874006"><ele>27.0</ele><time>2026-05-03T10:06:14.855Z</time></trkpt><trkpt lat="37.11147677713164" lon="14.016922113110256"><ele>25.0</ele><time>2026-05-03T10:06:15.855Z</time></trkpt><trkpt lat="37.11140857787973" lon="14.0166930007672"><ele>23.0</ele><time>2026-05-03T10:06:16.855Z</time></trkpt><trkpt lat="37.111347200526595" lon="14.016486220696137"><ele>23.0</ele><time>2026-05-03T10:06:17.855Z</time></trkpt><trkpt lat="37.11128471377218" lon="14.016274955373996"><ele>23.0</ele><time>2026-05-03T10:06:18.855Z</time></trkpt><trkpt lat="37.1112155939006" lon="14.016051069479149"><ele>23.0</ele><time>2026-05-03T10:06:19.855Z</time></trkpt><trkpt lat="37.11115321029544" lon="14.015844567205773"><ele>23.333333333333336</ele><time>2026-05-03T10:06:20.855Z</time></trkpt><trkpt lat="37.11109555167176" lon="14.015655743515943"><ele>23.666666666666668</ele><time>2026-05-03T10:06:21.855Z</time></trkpt><trkpt lat="37.11104123353087" lon="14.015477856022821"><ele>24.0</ele><time>2026-05-03T10:06:22.855Z</time></trkpt><trkpt lat="37.11098961372514" lon="14.015310860015296"><ele>24.0</ele><time>2026-05-03T10:06:23.855Z</time></trkpt><trkpt lat="37.11094237017225" lon="14.015159337644377"><ele>24.0</ele><time>2026-05-03T10:06:24.855Z</time></trkpt><trkpt lat="37.110907654942686" lon="14.015038581304573"><ele>24.0</ele><time>2026-05-03T10:06:25.855Z</time></trkpt><trkpt lat="37.11087527348734" lon="14.01492985911766"><ele>24.0</ele><time>2026-05-03T10:06:26.855Z</time></trkpt><trkpt lat="37.11084584945946" lon="14.014825478412783"><ele>24.0</ele><time>2026-05-03T10:06:27.855Z</time></trkpt><trkpt lat="37.11081871033176" lon="14.014727967490671"><ele>23.833333333333332</ele><time>2026-05-03T10:06:28.855Z</time></trkpt><trkpt lat="37.11078980350627" lon="14.014633718138281"><ele>23.666666666666668</ele><time>2026-05-03T10:06:29.855Z</time></trkpt><trkpt lat="37.110761468829175" lon="14.01453573623092"><ele>23.5</ele><time>2026-05-03T10:06:30.855Z</time></trkpt><trkpt lat="37.11072949885152" lon="14.014435218475796"><ele>23.333333333333336</ele><time>2026-05-03T10:06:31.855Z</time></trkpt><trkpt lat="37.11069744137861" lon="14.014327352835332"><ele>23.166666666666668</ele><time>2026-05-03T10:06:32.854Z</time></trkpt><trkpt lat="37.110666288762914" lon="14.01421122901567"><ele>23.0</ele><time>2026-05-03T10:06:33.854Z</time></trkpt><trkpt lat="37.11063477106049" lon="14.014081684418125"><ele>21.75</ele><time>2026-05-03T10:06:34.854Z</time></trkpt><trkpt lat="37.11060298526503" lon="14.013935963049015"><ele>20.5</ele><time>2026-05-03T10:06:35.854Z</time></trkpt><trkpt lat="37.11057788149502" lon="14.013771851347625"><ele>19.25</ele><time>2026-05-03T10:06:36.854Z</time></trkpt><trkpt lat="37.11057295679612" lon="14.013585815108597"><ele>18.0</ele><time>2026-05-03T10:06:37.854Z</time></trkpt><trkpt lat="37.11059266350738" lon="14.013392627692623"><ele>17.0</ele><time>2026-05-03T10:06:38.854Z</time></trkpt><trkpt lat="37.11061833241595" lon="14.013193276819981"><ele>16.0</ele><time>2026-05-03T10:06:39.854Z</time></trkpt><trkpt lat="37.11064385624018" lon="14.012985486709272"><ele>15.0</ele><time>2026-05-03T10:06:40.854Z</time></trkpt><trkpt lat="37.110665760816644" lon="14.012777642020033"><ele>15.0</ele><time>2026-05-03T10:06:41.854Z</time></trkpt><trkpt lat="37.110688119873025" lon="14.012564403420242"><ele>15.0</ele><time>2026-05-03T10:06:42.854Z</time></trkpt><trkpt lat="37.11070774487832" lon="14.012347574565204"><ele>15.0</ele><time>2026-05-03T10:06:43.854Z</time></trkpt><trkpt lat="37.1107225206076" lon="14.012132580758353"><ele>15.0</ele><time>2026-05-03T10:06:44.854Z</time></trkpt><trkpt lat="37.110733933478734" lon="14.011916613535549"><ele>15.0</ele><time>2026-05-03T10:06:45.854Z</time></trkpt><trkpt lat="37.110739222533105" lon="14.011701611015173"><ele>15.0</ele><time>2026-05-03T10:06:46.854Z</time></trkpt><trkpt lat="37.110738902739364" lon="14.011486520417014"><ele>15.0</ele><time>2026-05-03T10:06:47.854Z</time></trkpt><trkpt lat="37.11073508350936" lon="14.011271496957505"><ele>15.0</ele><time>2026-05-03T10:06:48.854Z</time></trkpt><trkpt lat="37.11073138388637" lon="14.011055502885094"><ele>15.0</ele><time>2026-05-03T10:06:49.854Z</time></trkpt><trkpt lat="37.110727029817056" lon="14.010842206209027"><ele>14.333333333333332</ele><time>2026-05-03T10:06:50.854Z</time></trkpt><trkpt lat="37.11071891520701" lon="14.010633593325734"><ele>13.666666666666666</ele><time>2026-05-03T10:06:51.854Z</time></trkpt><trkpt lat="37.11071463228457" lon="14.010427363226976"><ele>13.0</ele><time>2026-05-03T10:06:52.854Z</time></trkpt><trkpt lat="37.11070974177518" lon="14.010221971756614"><ele>13.0</ele><time>2026-05-03T10:06:53.854Z</time></trkpt><trkpt lat="37.11070837671538" lon="14.010016096609068"><ele>13.0</ele><time>2026-05-03T10:06:54.854Z</time></trkpt><trkpt lat="37.11071324432221" lon="14.00982431544103"><ele>13.0</ele><time>2026-05-03T10:06:55.854Z</time></trkpt><trkpt lat="37.11072404163189" lon="14.009628753928567"><ele>14.666666666666666</ele><time>2026-05-03T10:06:56.854Z</time></trkpt><trkpt lat="37.110754933451545" lon="14.009426638377217"><ele>16.333333333333332</ele><time>2026-05-03T10:06:57.854Z</time></trkpt><trkpt lat="37.110809875854784" lon="14.00921408720952"><ele>18.0</ele><time>2026-05-03T10:06:58.854Z</time></trkpt><trkpt lat="37.11088810633431" lon="14.008987457627011"><ele>18.0</ele><time>2026-05-03T10:06:59.854Z</time></trkpt><trkpt lat="37.11097248424341" lon="14.00873276309617"><ele>18.0</ele><time>2026-05-03T10:07:00.854Z</time></trkpt><trkpt lat="37.11108074272222" lon="14.008466712748174"><ele>17.666666666666668</ele><time>2026-05-03T10:07:01.854Z</time></trkpt><trkpt lat="37.11116497227612" lon="14.008220394452758"><ele>17.333333333333336</ele><time>2026-05-03T10:07:02.854Z</time></trkpt><trkpt lat="37.11123326311811" lon="14.00798397249654"><ele>17.0</ele><time>2026-05-03T10:07:03.854Z</time></trkpt><trkpt lat="37.11128147018089" lon="14.007733635986765"><ele>17.333333333333336</ele><time>2026-05-03T10:07:04.854Z</time></trkpt><trkpt lat="37.11132087379871" lon="14.007492040527746"><ele>17.666666666666668</ele><time>2026-05-03T10:07:05.854Z</time></trkpt><trkpt lat="37.111359218237915" lon="14.007248763074859"><ele>18.0</ele><time>2026-05-03T10:07:06.854Z</time></trkpt><trkpt lat="37.11138017159063" lon="14.00701317811969"><ele>18.0</ele><time>2026-05-03T10:07:07.854Z</time></trkpt><trkpt lat="37.11142519775203" lon="14.006812369143075"><ele>18.0</ele><time>2026-05-03T10:07:08.854Z</time></trkpt><trkpt lat="37.1114408841329" lon="14.006629174915348"><ele>18.0</ele><time>2026-05-03T10:07:09.854Z</time></trkpt><trkpt lat="37.11141727237831" lon="14.006457049871598"><ele>19.75</ele><time>2026-05-03T10:07:10.854Z</time></trkpt><trkpt lat="37.11135102271892" lon="14.006319829661871"><ele>21.5</ele><time>2026-05-03T10:07:11.854Z</time></trkpt><trkpt lat="37.11126797573165" lon="14.00619967992494"><ele>23.25</ele><time>2026-05-03T10:07:12.854Z</time></trkpt><trkpt lat="37.11115168331337" lon="14.006111487180462"><ele>25.0</ele><time>2026-05-03T10:07:13.854Z</time></trkpt><trkpt lat="37.11101868290794" lon="14.006038684203647"><ele>25.0</ele><time>2026-05-03T10:07:14.854Z</time></trkpt><trkpt lat="37.11086740379744" lon="14.00597747618686"><ele>25.0</ele><time>2026-05-03T10:07:15.853Z</time></trkpt><trkpt lat="37.110699344009134" lon="14.00590424084647"><ele>25.0</ele><time>2026-05-03T10:07:16.855Z</time></trkpt><trkpt lat="37.11055156435636" lon="14.005838435203364"><ele>22.8</ele><time>2026-05-03T10:07:17.855Z</time></trkpt><trkpt lat="37.11041981235686" lon="14.005778994512513"><ele>20.6</ele><time>2026-05-03T10:07:18.855Z</time></trkpt><trkpt lat="37.11032511717211" lon="14.005711930948458"><ele>18.4</ele><time>2026-05-03T10:07:19.855Z</time></trkpt><trkpt lat="37.11026209945868" lon="14.005636014698425"><ele>16.2</ele><time>2026-05-03T10:07:20.855Z</time></trkpt><trkpt lat="37.110227642757756" lon="14.005541004191745"><ele>14.0</ele><time>2026-05-03T10:07:21.855Z</time></trkpt><trkpt lat="37.1102103981706" lon="14.005415430452365"><ele>14.0</ele><time>2026-05-03T10:07:22.855Z</time></trkpt><trkpt lat="37.11020743114202" lon="14.005265361270347"><ele>14.0</ele><time>2026-05-03T10:07:23.855Z</time></trkpt><trkpt lat="37.11023191428497" lon="14.005099430630663"><ele>14.0</ele><time>2026-05-03T10:07:24.855Z</time></trkpt><trkpt lat="37.11028831970493" lon="14.004932043238812"><ele>14.0</ele><time>2026-05-03T10:07:25.855Z</time></trkpt><trkpt lat="37.11037520429548" lon="14.004764609392101"><ele>11.333333333333334</ele><time>2026-05-03T10:07:26.855Z</time></trkpt><trkpt lat="37.11047583054716" lon="14.004601091072567"><ele>8.666666666666668</ele><time>2026-05-03T10:07:27.855Z</time></trkpt><trkpt lat="37.11057901610067" lon="14.004445640302709"><ele>6.0</ele><time>2026-05-03T10:07:28.855Z</time></trkpt><trkpt lat="37.11066543866795" lon="14.00430655040382"><ele>5.75</ele><time>2026-05-03T10:07:29.854Z</time></trkpt><trkpt lat="37.11073012498494" lon="14.004152724767057"><ele>5.5</ele><time>2026-05-03T10:07:30.854Z</time></trkpt><trkpt lat="37.11076534870978" lon="14.003972910102735"><ele>5.25</ele><time>2026-05-03T10:07:31.854Z</time></trkpt><trkpt lat="37.11076090050198" lon="14.003769894089215"><ele>5.0</ele><time>2026-05-03T10:07:32.854Z</time></trkpt><trkpt lat="37.11072560248636" lon="14.0035364339627"><ele>6.0</ele><time>2026-05-03T10:07:33.854Z</time></trkpt><trkpt lat="37.110693025563464" lon="14.00328758616928"><ele>7.0</ele><time>2026-05-03T10:07:34.854Z</time></trkpt><trkpt lat="37.110693082348696" lon="14.003024464541681"><ele>8.0</ele><time>2026-05-03T10:07:35.854Z</time></trkpt><trkpt lat="37.110717195469945" lon="14.00276286444147"><ele>11.333333333333332</ele><time>2026-05-03T10:07:36.854Z</time></trkpt><trkpt lat="37.1107484706765" lon="14.00252818454429"><ele>14.666666666666666</ele><time>2026-05-03T10:07:37.854Z</time></trkpt><trkpt lat="37.110776181629895" lon="14.00229875242908"><ele>18.0</ele><time>2026-05-03T10:07:38.854Z</time></trkpt><trkpt lat="37.110803120499895" lon="14.002067294128626"><ele>18.0</ele><time>2026-05-03T10:07:39.854Z</time></trkpt><trkpt lat="37.11083190028685" lon="14.001830675009385"><ele>18.0</ele><time>2026-05-03T10:07:40.854Z</time></trkpt><trkpt lat="37.11085922627036" lon="14.001595680021135"><ele>18.0</ele><time>2026-05-03T10:07:41.854Z</time></trkpt><trkpt lat="37.11088376050593" lon="14.001366281029037"><ele>17.333333333333332</ele><time>2026-05-03T10:07:42.854Z</time></trkpt><trkpt lat="37.110905924125056" lon="14.00113390958926"><ele>16.666666666666664</ele><time>2026-05-03T10:07:43.854Z</time></trkpt><trkpt lat="37.11092931190413" lon="14.000899228478481"><ele>16.0</ele><time>2026-05-03T10:07:44.854Z</time></trkpt><trkpt lat="37.11095486447551" lon="14.000664860263676"><ele>16.0</ele><time>2026-05-03T10:07:45.854Z</time></trkpt><trkpt lat="37.110984798823644" lon="14.000429574819085"><ele>16.0</ele><time>2026-05-03T10:07:46.854Z</time></trkpt><trkpt lat="37.11100939194194" lon="14.000199021591483"><ele>16.0</ele><time>2026-05-03T10:07:47.854Z</time></trkpt><trkpt lat="37.11102984795582" lon="13.999988682523291"><ele>16.0</ele><time>2026-05-03T10:07:48.854Z</time></trkpt><trkpt lat="37.11105114302575" lon="13.999785528376535"><ele>16.0</ele><time>2026-05-03T10:07:49.854Z</time></trkpt><trkpt lat="37.11107288688327" lon="13.999586666412915"><ele>16.0</ele><time>2026-05-03T10:07:50.854Z</time></trkpt><trkpt lat="37.11109402922891" lon="13.999392795125486"><ele>16.0</ele><time>2026-05-03T10:07:51.854Z</time></trkpt><trkpt lat="37.11111688815894" lon="13.999198476816078"><ele>16.0</ele><time>2026-05-03T10:07:52.854Z</time></trkpt><trkpt lat="37.111142495187664" lon="13.998997615788706"><ele>16.0</ele><time>2026-05-03T10:07:53.854Z</time></trkpt><trkpt lat="37.111157827662865" lon="13.99879398893773"><ele>15.0</ele><time>2026-05-03T10:07:54.854Z</time></trkpt><trkpt lat="37.111171126307205" lon="13.998594376735884"><ele>14.0</ele><time>2026-05-03T10:07:55.854Z</time></trkpt><trkpt lat="37.11119399887884" lon="13.998401714488809"><ele>13.0</ele><time>2026-05-03T10:07:56.854Z</time></trkpt><trkpt lat="37.11121567883638" lon="13.998211457133356"><ele>12.25</ele><time>2026-05-03T10:07:57.854Z</time></trkpt><trkpt lat="37.11123626994787" lon="13.998022177957562"><ele>11.5</ele><time>2026-05-03T10:07:58.854Z</time></trkpt><trkpt lat="37.11125447249966" lon="13.997834676832186"><ele>10.75</ele><time>2026-05-03T10:07:59.854Z</time></trkpt><trkpt lat="37.11126686050033" lon="13.997659127212692"><ele>10.0</ele><time>2026-05-03T10:08:00.854Z</time></trkpt><trkpt lat="37.111279845251424" lon="13.997476677100098"><ele>9.666666666666668</ele><time>2026-05-03T10:08:01.854Z</time></trkpt><trkpt lat="37.11129762977154" lon="13.997286974855793"><ele>9.333333333333334</ele><time>2026-05-03T10:08:02.854Z</time></trkpt><trkpt lat="37.11131662882662" lon="13.997102574522545"><ele>9.0</ele><time>2026-05-03T10:08:03.854Z</time></trkpt><trkpt lat="37.11134019991947" lon="13.996913459564919"><ele>9.0</ele><time>2026-05-03T10:08:04.854Z</time></trkpt><trkpt lat="37.111364111541754" lon="13.99671552393714"><ele>9.0</ele><time>2026-05-03T10:08:05.854Z</time></trkpt><trkpt lat="37.111385684620814" lon="13.99650932565265"><ele>9.0</ele><time>2026-05-03T10:08:06.854Z</time></trkpt><trkpt lat="37.111403420584686" lon="13.996300128038811"><ele>8.333333333333334</ele><time>2026-05-03T10:08:07.854Z</time></trkpt><trkpt lat="37.111428078111594" lon="13.996090390188318"><ele>7.666666666666667</ele><time>2026-05-03T10:08:08.853Z</time></trkpt><trkpt lat="37.111454079990665" lon="13.995881031574884"><ele>7.0</ele><time>2026-05-03T10:08:09.853Z</time></trkpt><trkpt lat="37.11148024757725" lon="13.995669701922658"><ele>6.666666666666667</ele><time>2026-05-03T10:08:10.853Z</time></trkpt><trkpt lat="37.11150540950528" lon="13.995462044759803"><ele>6.333333333333334</ele><time>2026-05-03T10:08:11.853Z</time></trkpt><trkpt lat="37.1115277370631" lon="13.995254664162484"><ele>6.0</ele><time>2026-05-03T10:08:12.853Z</time></trkpt><trkpt lat="37.111551216932156" lon="13.99504318858596"><ele>6.0</ele><time>2026-05-03T10:08:13.853Z</time></trkpt><trkpt lat="37.11157251361626" lon="13.994832829528551"><ele>6.0</ele><time>2026-05-03T10:08:14.853Z</time></trkpt><trkpt lat="37.111591824010524" lon="13.994620251555856"><ele>6.0</ele><time>2026-05-03T10:08:15.853Z</time></trkpt><trkpt lat="37.111610042194314" lon="13.994406632156252"><ele>8.0</ele><time>2026-05-03T10:08:16.853Z</time></trkpt><trkpt lat="37.11162585001316" lon="13.99419463811067"><ele>10.0</ele><time>2026-05-03T10:08:17.853Z</time></trkpt><trkpt lat="37.111638778941376" lon="13.993980663310444"><ele>12.0</ele><time>2026-05-03T10:08:18.853Z</time></trkpt><trkpt lat="37.111645673951" lon="13.993765283241016"><ele>12.0</ele><time>2026-05-03T10:08:19.853Z</time></trkpt><trkpt lat="37.111650752962575" lon="13.993552152627938"><ele>12.0</ele><time>2026-05-03T10:08:20.853Z</time></trkpt><trkpt lat="37.11165004576069" lon="13.993340704206334"><ele>12.0</ele><time>2026-05-03T10:08:21.853Z</time></trkpt><trkpt lat="37.11164706801875" lon="13.993130066111943"><ele>11.0</ele><time>2026-05-03T10:08:22.853Z</time></trkpt><trkpt lat="37.11165253785118" lon="13.99292443732301"><ele>10.0</ele><time>2026-05-03T10:08:23.853Z</time></trkpt><trkpt lat="37.11165697853712" lon="13.992719124338546"><ele>9.0</ele><time>2026-05-03T10:08:24.853Z</time></trkpt><trkpt lat="37.111662115606755" lon="13.992515508143086"><ele>8.666666666666666</ele><time>2026-05-03T10:08:25.853Z</time></trkpt><trkpt lat="37.111667509407994" lon="13.99231359406799"><ele>8.333333333333332</ele><time>2026-05-03T10:08:26.853Z</time></trkpt><trkpt lat="37.11167441315258" lon="13.99211015436492"><ele>8.0</ele><time>2026-05-03T10:08:27.853Z</time></trkpt><trkpt lat="37.11167971109524" lon="13.991903048612432"><ele>8.0</ele><time>2026-05-03T10:08:28.853Z</time></trkpt><trkpt lat="37.11168348516659" lon="13.9916891550183"><ele>8.0</ele><time>2026-05-03T10:08:29.853Z</time></trkpt><trkpt lat="37.11169642930224" lon="13.991473979742235"><ele>8.0</ele><time>2026-05-03T10:08:30.853Z</time></trkpt><trkpt lat="37.11170806926497" lon="13.991257467419295"><ele>8.333333333333332</ele><time>2026-05-03T10:08:31.853Z</time></trkpt><trkpt lat="37.11172184688037" lon="13.99104532813287"><ele>8.666666666666666</ele><time>2026-05-03T10:08:32.853Z</time></trkpt><trkpt lat="37.11173147588573" lon="13.990830750735814"><ele>9.0</ele><time>2026-05-03T10:08:33.853Z</time></trkpt><trkpt lat="37.111741820401626" lon="13.990614032571218"><ele>8.666666666666666</ele><time>2026-05-03T10:08:34.853Z</time></trkpt><trkpt lat="37.11175488060964" lon="13.99039709642504"><ele>8.333333333333332</ele><time>2026-05-03T10:08:35.853Z</time></trkpt><trkpt lat="37.11176650707055" lon="13.990182011715468"><ele>8.0</ele><time>2026-05-03T10:08:36.853Z</time></trkpt><trkpt lat="37.11177977231548" lon="13.989963167846819"><ele>8.0</ele><time>2026-05-03T10:08:37.853Z</time></trkpt><trkpt lat="37.11179250715456" lon="13.989743596833765"><ele>8.0</ele><time>2026-05-03T10:08:38.853Z</time></trkpt><trkpt lat="37.11180370199039" lon="13.989523823289964"><ele>8.0</ele><time>2026-05-03T10:08:39.853Z</time></trkpt><trkpt lat="37.11181270672298" lon="13.989304883063514"><ele>7.333333333333333</ele><time>2026-05-03T10:08:40.853Z</time></trkpt><trkpt lat="37.1118245332857" lon="13.98908468412048"><ele>6.666666666666666</ele><time>2026-05-03T10:08:41.853Z</time></trkpt><trkpt lat="37.1118373229441" lon="13.988864440895947"><ele>6.0</ele><time>2026-05-03T10:08:42.853Z</time></trkpt><trkpt lat="37.111850629050416" lon="13.988641053595382"><ele>6.0</ele><time>2026-05-03T10:08:43.853Z</time></trkpt><trkpt lat="37.11185970456135" lon="13.988424103894976"><ele>6.0</ele><time>2026-05-03T10:08:44.853Z</time></trkpt><trkpt lat="37.11187303815441" lon="13.988203668335498"><ele>6.0</ele><time>2026-05-03T10:08:45.853Z</time></trkpt><trkpt lat="37.11188660370463" lon="13.987980997100461"><ele>6.333333333333334</ele><time>2026-05-03T10:08:46.853Z</time></trkpt><trkpt lat="37.11189981471753" lon="13.987760654747827"><ele>6.666666666666667</ele><time>2026-05-03T10:08:47.853Z</time></trkpt><trkpt lat="37.11191241085387" lon="13.987544289460915"><ele>7.0</ele><time>2026-05-03T10:08:48.853Z</time></trkpt><trkpt lat="37.11192348550954" lon="13.987329501819776"><ele>7.333333333333334</ele><time>2026-05-03T10:08:49.853Z</time></trkpt><trkpt lat="37.11193399246878" lon="13.987116609021566"><ele>7.666666666666666</ele><time>2026-05-03T10:08:50.853Z</time></trkpt><trkpt lat="37.11194343506205" lon="13.986909912003467"><ele>8.0</ele><time>2026-05-03T10:08:51.852Z</time></trkpt><trkpt lat="37.111946240458124" lon="13.986710843779978"><ele>8.0</ele><time>2026-05-03T10:08:52.852Z</time></trkpt><trkpt lat="37.11197205380597" lon="13.98651213371695"><ele>8.0</ele><time>2026-05-03T10:08:53.852Z</time></trkpt><trkpt lat="37.111983896516925" lon="13.986308770873416"><ele>8.0</ele><time>2026-05-03T10:08:54.852Z</time></trkpt><trkpt lat="37.11199604175484" lon="13.98610020988146"><ele>8.0</ele><time>2026-05-03T10:08:55.852Z</time></trkpt><trkpt lat="37.11200838350383" lon="13.985884775798128"><ele>8.0</ele><time>2026-05-03T10:08:56.852Z</time></trkpt><trkpt lat="37.112021108608594" lon="13.985663566653097"><ele>8.0</ele><time>2026-05-03T10:08:57.852Z</time></trkpt><trkpt lat="37.11203413016717" lon="13.985443574934745"><ele>7.666666666666666</ele><time>2026-05-03T10:08:58.852Z</time></trkpt><trkpt lat="37.112045539033765" lon="13.985224215233204"><ele>7.333333333333334</ele><time>2026-05-03T10:08:59.852Z</time></trkpt><trkpt lat="37.112059942578966" lon="13.985004675348529"><ele>7.0</ele><time>2026-05-03T10:09:00.852Z</time></trkpt><trkpt lat="37.112072572226204" lon="13.984789938355311"><ele>6.666666666666667</ele><time>2026-05-03T10:09:01.852Z</time></trkpt><trkpt lat="37.112085362686045" lon="13.98457246209419"><ele>6.333333333333334</ele><time>2026-05-03T10:09:02.852Z</time></trkpt><trkpt lat="37.11209599701446" lon="13.984361652739528"><ele>6.0</ele><time>2026-05-03T10:09:03.852Z</time></trkpt><trkpt lat="37.11209441885638" lon="13.984148646774452"><ele>6.666666666666666</ele><time>2026-05-03T10:09:04.852Z</time></trkpt><trkpt lat="37.112108713980795" lon="13.98393431395854"><ele>7.333333333333333</ele><time>2026-05-03T10:09:05.852Z</time></trkpt><trkpt lat="37.112121647704164" lon="13.983717391712137"><ele>8.0</ele><time>2026-05-03T10:09:06.852Z</time></trkpt><trkpt lat="37.112134315893485" lon="13.983499125138325"><ele>7.333333333333333</ele><time>2026-05-03T10:09:07.852Z</time></trkpt><trkpt lat="37.112149118303044" lon="13.983284415383196"><ele>6.666666666666666</ele><time>2026-05-03T10:09:08.852Z</time></trkpt><trkpt lat="37.112161717051634" lon="13.983068357248058"><ele>6.0</ele><time>2026-05-03T10:09:09.852Z</time></trkpt><trkpt lat="37.11217394586097" lon="13.982849135712907"><ele>6.0</ele><time>2026-05-03T10:09:10.852Z</time></trkpt><trkpt lat="37.11218806038095" lon="13.982627349772274"><ele>6.0</ele><time>2026-05-03T10:09:11.852Z</time></trkpt><trkpt lat="37.112201433454445" lon="13.982406231653068"><ele>6.0</ele><time>2026-05-03T10:09:12.852Z</time></trkpt><trkpt lat="37.112213244203524" lon="13.982183916782073"><ele>6.0</ele><time>2026-05-03T10:09:13.852Z</time></trkpt><trkpt lat="37.1122285098324" lon="13.981964436922452"><ele>6.0</ele><time>2026-05-03T10:09:14.852Z</time></trkpt><trkpt lat="37.112241910231475" lon="13.981745824330984"><ele>6.0</ele><time>2026-05-03T10:09:15.852Z</time></trkpt><trkpt lat="37.11225464320502" lon="13.981529950687936"><ele>5.666666666666667</ele><time>2026-05-03T10:09:16.852Z</time></trkpt><trkpt lat="37.11226505347821" lon="13.981310090134238"><ele>5.333333333333334</ele><time>2026-05-03T10:09:17.852Z</time></trkpt><trkpt lat="37.112281621149876" lon="13.9810906330546"><ele>5.0</ele><time>2026-05-03T10:09:18.852Z</time></trkpt><trkpt lat="37.112295038307295" lon="13.980874102789517"><ele>5.333333333333334</ele><time>2026-05-03T10:09:19.852Z</time></trkpt><trkpt lat="37.112301967736336" lon="13.98065877867922"><ele>5.666666666666667</ele><time>2026-05-03T10:09:20.852Z</time></trkpt><trkpt lat="37.1123006681171" lon="13.980440958058093"><ele>6.0</ele><time>2026-05-03T10:09:21.852Z</time></trkpt><trkpt lat="37.11229153731646" lon="13.98021727854215"><ele>6.0</ele><time>2026-05-03T10:09:22.853Z</time></trkpt><trkpt lat="37.112280932157624" lon="13.979992520684466"><ele>6.0</ele><time>2026-05-03T10:09:23.852Z</time></trkpt><trkpt lat="37.11227482363038" lon="13.979769730111759"><ele>6.0</ele><time>2026-05-03T10:09:24.852Z</time></trkpt><trkpt lat="37.112265958984466" lon="13.97955021343866"><ele>6.0</ele><time>2026-05-03T10:09:25.853Z</time></trkpt><trkpt lat="37.112255199610715" lon="13.979336307882766"><ele>6.0</ele><time>2026-05-03T10:09:26.852Z</time></trkpt><trkpt lat="37.112244661011054" lon="13.979126898894043"><ele>6.0</ele><time>2026-05-03T10:09:27.852Z</time></trkpt><trkpt lat="37.11223595856611" lon="13.978923044828116"><ele>6.0</ele><time>2026-05-03T10:09:28.853Z</time></trkpt><trkpt lat="37.11222842890448" lon="13.978725962013577"><ele>6.0</ele><time>2026-05-03T10:09:29.853Z</time></trkpt><trkpt lat="37.11222223429175" lon="13.978530438289505"><ele>6.0</ele><time>2026-05-03T10:09:30.853Z</time></trkpt><trkpt lat="37.11221292343991" lon="13.978333619354379"><ele>6.0</ele><time>2026-05-03T10:09:31.853Z</time></trkpt><trkpt lat="37.11220604219258" lon="13.978130594674269"><ele>6.0</ele><time>2026-05-03T10:09:32.852Z</time></trkpt><trkpt lat="37.11220405980315" lon="13.977929907382247"><ele>6.0</ele><time>2026-05-03T10:09:33.852Z</time></trkpt><trkpt lat="37.112193816077436" lon="13.977709077514454"><ele>6.333333333333334</ele><time>2026-05-03T10:09:34.853Z</time></trkpt><trkpt lat="37.11217617599216" lon="13.977489811566294"><ele>6.666666666666667</ele><time>2026-05-03T10:09:35.852Z</time></trkpt><trkpt lat="37.112162163349225" lon="13.977282592774781"><ele>7.0</ele><time>2026-05-03T10:09:36.852Z</time></trkpt><trkpt lat="37.11215621528891" lon="13.977083321108204"><ele>7.0</ele><time>2026-05-03T10:09:37.852Z</time></trkpt><trkpt lat="37.11214607094346" lon="13.976891273370711"><ele>7.0</ele><time>2026-05-03T10:09:38.852Z</time></trkpt><trkpt lat="37.11213645396207" lon="13.976700564149375"><ele>7.0</ele><time>2026-05-03T10:09:39.852Z</time></trkpt><trkpt lat="37.11212783478483" lon="13.976511820577256"><ele>7.0</ele><time>2026-05-03T10:09:40.852Z</time></trkpt><trkpt lat="37.11211551740429" lon="13.97633081938836"><ele>7.0</ele><time>2026-05-03T10:09:41.852Z</time></trkpt><trkpt lat="37.11210520560227" lon="13.976151259378241"><ele>7.0</ele><time>2026-05-03T10:09:42.852Z</time></trkpt><trkpt lat="37.11209678418924" lon="13.975981456845341"><ele>7.0</ele><time>2026-05-03T10:09:43.852Z</time></trkpt><trkpt lat="37.112089913008425" lon="13.975829669146314"><ele>7.000000000000001</ele><time>2026-05-03T10:09:44.852Z</time></trkpt><trkpt lat="37.11208124406392" lon="13.975694643379908"><ele>7.0</ele><time>2026-05-03T10:09:45.852Z</time></trkpt><trkpt lat="37.11207335700325" lon="13.975576310369544"><ele>7.0</ele><time>2026-05-03T10:09:46.852Z</time></trkpt><trkpt lat="37.11206807349915" lon="13.975478094120538"><ele>7.0</ele><time>2026-05-03T10:09:47.852Z</time></trkpt><trkpt lat="37.11206271972352" lon="13.97539514344914"><ele>7.000000000000001</ele><time>2026-05-03T10:09:48.852Z</time></trkpt><trkpt lat="37.11204833961996" lon="13.97528829614028"><ele>7.0</ele><time>2026-05-03T10:09:50.852Z</time></trkpt><trkpt lat="37.1120547108671" lon="13.975152751908135"><ele>7.0</ele><time>2026-05-03T10:09:52.852Z</time></trkpt><trkpt lat="37.11186921741517" lon="13.975008632940627"><ele>7.0</ele><time>2026-05-03T10:09:54.852Z</time></trkpt><trkpt lat="37.11179403807648" lon="13.97492345803062"><ele>7.0</ele><time>2026-05-03T10:09:55.852Z</time></trkpt><trkpt lat="37.11171769808183" lon="13.974822378322846"><ele>7.0</ele><time>2026-05-03T10:09:56.852Z</time></trkpt><trkpt lat="37.11163363628726" lon="13.974712270144625"><ele>7.0</ele><time>2026-05-03T10:09:57.852Z</time></trkpt><trkpt lat="37.11155392943421" lon="13.974574767390573"><ele>7.0</ele><time>2026-05-03T10:09:58.852Z</time></trkpt><trkpt lat="37.11145263438469" lon="13.974455167240555"><ele>7.0</ele><time>2026-05-03T10:09:59.852Z</time></trkpt><trkpt lat="37.11135003619711" lon="13.97430805643044"><ele>7.0</ele><time>2026-05-03T10:10:00.852Z</time></trkpt><trkpt lat="37.11124405556543" lon="13.974165549995751"><ele>7.0</ele><time>2026-05-03T10:10:01.852Z</time></trkpt><trkpt lat="37.11114056216304" lon="13.97401382510839"><ele>7.0</ele><time>2026-05-03T10:10:02.852Z</time></trkpt><trkpt lat="37.111042638815654" lon="13.973856269456586"><ele>7.0</ele><time>2026-05-03T10:10:03.852Z</time></trkpt><trkpt lat="37.11093623598448" lon="13.973682294458717"><ele>7.0</ele><time>2026-05-03T10:10:04.852Z</time></trkpt><trkpt lat="37.1108135645405" lon="13.973512564614689"><ele>7.0</ele><time>2026-05-03T10:10:05.852Z</time></trkpt><trkpt lat="37.110690520718194" lon="13.973345567115235"><ele>7.0</ele><time>2026-05-03T10:10:06.851Z</time></trkpt><trkpt lat="37.1105798674528" lon="13.973179997054702"><ele>7.333333333333334</ele><time>2026-05-03T10:10:07.851Z</time></trkpt><trkpt lat="37.1104704016228" lon="13.973012919789968"><ele>7.666666666666666</ele><time>2026-05-03T10:10:08.851Z</time></trkpt><trkpt lat="37.110355991328326" lon="13.972858557380896"><ele>8.0</ele><time>2026-05-03T10:10:09.851Z</time></trkpt><trkpt lat="37.11024462044605" lon="13.972703715416026"><ele>8.0</ele><time>2026-05-03T10:10:10.851Z</time></trkpt><trkpt lat="37.110140938696" lon="13.972545967542729"><ele>8.0</ele><time>2026-05-03T10:10:11.851Z</time></trkpt><trkpt lat="37.1100369697719" lon="13.972387567001157"><ele>8.0</ele><time>2026-05-03T10:10:12.851Z</time></trkpt><trkpt lat="37.10993748840629" lon="13.97223141824086"><ele>7.666666666666666</ele><time>2026-05-03T10:10:13.851Z</time></trkpt><trkpt lat="37.109840968361496" lon="13.972070260518745"><ele>7.333333333333334</ele><time>2026-05-03T10:10:14.851Z</time></trkpt><trkpt lat="37.109749217894134" lon="13.97190726044939"><ele>7.0</ele><time>2026-05-03T10:10:15.851Z</time></trkpt><trkpt lat="37.10966314170245" lon="13.971735361784946"><ele>6.666666666666667</ele><time>2026-05-03T10:10:16.851Z</time></trkpt><trkpt lat="37.109584226665305" lon="13.971550662965294"><ele>6.333333333333334</ele><time>2026-05-03T10:10:17.851Z</time></trkpt><trkpt lat="37.10951097360457" lon="13.971361831583561"><ele>6.0</ele><time>2026-05-03T10:10:18.851Z</time></trkpt><trkpt lat="37.10944758781466" lon="13.971173758212473"><ele>6.0</ele><time>2026-05-03T10:10:19.851Z</time></trkpt><trkpt lat="37.10938866034462" lon="13.970990863676699"><ele>6.0</ele><time>2026-05-03T10:10:20.851Z</time></trkpt><trkpt lat="37.109338676657025" lon="13.970808191197458"><ele>6.0</ele><time>2026-05-03T10:10:21.851Z</time></trkpt><trkpt lat="37.10929667923263" lon="13.970624505800206"><ele>6.25</ele><time>2026-05-03T10:10:22.851Z</time></trkpt><trkpt lat="37.10925624534458" lon="13.970452789049792"><ele>6.5</ele><time>2026-05-03T10:10:23.851Z</time></trkpt><trkpt lat="37.10922254624913" lon="13.970298715920295"><ele>6.75</ele><time>2026-05-03T10:10:24.851Z</time></trkpt><trkpt lat="37.10919246795356" lon="13.970154822793386"><ele>7.0</ele><time>2026-05-03T10:10:25.851Z</time></trkpt><trkpt lat="37.10916350593824" lon="13.970025510742657"><ele>7.0</ele><time>2026-05-03T10:10:26.851Z</time></trkpt></trkseg></trk></gpx>